<?xml version='1.0' encoding='UTF-8'?>
<gpx version="1.1" creator="https://www.komoot.de" xmlns="http://www.topografix.com/GPX/1/1" xmlns:xsi="http://www.w3.org/2001/XMLSchema-instance" xsi:schemaLocation="http://www.topografix.com/GPX/1/1 http://www.topografix.com/GPX/1/1/gpx.xsd">
  <metadata>
    <name>Radtour 16a, Herrnbaumgartner Hügeltour</name>
    <author>
      <link href="https://www.komoot.de">
        <text>komoot</text>
        <type>text/html</type>
      </link>
    </author>
  </metadata>
  <trk>
    <name>Radtour 16a, Herrnbaumgartner Hügeltour</name>
    <trkseg>
      <trkpt lat="48.583911" lon="16.649066">
        <ele>236.103749</ele>
        <time>2020-08-13T03:36:38.507Z</time>
      </trkpt>
      <trkpt lat="48.584016" lon="16.649058">
        <ele>236.103749</ele>
        <time>2020-08-13T03:36:45.436Z</time>
      </trkpt>
      <trkpt lat="48.584095" lon="16.648979">
        <ele>236.103749</ele>
        <time>2020-08-13T03:36:48.435Z</time>
      </trkpt>
      <trkpt lat="48.584194" lon="16.648873">
        <ele>236.103749</ele>
        <time>2020-08-13T03:36:51.445Z</time>
      </trkpt>
      <trkpt lat="48.584303" lon="16.648781">
        <ele>236.103749</ele>
        <time>2020-08-13T03:36:54.441Z</time>
      </trkpt>
      <trkpt lat="48.584418" lon="16.648684">
        <ele>236.103749</ele>
        <time>2020-08-13T03:36:57.439Z</time>
      </trkpt>
      <trkpt lat="48.584535" lon="16.648669">
        <ele>236.103749</ele>
        <time>2020-08-13T03:37:00.442Z</time>
      </trkpt>
      <trkpt lat="48.584628" lon="16.648782">
        <ele>236.103749</ele>
        <time>2020-08-13T03:37:03.432Z</time>
      </trkpt>
      <trkpt lat="48.584719" lon="16.648912">
        <ele>236.149161</ele>
        <time>2020-08-13T03:37:06.446Z</time>
      </trkpt>
      <trkpt lat="48.584805" lon="16.649056">
        <ele>236.293693</ele>
        <time>2020-08-13T03:37:09.441Z</time>
      </trkpt>
      <trkpt lat="48.584898" lon="16.649201">
        <ele>236.444155</ele>
        <time>2020-08-13T03:37:12.469Z</time>
      </trkpt>
      <trkpt lat="48.584971" lon="16.649291">
        <ele>236.550243</ele>
        <time>2020-08-13T03:37:14.444Z</time>
      </trkpt>
      <trkpt lat="48.585042" lon="16.649383">
        <ele>236.655558</ele>
        <time>2020-08-13T03:37:16.429Z</time>
      </trkpt>
      <trkpt lat="48.585118" lon="16.649478">
        <ele>236.766620</ele>
        <time>2020-08-13T03:37:18.441Z</time>
      </trkpt>
      <trkpt lat="48.585197" lon="16.649569">
        <ele>236.878476</ele>
        <time>2020-08-13T03:37:20.442Z</time>
      </trkpt>
      <trkpt lat="48.585280" lon="16.649656">
        <ele>236.992222</ele>
        <time>2020-08-13T03:37:22.438Z</time>
      </trkpt>
      <trkpt lat="48.585365" lon="16.649736">
        <ele>237.104986</ele>
        <time>2020-08-13T03:37:24.454Z</time>
      </trkpt>
      <trkpt lat="48.585449" lon="16.649817">
        <ele>237.217194</ele>
        <time>2020-08-13T03:37:26.423Z</time>
      </trkpt>
      <trkpt lat="48.585540" lon="16.649902">
        <ele>237.337664</ele>
        <time>2020-08-13T03:37:28.463Z</time>
      </trkpt>
      <trkpt lat="48.585633" lon="16.649978">
        <ele>237.456725</ele>
        <time>2020-08-13T03:37:30.444Z</time>
      </trkpt>
      <trkpt lat="48.585735" lon="16.650052">
        <ele>237.584141</ele>
        <time>2020-08-13T03:37:32.440Z</time>
      </trkpt>
      <trkpt lat="48.585838" lon="16.650127">
        <ele>237.712894</ele>
        <time>2020-08-13T03:37:34.434Z</time>
      </trkpt>
      <trkpt lat="48.585938" lon="16.650200">
        <ele>237.837958</ele>
        <time>2020-08-13T03:37:36.438Z</time>
      </trkpt>
      <trkpt lat="48.586038" lon="16.650273">
        <ele>237.963021</ele>
        <time>2020-08-13T03:37:38.426Z</time>
      </trkpt>
      <trkpt lat="48.586137" lon="16.650347">
        <ele>238.087399</ele>
        <time>2020-08-13T03:37:40.449Z</time>
      </trkpt>
      <trkpt lat="48.586239" lon="16.650424">
        <ele>238.118940</ele>
        <time>2020-08-13T03:37:42.456Z</time>
      </trkpt>
      <trkpt lat="48.586335" lon="16.650506">
        <ele>238.103936</ele>
        <time>2020-08-13T03:37:44.433Z</time>
      </trkpt>
      <trkpt lat="48.586431" lon="16.650592">
        <ele>238.088752</ele>
        <time>2020-08-13T03:37:46.451Z</time>
      </trkpt>
      <trkpt lat="48.586527" lon="16.650676">
        <ele>238.073659</ele>
        <time>2020-08-13T03:37:48.475Z</time>
      </trkpt>
      <trkpt lat="48.586617" lon="16.650765">
        <ele>238.059025</ele>
        <time>2020-08-13T03:37:50.445Z</time>
      </trkpt>
      <trkpt lat="48.586699" lon="16.650874">
        <ele>238.044167</ele>
        <time>2020-08-13T03:37:52.455Z</time>
      </trkpt>
      <trkpt lat="48.586784" lon="16.650981">
        <ele>238.029116</ele>
        <time>2020-08-13T03:37:54.443Z</time>
      </trkpt>
      <trkpt lat="48.586867" lon="16.651090">
        <ele>238.014156</ele>
        <time>2020-08-13T03:37:56.465Z</time>
      </trkpt>
      <trkpt lat="48.586950" lon="16.651206">
        <ele>237.998775</ele>
        <time>2020-08-13T03:37:58.428Z</time>
      </trkpt>
      <trkpt lat="48.587031" lon="16.651325">
        <ele>237.983406</ele>
        <time>2020-08-13T03:38:00.450Z</time>
      </trkpt>
      <trkpt lat="48.587111" lon="16.651445">
        <ele>237.968071</ele>
        <time>2020-08-13T03:38:02.457Z</time>
      </trkpt>
      <trkpt lat="48.587188" lon="16.651571">
        <ele>237.952631</ele>
        <time>2020-08-13T03:38:04.430Z</time>
      </trkpt>
      <trkpt lat="48.587264" lon="16.651694">
        <ele>237.937481</ele>
        <time>2020-08-13T03:38:06.430Z</time>
      </trkpt>
      <trkpt lat="48.587335" lon="16.651817">
        <ele>237.922787</ele>
        <time>2020-08-13T03:38:08.435Z</time>
      </trkpt>
      <trkpt lat="48.587404" lon="16.651938">
        <ele>237.908408</ele>
        <time>2020-08-13T03:38:10.447Z</time>
      </trkpt>
      <trkpt lat="48.587469" lon="16.652058">
        <ele>237.894448</ele>
        <time>2020-08-13T03:38:12.432Z</time>
      </trkpt>
      <trkpt lat="48.587537" lon="16.652171">
        <ele>237.868051</ele>
        <time>2020-08-13T03:38:14.459Z</time>
      </trkpt>
      <trkpt lat="48.587606" lon="16.652286">
        <ele>237.809209</ele>
        <time>2020-08-13T03:38:16.441Z</time>
      </trkpt>
      <trkpt lat="48.587676" lon="16.652398">
        <ele>237.750813</ele>
        <time>2020-08-13T03:38:18.469Z</time>
      </trkpt>
      <trkpt lat="48.587748" lon="16.652508">
        <ele>237.692165</ele>
        <time>2020-08-13T03:38:20.459Z</time>
      </trkpt>
      <trkpt lat="48.587820" lon="16.652617">
        <ele>237.633785</ele>
        <time>2020-08-13T03:38:22.439Z</time>
      </trkpt>
      <trkpt lat="48.587891" lon="16.652725">
        <ele>237.576079</ele>
        <time>2020-08-13T03:38:24.463Z</time>
      </trkpt>
      <trkpt lat="48.587962" lon="16.652829">
        <ele>237.519437</ele>
        <time>2020-08-13T03:38:26.451Z</time>
      </trkpt>
      <trkpt lat="48.588030" lon="16.652927">
        <ele>237.465611</ele>
        <time>2020-08-13T03:38:28.446Z</time>
      </trkpt>
      <trkpt lat="48.588089" lon="16.653031">
        <ele>237.413686</ele>
        <time>2020-08-13T03:38:30.431Z</time>
      </trkpt>
      <trkpt lat="48.588157" lon="16.653199">
        <ele>237.339043</ele>
        <time>2020-08-13T03:38:33.448Z</time>
      </trkpt>
      <trkpt lat="48.588201" lon="16.653325">
        <ele>237.285046</ele>
        <time>2020-08-13T03:38:35.459Z</time>
      </trkpt>
      <trkpt lat="48.588249" lon="16.653477">
        <ele>237.221213</ele>
        <time>2020-08-13T03:38:37.425Z</time>
      </trkpt>
      <trkpt lat="48.588294" lon="16.653636">
        <ele>237.155671</ele>
        <time>2020-08-13T03:38:39.472Z</time>
      </trkpt>
      <trkpt lat="48.588335" lon="16.653797">
        <ele>237.090290</ele>
        <time>2020-08-13T03:38:41.456Z</time>
      </trkpt>
      <trkpt lat="48.588375" lon="16.653966">
        <ele>237.022265</ele>
        <time>2020-08-13T03:38:43.429Z</time>
      </trkpt>
      <trkpt lat="48.588413" lon="16.654138">
        <ele>236.953541</ele>
        <time>2020-08-13T03:38:45.424Z</time>
      </trkpt>
      <trkpt lat="48.588448" lon="16.654302">
        <ele>236.888234</ele>
        <time>2020-08-13T03:38:47.436Z</time>
      </trkpt>
      <trkpt lat="48.588477" lon="16.654460">
        <ele>236.830791</ele>
        <time>2020-08-13T03:38:49.433Z</time>
      </trkpt>
      <trkpt lat="48.588505" lon="16.654617">
        <ele>236.779497</ele>
        <time>2020-08-13T03:38:51.464Z</time>
      </trkpt>
      <trkpt lat="48.588523" lon="16.654776">
        <ele>236.728611</ele>
        <time>2020-08-13T03:38:53.436Z</time>
      </trkpt>
      <trkpt lat="48.588538" lon="16.654937">
        <ele>236.677323</ele>
        <time>2020-08-13T03:38:55.438Z</time>
      </trkpt>
      <trkpt lat="48.588545" lon="16.655094">
        <ele>236.627685</ele>
        <time>2020-08-13T03:38:57.448Z</time>
      </trkpt>
      <trkpt lat="48.588551" lon="16.655253">
        <ele>236.577447</ele>
        <time>2020-08-13T03:38:59.445Z</time>
      </trkpt>
      <trkpt lat="48.588556" lon="16.655418">
        <ele>236.525343</ele>
        <time>2020-08-13T03:39:01.443Z</time>
      </trkpt>
      <trkpt lat="48.588560" lon="16.655589">
        <ele>236.471368</ele>
        <time>2020-08-13T03:39:03.439Z</time>
      </trkpt>
      <trkpt lat="48.588565" lon="16.655759">
        <ele>236.417688</ele>
        <time>2020-08-13T03:39:05.440Z</time>
      </trkpt>
      <trkpt lat="48.588570" lon="16.655928">
        <ele>236.364324</ele>
        <time>2020-08-13T03:39:07.440Z</time>
      </trkpt>
      <trkpt lat="48.588576" lon="16.656095">
        <ele>236.311566</ele>
        <time>2020-08-13T03:39:09.479Z</time>
      </trkpt>
      <trkpt lat="48.588584" lon="16.656261">
        <ele>236.259063</ele>
        <time>2020-08-13T03:39:11.440Z</time>
      </trkpt>
      <trkpt lat="48.588592" lon="16.656430">
        <ele>236.205616</ele>
        <time>2020-08-13T03:39:13.466Z</time>
      </trkpt>
      <trkpt lat="48.588600" lon="16.656595">
        <ele>236.153427</ele>
        <time>2020-08-13T03:39:15.444Z</time>
      </trkpt>
      <trkpt lat="48.588608" lon="16.656759">
        <ele>236.101553</ele>
        <time>2020-08-13T03:39:17.449Z</time>
      </trkpt>
      <trkpt lat="48.588617" lon="16.656923">
        <ele>236.049642</ele>
        <time>2020-08-13T03:39:19.458Z</time>
      </trkpt>
      <trkpt lat="48.588627" lon="16.657087">
        <ele>235.997689</ele>
        <time>2020-08-13T03:39:21.440Z</time>
      </trkpt>
      <trkpt lat="48.588636" lon="16.657248">
        <ele>235.972845</ele>
        <time>2020-08-13T03:39:23.438Z</time>
      </trkpt>
      <trkpt lat="48.588644" lon="16.657413">
        <ele>235.948127</ele>
        <time>2020-08-13T03:39:25.425Z</time>
      </trkpt>
      <trkpt lat="48.588653" lon="16.657578">
        <ele>235.923390</ele>
        <time>2020-08-13T03:39:27.465Z</time>
      </trkpt>
      <trkpt lat="48.588668" lon="16.657740">
        <ele>235.898950</ele>
        <time>2020-08-13T03:39:29.452Z</time>
      </trkpt>
      <trkpt lat="48.588689" lon="16.657899">
        <ele>235.874724</ele>
        <time>2020-08-13T03:39:31.451Z</time>
      </trkpt>
      <trkpt lat="48.588711" lon="16.658054">
        <ele>235.851039</ele>
        <time>2020-08-13T03:39:33.433Z</time>
      </trkpt>
      <trkpt lat="48.588740" lon="16.658209">
        <ele>235.826972</ele>
        <time>2020-08-13T03:39:35.456Z</time>
      </trkpt>
      <trkpt lat="48.588770" lon="16.658363">
        <ele>235.802985</ele>
        <time>2020-08-13T03:39:37.440Z</time>
      </trkpt>
      <trkpt lat="48.588800" lon="16.658514">
        <ele>235.779429</ele>
        <time>2020-08-13T03:39:39.442Z</time>
      </trkpt>
      <trkpt lat="48.588832" lon="16.658660">
        <ele>235.756448</ele>
        <time>2020-08-13T03:39:41.448Z</time>
      </trkpt>
      <trkpt lat="48.588868" lon="16.658806">
        <ele>235.733168</ele>
        <time>2020-08-13T03:39:43.433Z</time>
      </trkpt>
      <trkpt lat="48.588904" lon="16.658949">
        <ele>235.710308</ele>
        <time>2020-08-13T03:39:45.423Z</time>
      </trkpt>
      <trkpt lat="48.588949" lon="16.659088">
        <ele>235.687186</ele>
        <time>2020-08-13T03:39:47.456Z</time>
      </trkpt>
      <trkpt lat="48.588998" lon="16.659222">
        <ele>235.664309</ele>
        <time>2020-08-13T03:39:49.435Z</time>
      </trkpt>
      <trkpt lat="48.589047" lon="16.659350">
        <ele>235.642213</ele>
        <time>2020-08-13T03:39:51.456Z</time>
      </trkpt>
      <trkpt lat="48.589100" lon="16.659476">
        <ele>235.619903</ele>
        <time>2020-08-13T03:39:53.456Z</time>
      </trkpt>
      <trkpt lat="48.589154" lon="16.659606">
        <ele>235.596968</ele>
        <time>2020-08-13T03:39:55.455Z</time>
      </trkpt>
      <trkpt lat="48.589209" lon="16.659737">
        <ele>235.583837</ele>
        <time>2020-08-13T03:39:57.455Z</time>
      </trkpt>
      <trkpt lat="48.589263" lon="16.659873">
        <ele>235.574760</ele>
        <time>2020-08-13T03:39:59.435Z</time>
      </trkpt>
      <trkpt lat="48.589319" lon="16.660006">
        <ele>235.565738</ele>
        <time>2020-08-13T03:40:01.450Z</time>
      </trkpt>
      <trkpt lat="48.589376" lon="16.660137">
        <ele>235.556765</ele>
        <time>2020-08-13T03:40:03.459Z</time>
      </trkpt>
      <trkpt lat="48.589441" lon="16.660260">
        <ele>235.547756</ele>
        <time>2020-08-13T03:40:05.477Z</time>
      </trkpt>
      <trkpt lat="48.589515" lon="16.660372">
        <ele>235.538697</ele>
        <time>2020-08-13T03:40:07.429Z</time>
      </trkpt>
      <trkpt lat="48.589589" lon="16.660480">
        <ele>235.529799</ele>
        <time>2020-08-13T03:40:09.449Z</time>
      </trkpt>
      <trkpt lat="48.589660" lon="16.660582">
        <ele>235.521325</ele>
        <time>2020-08-13T03:40:11.446Z</time>
      </trkpt>
      <trkpt lat="48.589736" lon="16.660700">
        <ele>235.511901</ele>
        <time>2020-08-13T03:40:14.442Z</time>
      </trkpt>
      <trkpt lat="48.589803" lon="16.660825">
        <ele>235.502694</ele>
        <time>2020-08-13T03:40:18.477Z</time>
      </trkpt>
      <trkpt lat="48.589817" lon="16.660964">
        <ele>235.494648</ele>
        <time>2020-08-13T03:40:21.434Z</time>
      </trkpt>
      <trkpt lat="48.589786" lon="16.661132">
        <ele>235.484667</ele>
        <time>2020-08-13T03:40:24.436Z</time>
      </trkpt>
      <trkpt lat="48.589751" lon="16.661308">
        <ele>235.474151</ele>
        <time>2020-08-13T03:40:27.438Z</time>
      </trkpt>
      <trkpt lat="48.589735" lon="16.661488">
        <ele>235.463758</ele>
        <time>2020-08-13T03:40:30.430Z</time>
      </trkpt>
      <trkpt lat="48.589734" lon="16.661690">
        <ele>235.452198</ele>
        <time>2020-08-13T03:40:33.427Z</time>
      </trkpt>
      <trkpt lat="48.589745" lon="16.661834">
        <ele>235.443903</ele>
        <time>2020-08-13T03:40:35.462Z</time>
      </trkpt>
      <trkpt lat="48.589769" lon="16.661991">
        <ele>235.434682</ele>
        <time>2020-08-13T03:40:37.432Z</time>
      </trkpt>
      <trkpt lat="48.589810" lon="16.662155">
        <ele>235.406273</ele>
        <time>2020-08-13T03:40:39.457Z</time>
      </trkpt>
      <trkpt lat="48.589857" lon="16.662322">
        <ele>235.376455</ele>
        <time>2020-08-13T03:40:41.440Z</time>
      </trkpt>
      <trkpt lat="48.589905" lon="16.662492">
        <ele>235.346086</ele>
        <time>2020-08-13T03:40:43.436Z</time>
      </trkpt>
      <trkpt lat="48.589952" lon="16.662659">
        <ele>235.316268</ele>
        <time>2020-08-13T03:40:45.429Z</time>
      </trkpt>
      <trkpt lat="48.590001" lon="16.662820">
        <ele>235.287150</ele>
        <time>2020-08-13T03:40:47.453Z</time>
      </trkpt>
      <trkpt lat="48.590052" lon="16.662976">
        <ele>235.258560</ele>
        <time>2020-08-13T03:40:49.441Z</time>
      </trkpt>
      <trkpt lat="48.590101" lon="16.663133">
        <ele>235.230037</ele>
        <time>2020-08-13T03:40:51.438Z</time>
      </trkpt>
      <trkpt lat="48.590148" lon="16.663291">
        <ele>235.201574</ele>
        <time>2020-08-13T03:40:53.436Z</time>
      </trkpt>
      <trkpt lat="48.590191" lon="16.663450">
        <ele>235.173351</ele>
        <time>2020-08-13T03:40:55.430Z</time>
      </trkpt>
      <trkpt lat="48.590237" lon="16.663606">
        <ele>235.145289</ele>
        <time>2020-08-13T03:40:57.435Z</time>
      </trkpt>
      <trkpt lat="48.590283" lon="16.663755">
        <ele>235.118274</ele>
        <time>2020-08-13T03:40:59.470Z</time>
      </trkpt>
      <trkpt lat="48.590330" lon="16.663906">
        <ele>235.090855</ele>
        <time>2020-08-13T03:41:01.440Z</time>
      </trkpt>
      <trkpt lat="48.590372" lon="16.664060">
        <ele>235.063487</ele>
        <time>2020-08-13T03:41:03.446Z</time>
      </trkpt>
      <trkpt lat="48.590416" lon="16.664212">
        <ele>235.036227</ele>
        <time>2020-08-13T03:41:05.461Z</time>
      </trkpt>
      <trkpt lat="48.590465" lon="16.664359">
        <ele>235.009182</ele>
        <time>2020-08-13T03:41:07.444Z</time>
      </trkpt>
      <trkpt lat="48.590511" lon="16.664508">
        <ele>234.989798</ele>
        <time>2020-08-13T03:41:09.449Z</time>
      </trkpt>
      <trkpt lat="48.590557" lon="16.664658">
        <ele>235.000110</ele>
        <time>2020-08-13T03:41:11.435Z</time>
      </trkpt>
      <trkpt lat="48.590601" lon="16.664806">
        <ele>235.010230</ele>
        <time>2020-08-13T03:41:13.449Z</time>
      </trkpt>
      <trkpt lat="48.590645" lon="16.664949">
        <ele>235.020066</ele>
        <time>2020-08-13T03:41:15.445Z</time>
      </trkpt>
      <trkpt lat="48.590691" lon="16.665095">
        <ele>235.030151</ele>
        <time>2020-08-13T03:41:17.438Z</time>
      </trkpt>
      <trkpt lat="48.590735" lon="16.665240">
        <ele>235.040101</ele>
        <time>2020-08-13T03:41:19.445Z</time>
      </trkpt>
      <trkpt lat="48.590777" lon="16.665380">
        <ele>235.049688</ele>
        <time>2020-08-13T03:41:21.434Z</time>
      </trkpt>
      <trkpt lat="48.590817" lon="16.665516">
        <ele>235.058971</ele>
        <time>2020-08-13T03:41:23.456Z</time>
      </trkpt>
      <trkpt lat="48.590857" lon="16.665647">
        <ele>235.067969</ele>
        <time>2020-08-13T03:41:25.437Z</time>
      </trkpt>
      <trkpt lat="48.590895" lon="16.665774">
        <ele>235.076662</ele>
        <time>2020-08-13T03:41:27.444Z</time>
      </trkpt>
      <trkpt lat="48.590946" lon="16.665951">
        <ele>235.088703</ele>
        <time>2020-08-13T03:41:30.450Z</time>
      </trkpt>
      <trkpt lat="48.591001" lon="16.666124">
        <ele>235.100674</ele>
        <time>2020-08-13T03:41:33.439Z</time>
      </trkpt>
      <trkpt lat="48.591059" lon="16.666303">
        <ele>235.113105</ele>
        <time>2020-08-13T03:41:36.456Z</time>
      </trkpt>
      <trkpt lat="48.591120" lon="16.666471">
        <ele>235.125057</ele>
        <time>2020-08-13T03:41:39.446Z</time>
      </trkpt>
      <trkpt lat="48.591196" lon="16.666612">
        <ele>235.136401</ele>
        <time>2020-08-13T03:41:42.452Z</time>
      </trkpt>
      <trkpt lat="48.591279" lon="16.666734">
        <ele>235.147316</ele>
        <time>2020-08-13T03:41:45.438Z</time>
      </trkpt>
      <trkpt lat="48.591372" lon="16.666840">
        <ele>235.157109</ele>
        <time>2020-08-13T03:41:48.454Z</time>
      </trkpt>
      <trkpt lat="48.591474" lon="16.666921">
        <ele>235.155144</ele>
        <time>2020-08-13T03:41:51.452Z</time>
      </trkpt>
      <trkpt lat="48.591578" lon="16.667006">
        <ele>235.153128</ele>
        <time>2020-08-13T03:41:54.435Z</time>
      </trkpt>
      <trkpt lat="48.591675" lon="16.667094">
        <ele>235.151199</ele>
        <time>2020-08-13T03:41:57.437Z</time>
      </trkpt>
      <trkpt lat="48.591778" lon="16.667188">
        <ele>235.149147</ele>
        <time>2020-08-13T03:42:00.455Z</time>
      </trkpt>
      <trkpt lat="48.591890" lon="16.667305">
        <ele>235.146826</ele>
        <time>2020-08-13T03:42:03.447Z</time>
      </trkpt>
      <trkpt lat="48.591978" lon="16.667398">
        <ele>235.144995</ele>
        <time>2020-08-13T03:42:05.445Z</time>
      </trkpt>
      <trkpt lat="48.592076" lon="16.667495">
        <ele>235.142998</ele>
        <time>2020-08-13T03:42:07.466Z</time>
      </trkpt>
      <trkpt lat="48.592176" lon="16.667605">
        <ele>235.140889</ele>
        <time>2020-08-13T03:42:09.441Z</time>
      </trkpt>
      <trkpt lat="48.592277" lon="16.667709">
        <ele>235.138805</ele>
        <time>2020-08-13T03:42:11.480Z</time>
      </trkpt>
      <trkpt lat="48.592368" lon="16.667815">
        <ele>235.136846</ele>
        <time>2020-08-13T03:42:13.445Z</time>
      </trkpt>
      <trkpt lat="48.592448" lon="16.667918">
        <ele>235.135054</ele>
        <time>2020-08-13T03:42:15.444Z</time>
      </trkpt>
      <trkpt lat="48.592513" lon="16.668018">
        <ele>235.133473</ele>
        <time>2020-08-13T03:42:17.457Z</time>
      </trkpt>
      <trkpt lat="48.592586" lon="16.668166">
        <ele>235.131390</ele>
        <time>2020-08-13T03:42:20.439Z</time>
      </trkpt>
      <trkpt lat="48.592644" lon="16.668316">
        <ele>235.129431</ele>
        <time>2020-08-13T03:42:23.434Z</time>
      </trkpt>
      <trkpt lat="48.592699" lon="16.668472">
        <ele>235.127437</ele>
        <time>2020-08-13T03:42:26.440Z</time>
      </trkpt>
      <trkpt lat="48.592764" lon="16.668627">
        <ele>235.077666</ele>
        <time>2020-08-13T03:42:29.441Z</time>
      </trkpt>
      <trkpt lat="48.592833" lon="16.668797">
        <ele>234.989717</ele>
        <time>2020-08-13T03:42:32.440Z</time>
      </trkpt>
      <trkpt lat="48.592883" lon="16.668921">
        <ele>234.925680</ele>
        <time>2020-08-13T03:42:34.459Z</time>
      </trkpt>
      <trkpt lat="48.592930" lon="16.669055">
        <ele>234.858800</ele>
        <time>2020-08-13T03:42:36.433Z</time>
      </trkpt>
      <trkpt lat="48.592981" lon="16.669198">
        <ele>234.787163</ele>
        <time>2020-08-13T03:42:38.428Z</time>
      </trkpt>
      <trkpt lat="48.593032" lon="16.669349">
        <ele>234.712402</ele>
        <time>2020-08-13T03:42:40.451Z</time>
      </trkpt>
      <trkpt lat="48.593084" lon="16.669508">
        <ele>234.634190</ele>
        <time>2020-08-13T03:42:42.442Z</time>
      </trkpt>
      <trkpt lat="48.593147" lon="16.669678">
        <ele>234.548266</ele>
        <time>2020-08-13T03:42:44.459Z</time>
      </trkpt>
      <trkpt lat="48.593216" lon="16.669846">
        <ele>234.461068</ele>
        <time>2020-08-13T03:42:46.441Z</time>
      </trkpt>
      <trkpt lat="48.593288" lon="16.670005">
        <ele>234.376101</ele>
        <time>2020-08-13T03:42:48.435Z</time>
      </trkpt>
      <trkpt lat="48.593362" lon="16.670157">
        <ele>234.292880</ele>
        <time>2020-08-13T03:42:50.438Z</time>
      </trkpt>
      <trkpt lat="48.593431" lon="16.670314">
        <ele>234.209763</ele>
        <time>2020-08-13T03:42:52.450Z</time>
      </trkpt>
      <trkpt lat="48.593502" lon="16.670470">
        <ele>234.126265</ele>
        <time>2020-08-13T03:42:54.448Z</time>
      </trkpt>
      <trkpt lat="48.593555" lon="16.670641">
        <ele>234.042997</ele>
        <time>2020-08-13T03:42:56.435Z</time>
      </trkpt>
      <trkpt lat="48.593585" lon="16.670817">
        <ele>233.962856</ele>
        <time>2020-08-13T03:42:58.423Z</time>
      </trkpt>
      <trkpt lat="48.593596" lon="16.670988">
        <ele>233.891505</ele>
        <time>2020-08-13T03:43:00.461Z</time>
      </trkpt>
      <trkpt lat="48.593612" lon="16.671144">
        <ele>233.829482</ele>
        <time>2020-08-13T03:43:02.435Z</time>
      </trkpt>
      <trkpt lat="48.593631" lon="16.671293">
        <ele>233.769864</ele>
        <time>2020-08-13T03:43:04.435Z</time>
      </trkpt>
      <trkpt lat="48.593659" lon="16.671436">
        <ele>233.711271</ele>
        <time>2020-08-13T03:43:06.456Z</time>
      </trkpt>
      <trkpt lat="48.593694" lon="16.671569">
        <ele>233.655033</ele>
        <time>2020-08-13T03:43:08.432Z</time>
      </trkpt>
      <trkpt lat="48.593726" lon="16.671704">
        <ele>233.598690</ele>
        <time>2020-08-13T03:43:10.425Z</time>
      </trkpt>
      <trkpt lat="48.593749" lon="16.671840">
        <ele>233.543539</ele>
        <time>2020-08-13T03:43:12.439Z</time>
      </trkpt>
      <trkpt lat="48.593767" lon="16.671973">
        <ele>233.490202</ele>
        <time>2020-08-13T03:43:14.442Z</time>
      </trkpt>
      <trkpt lat="48.593796" lon="16.672166">
        <ele>233.412444</ele>
        <time>2020-08-13T03:43:17.443Z</time>
      </trkpt>
      <trkpt lat="48.593797" lon="16.672367">
        <ele>233.333472</ele>
        <time>2020-08-13T03:43:20.472Z</time>
      </trkpt>
      <trkpt lat="48.593750" lon="16.672495">
        <ele>233.275952</ele>
        <time>2020-08-13T03:43:22.431Z</time>
      </trkpt>
      <trkpt lat="48.593730" lon="16.672695">
        <ele>233.196482</ele>
        <time>2020-08-13T03:43:25.456Z</time>
      </trkpt>
      <trkpt lat="48.593737" lon="16.672894">
        <ele>233.118188</ele>
        <time>2020-08-13T03:43:28.442Z</time>
      </trkpt>
      <trkpt lat="48.593746" lon="16.673033">
        <ele>233.063316</ele>
        <time>2020-08-13T03:43:30.434Z</time>
      </trkpt>
      <trkpt lat="48.593757" lon="16.673172">
        <ele>233.008315</ele>
        <time>2020-08-13T03:43:32.442Z</time>
      </trkpt>
      <trkpt lat="48.593780" lon="16.673309">
        <ele>232.952783</ele>
        <time>2020-08-13T03:43:34.426Z</time>
      </trkpt>
      <trkpt lat="48.593813" lon="16.673447">
        <ele>232.895130</ele>
        <time>2020-08-13T03:43:36.445Z</time>
      </trkpt>
      <trkpt lat="48.593842" lon="16.673581">
        <ele>232.864717</ele>
        <time>2020-08-13T03:43:38.428Z</time>
      </trkpt>
      <trkpt lat="48.593872" lon="16.673719">
        <ele>232.881371</ele>
        <time>2020-08-13T03:43:40.462Z</time>
      </trkpt>
      <trkpt lat="48.593900" lon="16.673851">
        <ele>232.897263</ele>
        <time>2020-08-13T03:43:42.444Z</time>
      </trkpt>
      <trkpt lat="48.593926" lon="16.673983">
        <ele>232.913053</ele>
        <time>2020-08-13T03:43:44.428Z</time>
      </trkpt>
      <trkpt lat="48.593949" lon="16.674117">
        <ele>232.928924</ele>
        <time>2020-08-13T03:43:46.439Z</time>
      </trkpt>
      <trkpt lat="48.593971" lon="16.674255">
        <ele>232.945198</ele>
        <time>2020-08-13T03:43:48.421Z</time>
      </trkpt>
      <trkpt lat="48.593996" lon="16.674393">
        <ele>232.961602</ele>
        <time>2020-08-13T03:43:50.446Z</time>
      </trkpt>
      <trkpt lat="48.594026" lon="16.674536">
        <ele>232.978801</ele>
        <time>2020-08-13T03:43:52.419Z</time>
      </trkpt>
      <trkpt lat="48.594054" lon="16.674673">
        <ele>232.995240</ele>
        <time>2020-08-13T03:43:54.424Z</time>
      </trkpt>
      <trkpt lat="48.594080" lon="16.674809">
        <ele>233.011470</ele>
        <time>2020-08-13T03:43:56.425Z</time>
      </trkpt>
      <trkpt lat="48.594102" lon="16.674944">
        <ele>233.027409</ele>
        <time>2020-08-13T03:43:58.432Z</time>
      </trkpt>
      <trkpt lat="48.594137" lon="16.675142">
        <ele>233.050906</ele>
        <time>2020-08-13T03:44:01.445Z</time>
      </trkpt>
      <trkpt lat="48.594161" lon="16.675339">
        <ele>233.073870</ele>
        <time>2020-08-13T03:44:04.435Z</time>
      </trkpt>
      <trkpt lat="48.594183" lon="16.675534">
        <ele>233.096549</ele>
        <time>2020-08-13T03:44:07.433Z</time>
      </trkpt>
      <trkpt lat="48.594198" lon="16.675673">
        <ele>233.112695</ele>
        <time>2020-08-13T03:44:09.464Z</time>
      </trkpt>
      <trkpt lat="48.594213" lon="16.675807">
        <ele>233.128276</ele>
        <time>2020-08-13T03:44:11.440Z</time>
      </trkpt>
      <trkpt lat="48.594232" lon="16.676007">
        <ele>233.151440</ele>
        <time>2020-08-13T03:44:14.443Z</time>
      </trkpt>
      <trkpt lat="48.594245" lon="16.676142">
        <ele>233.167080</ele>
        <time>2020-08-13T03:44:16.431Z</time>
      </trkpt>
      <trkpt lat="48.594259" lon="16.676277">
        <ele>233.178221</ele>
        <time>2020-08-13T03:44:18.432Z</time>
      </trkpt>
      <trkpt lat="48.594283" lon="16.676410">
        <ele>233.188015</ele>
        <time>2020-08-13T03:44:20.461Z</time>
      </trkpt>
      <trkpt lat="48.594302" lon="16.676565">
        <ele>233.199214</ele>
        <time>2020-08-13T03:44:22.460Z</time>
      </trkpt>
      <trkpt lat="48.594316" lon="16.676730">
        <ele>233.211032</ele>
        <time>2020-08-13T03:44:24.464Z</time>
      </trkpt>
      <trkpt lat="48.594330" lon="16.676894">
        <ele>233.222780</ele>
        <time>2020-08-13T03:44:26.470Z</time>
      </trkpt>
      <trkpt lat="48.594339" lon="16.677056">
        <ele>233.234329</ele>
        <time>2020-08-13T03:44:28.465Z</time>
      </trkpt>
      <trkpt lat="48.594346" lon="16.677220">
        <ele>233.246005</ele>
        <time>2020-08-13T03:44:30.427Z</time>
      </trkpt>
      <trkpt lat="48.594345" lon="16.677380">
        <ele>233.257372</ele>
        <time>2020-08-13T03:44:32.434Z</time>
      </trkpt>
      <trkpt lat="48.594348" lon="16.677533">
        <ele>233.268246</ele>
        <time>2020-08-13T03:44:34.436Z</time>
      </trkpt>
      <trkpt lat="48.594350" lon="16.677690">
        <ele>233.279402</ele>
        <time>2020-08-13T03:44:36.439Z</time>
      </trkpt>
      <trkpt lat="48.594349" lon="16.677840">
        <ele>233.290059</ele>
        <time>2020-08-13T03:44:38.449Z</time>
      </trkpt>
      <trkpt lat="48.594363" lon="16.678003">
        <ele>233.301737</ele>
        <time>2020-08-13T03:44:40.480Z</time>
      </trkpt>
      <trkpt lat="48.594363" lon="16.678157">
        <ele>233.312677</ele>
        <time>2020-08-13T03:44:42.454Z</time>
      </trkpt>
      <trkpt lat="48.594378" lon="16.678315">
        <ele>233.324017</ele>
        <time>2020-08-13T03:44:44.448Z</time>
      </trkpt>
      <trkpt lat="48.594397" lon="16.678468">
        <ele>233.335077</ele>
        <time>2020-08-13T03:44:46.441Z</time>
      </trkpt>
      <trkpt lat="48.594419" lon="16.678621">
        <ele>233.346200</ele>
        <time>2020-08-13T03:44:48.426Z</time>
      </trkpt>
      <trkpt lat="48.594431" lon="16.678765">
        <ele>233.356511</ele>
        <time>2020-08-13T03:44:50.447Z</time>
      </trkpt>
      <trkpt lat="48.594452" lon="16.678905">
        <ele>233.365221</ele>
        <time>2020-08-13T03:44:52.447Z</time>
      </trkpt>
      <trkpt lat="48.594479" lon="16.679045">
        <ele>233.369781</ele>
        <time>2020-08-13T03:44:54.457Z</time>
      </trkpt>
      <trkpt lat="48.594512" lon="16.679182">
        <ele>233.374341</ele>
        <time>2020-08-13T03:44:56.444Z</time>
      </trkpt>
      <trkpt lat="48.594552" lon="16.679328">
        <ele>233.379283</ele>
        <time>2020-08-13T03:44:58.444Z</time>
      </trkpt>
      <trkpt lat="48.594593" lon="16.679484">
        <ele>233.384533</ele>
        <time>2020-08-13T03:45:00.446Z</time>
      </trkpt>
      <trkpt lat="48.594638" lon="16.679641">
        <ele>233.389884</ele>
        <time>2020-08-13T03:45:02.451Z</time>
      </trkpt>
      <trkpt lat="48.594684" lon="16.679800">
        <ele>233.395312</ele>
        <time>2020-08-13T03:45:04.436Z</time>
      </trkpt>
      <trkpt lat="48.594719" lon="16.679962">
        <ele>233.400642</ele>
        <time>2020-08-13T03:45:06.447Z</time>
      </trkpt>
      <trkpt lat="48.594742" lon="16.680125">
        <ele>233.405854</ele>
        <time>2020-08-13T03:45:08.453Z</time>
      </trkpt>
      <trkpt lat="48.594756" lon="16.680285">
        <ele>233.410901</ele>
        <time>2020-08-13T03:45:10.427Z</time>
      </trkpt>
      <trkpt lat="48.594768" lon="16.680438">
        <ele>233.415720</ele>
        <time>2020-08-13T03:45:12.445Z</time>
      </trkpt>
      <trkpt lat="48.594782" lon="16.680592">
        <ele>233.420581</ele>
        <time>2020-08-13T03:45:14.440Z</time>
      </trkpt>
      <trkpt lat="48.594795" lon="16.680747">
        <ele>233.425467</ele>
        <time>2020-08-13T03:45:16.423Z</time>
      </trkpt>
      <trkpt lat="48.594803" lon="16.680898">
        <ele>233.430205</ele>
        <time>2020-08-13T03:45:18.460Z</time>
      </trkpt>
      <trkpt lat="48.594814" lon="16.681046">
        <ele>233.434863</ele>
        <time>2020-08-13T03:45:20.463Z</time>
      </trkpt>
      <trkpt lat="48.594821" lon="16.681193">
        <ele>233.439472</ele>
        <time>2020-08-13T03:45:22.444Z</time>
      </trkpt>
      <trkpt lat="48.594831" lon="16.681337">
        <ele>233.444000</ele>
        <time>2020-08-13T03:45:24.431Z</time>
      </trkpt>
      <trkpt lat="48.594845" lon="16.681481">
        <ele>233.448552</ele>
        <time>2020-08-13T03:45:26.450Z</time>
      </trkpt>
      <trkpt lat="48.594859" lon="16.681628">
        <ele>233.461012</ele>
        <time>2020-08-13T03:45:28.440Z</time>
      </trkpt>
      <trkpt lat="48.594889" lon="16.681813">
        <ele>233.478333</ele>
        <time>2020-08-13T03:45:31.433Z</time>
      </trkpt>
      <trkpt lat="48.594942" lon="16.682000">
        <ele>233.496833</ele>
        <time>2020-08-13T03:45:34.456Z</time>
      </trkpt>
      <trkpt lat="48.594983" lon="16.682133">
        <ele>233.510176</ele>
        <time>2020-08-13T03:45:36.458Z</time>
      </trkpt>
      <trkpt lat="48.595027" lon="16.682276">
        <ele>233.524517</ele>
        <time>2020-08-13T03:45:38.435Z</time>
      </trkpt>
      <trkpt lat="48.595067" lon="16.682429">
        <ele>233.539478</ele>
        <time>2020-08-13T03:45:40.461Z</time>
      </trkpt>
      <trkpt lat="48.595107" lon="16.682589">
        <ele>233.555031</ele>
        <time>2020-08-13T03:45:42.442Z</time>
      </trkpt>
      <trkpt lat="48.595143" lon="16.682743">
        <ele>233.569884</ele>
        <time>2020-08-13T03:45:44.449Z</time>
      </trkpt>
      <trkpt lat="48.595174" lon="16.682904">
        <ele>233.585132</ele>
        <time>2020-08-13T03:45:46.451Z</time>
      </trkpt>
      <trkpt lat="48.595196" lon="16.683074">
        <ele>233.600883</ele>
        <time>2020-08-13T03:45:48.462Z</time>
      </trkpt>
      <trkpt lat="48.595214" lon="16.683241">
        <ele>233.616269</ele>
        <time>2020-08-13T03:45:50.428Z</time>
      </trkpt>
      <trkpt lat="48.595226" lon="16.683402">
        <ele>233.631002</ele>
        <time>2020-08-13T03:45:52.442Z</time>
      </trkpt>
      <trkpt lat="48.595228" lon="16.683561">
        <ele>233.645463</ele>
        <time>2020-08-13T03:45:54.444Z</time>
      </trkpt>
      <trkpt lat="48.595225" lon="16.683719">
        <ele>233.659836</ele>
        <time>2020-08-13T03:45:56.464Z</time>
      </trkpt>
      <trkpt lat="48.595220" lon="16.683882">
        <ele>233.674674</ele>
        <time>2020-08-13T03:45:58.429Z</time>
      </trkpt>
      <trkpt lat="48.595204" lon="16.684042">
        <ele>233.689388</ele>
        <time>2020-08-13T03:46:00.444Z</time>
      </trkpt>
      <trkpt lat="48.595200" lon="16.684201">
        <ele>233.702608</ele>
        <time>2020-08-13T03:46:02.436Z</time>
      </trkpt>
      <trkpt lat="48.595195" lon="16.684353">
        <ele>233.714130</ele>
        <time>2020-08-13T03:46:04.429Z</time>
      </trkpt>
      <trkpt lat="48.595191" lon="16.684499">
        <ele>233.725193</ele>
        <time>2020-08-13T03:46:06.465Z</time>
      </trkpt>
      <trkpt lat="48.595187" lon="16.684642">
        <ele>233.736029</ele>
        <time>2020-08-13T03:46:08.460Z</time>
      </trkpt>
      <trkpt lat="48.595178" lon="16.684784">
        <ele>233.746829</ele>
        <time>2020-08-13T03:46:10.431Z</time>
      </trkpt>
      <trkpt lat="48.595171" lon="16.684927">
        <ele>233.757685</ele>
        <time>2020-08-13T03:46:12.420Z</time>
      </trkpt>
      <trkpt lat="48.595163" lon="16.685066">
        <ele>233.768249</ele>
        <time>2020-08-13T03:46:14.434Z</time>
      </trkpt>
      <trkpt lat="48.595158" lon="16.685205">
        <ele>233.778788</ele>
        <time>2020-08-13T03:46:16.425Z</time>
      </trkpt>
      <trkpt lat="48.595153" lon="16.685406">
        <ele>233.794017</ele>
        <time>2020-08-13T03:46:19.434Z</time>
      </trkpt>
      <trkpt lat="48.595158" lon="16.685605">
        <ele>233.809094</ele>
        <time>2020-08-13T03:46:22.425Z</time>
      </trkpt>
      <trkpt lat="48.595182" lon="16.685805">
        <ele>233.824483</ele>
        <time>2020-08-13T03:46:25.454Z</time>
      </trkpt>
      <trkpt lat="48.595210" lon="16.685943">
        <ele>233.835412</ele>
        <time>2020-08-13T03:46:27.441Z</time>
      </trkpt>
      <trkpt lat="48.595244" lon="16.686083">
        <ele>233.846703</ele>
        <time>2020-08-13T03:46:29.434Z</time>
      </trkpt>
      <trkpt lat="48.595280" lon="16.686229">
        <ele>233.858500</ele>
        <time>2020-08-13T03:46:31.419Z</time>
      </trkpt>
      <trkpt lat="48.595315" lon="16.686383">
        <ele>233.870828</ele>
        <time>2020-08-13T03:46:33.434Z</time>
      </trkpt>
      <trkpt lat="48.595350" lon="16.686533">
        <ele>233.882871</ele>
        <time>2020-08-13T03:46:35.449Z</time>
      </trkpt>
      <trkpt lat="48.595391" lon="16.686670">
        <ele>233.894256</ele>
        <time>2020-08-13T03:46:37.435Z</time>
      </trkpt>
      <trkpt lat="48.595435" lon="16.686794">
        <ele>233.902495</ele>
        <time>2020-08-13T03:46:39.425Z</time>
      </trkpt>
      <trkpt lat="48.595503" lon="16.686969">
        <ele>233.903695</ele>
        <time>2020-08-13T03:46:42.451Z</time>
      </trkpt>
      <trkpt lat="48.595569" lon="16.687137">
        <ele>233.904849</ele>
        <time>2020-08-13T03:46:45.434Z</time>
      </trkpt>
      <trkpt lat="48.595615" lon="16.687259">
        <ele>233.905679</ele>
        <time>2020-08-13T03:46:47.421Z</time>
      </trkpt>
      <trkpt lat="48.595662" lon="16.687375">
        <ele>233.906483</ele>
        <time>2020-08-13T03:46:49.468Z</time>
      </trkpt>
      <trkpt lat="48.595713" lon="16.687500">
        <ele>233.907351</ele>
        <time>2020-08-13T03:46:51.438Z</time>
      </trkpt>
      <trkpt lat="48.595766" lon="16.687634">
        <ele>233.908274</ele>
        <time>2020-08-13T03:46:53.456Z</time>
      </trkpt>
      <trkpt lat="48.595819" lon="16.687772">
        <ele>233.909216</ele>
        <time>2020-08-13T03:46:55.442Z</time>
      </trkpt>
      <trkpt lat="48.595873" lon="16.687918">
        <ele>233.910205</ele>
        <time>2020-08-13T03:46:57.433Z</time>
      </trkpt>
      <trkpt lat="48.595931" lon="16.688071">
        <ele>233.911247</ele>
        <time>2020-08-13T03:46:59.465Z</time>
      </trkpt>
      <trkpt lat="48.595990" lon="16.688225">
        <ele>233.912299</ele>
        <time>2020-08-13T03:47:01.451Z</time>
      </trkpt>
      <trkpt lat="48.596049" lon="16.688380">
        <ele>233.913356</ele>
        <time>2020-08-13T03:47:03.458Z</time>
      </trkpt>
      <trkpt lat="48.596110" lon="16.688540">
        <ele>233.914447</ele>
        <time>2020-08-13T03:47:05.431Z</time>
      </trkpt>
      <trkpt lat="48.596171" lon="16.688694">
        <ele>233.915508</ele>
        <time>2020-08-13T03:47:07.447Z</time>
      </trkpt>
      <trkpt lat="48.596229" lon="16.688847">
        <ele>233.916550</ele>
        <time>2020-08-13T03:47:09.452Z</time>
      </trkpt>
      <trkpt lat="48.596283" lon="16.689004">
        <ele>233.917595</ele>
        <time>2020-08-13T03:47:11.452Z</time>
      </trkpt>
      <trkpt lat="48.596335" lon="16.689166">
        <ele>233.914132</ele>
        <time>2020-08-13T03:47:13.426Z</time>
      </trkpt>
      <trkpt lat="48.596385" lon="16.689331">
        <ele>233.898917</ele>
        <time>2020-08-13T03:47:15.443Z</time>
      </trkpt>
      <trkpt lat="48.596432" lon="16.689501">
        <ele>233.883470</ele>
        <time>2020-08-13T03:47:17.425Z</time>
      </trkpt>
      <trkpt lat="48.596462" lon="16.689678">
        <ele>233.868152</ele>
        <time>2020-08-13T03:47:19.448Z</time>
      </trkpt>
      <trkpt lat="48.596477" lon="16.689857">
        <ele>233.853026</ele>
        <time>2020-08-13T03:47:21.444Z</time>
      </trkpt>
      <trkpt lat="48.596491" lon="16.690028">
        <ele>233.838582</ele>
        <time>2020-08-13T03:47:23.444Z</time>
      </trkpt>
      <trkpt lat="48.596504" lon="16.690198">
        <ele>233.824235</ele>
        <time>2020-08-13T03:47:25.460Z</time>
      </trkpt>
      <trkpt lat="48.596517" lon="16.690355">
        <ele>233.810971</ele>
        <time>2020-08-13T03:47:27.432Z</time>
      </trkpt>
      <trkpt lat="48.596529" lon="16.690507">
        <ele>233.798138</ele>
        <time>2020-08-13T03:47:29.428Z</time>
      </trkpt>
      <trkpt lat="48.596536" lon="16.690657">
        <ele>233.785532</ele>
        <time>2020-08-13T03:47:31.427Z</time>
      </trkpt>
      <trkpt lat="48.596525" lon="16.690801">
        <ele>233.773380</ele>
        <time>2020-08-13T03:47:33.417Z</time>
      </trkpt>
      <trkpt lat="48.596501" lon="16.690939">
        <ele>233.761418</ele>
        <time>2020-08-13T03:47:35.425Z</time>
      </trkpt>
      <trkpt lat="48.596478" lon="16.691072">
        <ele>233.749893</ele>
        <time>2020-08-13T03:47:37.430Z</time>
      </trkpt>
      <trkpt lat="48.596462" lon="16.691208">
        <ele>233.738313</ele>
        <time>2020-08-13T03:47:39.462Z</time>
      </trkpt>
      <trkpt lat="48.596435" lon="16.691338">
        <ele>233.726890</ele>
        <time>2020-08-13T03:47:41.438Z</time>
      </trkpt>
      <trkpt lat="48.596401" lon="16.691529">
        <ele>233.710308</ele>
        <time>2020-08-13T03:47:44.461Z</time>
      </trkpt>
      <trkpt lat="48.596384" lon="16.691712">
        <ele>233.694816</ele>
        <time>2020-08-13T03:47:47.437Z</time>
      </trkpt>
      <trkpt lat="48.596380" lon="16.691875">
        <ele>233.666599</ele>
        <time>2020-08-13T03:47:50.454Z</time>
      </trkpt>
      <trkpt lat="48.596382" lon="16.692074">
        <ele>233.623619</ele>
        <time>2020-08-13T03:47:53.439Z</time>
      </trkpt>
      <trkpt lat="48.596382" lon="16.692222">
        <ele>233.591658</ele>
        <time>2020-08-13T03:47:55.467Z</time>
      </trkpt>
      <trkpt lat="48.596384" lon="16.692374">
        <ele>233.558826</ele>
        <time>2020-08-13T03:47:57.424Z</time>
      </trkpt>
      <trkpt lat="48.596393" lon="16.692527">
        <ele>233.525654</ele>
        <time>2020-08-13T03:47:59.442Z</time>
      </trkpt>
      <trkpt lat="48.596410" lon="16.692668">
        <ele>233.494703</ele>
        <time>2020-08-13T03:48:01.428Z</time>
      </trkpt>
      <trkpt lat="48.596445" lon="16.692812">
        <ele>233.461572</ele>
        <time>2020-08-13T03:48:03.427Z</time>
      </trkpt>
      <trkpt lat="48.596487" lon="16.692958">
        <ele>233.427189</ele>
        <time>2020-08-13T03:48:05.428Z</time>
      </trkpt>
      <trkpt lat="48.596552" lon="16.693058">
        <ele>233.396909</ele>
        <time>2020-08-13T03:48:07.425Z</time>
      </trkpt>
      <trkpt lat="48.596644" lon="16.693134">
        <ele>233.362677</ele>
        <time>2020-08-13T03:48:09.422Z</time>
      </trkpt>
      <trkpt lat="48.596742" lon="16.693180">
        <ele>233.329170</ele>
        <time>2020-08-13T03:48:11.423Z</time>
      </trkpt>
      <trkpt lat="48.596843" lon="16.693210">
        <ele>233.295560</ele>
        <time>2020-08-13T03:48:13.428Z</time>
      </trkpt>
      <trkpt lat="48.596943" lon="16.693233">
        <ele>233.262531</ele>
        <time>2020-08-13T03:48:15.455Z</time>
      </trkpt>
      <trkpt lat="48.597040" lon="16.693269">
        <ele>233.229917</ele>
        <time>2020-08-13T03:48:17.434Z</time>
      </trkpt>
      <trkpt lat="48.597135" lon="16.693307">
        <ele>233.197830</ele>
        <time>2020-08-13T03:48:19.488Z</time>
      </trkpt>
      <trkpt lat="48.597231" lon="16.693377">
        <ele>233.163028</ele>
        <time>2020-08-13T03:48:21.423Z</time>
      </trkpt>
      <trkpt lat="48.597319" lon="16.693474">
        <ele>233.127468</ele>
        <time>2020-08-13T03:48:23.443Z</time>
      </trkpt>
      <trkpt lat="48.597404" lon="16.693577">
        <ele>233.093230</ele>
        <time>2020-08-13T03:48:25.452Z</time>
      </trkpt>
      <trkpt lat="48.597488" lon="16.693689">
        <ele>233.061023</ele>
        <time>2020-08-13T03:48:27.456Z</time>
      </trkpt>
      <trkpt lat="48.597573" lon="16.693799">
        <ele>233.028848</ele>
        <time>2020-08-13T03:48:29.447Z</time>
      </trkpt>
      <trkpt lat="48.597654" lon="16.693906">
        <ele>232.997916</ele>
        <time>2020-08-13T03:48:31.432Z</time>
      </trkpt>
      <trkpt lat="48.597726" lon="16.693995">
        <ele>232.971172</ele>
        <time>2020-08-13T03:48:33.458Z</time>
      </trkpt>
      <trkpt lat="48.597805" lon="16.694136">
        <ele>232.936025</ele>
        <time>2020-08-13T03:48:36.460Z</time>
      </trkpt>
      <trkpt lat="48.597861" lon="16.694295">
        <ele>232.901764</ele>
        <time>2020-08-13T03:48:39.434Z</time>
      </trkpt>
      <trkpt lat="48.597897" lon="16.694477">
        <ele>232.865634</ele>
        <time>2020-08-13T03:48:42.434Z</time>
      </trkpt>
      <trkpt lat="48.597943" lon="16.694657">
        <ele>232.828933</ele>
        <time>2020-08-13T03:48:45.424Z</time>
      </trkpt>
      <trkpt lat="48.597989" lon="16.694830">
        <ele>232.793470</ele>
        <time>2020-08-13T03:48:48.444Z</time>
      </trkpt>
      <trkpt lat="48.598037" lon="16.695014">
        <ele>232.755851</ele>
        <time>2020-08-13T03:48:51.444Z</time>
      </trkpt>
      <trkpt lat="48.598079" lon="16.695210">
        <ele>232.716666</ele>
        <time>2020-08-13T03:48:54.440Z</time>
      </trkpt>
      <trkpt lat="48.598111" lon="16.695351">
        <ele>232.688314</ele>
        <time>2020-08-13T03:48:56.450Z</time>
      </trkpt>
      <trkpt lat="48.598149" lon="16.695491">
        <ele>232.659532</ele>
        <time>2020-08-13T03:48:58.434Z</time>
      </trkpt>
      <trkpt lat="48.598191" lon="16.695641">
        <ele>232.628552</ele>
        <time>2020-08-13T03:49:00.420Z</time>
      </trkpt>
      <trkpt lat="48.598228" lon="16.695799">
        <ele>232.596674</ele>
        <time>2020-08-13T03:49:02.436Z</time>
      </trkpt>
      <trkpt lat="48.598273" lon="16.695960">
        <ele>232.568566</ele>
        <time>2020-08-13T03:49:04.450Z</time>
      </trkpt>
      <trkpt lat="48.598329" lon="16.696116">
        <ele>232.542559</ele>
        <time>2020-08-13T03:49:06.437Z</time>
      </trkpt>
      <trkpt lat="48.598393" lon="16.696265">
        <ele>232.516528</ele>
        <time>2020-08-13T03:49:08.440Z</time>
      </trkpt>
      <trkpt lat="48.598463" lon="16.696411">
        <ele>232.490107</ele>
        <time>2020-08-13T03:49:10.451Z</time>
      </trkpt>
      <trkpt lat="48.598535" lon="16.696551">
        <ele>232.464122</ele>
        <time>2020-08-13T03:49:12.427Z</time>
      </trkpt>
      <trkpt lat="48.598627" lon="16.696641">
        <ele>232.439846</ele>
        <time>2020-08-13T03:49:14.449Z</time>
      </trkpt>
      <trkpt lat="48.598703" lon="16.696771">
        <ele>232.414424</ele>
        <time>2020-08-13T03:49:16.441Z</time>
      </trkpt>
      <trkpt lat="48.598697" lon="16.696941">
        <ele>232.389481</ele>
        <time>2020-08-13T03:49:18.440Z</time>
      </trkpt>
      <trkpt lat="48.598713" lon="16.697090">
        <ele>232.367364</ele>
        <time>2020-08-13T03:49:20.443Z</time>
      </trkpt>
      <trkpt lat="48.598747" lon="16.697236">
        <ele>232.344686</ele>
        <time>2020-08-13T03:49:22.424Z</time>
      </trkpt>
      <trkpt lat="48.598781" lon="16.697377">
        <ele>232.322697</ele>
        <time>2020-08-13T03:49:24.469Z</time>
      </trkpt>
      <trkpt lat="48.598797" lon="16.697559">
        <ele>232.295796</ele>
        <time>2020-08-13T03:49:27.437Z</time>
      </trkpt>
      <trkpt lat="48.598787" lon="16.697714">
        <ele>232.272979</ele>
        <time>2020-08-13T03:49:30.438Z</time>
      </trkpt>
      <trkpt lat="48.598771" lon="16.697881">
        <ele>232.248255</ele>
        <time>2020-08-13T03:49:34.424Z</time>
      </trkpt>
      <trkpt lat="48.598758" lon="16.698038">
        <ele>232.225073</ele>
        <time>2020-08-13T03:49:38.452Z</time>
      </trkpt>
      <trkpt lat="48.598751" lon="16.698188">
        <ele>232.203041</ele>
        <time>2020-08-13T03:49:42.450Z</time>
      </trkpt>
      <trkpt lat="48.598736" lon="16.698334">
        <ele>232.172635</ele>
        <time>2020-08-13T03:49:46.448Z</time>
      </trkpt>
      <trkpt lat="48.598710" lon="16.698496">
        <ele>232.112053</ele>
        <time>2020-08-13T03:49:50.441Z</time>
      </trkpt>
      <trkpt lat="48.598687" lon="16.698634">
        <ele>232.060334</ele>
        <time>2020-08-13T03:49:53.442Z</time>
      </trkpt>
      <trkpt lat="48.598645" lon="16.698792">
        <ele>231.998450</ele>
        <time>2020-08-13T03:49:57.458Z</time>
      </trkpt>
      <trkpt lat="48.598582" lon="16.698941">
        <ele>231.934180</ele>
        <time>2020-08-13T03:50:01.443Z</time>
      </trkpt>
      <trkpt lat="48.598529" lon="16.699058">
        <ele>231.882642</ele>
        <time>2020-08-13T03:50:04.430Z</time>
      </trkpt>
      <trkpt lat="48.598482" lon="16.699184">
        <ele>231.830070</ele>
        <time>2020-08-13T03:50:07.462Z</time>
      </trkpt>
      <trkpt lat="48.598428" lon="16.699323">
        <ele>231.771485</ele>
        <time>2020-08-13T03:50:10.452Z</time>
      </trkpt>
      <trkpt lat="48.598360" lon="16.699483">
        <ele>231.702367</ele>
        <time>2020-08-13T03:50:13.432Z</time>
      </trkpt>
      <trkpt lat="48.598318" lon="16.699612">
        <ele>231.650113</ele>
        <time>2020-08-13T03:50:15.431Z</time>
      </trkpt>
      <trkpt lat="48.598292" lon="16.699760">
        <ele>231.594462</ele>
        <time>2020-08-13T03:50:17.435Z</time>
      </trkpt>
      <trkpt lat="48.598267" lon="16.699921">
        <ele>231.534361</ele>
        <time>2020-08-13T03:50:19.416Z</time>
      </trkpt>
      <trkpt lat="48.598240" lon="16.700117">
        <ele>231.461603</ele>
        <time>2020-08-13T03:50:21.432Z</time>
      </trkpt>
      <trkpt lat="48.598217" lon="16.700345">
        <ele>231.377785</ele>
        <time>2020-08-13T03:50:23.430Z</time>
      </trkpt>
      <trkpt lat="48.598202" lon="16.700597">
        <ele>231.285834</ele>
        <time>2020-08-13T03:50:25.430Z</time>
      </trkpt>
      <trkpt lat="48.598198" lon="16.700845">
        <ele>231.191400</ele>
        <time>2020-08-13T03:50:27.419Z</time>
      </trkpt>
      <trkpt lat="48.598196" lon="16.701066">
        <ele>231.005012</ele>
        <time>2020-08-13T03:50:29.423Z</time>
      </trkpt>
      <trkpt lat="48.598194" lon="16.701255">
        <ele>230.845606</ele>
        <time>2020-08-13T03:50:31.435Z</time>
      </trkpt>
      <trkpt lat="48.598195" lon="16.701420">
        <ele>230.706454</ele>
        <time>2020-08-13T03:50:33.429Z</time>
      </trkpt>
      <trkpt lat="48.598196" lon="16.701567">
        <ele>230.582482</ele>
        <time>2020-08-13T03:50:35.421Z</time>
      </trkpt>
      <trkpt lat="48.598196" lon="16.701713">
        <ele>230.459359</ele>
        <time>2020-08-13T03:50:37.445Z</time>
      </trkpt>
      <trkpt lat="48.598187" lon="16.701887">
        <ele>230.312175</ele>
        <time>2020-08-13T03:50:39.442Z</time>
      </trkpt>
      <trkpt lat="48.598176" lon="16.702078">
        <ele>230.150494</ele>
        <time>2020-08-13T03:50:41.435Z</time>
      </trkpt>
      <trkpt lat="48.598168" lon="16.702286">
        <ele>229.974789</ele>
        <time>2020-08-13T03:50:43.454Z</time>
      </trkpt>
      <trkpt lat="48.598174" lon="16.702500">
        <ele>229.794159</ele>
        <time>2020-08-13T03:50:45.423Z</time>
      </trkpt>
      <trkpt lat="48.598191" lon="16.702692">
        <ele>229.630799</ele>
        <time>2020-08-13T03:50:47.461Z</time>
      </trkpt>
      <trkpt lat="48.598208" lon="16.702859">
        <ele>229.488308</ele>
        <time>2020-08-13T03:50:49.435Z</time>
      </trkpt>
      <trkpt lat="48.598217" lon="16.702999">
        <ele>229.369689</ele>
        <time>2020-08-13T03:50:51.429Z</time>
      </trkpt>
      <trkpt lat="48.598221" lon="16.703189">
        <ele>229.209379</ele>
        <time>2020-08-13T03:50:54.431Z</time>
      </trkpt>
      <trkpt lat="48.598225" lon="16.703383">
        <ele>229.045698</ele>
        <time>2020-08-13T03:50:57.427Z</time>
      </trkpt>
      <trkpt lat="48.598234" lon="16.703530">
        <ele>228.921202</ele>
        <time>2020-08-13T03:50:59.442Z</time>
      </trkpt>
      <trkpt lat="48.598249" lon="16.703699">
        <ele>228.760744</ele>
        <time>2020-08-13T03:51:01.425Z</time>
      </trkpt>
      <trkpt lat="48.598271" lon="16.703895">
        <ele>228.571262</ele>
        <time>2020-08-13T03:51:03.464Z</time>
      </trkpt>
      <trkpt lat="48.598338" lon="16.704098">
        <ele>228.355025</ele>
        <time>2020-08-13T03:51:05.427Z</time>
      </trkpt>
      <trkpt lat="48.598422" lon="16.704316">
        <ele>228.114552</ele>
        <time>2020-08-13T03:51:07.448Z</time>
      </trkpt>
      <trkpt lat="48.598472" lon="16.704561">
        <ele>227.870175</ele>
        <time>2020-08-13T03:51:09.421Z</time>
      </trkpt>
      <trkpt lat="48.598518" lon="16.704802">
        <ele>227.631101</ele>
        <time>2020-08-13T03:51:11.439Z</time>
      </trkpt>
      <trkpt lat="48.598561" lon="16.705030">
        <ele>227.405129</ele>
        <time>2020-08-13T03:51:13.428Z</time>
      </trkpt>
      <trkpt lat="48.598604" lon="16.705241">
        <ele>227.194693</ele>
        <time>2020-08-13T03:51:15.439Z</time>
      </trkpt>
      <trkpt lat="48.598645" lon="16.705442">
        <ele>226.994213</ele>
        <time>2020-08-13T03:51:17.426Z</time>
      </trkpt>
      <trkpt lat="48.598680" lon="16.705638">
        <ele>226.800715</ele>
        <time>2020-08-13T03:51:19.431Z</time>
      </trkpt>
      <trkpt lat="48.598697" lon="16.705836">
        <ele>226.610417</ele>
        <time>2020-08-13T03:51:21.465Z</time>
      </trkpt>
      <trkpt lat="48.598709" lon="16.706037">
        <ele>226.418064</ele>
        <time>2020-08-13T03:51:23.446Z</time>
      </trkpt>
      <trkpt lat="48.598712" lon="16.706226">
        <ele>226.278865</ele>
        <time>2020-08-13T03:51:25.443Z</time>
      </trkpt>
      <trkpt lat="48.598723" lon="16.706401">
        <ele>226.202523</ele>
        <time>2020-08-13T03:51:27.450Z</time>
      </trkpt>
      <trkpt lat="48.598745" lon="16.706563">
        <ele>226.130701</ele>
        <time>2020-08-13T03:51:29.432Z</time>
      </trkpt>
      <trkpt lat="48.598780" lon="16.706724">
        <ele>226.057100</ele>
        <time>2020-08-13T03:51:31.444Z</time>
      </trkpt>
      <trkpt lat="48.598812" lon="16.706886">
        <ele>225.983675</ele>
        <time>2020-08-13T03:51:33.458Z</time>
      </trkpt>
      <trkpt lat="48.598845" lon="16.707060">
        <ele>225.905064</ele>
        <time>2020-08-13T03:51:35.440Z</time>
      </trkpt>
      <trkpt lat="48.598882" lon="16.707250">
        <ele>225.819048</ele>
        <time>2020-08-13T03:51:37.452Z</time>
      </trkpt>
      <trkpt lat="48.598916" lon="16.707453">
        <ele>225.728105</ele>
        <time>2020-08-13T03:51:39.442Z</time>
      </trkpt>
      <trkpt lat="48.598946" lon="16.707663">
        <ele>225.634803</ele>
        <time>2020-08-13T03:51:41.438Z</time>
      </trkpt>
      <trkpt lat="48.598984" lon="16.707867">
        <ele>225.542762</ele>
        <time>2020-08-13T03:51:43.432Z</time>
      </trkpt>
      <trkpt lat="48.599030" lon="16.708060">
        <ele>225.453669</ele>
        <time>2020-08-13T03:51:45.419Z</time>
      </trkpt>
      <trkpt lat="48.599094" lon="16.708249">
        <ele>225.361455</ele>
        <time>2020-08-13T03:51:47.443Z</time>
      </trkpt>
      <trkpt lat="48.599149" lon="16.708435">
        <ele>225.272972</ele>
        <time>2020-08-13T03:51:49.436Z</time>
      </trkpt>
      <trkpt lat="48.599198" lon="16.708621">
        <ele>225.186023</ele>
        <time>2020-08-13T03:51:51.461Z</time>
      </trkpt>
      <trkpt lat="48.599258" lon="16.708798">
        <ele>225.132876</ele>
        <time>2020-08-13T03:51:53.421Z</time>
      </trkpt>
      <trkpt lat="48.599300" lon="16.708980">
        <ele>225.135046</ele>
        <time>2020-08-13T03:51:55.447Z</time>
      </trkpt>
      <trkpt lat="48.599329" lon="16.709164">
        <ele>225.137175</ele>
        <time>2020-08-13T03:51:57.461Z</time>
      </trkpt>
      <trkpt lat="48.599356" lon="16.709344">
        <ele>225.139252</ele>
        <time>2020-08-13T03:51:59.425Z</time>
      </trkpt>
      <trkpt lat="48.599374" lon="16.709520">
        <ele>225.141257</ele>
        <time>2020-08-13T03:52:01.468Z</time>
      </trkpt>
      <trkpt lat="48.599390" lon="16.709694">
        <ele>225.143234</ele>
        <time>2020-08-13T03:52:03.432Z</time>
      </trkpt>
      <trkpt lat="48.599407" lon="16.709864">
        <ele>225.145169</ele>
        <time>2020-08-13T03:52:05.455Z</time>
      </trkpt>
      <trkpt lat="48.599419" lon="16.710033">
        <ele>225.147082</ele>
        <time>2020-08-13T03:52:07.463Z</time>
      </trkpt>
      <trkpt lat="48.599428" lon="16.710202">
        <ele>225.148990</ele>
        <time>2020-08-13T03:52:09.469Z</time>
      </trkpt>
      <trkpt lat="48.599436" lon="16.710364">
        <ele>225.150819</ele>
        <time>2020-08-13T03:52:11.420Z</time>
      </trkpt>
      <trkpt lat="48.599444" lon="16.710519">
        <ele>225.152568</ele>
        <time>2020-08-13T03:52:13.413Z</time>
      </trkpt>
      <trkpt lat="48.599454" lon="16.710686">
        <ele>225.154456</ele>
        <time>2020-08-13T03:52:15.431Z</time>
      </trkpt>
      <trkpt lat="48.599463" lon="16.710854">
        <ele>225.156353</ele>
        <time>2020-08-13T03:52:17.429Z</time>
      </trkpt>
      <trkpt lat="48.599472" lon="16.711013">
        <ele>225.158149</ele>
        <time>2020-08-13T03:52:19.416Z</time>
      </trkpt>
      <trkpt lat="48.599483" lon="16.711171">
        <ele>225.159937</ele>
        <time>2020-08-13T03:52:21.424Z</time>
      </trkpt>
      <trkpt lat="48.599486" lon="16.711327">
        <ele>225.161694</ele>
        <time>2020-08-13T03:52:23.420Z</time>
      </trkpt>
      <trkpt lat="48.599485" lon="16.711475">
        <ele>225.174662</ele>
        <time>2020-08-13T03:52:25.418Z</time>
      </trkpt>
      <trkpt lat="48.599493" lon="16.711624">
        <ele>225.203082</ele>
        <time>2020-08-13T03:52:27.444Z</time>
      </trkpt>
      <trkpt lat="48.599503" lon="16.711766">
        <ele>225.230231</ele>
        <time>2020-08-13T03:52:29.461Z</time>
      </trkpt>
      <trkpt lat="48.599517" lon="16.711946">
        <ele>225.264687</ele>
        <time>2020-08-13T03:52:32.422Z</time>
      </trkpt>
      <trkpt lat="48.599523" lon="16.712118">
        <ele>225.297431</ele>
        <time>2020-08-13T03:52:35.465Z</time>
      </trkpt>
      <trkpt lat="48.599533" lon="16.712259">
        <ele>225.324391</ele>
        <time>2020-08-13T03:52:37.418Z</time>
      </trkpt>
      <trkpt lat="48.599557" lon="16.712398">
        <ele>225.351702</ele>
        <time>2020-08-13T03:52:39.433Z</time>
      </trkpt>
      <trkpt lat="48.599588" lon="16.712537">
        <ele>225.379590</ele>
        <time>2020-08-13T03:52:41.434Z</time>
      </trkpt>
      <trkpt lat="48.599623" lon="16.712679">
        <ele>225.408400</ele>
        <time>2020-08-13T03:52:43.431Z</time>
      </trkpt>
      <trkpt lat="48.599658" lon="16.712826">
        <ele>225.438102</ele>
        <time>2020-08-13T03:52:45.428Z</time>
      </trkpt>
      <trkpt lat="48.599692" lon="16.712974">
        <ele>225.467888</ele>
        <time>2020-08-13T03:52:47.432Z</time>
      </trkpt>
      <trkpt lat="48.599724" lon="16.713120">
        <ele>225.497129</ele>
        <time>2020-08-13T03:52:49.451Z</time>
      </trkpt>
      <trkpt lat="48.599749" lon="16.713268">
        <ele>225.526169</ele>
        <time>2020-08-13T03:52:51.427Z</time>
      </trkpt>
      <trkpt lat="48.599783" lon="16.713414">
        <ele>225.555596</ele>
        <time>2020-08-13T03:52:53.438Z</time>
      </trkpt>
      <trkpt lat="48.599817" lon="16.713562">
        <ele>225.585381</ele>
        <time>2020-08-13T03:52:55.440Z</time>
      </trkpt>
      <trkpt lat="48.599850" lon="16.713713">
        <ele>225.615615</ele>
        <time>2020-08-13T03:52:57.432Z</time>
      </trkpt>
      <trkpt lat="48.599877" lon="16.713869">
        <ele>225.646271</ele>
        <time>2020-08-13T03:52:59.434Z</time>
      </trkpt>
      <trkpt lat="48.599901" lon="16.714024">
        <ele>225.676535</ele>
        <time>2020-08-13T03:53:01.429Z</time>
      </trkpt>
      <trkpt lat="48.599923" lon="16.714175">
        <ele>225.686192</ele>
        <time>2020-08-13T03:53:03.450Z</time>
      </trkpt>
      <trkpt lat="48.599943" lon="16.714324">
        <ele>225.693336</ele>
        <time>2020-08-13T03:53:05.433Z</time>
      </trkpt>
      <trkpt lat="48.599969" lon="16.714477">
        <ele>225.700759</ele>
        <time>2020-08-13T03:53:07.434Z</time>
      </trkpt>
      <trkpt lat="48.599995" lon="16.714632">
        <ele>225.708274</ele>
        <time>2020-08-13T03:53:09.440Z</time>
      </trkpt>
      <trkpt lat="48.600016" lon="16.714793">
        <ele>225.715985</ele>
        <time>2020-08-13T03:53:11.435Z</time>
      </trkpt>
      <trkpt lat="48.600031" lon="16.714958">
        <ele>225.723811</ele>
        <time>2020-08-13T03:53:13.413Z</time>
      </trkpt>
      <trkpt lat="48.600045" lon="16.715121">
        <ele>225.731535</ele>
        <time>2020-08-13T03:53:15.441Z</time>
      </trkpt>
      <trkpt lat="48.600053" lon="16.715284">
        <ele>225.739216</ele>
        <time>2020-08-13T03:53:17.451Z</time>
      </trkpt>
      <trkpt lat="48.600063" lon="16.715444">
        <ele>225.746768</ele>
        <time>2020-08-13T03:53:19.435Z</time>
      </trkpt>
      <trkpt lat="48.600073" lon="16.715605">
        <ele>225.754367</ele>
        <time>2020-08-13T03:53:21.445Z</time>
      </trkpt>
      <trkpt lat="48.600078" lon="16.715764">
        <ele>225.761846</ele>
        <time>2020-08-13T03:53:23.425Z</time>
      </trkpt>
      <trkpt lat="48.600071" lon="16.715927">
        <ele>225.769522</ele>
        <time>2020-08-13T03:53:25.432Z</time>
      </trkpt>
      <trkpt lat="48.600051" lon="16.716093">
        <ele>225.777451</ele>
        <time>2020-08-13T03:53:27.432Z</time>
      </trkpt>
      <trkpt lat="48.600008" lon="16.716249">
        <ele>225.785393</ele>
        <time>2020-08-13T03:53:29.419Z</time>
      </trkpt>
      <trkpt lat="48.599983" lon="16.716407">
        <ele>225.793027</ele>
        <time>2020-08-13T03:53:31.424Z</time>
      </trkpt>
      <trkpt lat="48.599997" lon="16.716561">
        <ele>225.800332</ele>
        <time>2020-08-13T03:53:33.424Z</time>
      </trkpt>
      <trkpt lat="48.600017" lon="16.716713">
        <ele>225.807617</ele>
        <time>2020-08-13T03:53:35.427Z</time>
      </trkpt>
      <trkpt lat="48.600011" lon="16.716859">
        <ele>225.814702</ele>
        <time>2020-08-13T03:53:37.421Z</time>
      </trkpt>
      <trkpt lat="48.599984" lon="16.716996">
        <ele>225.821626</ele>
        <time>2020-08-13T03:53:39.423Z</time>
      </trkpt>
      <trkpt lat="48.599950" lon="16.717134">
        <ele>225.828758</ele>
        <time>2020-08-13T03:53:41.439Z</time>
      </trkpt>
      <trkpt lat="48.599915" lon="16.717269">
        <ele>225.835781</ele>
        <time>2020-08-13T03:53:43.423Z</time>
      </trkpt>
      <trkpt lat="48.599881" lon="16.717404">
        <ele>225.842778</ele>
        <time>2020-08-13T03:53:45.421Z</time>
      </trkpt>
      <trkpt lat="48.599852" lon="16.717538">
        <ele>225.849606</ele>
        <time>2020-08-13T03:53:47.424Z</time>
      </trkpt>
      <trkpt lat="48.599831" lon="16.717675">
        <ele>225.856418</ele>
        <time>2020-08-13T03:53:49.418Z</time>
      </trkpt>
      <trkpt lat="48.599855" lon="16.717867">
        <ele>225.865881</ele>
        <time>2020-08-13T03:53:52.413Z</time>
      </trkpt>
      <trkpt lat="48.599875" lon="16.718062">
        <ele>225.875439</ele>
        <time>2020-08-13T03:53:55.419Z</time>
      </trkpt>
      <trkpt lat="48.599878" lon="16.718260">
        <ele>225.885031</ele>
        <time>2020-08-13T03:53:58.429Z</time>
      </trkpt>
      <trkpt lat="48.599885" lon="16.718396">
        <ele>225.891638</ele>
        <time>2020-08-13T03:54:00.435Z</time>
      </trkpt>
      <trkpt lat="48.599892" lon="16.718533">
        <ele>225.898293</ele>
        <time>2020-08-13T03:54:02.451Z</time>
      </trkpt>
      <trkpt lat="48.599894" lon="16.718676">
        <ele>225.905220</ele>
        <time>2020-08-13T03:54:04.438Z</time>
      </trkpt>
      <trkpt lat="48.599889" lon="16.718813">
        <ele>225.911866</ele>
        <time>2020-08-13T03:54:06.449Z</time>
      </trkpt>
      <trkpt lat="48.599887" lon="16.719014">
        <ele>225.921602</ele>
        <time>2020-08-13T03:54:09.428Z</time>
      </trkpt>
      <trkpt lat="48.599899" lon="16.719150">
        <ele>225.928247</ele>
        <time>2020-08-13T03:54:11.419Z</time>
      </trkpt>
      <trkpt lat="48.599916" lon="16.719292">
        <ele>225.935236</ele>
        <time>2020-08-13T03:54:13.430Z</time>
      </trkpt>
      <trkpt lat="48.599925" lon="16.719435">
        <ele>225.938995</ele>
        <time>2020-08-13T03:54:15.430Z</time>
      </trkpt>
      <trkpt lat="48.599932" lon="16.719579">
        <ele>225.938400</ele>
        <time>2020-08-13T03:54:17.432Z</time>
      </trkpt>
      <trkpt lat="48.599943" lon="16.719721">
        <ele>225.937811</ele>
        <time>2020-08-13T03:54:19.445Z</time>
      </trkpt>
      <trkpt lat="48.599953" lon="16.719862">
        <ele>225.937227</ele>
        <time>2020-08-13T03:54:21.428Z</time>
      </trkpt>
      <trkpt lat="48.599959" lon="16.720004">
        <ele>225.936641</ele>
        <time>2020-08-13T03:54:23.441Z</time>
      </trkpt>
      <trkpt lat="48.599969" lon="16.720146">
        <ele>225.936053</ele>
        <time>2020-08-13T03:54:25.434Z</time>
      </trkpt>
      <trkpt lat="48.599982" lon="16.720289">
        <ele>225.935458</ele>
        <time>2020-08-13T03:54:27.437Z</time>
      </trkpt>
      <trkpt lat="48.599996" lon="16.720431">
        <ele>225.934867</ele>
        <time>2020-08-13T03:54:29.436Z</time>
      </trkpt>
      <trkpt lat="48.600010" lon="16.720571">
        <ele>225.934284</ele>
        <time>2020-08-13T03:54:31.433Z</time>
      </trkpt>
      <trkpt lat="48.600021" lon="16.720710">
        <ele>225.933707</ele>
        <time>2020-08-13T03:54:33.423Z</time>
      </trkpt>
      <trkpt lat="48.600029" lon="16.720850">
        <ele>225.933129</ele>
        <time>2020-08-13T03:54:35.450Z</time>
      </trkpt>
      <trkpt lat="48.600036" lon="16.720986">
        <ele>225.932567</ele>
        <time>2020-08-13T03:54:37.419Z</time>
      </trkpt>
      <trkpt lat="48.600045" lon="16.721121">
        <ele>225.932008</ele>
        <time>2020-08-13T03:54:39.450Z</time>
      </trkpt>
      <trkpt lat="48.600053" lon="16.721267">
        <ele>225.931405</ele>
        <time>2020-08-13T03:54:41.432Z</time>
      </trkpt>
      <trkpt lat="48.600057" lon="16.721414">
        <ele>225.930799</ele>
        <time>2020-08-13T03:54:43.429Z</time>
      </trkpt>
      <trkpt lat="48.600062" lon="16.721550">
        <ele>225.930238</ele>
        <time>2020-08-13T03:54:45.415Z</time>
      </trkpt>
      <trkpt lat="48.600100" lon="16.721737">
        <ele>225.929432</ele>
        <time>2020-08-13T03:54:48.425Z</time>
      </trkpt>
      <trkpt lat="48.600150" lon="16.721924">
        <ele>225.928601</ele>
        <time>2020-08-13T03:54:51.446Z</time>
      </trkpt>
      <trkpt lat="48.600182" lon="16.722068">
        <ele>225.929338</ele>
        <time>2020-08-13T03:54:53.435Z</time>
      </trkpt>
      <trkpt lat="48.600233" lon="16.722221">
        <ele>225.942767</ele>
        <time>2020-08-13T03:54:55.436Z</time>
      </trkpt>
      <trkpt lat="48.600293" lon="16.722387">
        <ele>225.957593</ele>
        <time>2020-08-13T03:54:57.436Z</time>
      </trkpt>
      <trkpt lat="48.600347" lon="16.722564">
        <ele>225.972870</ele>
        <time>2020-08-13T03:54:59.425Z</time>
      </trkpt>
      <trkpt lat="48.600391" lon="16.722752">
        <ele>225.988500</ele>
        <time>2020-08-13T03:55:01.438Z</time>
      </trkpt>
      <trkpt lat="48.600416" lon="16.722946">
        <ele>226.003991</ele>
        <time>2020-08-13T03:55:03.443Z</time>
      </trkpt>
      <trkpt lat="48.600451" lon="16.723132">
        <ele>226.019147</ele>
        <time>2020-08-13T03:55:05.434Z</time>
      </trkpt>
      <trkpt lat="48.600488" lon="16.723319">
        <ele>226.034445</ele>
        <time>2020-08-13T03:55:07.449Z</time>
      </trkpt>
      <trkpt lat="48.600515" lon="16.723503">
        <ele>226.049217</ele>
        <time>2020-08-13T03:55:09.462Z</time>
      </trkpt>
      <trkpt lat="48.600544" lon="16.723684">
        <ele>226.063813</ele>
        <time>2020-08-13T03:55:11.471Z</time>
      </trkpt>
      <trkpt lat="48.600574" lon="16.723858">
        <ele>226.077905</ele>
        <time>2020-08-13T03:55:13.460Z</time>
      </trkpt>
      <trkpt lat="48.600605" lon="16.724032">
        <ele>226.092029</ele>
        <time>2020-08-13T03:55:15.455Z</time>
      </trkpt>
      <trkpt lat="48.600628" lon="16.724203">
        <ele>226.105705</ele>
        <time>2020-08-13T03:55:17.419Z</time>
      </trkpt>
      <trkpt lat="48.600635" lon="16.724372">
        <ele>226.118976</ele>
        <time>2020-08-13T03:55:19.439Z</time>
      </trkpt>
      <trkpt lat="48.600649" lon="16.724536">
        <ele>226.131936</ele>
        <time>2020-08-13T03:55:21.433Z</time>
      </trkpt>
      <trkpt lat="48.600670" lon="16.724691">
        <ele>226.163509</ele>
        <time>2020-08-13T03:55:23.416Z</time>
      </trkpt>
      <trkpt lat="48.600694" lon="16.724846">
        <ele>226.252446</ele>
        <time>2020-08-13T03:55:25.421Z</time>
      </trkpt>
      <trkpt lat="48.600717" lon="16.724988">
        <ele>226.334124</ele>
        <time>2020-08-13T03:55:27.422Z</time>
      </trkpt>
      <trkpt lat="48.600741" lon="16.725131">
        <ele>226.416547</ele>
        <time>2020-08-13T03:55:29.436Z</time>
      </trkpt>
      <trkpt lat="48.600769" lon="16.725272">
        <ele>226.498796</ele>
        <time>2020-08-13T03:55:31.455Z</time>
      </trkpt>
      <trkpt lat="48.600792" lon="16.725408">
        <ele>226.577222</ele>
        <time>2020-08-13T03:55:33.424Z</time>
      </trkpt>
      <trkpt lat="48.600824" lon="16.725543">
        <ele>226.657342</ele>
        <time>2020-08-13T03:55:35.441Z</time>
      </trkpt>
      <trkpt lat="48.600857" lon="16.725677">
        <ele>226.737227</ele>
        <time>2020-08-13T03:55:37.443Z</time>
      </trkpt>
      <trkpt lat="48.600897" lon="16.725801">
        <ele>226.814306</ele>
        <time>2020-08-13T03:55:39.437Z</time>
      </trkpt>
      <trkpt lat="48.600944" lon="16.725930">
        <ele>226.896589</ele>
        <time>2020-08-13T03:55:41.434Z</time>
      </trkpt>
      <trkpt lat="48.600992" lon="16.726062">
        <ele>226.980748</ele>
        <time>2020-08-13T03:55:43.442Z</time>
      </trkpt>
      <trkpt lat="48.601039" lon="16.726197">
        <ele>227.065983</ele>
        <time>2020-08-13T03:55:45.416Z</time>
      </trkpt>
      <trkpt lat="48.601082" lon="16.726327">
        <ele>227.147189</ele>
        <time>2020-08-13T03:55:47.436Z</time>
      </trkpt>
      <trkpt lat="48.601123" lon="16.726453">
        <ele>227.225642</ele>
        <time>2020-08-13T03:55:49.449Z</time>
      </trkpt>
      <trkpt lat="48.601175" lon="16.726570">
        <ele>227.304398</ele>
        <time>2020-08-13T03:55:51.423Z</time>
      </trkpt>
      <trkpt lat="48.601228" lon="16.726683">
        <ele>227.381794</ele>
        <time>2020-08-13T03:55:53.439Z</time>
      </trkpt>
      <trkpt lat="48.601284" lon="16.726794">
        <ele>227.459793</ele>
        <time>2020-08-13T03:55:55.454Z</time>
      </trkpt>
      <trkpt lat="48.601339" lon="16.726903">
        <ele>227.536391</ele>
        <time>2020-08-13T03:55:57.431Z</time>
      </trkpt>
      <trkpt lat="48.601393" lon="16.727012">
        <ele>227.612479</ele>
        <time>2020-08-13T03:55:59.433Z</time>
      </trkpt>
      <trkpt lat="48.601446" lon="16.727130">
        <ele>227.667025</ele>
        <time>2020-08-13T03:56:01.443Z</time>
      </trkpt>
      <trkpt lat="48.601498" lon="16.727251">
        <ele>227.683168</ele>
        <time>2020-08-13T03:56:03.423Z</time>
      </trkpt>
      <trkpt lat="48.601565" lon="16.727428">
        <ele>227.705983</ele>
        <time>2020-08-13T03:56:06.458Z</time>
      </trkpt>
      <trkpt lat="48.601630" lon="16.727587">
        <ele>227.726893</ele>
        <time>2020-08-13T03:56:09.429Z</time>
      </trkpt>
      <trkpt lat="48.601699" lon="16.727734">
        <ele>227.747059</ele>
        <time>2020-08-13T03:56:12.445Z</time>
      </trkpt>
      <trkpt lat="48.601779" lon="16.727882">
        <ele>227.768442</ele>
        <time>2020-08-13T03:56:15.418Z</time>
      </trkpt>
      <trkpt lat="48.601859" lon="16.728038">
        <ele>227.790526</ele>
        <time>2020-08-13T03:56:18.433Z</time>
      </trkpt>
      <trkpt lat="48.601913" lon="16.728149">
        <ele>227.805941</ele>
        <time>2020-08-13T03:56:20.414Z</time>
      </trkpt>
      <trkpt lat="48.601970" lon="16.728264">
        <ele>227.822018</ele>
        <time>2020-08-13T03:56:22.447Z</time>
      </trkpt>
      <trkpt lat="48.602049" lon="16.728427">
        <ele>227.844625</ele>
        <time>2020-08-13T03:56:25.453Z</time>
      </trkpt>
      <trkpt lat="48.602127" lon="16.728580">
        <ele>227.866235</ele>
        <time>2020-08-13T03:56:28.442Z</time>
      </trkpt>
      <trkpt lat="48.602223" lon="16.728711">
        <ele>227.888109</ele>
        <time>2020-08-13T03:56:31.454Z</time>
      </trkpt>
      <trkpt lat="48.602322" lon="16.728835">
        <ele>227.909855</ele>
        <time>2020-08-13T03:56:34.447Z</time>
      </trkpt>
      <trkpt lat="48.602415" lon="16.728971">
        <ele>227.931740</ele>
        <time>2020-08-13T03:56:37.448Z</time>
      </trkpt>
      <trkpt lat="48.602489" lon="16.729122">
        <ele>227.952764</ele>
        <time>2020-08-13T03:56:40.428Z</time>
      </trkpt>
      <trkpt lat="48.602545" lon="16.729233">
        <ele>227.962590</ele>
        <time>2020-08-13T03:56:42.448Z</time>
      </trkpt>
      <trkpt lat="48.602618" lon="16.729357">
        <ele>227.949428</ele>
        <time>2020-08-13T03:56:44.450Z</time>
      </trkpt>
      <trkpt lat="48.602695" lon="16.729474">
        <ele>227.936342</ele>
        <time>2020-08-13T03:56:46.445Z</time>
      </trkpt>
      <trkpt lat="48.602807" lon="16.729573">
        <ele>227.920790</ele>
        <time>2020-08-13T03:56:48.424Z</time>
      </trkpt>
      <trkpt lat="48.602948" lon="16.729662">
        <ele>227.902472</ele>
        <time>2020-08-13T03:56:50.445Z</time>
      </trkpt>
      <trkpt lat="48.603099" lon="16.729663">
        <ele>227.884370</ele>
        <time>2020-08-13T03:56:52.435Z</time>
      </trkpt>
      <trkpt lat="48.603228" lon="16.729554">
        <ele>227.866654</ele>
        <time>2020-08-13T03:56:54.420Z</time>
      </trkpt>
      <trkpt lat="48.603354" lon="16.729438">
        <ele>227.848970</ele>
        <time>2020-08-13T03:56:56.425Z</time>
      </trkpt>
      <trkpt lat="48.603457" lon="16.729347">
        <ele>227.834669</ele>
        <time>2020-08-13T03:56:58.446Z</time>
      </trkpt>
      <trkpt lat="48.603561" lon="16.729433">
        <ele>227.820459</ele>
        <time>2020-08-13T03:57:01.423Z</time>
      </trkpt>
      <trkpt lat="48.603628" lon="16.729592">
        <ele>227.805512</ele>
        <time>2020-08-13T03:57:04.434Z</time>
      </trkpt>
      <trkpt lat="48.603701" lon="16.729747">
        <ele>227.790427</ele>
        <time>2020-08-13T03:57:07.438Z</time>
      </trkpt>
      <trkpt lat="48.603773" lon="16.729904">
        <ele>227.775280</ele>
        <time>2020-08-13T03:57:10.424Z</time>
      </trkpt>
      <trkpt lat="48.603838" lon="16.730064">
        <ele>227.760394</ele>
        <time>2020-08-13T03:57:13.439Z</time>
      </trkpt>
      <trkpt lat="48.603901" lon="16.730213">
        <ele>227.699853</ele>
        <time>2020-08-13T03:57:16.419Z</time>
      </trkpt>
      <trkpt lat="48.603955" lon="16.730361">
        <ele>227.477932</ele>
        <time>2020-08-13T03:57:19.420Z</time>
      </trkpt>
      <trkpt lat="48.603999" lon="16.730522">
        <ele>227.249219</ele>
        <time>2020-08-13T03:57:22.453Z</time>
      </trkpt>
      <trkpt lat="48.604084" lon="16.730610">
        <ele>227.044701</ele>
        <time>2020-08-13T03:57:25.417Z</time>
      </trkpt>
      <trkpt lat="48.604171" lon="16.730561">
        <ele>226.860380</ele>
        <time>2020-08-13T03:57:27.423Z</time>
      </trkpt>
      <trkpt lat="48.604284" lon="16.730491">
        <ele>226.617936</ele>
        <time>2020-08-13T03:57:29.459Z</time>
      </trkpt>
      <trkpt lat="48.604413" lon="16.730430">
        <ele>226.349590</ele>
        <time>2020-08-13T03:57:31.425Z</time>
      </trkpt>
      <trkpt lat="48.604551" lon="16.730377">
        <ele>226.066906</ele>
        <time>2020-08-13T03:57:33.465Z</time>
      </trkpt>
      <trkpt lat="48.604692" lon="16.730321">
        <ele>225.777471</ele>
        <time>2020-08-13T03:57:35.427Z</time>
      </trkpt>
      <trkpt lat="48.604898" lon="16.730236">
        <ele>225.353526</ele>
        <time>2020-08-13T03:57:38.432Z</time>
      </trkpt>
      <trkpt lat="48.605033" lon="16.730185">
        <ele>225.077260</ele>
        <time>2020-08-13T03:57:40.449Z</time>
      </trkpt>
      <trkpt lat="48.605169" lon="16.730133">
        <ele>224.798748</ele>
        <time>2020-08-13T03:57:42.466Z</time>
      </trkpt>
      <trkpt lat="48.605303" lon="16.730076">
        <ele>224.522379</ele>
        <time>2020-08-13T03:57:44.420Z</time>
      </trkpt>
      <trkpt lat="48.605436" lon="16.730019">
        <ele>224.247921</ele>
        <time>2020-08-13T03:57:46.420Z</time>
      </trkpt>
      <trkpt lat="48.605567" lon="16.729966">
        <ele>224.103136</ele>
        <time>2020-08-13T03:57:48.426Z</time>
      </trkpt>
      <trkpt lat="48.605692" lon="16.729917">
        <ele>224.006580</ele>
        <time>2020-08-13T03:57:50.438Z</time>
      </trkpt>
      <trkpt lat="48.605811" lon="16.729865">
        <ele>223.913960</ele>
        <time>2020-08-13T03:57:52.428Z</time>
      </trkpt>
      <trkpt lat="48.605927" lon="16.729818">
        <ele>223.824163</ele>
        <time>2020-08-13T03:57:54.434Z</time>
      </trkpt>
      <trkpt lat="48.606041" lon="16.729778">
        <ele>223.736657</ele>
        <time>2020-08-13T03:57:56.431Z</time>
      </trkpt>
      <trkpt lat="48.606150" lon="16.729740">
        <ele>223.653016</ele>
        <time>2020-08-13T03:57:58.422Z</time>
      </trkpt>
      <trkpt lat="48.606247" lon="16.729699">
        <ele>223.577706</ele>
        <time>2020-08-13T03:58:00.423Z</time>
      </trkpt>
      <trkpt lat="48.606313" lon="16.729545">
        <ele>223.486970</ele>
        <time>2020-08-13T03:58:03.430Z</time>
      </trkpt>
      <trkpt lat="48.606288" lon="16.729374">
        <ele>223.400382</ele>
        <time>2020-08-13T03:58:06.422Z</time>
      </trkpt>
      <trkpt lat="48.606291" lon="16.729199">
        <ele>223.313828</ele>
        <time>2020-08-13T03:58:09.436Z</time>
      </trkpt>
      <trkpt lat="48.606410" lon="16.729157">
        <ele>223.222456</ele>
        <time>2020-08-13T03:58:12.443Z</time>
      </trkpt>
      <trkpt lat="48.606539" lon="16.729116">
        <ele>223.123891</ele>
        <time>2020-08-13T03:58:15.431Z</time>
      </trkpt>
      <trkpt lat="48.606654" lon="16.729064">
        <ele>223.034140</ele>
        <time>2020-08-13T03:58:18.427Z</time>
      </trkpt>
      <trkpt lat="48.606751" lon="16.729006">
        <ele>222.956147</ele>
        <time>2020-08-13T03:58:21.433Z</time>
      </trkpt>
      <trkpt lat="48.606864" lon="16.728947">
        <ele>222.866759</ele>
        <time>2020-08-13T03:58:25.454Z</time>
      </trkpt>
      <trkpt lat="48.606976" lon="16.728848">
        <ele>222.805394</ele>
        <time>2020-08-13T03:58:28.417Z</time>
      </trkpt>
      <trkpt lat="48.607062" lon="16.728733">
        <ele>222.767614</ele>
        <time>2020-08-13T03:58:30.438Z</time>
      </trkpt>
      <trkpt lat="48.607145" lon="16.728619">
        <ele>222.730715</ele>
        <time>2020-08-13T03:58:32.433Z</time>
      </trkpt>
      <trkpt lat="48.607230" lon="16.728530">
        <ele>222.696690</ele>
        <time>2020-08-13T03:58:34.428Z</time>
      </trkpt>
      <trkpt lat="48.607321" lon="16.728464">
        <ele>222.663476</ele>
        <time>2020-08-13T03:58:36.430Z</time>
      </trkpt>
      <trkpt lat="48.607415" lon="16.728404">
        <ele>222.629898</ele>
        <time>2020-08-13T03:58:38.438Z</time>
      </trkpt>
      <trkpt lat="48.607497" lon="16.728309">
        <ele>222.595903</ele>
        <time>2020-08-13T03:58:40.423Z</time>
      </trkpt>
      <trkpt lat="48.607575" lon="16.728198">
        <ele>222.560655</ele>
        <time>2020-08-13T03:58:42.434Z</time>
      </trkpt>
      <trkpt lat="48.607646" lon="16.728096">
        <ele>222.528426</ele>
        <time>2020-08-13T03:58:44.428Z</time>
      </trkpt>
      <trkpt lat="48.607781" lon="16.728076">
        <ele>222.483784</ele>
        <time>2020-08-13T03:58:47.421Z</time>
      </trkpt>
      <trkpt lat="48.607889" lon="16.728177">
        <ele>222.441995</ele>
        <time>2020-08-13T03:58:50.450Z</time>
      </trkpt>
      <trkpt lat="48.607995" lon="16.728293">
        <ele>222.398935</ele>
        <time>2020-08-13T03:58:53.432Z</time>
      </trkpt>
      <trkpt lat="48.608102" lon="16.728415">
        <ele>222.354834</ele>
        <time>2020-08-13T03:58:56.419Z</time>
      </trkpt>
      <trkpt lat="48.608175" lon="16.728499">
        <ele>222.324646</ele>
        <time>2020-08-13T03:58:58.442Z</time>
      </trkpt>
      <trkpt lat="48.608251" lon="16.728586">
        <ele>222.293277</ele>
        <time>2020-08-13T03:59:00.419Z</time>
      </trkpt>
      <trkpt lat="48.608324" lon="16.728681">
        <ele>222.261583</ele>
        <time>2020-08-13T03:59:02.451Z</time>
      </trkpt>
      <trkpt lat="48.608395" lon="16.728774">
        <ele>222.256274</ele>
        <time>2020-08-13T03:59:04.430Z</time>
      </trkpt>
      <trkpt lat="48.608469" lon="16.728859">
        <ele>222.298224</ele>
        <time>2020-08-13T03:59:06.434Z</time>
      </trkpt>
      <trkpt lat="48.608575" lon="16.728978">
        <ele>222.357821</ele>
        <time>2020-08-13T03:59:09.440Z</time>
      </trkpt>
      <trkpt lat="48.608673" lon="16.729084">
        <ele>222.412213</ele>
        <time>2020-08-13T03:59:12.433Z</time>
      </trkpt>
      <trkpt lat="48.608772" lon="16.729183">
        <ele>222.465793</ele>
        <time>2020-08-13T03:59:15.442Z</time>
      </trkpt>
      <trkpt lat="48.608879" lon="16.729313">
        <ele>222.527755</ele>
        <time>2020-08-13T03:59:18.443Z</time>
      </trkpt>
      <trkpt lat="48.608956" lon="16.729403">
        <ele>222.571688</ele>
        <time>2020-08-13T03:59:20.443Z</time>
      </trkpt>
      <trkpt lat="48.609026" lon="16.729496">
        <ele>222.613751</ele>
        <time>2020-08-13T03:59:22.476Z</time>
      </trkpt>
      <trkpt lat="48.609106" lon="16.729578">
        <ele>222.657380</ele>
        <time>2020-08-13T03:59:24.439Z</time>
      </trkpt>
      <trkpt lat="48.609187" lon="16.729666">
        <ele>222.702404</ele>
        <time>2020-08-13T03:59:26.442Z</time>
      </trkpt>
      <trkpt lat="48.609269" lon="16.729760">
        <ele>222.748855</ele>
        <time>2020-08-13T03:59:28.440Z</time>
      </trkpt>
      <trkpt lat="48.609348" lon="16.729849">
        <ele>222.793327</ele>
        <time>2020-08-13T03:59:30.441Z</time>
      </trkpt>
      <trkpt lat="48.609426" lon="16.729942">
        <ele>222.838166</ele>
        <time>2020-08-13T03:59:32.434Z</time>
      </trkpt>
      <trkpt lat="48.609506" lon="16.730033">
        <ele>222.883357</ele>
        <time>2020-08-13T03:59:34.423Z</time>
      </trkpt>
      <trkpt lat="48.609588" lon="16.730124">
        <ele>222.929273</ele>
        <time>2020-08-13T03:59:36.442Z</time>
      </trkpt>
      <trkpt lat="48.609666" lon="16.730215">
        <ele>222.973745</ele>
        <time>2020-08-13T03:59:38.459Z</time>
      </trkpt>
      <trkpt lat="48.609749" lon="16.730311">
        <ele>223.020917</ele>
        <time>2020-08-13T03:59:40.442Z</time>
      </trkpt>
      <trkpt lat="48.609852" lon="16.730287">
        <ele>223.068438</ele>
        <time>2020-08-13T03:59:42.435Z</time>
      </trkpt>
      <trkpt lat="48.609935" lon="16.730184">
        <ele>223.118489</ele>
        <time>2020-08-13T03:59:44.417Z</time>
      </trkpt>
      <trkpt lat="48.610026" lon="16.730229">
        <ele>223.163122</ele>
        <time>2020-08-13T03:59:46.438Z</time>
      </trkpt>
      <trkpt lat="48.610104" lon="16.730345">
        <ele>223.214119</ele>
        <time>2020-08-13T03:59:48.414Z</time>
      </trkpt>
      <trkpt lat="48.610179" lon="16.730477">
        <ele>223.267765</ele>
        <time>2020-08-13T03:59:50.428Z</time>
      </trkpt>
      <trkpt lat="48.610257" lon="16.730610">
        <ele>223.322563</ele>
        <time>2020-08-13T03:59:52.427Z</time>
      </trkpt>
      <trkpt lat="48.610337" lon="16.730742">
        <ele>223.377756</ele>
        <time>2020-08-13T03:59:54.431Z</time>
      </trkpt>
      <trkpt lat="48.610420" lon="16.730883">
        <ele>223.435946</ele>
        <time>2020-08-13T03:59:56.426Z</time>
      </trkpt>
      <trkpt lat="48.610507" lon="16.731034">
        <ele>223.497681</ele>
        <time>2020-08-13T03:59:58.439Z</time>
      </trkpt>
      <trkpt lat="48.610588" lon="16.731213">
        <ele>223.564539</ele>
        <time>2020-08-13T04:00:00.436Z</time>
      </trkpt>
      <trkpt lat="48.610659" lon="16.731399">
        <ele>223.630738</ele>
        <time>2020-08-13T04:00:02.432Z</time>
      </trkpt>
      <trkpt lat="48.610730" lon="16.731573">
        <ele>223.693761</ele>
        <time>2020-08-13T04:00:04.433Z</time>
      </trkpt>
      <trkpt lat="48.610799" lon="16.731741">
        <ele>223.754722</ele>
        <time>2020-08-13T04:00:06.439Z</time>
      </trkpt>
      <trkpt lat="48.610861" lon="16.731901">
        <ele>223.811884</ele>
        <time>2020-08-13T04:00:08.446Z</time>
      </trkpt>
      <trkpt lat="48.610924" lon="16.732055">
        <ele>223.867702</ele>
        <time>2020-08-13T04:00:10.442Z</time>
      </trkpt>
      <trkpt lat="48.610988" lon="16.732200">
        <ele>223.924464</ele>
        <time>2020-08-13T04:00:12.433Z</time>
      </trkpt>
      <trkpt lat="48.611053" lon="16.732344">
        <ele>223.983723</ele>
        <time>2020-08-13T04:00:14.430Z</time>
      </trkpt>
      <trkpt lat="48.611121" lon="16.732487">
        <ele>224.043589</ele>
        <time>2020-08-13T04:00:16.423Z</time>
      </trkpt>
      <trkpt lat="48.611184" lon="16.732608">
        <ele>224.095933</ele>
        <time>2020-08-13T04:00:18.424Z</time>
      </trkpt>
      <trkpt lat="48.611246" lon="16.732755">
        <ele>224.155193</ele>
        <time>2020-08-13T04:00:22.426Z</time>
      </trkpt>
      <trkpt lat="48.611264" lon="16.732905">
        <ele>224.207006</ele>
        <time>2020-08-13T04:00:26.419Z</time>
      </trkpt>
      <trkpt lat="48.611201" lon="16.733018">
        <ele>224.257242</ele>
        <time>2020-08-13T04:00:29.426Z</time>
      </trkpt>
      <trkpt lat="48.611179" lon="16.733184">
        <ele>224.314782</ele>
        <time>2020-08-13T04:00:32.414Z</time>
      </trkpt>
      <trkpt lat="48.611171" lon="16.733355">
        <ele>224.373044</ele>
        <time>2020-08-13T04:00:35.429Z</time>
      </trkpt>
      <trkpt lat="48.611174" lon="16.733521">
        <ele>224.429483</ele>
        <time>2020-08-13T04:00:38.432Z</time>
      </trkpt>
      <trkpt lat="48.611176" lon="16.733676">
        <ele>224.482172</ele>
        <time>2020-08-13T04:00:41.454Z</time>
      </trkpt>
      <trkpt lat="48.611188" lon="16.733828">
        <ele>224.534199</ele>
        <time>2020-08-13T04:00:44.439Z</time>
      </trkpt>
      <trkpt lat="48.611189" lon="16.733978">
        <ele>224.585182</ele>
        <time>2020-08-13T04:00:47.422Z</time>
      </trkpt>
      <trkpt lat="48.611192" lon="16.734126">
        <ele>224.635505</ele>
        <time>2020-08-13T04:00:50.441Z</time>
      </trkpt>
      <trkpt lat="48.611194" lon="16.734271">
        <ele>224.684797</ele>
        <time>2020-08-13T04:00:53.421Z</time>
      </trkpt>
      <trkpt lat="48.611189" lon="16.734412">
        <ele>224.732786</ele>
        <time>2020-08-13T04:00:56.435Z</time>
      </trkpt>
      <trkpt lat="48.611174" lon="16.734559">
        <ele>224.783338</ele>
        <time>2020-08-13T04:00:59.436Z</time>
      </trkpt>
      <trkpt lat="48.611143" lon="16.734715">
        <ele>224.819973</ele>
        <time>2020-08-13T04:01:02.439Z</time>
      </trkpt>
      <trkpt lat="48.611107" lon="16.734872">
        <ele>224.828710</ele>
        <time>2020-08-13T04:01:05.429Z</time>
      </trkpt>
      <trkpt lat="48.611071" lon="16.735032">
        <ele>224.837597</ele>
        <time>2020-08-13T04:01:08.425Z</time>
      </trkpt>
      <trkpt lat="48.611032" lon="16.735191">
        <ele>224.846514</ele>
        <time>2020-08-13T04:01:11.430Z</time>
      </trkpt>
      <trkpt lat="48.610978" lon="16.735334">
        <ele>224.855173</ele>
        <time>2020-08-13T04:01:14.407Z</time>
      </trkpt>
      <trkpt lat="48.610921" lon="16.735483">
        <ele>224.864224</ele>
        <time>2020-08-13T04:01:17.443Z</time>
      </trkpt>
      <trkpt lat="48.610864" lon="16.735618">
        <ele>224.872646</ele>
        <time>2020-08-13T04:01:20.408Z</time>
      </trkpt>
      <trkpt lat="48.610795" lon="16.735744">
        <ele>224.881248</ele>
        <time>2020-08-13T04:01:23.428Z</time>
      </trkpt>
      <trkpt lat="48.610717" lon="16.735869">
        <ele>224.890286</ele>
        <time>2020-08-13T04:01:26.459Z</time>
      </trkpt>
      <trkpt lat="48.610636" lon="16.735982">
        <ele>224.899049</ele>
        <time>2020-08-13T04:01:29.434Z</time>
      </trkpt>
      <trkpt lat="48.610538" lon="16.736105">
        <ele>224.909177</ele>
        <time>2020-08-13T04:01:32.416Z</time>
      </trkpt>
      <trkpt lat="48.610461" lon="16.736193">
        <ele>224.916852</ele>
        <time>2020-08-13T04:01:34.433Z</time>
      </trkpt>
      <trkpt lat="48.610376" lon="16.736289">
        <ele>224.925288</ele>
        <time>2020-08-13T04:01:36.439Z</time>
      </trkpt>
      <trkpt lat="48.610285" lon="16.736389">
        <ele>224.934233</ele>
        <time>2020-08-13T04:01:38.442Z</time>
      </trkpt>
      <trkpt lat="48.610182" lon="16.736499">
        <ele>224.944261</ele>
        <time>2020-08-13T04:01:40.444Z</time>
      </trkpt>
      <trkpt lat="48.610080" lon="16.736613">
        <ele>224.954347</ele>
        <time>2020-08-13T04:01:42.448Z</time>
      </trkpt>
      <trkpt lat="48.609980" lon="16.736732">
        <ele>224.934401</ele>
        <time>2020-08-13T04:01:44.437Z</time>
      </trkpt>
      <trkpt lat="48.609885" lon="16.736857">
        <ele>224.882752</ele>
        <time>2020-08-13T04:01:46.439Z</time>
      </trkpt>
      <trkpt lat="48.609793" lon="16.736980">
        <ele>224.832385</ele>
        <time>2020-08-13T04:01:48.458Z</time>
      </trkpt>
      <trkpt lat="48.609699" lon="16.737097">
        <ele>224.782451</ele>
        <time>2020-08-13T04:01:50.436Z</time>
      </trkpt>
      <trkpt lat="48.609602" lon="16.737206">
        <ele>224.732883</ele>
        <time>2020-08-13T04:01:52.437Z</time>
      </trkpt>
      <trkpt lat="48.609498" lon="16.737312">
        <ele>224.681442</ele>
        <time>2020-08-13T04:01:54.457Z</time>
      </trkpt>
      <trkpt lat="48.609388" lon="16.737426">
        <ele>224.626746</ele>
        <time>2020-08-13T04:01:56.440Z</time>
      </trkpt>
      <trkpt lat="48.609283" lon="16.737554">
        <ele>224.571429</ele>
        <time>2020-08-13T04:01:58.443Z</time>
      </trkpt>
      <trkpt lat="48.609182" lon="16.737697">
        <ele>224.514680</ele>
        <time>2020-08-13T04:02:00.422Z</time>
      </trkpt>
      <trkpt lat="48.609073" lon="16.737839">
        <ele>224.455671</ele>
        <time>2020-08-13T04:02:02.434Z</time>
      </trkpt>
      <trkpt lat="48.608965" lon="16.737971">
        <ele>224.398715</ele>
        <time>2020-08-13T04:02:04.449Z</time>
      </trkpt>
      <trkpt lat="48.608863" lon="16.738086">
        <ele>224.346531</ele>
        <time>2020-08-13T04:02:06.421Z</time>
      </trkpt>
      <trkpt lat="48.608759" lon="16.738193">
        <ele>224.294937</ele>
        <time>2020-08-13T04:02:08.441Z</time>
      </trkpt>
      <trkpt lat="48.608663" lon="16.738314">
        <ele>224.243678</ele>
        <time>2020-08-13T04:02:10.439Z</time>
      </trkpt>
      <trkpt lat="48.608572" lon="16.738424">
        <ele>224.292916</ele>
        <time>2020-08-13T04:02:12.451Z</time>
      </trkpt>
      <trkpt lat="48.608486" lon="16.738532">
        <ele>224.418670</ele>
        <time>2020-08-13T04:02:14.437Z</time>
      </trkpt>
      <trkpt lat="48.608403" lon="16.738637">
        <ele>224.540402</ele>
        <time>2020-08-13T04:02:16.440Z</time>
      </trkpt>
      <trkpt lat="48.608323" lon="16.738739">
        <ele>224.658116</ele>
        <time>2020-08-13T04:02:18.443Z</time>
      </trkpt>
      <trkpt lat="48.608240" lon="16.738843">
        <ele>224.779373</ele>
        <time>2020-08-13T04:02:20.438Z</time>
      </trkpt>
      <trkpt lat="48.608151" lon="16.738937">
        <ele>224.901495</ele>
        <time>2020-08-13T04:02:22.435Z</time>
      </trkpt>
      <trkpt lat="48.608064" lon="16.739035">
        <ele>225.023533</ele>
        <time>2020-08-13T04:02:24.460Z</time>
      </trkpt>
      <trkpt lat="48.607978" lon="16.739135">
        <ele>225.145572</ele>
        <time>2020-08-13T04:02:26.445Z</time>
      </trkpt>
      <trkpt lat="48.607898" lon="16.739232">
        <ele>225.260923</ele>
        <time>2020-08-13T04:02:28.429Z</time>
      </trkpt>
      <trkpt lat="48.607816" lon="16.739333">
        <ele>225.379895</ele>
        <time>2020-08-13T04:02:30.475Z</time>
      </trkpt>
      <trkpt lat="48.607742" lon="16.739432">
        <ele>225.491041</ele>
        <time>2020-08-13T04:02:32.434Z</time>
      </trkpt>
      <trkpt lat="48.607667" lon="16.739536">
        <ele>225.605512</ele>
        <time>2020-08-13T04:02:34.426Z</time>
      </trkpt>
      <trkpt lat="48.607601" lon="16.739629">
        <ele>225.706994</ele>
        <time>2020-08-13T04:02:36.434Z</time>
      </trkpt>
      <trkpt lat="48.607512" lon="16.739767">
        <ele>225.850390</ele>
        <time>2020-08-13T04:02:39.421Z</time>
      </trkpt>
      <trkpt lat="48.607435" lon="16.739909">
        <ele>225.986995</ele>
        <time>2020-08-13T04:02:42.475Z</time>
      </trkpt>
      <trkpt lat="48.607367" lon="16.740022">
        <ele>226.100650</ele>
        <time>2020-08-13T04:02:45.420Z</time>
      </trkpt>
      <trkpt lat="48.607304" lon="16.740121">
        <ele>226.202857</ele>
        <time>2020-08-13T04:02:48.428Z</time>
      </trkpt>
      <trkpt lat="48.607243" lon="16.740222">
        <ele>226.304389</ele>
        <time>2020-08-13T04:02:51.440Z</time>
      </trkpt>
      <trkpt lat="48.607165" lon="16.740359">
        <ele>226.438368</ele>
        <time>2020-08-13T04:02:55.409Z</time>
      </trkpt>
      <trkpt lat="48.607110" lon="16.740467">
        <ele>226.539392</ele>
        <time>2020-08-13T04:02:58.424Z</time>
      </trkpt>
      <trkpt lat="48.607051" lon="16.740582">
        <ele>226.647262</ele>
        <time>2020-08-13T04:03:01.434Z</time>
      </trkpt>
      <trkpt lat="48.606983" lon="16.740697">
        <ele>226.761594</ele>
        <time>2020-08-13T04:03:04.430Z</time>
      </trkpt>
      <trkpt lat="48.606927" lon="16.740824">
        <ele>226.874720</ele>
        <time>2020-08-13T04:03:07.419Z</time>
      </trkpt>
      <trkpt lat="48.606871" lon="16.740951">
        <ele>226.987846</ele>
        <time>2020-08-13T04:03:10.469Z</time>
      </trkpt>
      <trkpt lat="48.606818" lon="16.741081">
        <ele>227.101028</ele>
        <time>2020-08-13T04:03:13.430Z</time>
      </trkpt>
      <trkpt lat="48.606763" lon="16.741205">
        <ele>227.211683</ele>
        <time>2020-08-13T04:03:16.441Z</time>
      </trkpt>
      <trkpt lat="48.606703" lon="16.741335">
        <ele>227.329173</ele>
        <time>2020-08-13T04:03:19.442Z</time>
      </trkpt>
      <trkpt lat="48.606646" lon="16.741467">
        <ele>227.446010</ele>
        <time>2020-08-13T04:03:22.427Z</time>
      </trkpt>
      <trkpt lat="48.606588" lon="16.741605">
        <ele>227.567191</ele>
        <time>2020-08-13T04:03:25.434Z</time>
      </trkpt>
      <trkpt lat="48.606526" lon="16.741747">
        <ele>227.693299</ele>
        <time>2020-08-13T04:03:28.435Z</time>
      </trkpt>
      <trkpt lat="48.606476" lon="16.741897">
        <ele>227.817789</ele>
        <time>2020-08-13T04:03:31.439Z</time>
      </trkpt>
      <trkpt lat="48.606417" lon="16.742056">
        <ele>227.952909</ele>
        <time>2020-08-13T04:03:34.456Z</time>
      </trkpt>
      <trkpt lat="48.606362" lon="16.742171">
        <ele>228.058092</ele>
        <time>2020-08-13T04:03:36.448Z</time>
      </trkpt>
      <trkpt lat="48.606308" lon="16.742301">
        <ele>228.171867</ele>
        <time>2020-08-13T04:03:38.457Z</time>
      </trkpt>
      <trkpt lat="48.606249" lon="16.742442">
        <ele>228.245534</ele>
        <time>2020-08-13T04:03:40.447Z</time>
      </trkpt>
      <trkpt lat="48.606180" lon="16.742580">
        <ele>228.187232</ele>
        <time>2020-08-13T04:03:42.446Z</time>
      </trkpt>
      <trkpt lat="48.606101" lon="16.742725">
        <ele>228.123920</ele>
        <time>2020-08-13T04:03:44.421Z</time>
      </trkpt>
      <trkpt lat="48.606014" lon="16.742886">
        <ele>228.053854</ele>
        <time>2020-08-13T04:03:46.456Z</time>
      </trkpt>
      <trkpt lat="48.605933" lon="16.743073">
        <ele>227.978521</ele>
        <time>2020-08-13T04:03:48.441Z</time>
      </trkpt>
      <trkpt lat="48.605867" lon="16.743269">
        <ele>227.904402</ele>
        <time>2020-08-13T04:03:50.433Z</time>
      </trkpt>
      <trkpt lat="48.605816" lon="16.743474">
        <ele>227.830593</ele>
        <time>2020-08-13T04:03:52.448Z</time>
      </trkpt>
      <trkpt lat="48.605780" lon="16.743685">
        <ele>227.757161</ele>
        <time>2020-08-13T04:03:54.439Z</time>
      </trkpt>
      <trkpt lat="48.605764" lon="16.743885">
        <ele>227.689273</ele>
        <time>2020-08-13T04:03:56.421Z</time>
      </trkpt>
      <trkpt lat="48.605766" lon="16.744045">
        <ele>227.635346</ele>
        <time>2020-08-13T04:03:58.455Z</time>
      </trkpt>
      <trkpt lat="48.605766" lon="16.744230">
        <ele>227.573004</ele>
        <time>2020-08-13T04:04:01.445Z</time>
      </trkpt>
      <trkpt lat="48.605772" lon="16.744396">
        <ele>227.516981</ele>
        <time>2020-08-13T04:04:04.441Z</time>
      </trkpt>
      <trkpt lat="48.605770" lon="16.744565">
        <ele>227.460022</ele>
        <time>2020-08-13T04:04:07.424Z</time>
      </trkpt>
      <trkpt lat="48.605757" lon="16.744761">
        <ele>227.393642</ele>
        <time>2020-08-13T04:04:10.436Z</time>
      </trkpt>
      <trkpt lat="48.605757" lon="16.744934">
        <ele>227.335789</ele>
        <time>2020-08-13T04:04:12.419Z</time>
      </trkpt>
      <trkpt lat="48.605763" lon="16.745116">
        <ele>227.277358</ele>
        <time>2020-08-13T04:04:14.441Z</time>
      </trkpt>
      <trkpt lat="48.605785" lon="16.745287">
        <ele>227.221497</ele>
        <time>2020-08-13T04:04:16.449Z</time>
      </trkpt>
      <trkpt lat="48.605815" lon="16.745448">
        <ele>227.167861</ele>
        <time>2020-08-13T04:04:18.444Z</time>
      </trkpt>
      <trkpt lat="48.605854" lon="16.745596">
        <ele>227.116775</ele>
        <time>2020-08-13T04:04:20.423Z</time>
      </trkpt>
      <trkpt lat="48.605892" lon="16.745739">
        <ele>227.067357</ele>
        <time>2020-08-13T04:04:22.433Z</time>
      </trkpt>
      <trkpt lat="48.605932" lon="16.745869">
        <ele>227.021380</ele>
        <time>2020-08-13T04:04:24.444Z</time>
      </trkpt>
      <trkpt lat="48.605991" lon="16.746005">
        <ele>226.969223</ele>
        <time>2020-08-13T04:04:26.440Z</time>
      </trkpt>
      <trkpt lat="48.606051" lon="16.746159">
        <ele>226.911908</ele>
        <time>2020-08-13T04:04:28.442Z</time>
      </trkpt>
      <trkpt lat="48.606121" lon="16.746312">
        <ele>226.852250</ele>
        <time>2020-08-13T04:04:30.426Z</time>
      </trkpt>
      <trkpt lat="48.606200" lon="16.746451">
        <ele>226.793478</ele>
        <time>2020-08-13T04:04:32.456Z</time>
      </trkpt>
      <trkpt lat="48.606277" lon="16.746582">
        <ele>226.737275</ele>
        <time>2020-08-13T04:04:34.453Z</time>
      </trkpt>
      <trkpt lat="48.606359" lon="16.746698">
        <ele>226.682826</ele>
        <time>2020-08-13T04:04:36.433Z</time>
      </trkpt>
      <trkpt lat="48.606447" lon="16.746797">
        <ele>226.629640</ele>
        <time>2020-08-13T04:04:38.459Z</time>
      </trkpt>
      <trkpt lat="48.606536" lon="16.746889">
        <ele>226.577362</ele>
        <time>2020-08-13T04:04:40.426Z</time>
      </trkpt>
      <trkpt lat="48.606628" lon="16.746977">
        <ele>226.524574</ele>
        <time>2020-08-13T04:04:42.414Z</time>
      </trkpt>
      <trkpt lat="48.606718" lon="16.747063">
        <ele>226.472948</ele>
        <time>2020-08-13T04:04:44.452Z</time>
      </trkpt>
      <trkpt lat="48.606817" lon="16.747136">
        <ele>226.458655</ele>
        <time>2020-08-13T04:04:46.429Z</time>
      </trkpt>
      <trkpt lat="48.606920" lon="16.747201">
        <ele>226.444654</ele>
        <time>2020-08-13T04:04:48.444Z</time>
      </trkpt>
      <trkpt lat="48.607026" lon="16.747254">
        <ele>226.430647</ele>
        <time>2020-08-13T04:04:50.424Z</time>
      </trkpt>
      <trkpt lat="48.607128" lon="16.747294">
        <ele>226.417428</ele>
        <time>2020-08-13T04:04:52.432Z</time>
      </trkpt>
      <trkpt lat="48.607229" lon="16.747328">
        <ele>226.404447</ele>
        <time>2020-08-13T04:04:54.474Z</time>
      </trkpt>
      <trkpt lat="48.607331" lon="16.747357">
        <ele>226.391426</ele>
        <time>2020-08-13T04:04:56.430Z</time>
      </trkpt>
      <trkpt lat="48.607435" lon="16.747378">
        <ele>226.378263</ele>
        <time>2020-08-13T04:04:58.427Z</time>
      </trkpt>
      <trkpt lat="48.607540" lon="16.747404">
        <ele>226.364915</ele>
        <time>2020-08-13T04:05:00.427Z</time>
      </trkpt>
      <trkpt lat="48.607648" lon="16.747432">
        <ele>226.351168</ele>
        <time>2020-08-13T04:05:02.435Z</time>
      </trkpt>
      <trkpt lat="48.607753" lon="16.747447">
        <ele>226.337937</ele>
        <time>2020-08-13T04:05:04.441Z</time>
      </trkpt>
      <trkpt lat="48.607852" lon="16.747465">
        <ele>226.325427</ele>
        <time>2020-08-13T04:05:06.431Z</time>
      </trkpt>
      <trkpt lat="48.607948" lon="16.747486">
        <ele>226.313258</ele>
        <time>2020-08-13T04:05:08.449Z</time>
      </trkpt>
      <trkpt lat="48.608046" lon="16.747504">
        <ele>226.300873</ele>
        <time>2020-08-13T04:05:10.462Z</time>
      </trkpt>
      <trkpt lat="48.608140" lon="16.747521">
        <ele>226.288997</ele>
        <time>2020-08-13T04:05:12.431Z</time>
      </trkpt>
      <trkpt lat="48.608232" lon="16.747537">
        <ele>226.277379</ele>
        <time>2020-08-13T04:05:14.444Z</time>
      </trkpt>
      <trkpt lat="48.608322" lon="16.747549">
        <ele>226.266044</ele>
        <time>2020-08-13T04:05:16.434Z</time>
      </trkpt>
      <trkpt lat="48.608454" lon="16.747565">
        <ele>226.249431</ele>
        <time>2020-08-13T04:05:19.439Z</time>
      </trkpt>
      <trkpt lat="48.608544" lon="16.747584">
        <ele>226.192132</ele>
        <time>2020-08-13T04:05:21.451Z</time>
      </trkpt>
      <trkpt lat="48.608636" lon="16.747607">
        <ele>226.118201</ele>
        <time>2020-08-13T04:05:23.427Z</time>
      </trkpt>
      <trkpt lat="48.608734" lon="16.747631">
        <ele>226.039490</ele>
        <time>2020-08-13T04:05:25.442Z</time>
      </trkpt>
      <trkpt lat="48.608834" lon="16.747652">
        <ele>225.959446</ele>
        <time>2020-08-13T04:05:27.422Z</time>
      </trkpt>
      <trkpt lat="48.608940" lon="16.747667">
        <ele>225.875037</ele>
        <time>2020-08-13T04:05:29.424Z</time>
      </trkpt>
      <trkpt lat="48.609049" lon="16.747688">
        <ele>225.787919</ele>
        <time>2020-08-13T04:05:31.465Z</time>
      </trkpt>
      <trkpt lat="48.609159" lon="16.747715">
        <ele>225.699566</ele>
        <time>2020-08-13T04:05:33.429Z</time>
      </trkpt>
      <trkpt lat="48.609269" lon="16.747744">
        <ele>225.611038</ele>
        <time>2020-08-13T04:05:35.435Z</time>
      </trkpt>
      <trkpt lat="48.609376" lon="16.747775">
        <ele>225.524661</ele>
        <time>2020-08-13T04:05:37.447Z</time>
      </trkpt>
      <trkpt lat="48.609479" lon="16.747817">
        <ele>225.440083</ele>
        <time>2020-08-13T04:05:39.429Z</time>
      </trkpt>
      <trkpt lat="48.609581" lon="16.747859">
        <ele>225.356269</ele>
        <time>2020-08-13T04:05:41.425Z</time>
      </trkpt>
      <trkpt lat="48.609681" lon="16.747904">
        <ele>225.273550</ele>
        <time>2020-08-13T04:05:43.433Z</time>
      </trkpt>
      <trkpt lat="48.609778" lon="16.747949">
        <ele>225.193108</ele>
        <time>2020-08-13T04:05:45.431Z</time>
      </trkpt>
      <trkpt lat="48.609870" lon="16.747990">
        <ele>225.117066</ele>
        <time>2020-08-13T04:05:47.435Z</time>
      </trkpt>
      <trkpt lat="48.609957" lon="16.748036">
        <ele>225.043995</ele>
        <time>2020-08-13T04:05:49.462Z</time>
      </trkpt>
      <trkpt lat="48.610041" lon="16.748087">
        <ele>224.972231</ele>
        <time>2020-08-13T04:05:51.426Z</time>
      </trkpt>
      <trkpt lat="48.610133" lon="16.748140">
        <ele>224.894177</ele>
        <time>2020-08-13T04:05:53.428Z</time>
      </trkpt>
      <trkpt lat="48.610232" lon="16.748196">
        <ele>224.811262</ele>
        <time>2020-08-13T04:05:55.425Z</time>
      </trkpt>
      <trkpt lat="48.610340" lon="16.748259">
        <ele>224.727422</ele>
        <time>2020-08-13T04:05:57.434Z</time>
      </trkpt>
      <trkpt lat="48.610450" lon="16.748333">
        <ele>224.640225</ele>
        <time>2020-08-13T04:05:59.440Z</time>
      </trkpt>
      <trkpt lat="48.610564" lon="16.748407">
        <ele>224.550373</ele>
        <time>2020-08-13T04:06:01.421Z</time>
      </trkpt>
      <trkpt lat="48.610679" lon="16.748479">
        <ele>224.460225</ele>
        <time>2020-08-13T04:06:03.432Z</time>
      </trkpt>
      <trkpt lat="48.610801" lon="16.748528">
        <ele>224.368800</ele>
        <time>2020-08-13T04:06:05.443Z</time>
      </trkpt>
      <trkpt lat="48.610918" lon="16.748486">
        <ele>224.281704</ele>
        <time>2020-08-13T04:06:07.433Z</time>
      </trkpt>
      <trkpt lat="48.611006" lon="16.748374">
        <ele>224.198403</ele>
        <time>2020-08-13T04:06:09.409Z</time>
      </trkpt>
      <trkpt lat="48.611076" lon="16.748258">
        <ele>224.123195</ele>
        <time>2020-08-13T04:06:11.420Z</time>
      </trkpt>
      <trkpt lat="48.611159" lon="16.748158">
        <ele>224.046337</ele>
        <time>2020-08-13T04:06:13.420Z</time>
      </trkpt>
      <trkpt lat="48.611260" lon="16.748111">
        <ele>223.969800</ele>
        <time>2020-08-13T04:06:15.438Z</time>
      </trkpt>
      <trkpt lat="48.611369" lon="16.748138">
        <ele>223.889800</ele>
        <time>2020-08-13T04:06:17.420Z</time>
      </trkpt>
      <trkpt lat="48.611471" lon="16.748194">
        <ele>223.811207</ele>
        <time>2020-08-13T04:06:19.413Z</time>
      </trkpt>
      <trkpt lat="48.611571" lon="16.748254">
        <ele>223.733287</ele>
        <time>2020-08-13T04:06:21.411Z</time>
      </trkpt>
      <trkpt lat="48.611667" lon="16.748313">
        <ele>223.658234</ele>
        <time>2020-08-13T04:06:23.424Z</time>
      </trkpt>
      <trkpt lat="48.611759" lon="16.748367">
        <ele>223.586758</ele>
        <time>2020-08-13T04:06:25.445Z</time>
      </trkpt>
      <trkpt lat="48.611848" lon="16.748420">
        <ele>223.517652</ele>
        <time>2020-08-13T04:06:27.419Z</time>
      </trkpt>
      <trkpt lat="48.611941" lon="16.748470">
        <ele>223.476573</ele>
        <time>2020-08-13T04:06:29.437Z</time>
      </trkpt>
      <trkpt lat="48.612035" lon="16.748522">
        <ele>223.434916</ele>
        <time>2020-08-13T04:06:31.440Z</time>
      </trkpt>
      <trkpt lat="48.612132" lon="16.748570">
        <ele>223.392440</ele>
        <time>2020-08-13T04:06:33.453Z</time>
      </trkpt>
      <trkpt lat="48.612230" lon="16.748620">
        <ele>223.349395</ele>
        <time>2020-08-13T04:06:35.434Z</time>
      </trkpt>
      <trkpt lat="48.612329" lon="16.748668">
        <ele>223.306127</ele>
        <time>2020-08-13T04:06:37.441Z</time>
      </trkpt>
      <trkpt lat="48.612430" lon="16.748721">
        <ele>223.261633</ele>
        <time>2020-08-13T04:06:39.432Z</time>
      </trkpt>
      <trkpt lat="48.612531" lon="16.748773">
        <ele>223.217229</ele>
        <time>2020-08-13T04:06:41.422Z</time>
      </trkpt>
      <trkpt lat="48.612634" lon="16.748823">
        <ele>223.172207</ele>
        <time>2020-08-13T04:06:43.431Z</time>
      </trkpt>
      <trkpt lat="48.612734" lon="16.748875">
        <ele>223.128197</ele>
        <time>2020-08-13T04:06:45.416Z</time>
      </trkpt>
      <trkpt lat="48.612832" lon="16.748930">
        <ele>223.084693</ele>
        <time>2020-08-13T04:06:47.458Z</time>
      </trkpt>
      <trkpt lat="48.612933" lon="16.748971">
        <ele>223.041170</ele>
        <time>2020-08-13T04:06:49.426Z</time>
      </trkpt>
      <trkpt lat="48.613031" lon="16.749017">
        <ele>222.998464</ele>
        <time>2020-08-13T04:06:51.420Z</time>
      </trkpt>
      <trkpt lat="48.613126" lon="16.749071">
        <ele>222.956226</ele>
        <time>2020-08-13T04:06:53.430Z</time>
      </trkpt>
      <trkpt lat="48.613219" lon="16.749128">
        <ele>222.914463</ele>
        <time>2020-08-13T04:06:55.429Z</time>
      </trkpt>
      <trkpt lat="48.613314" lon="16.749192">
        <ele>222.871180</ele>
        <time>2020-08-13T04:06:57.437Z</time>
      </trkpt>
      <trkpt lat="48.613413" lon="16.749261">
        <ele>222.825813</ele>
        <time>2020-08-13T04:06:59.477Z</time>
      </trkpt>
      <trkpt lat="48.613512" lon="16.749329">
        <ele>222.780560</ele>
        <time>2020-08-13T04:07:01.433Z</time>
      </trkpt>
      <trkpt lat="48.613611" lon="16.749396">
        <ele>222.767004</ele>
        <time>2020-08-13T04:07:03.469Z</time>
      </trkpt>
      <trkpt lat="48.613712" lon="16.749459">
        <ele>222.763923</ele>
        <time>2020-08-13T04:07:05.441Z</time>
      </trkpt>
      <trkpt lat="48.613808" lon="16.749525">
        <ele>222.760950</ele>
        <time>2020-08-13T04:07:07.445Z</time>
      </trkpt>
      <trkpt lat="48.613900" lon="16.749599">
        <ele>222.758011</ele>
        <time>2020-08-13T04:07:09.431Z</time>
      </trkpt>
      <trkpt lat="48.613996" lon="16.749675">
        <ele>222.754955</ele>
        <time>2020-08-13T04:07:11.425Z</time>
      </trkpt>
      <trkpt lat="48.614092" lon="16.749755">
        <ele>222.751864</ele>
        <time>2020-08-13T04:07:13.432Z</time>
      </trkpt>
      <trkpt lat="48.614183" lon="16.749844">
        <ele>222.748808</ele>
        <time>2020-08-13T04:07:15.465Z</time>
      </trkpt>
      <trkpt lat="48.614274" lon="16.749929">
        <ele>222.745792</ele>
        <time>2020-08-13T04:07:17.432Z</time>
      </trkpt>
      <trkpt lat="48.614365" lon="16.750006">
        <ele>222.742852</ele>
        <time>2020-08-13T04:07:19.450Z</time>
      </trkpt>
      <trkpt lat="48.614457" lon="16.750073">
        <ele>222.739972</ele>
        <time>2020-08-13T04:07:21.449Z</time>
      </trkpt>
      <trkpt lat="48.614543" lon="16.750131">
        <ele>222.737317</ele>
        <time>2020-08-13T04:07:23.444Z</time>
      </trkpt>
      <trkpt lat="48.614634" lon="16.750190">
        <ele>222.734525</ele>
        <time>2020-08-13T04:07:25.467Z</time>
      </trkpt>
      <trkpt lat="48.614726" lon="16.750240">
        <ele>222.731768</ele>
        <time>2020-08-13T04:07:27.431Z</time>
      </trkpt>
      <trkpt lat="48.614821" lon="16.750296">
        <ele>222.728892</ele>
        <time>2020-08-13T04:07:29.419Z</time>
      </trkpt>
      <trkpt lat="48.614915" lon="16.750349">
        <ele>222.726063</ele>
        <time>2020-08-13T04:07:31.453Z</time>
      </trkpt>
      <trkpt lat="48.615015" lon="16.750403">
        <ele>222.723069</ele>
        <time>2020-08-13T04:07:33.434Z</time>
      </trkpt>
      <trkpt lat="48.615120" lon="16.750462">
        <ele>222.719910</ele>
        <time>2020-08-13T04:07:35.433Z</time>
      </trkpt>
      <trkpt lat="48.615226" lon="16.750538">
        <ele>222.745198</ele>
        <time>2020-08-13T04:07:37.441Z</time>
      </trkpt>
      <trkpt lat="48.615325" lon="16.750634">
        <ele>222.789908</ele>
        <time>2020-08-13T04:07:39.447Z</time>
      </trkpt>
      <trkpt lat="48.615420" lon="16.750735">
        <ele>222.834055</ele>
        <time>2020-08-13T04:07:41.434Z</time>
      </trkpt>
      <trkpt lat="48.615505" lon="16.750848">
        <ele>222.877078</ele>
        <time>2020-08-13T04:07:43.425Z</time>
      </trkpt>
      <trkpt lat="48.615584" lon="16.750968">
        <ele>222.919644</ele>
        <time>2020-08-13T04:07:45.414Z</time>
      </trkpt>
      <trkpt lat="48.615659" lon="16.751082">
        <ele>222.960068</ele>
        <time>2020-08-13T04:07:47.434Z</time>
      </trkpt>
      <trkpt lat="48.615729" lon="16.751198">
        <ele>222.999544</ele>
        <time>2020-08-13T04:07:49.430Z</time>
      </trkpt>
      <trkpt lat="48.615792" lon="16.751314">
        <ele>223.037277</ele>
        <time>2020-08-13T04:07:51.456Z</time>
      </trkpt>
      <trkpt lat="48.615847" lon="16.751430">
        <ele>223.073156</ele>
        <time>2020-08-13T04:07:53.442Z</time>
      </trkpt>
      <trkpt lat="48.615899" lon="16.751550">
        <ele>223.109219</ele>
        <time>2020-08-13T04:07:55.437Z</time>
      </trkpt>
      <trkpt lat="48.615955" lon="16.751686">
        <ele>223.149491</ele>
        <time>2020-08-13T04:07:57.425Z</time>
      </trkpt>
      <trkpt lat="48.616010" lon="16.751828">
        <ele>223.190856</ele>
        <time>2020-08-13T04:07:59.421Z</time>
      </trkpt>
      <trkpt lat="48.616063" lon="16.751978">
        <ele>223.233605</ele>
        <time>2020-08-13T04:08:01.430Z</time>
      </trkpt>
      <trkpt lat="48.616115" lon="16.752124">
        <ele>223.275288</ele>
        <time>2020-08-13T04:08:03.435Z</time>
      </trkpt>
      <trkpt lat="48.616162" lon="16.752266">
        <ele>223.315202</ele>
        <time>2020-08-13T04:08:05.435Z</time>
      </trkpt>
      <trkpt lat="48.616213" lon="16.752407">
        <ele>223.355599</ele>
        <time>2020-08-13T04:08:07.440Z</time>
      </trkpt>
      <trkpt lat="48.616265" lon="16.752545">
        <ele>223.395523</ele>
        <time>2020-08-13T04:08:09.429Z</time>
      </trkpt>
      <trkpt lat="48.616313" lon="16.752676">
        <ele>223.368829</ele>
        <time>2020-08-13T04:08:11.432Z</time>
      </trkpt>
      <trkpt lat="48.616356" lon="16.752820">
        <ele>223.325488</ele>
        <time>2020-08-13T04:08:13.427Z</time>
      </trkpt>
      <trkpt lat="48.616396" lon="16.752965">
        <ele>223.282390</ele>
        <time>2020-08-13T04:08:15.445Z</time>
      </trkpt>
      <trkpt lat="48.616439" lon="16.753112">
        <ele>223.238297</ele>
        <time>2020-08-13T04:08:17.448Z</time>
      </trkpt>
      <trkpt lat="48.616481" lon="16.753269">
        <ele>223.191839</ele>
        <time>2020-08-13T04:08:19.424Z</time>
      </trkpt>
      <trkpt lat="48.616518" lon="16.753430">
        <ele>223.145085</ele>
        <time>2020-08-13T04:08:21.417Z</time>
      </trkpt>
      <trkpt lat="48.616554" lon="16.753586">
        <ele>223.099762</ele>
        <time>2020-08-13T04:08:23.410Z</time>
      </trkpt>
      <trkpt lat="48.616590" lon="16.753741">
        <ele>223.054697</ele>
        <time>2020-08-13T04:08:25.424Z</time>
      </trkpt>
      <trkpt lat="48.616627" lon="16.753896">
        <ele>223.009494</ele>
        <time>2020-08-13T04:08:27.436Z</time>
      </trkpt>
      <trkpt lat="48.616666" lon="16.754050">
        <ele>222.964259</ele>
        <time>2020-08-13T04:08:29.414Z</time>
      </trkpt>
      <trkpt lat="48.616706" lon="16.754200">
        <ele>222.919892</ele>
        <time>2020-08-13T04:08:31.441Z</time>
      </trkpt>
      <trkpt lat="48.616743" lon="16.754348">
        <ele>222.876490</ele>
        <time>2020-08-13T04:08:33.442Z</time>
      </trkpt>
      <trkpt lat="48.616783" lon="16.754494">
        <ele>222.833140</ele>
        <time>2020-08-13T04:08:35.445Z</time>
      </trkpt>
      <trkpt lat="48.616820" lon="16.754640">
        <ele>222.790250</ele>
        <time>2020-08-13T04:08:37.445Z</time>
      </trkpt>
      <trkpt lat="48.616818" lon="16.754801">
        <ele>222.746080</ele>
        <time>2020-08-13T04:08:39.421Z</time>
      </trkpt>
      <trkpt lat="48.616734" lon="16.754902">
        <ele>222.701558</ele>
        <time>2020-08-13T04:08:41.422Z</time>
      </trkpt>
      <trkpt lat="48.616628" lon="16.754972">
        <ele>222.653603</ele>
        <time>2020-08-13T04:08:43.424Z</time>
      </trkpt>
      <trkpt lat="48.616522" lon="16.755055">
        <ele>222.604773</ele>
        <time>2020-08-13T04:08:45.417Z</time>
      </trkpt>
      <trkpt lat="48.616416" lon="16.755140">
        <ele>222.555692</ele>
        <time>2020-08-13T04:08:47.433Z</time>
      </trkpt>
      <trkpt lat="48.616310" lon="16.755226">
        <ele>222.506484</ele>
        <time>2020-08-13T04:08:49.438Z</time>
      </trkpt>
      <trkpt lat="48.616209" lon="16.755325">
        <ele>222.457248</ele>
        <time>2020-08-13T04:08:51.437Z</time>
      </trkpt>
      <trkpt lat="48.616104" lon="16.755416">
        <ele>222.407742</ele>
        <time>2020-08-13T04:08:53.414Z</time>
      </trkpt>
      <trkpt lat="48.616002" lon="16.755508">
        <ele>222.359158</ele>
        <time>2020-08-13T04:08:55.440Z</time>
      </trkpt>
      <trkpt lat="48.615900" lon="16.755596">
        <ele>222.311120</ele>
        <time>2020-08-13T04:08:57.432Z</time>
      </trkpt>
      <trkpt lat="48.615795" lon="16.755680">
        <ele>222.262527</ele>
        <time>2020-08-13T04:08:59.454Z</time>
      </trkpt>
      <trkpt lat="48.615691" lon="16.755763">
        <ele>222.214422</ele>
        <time>2020-08-13T04:09:01.431Z</time>
      </trkpt>
      <trkpt lat="48.615594" lon="16.755845">
        <ele>222.168963</ele>
        <time>2020-08-13T04:09:03.431Z</time>
      </trkpt>
      <trkpt lat="48.615498" lon="16.755922">
        <ele>222.124509</ele>
        <time>2020-08-13T04:09:05.429Z</time>
      </trkpt>
      <trkpt lat="48.615402" lon="16.756003">
        <ele>222.079539</ele>
        <time>2020-08-13T04:09:07.407Z</time>
      </trkpt>
      <trkpt lat="48.615305" lon="16.756084">
        <ele>222.034211</ele>
        <time>2020-08-13T04:09:09.461Z</time>
      </trkpt>
      <trkpt lat="48.615208" lon="16.756163">
        <ele>221.989142</ele>
        <time>2020-08-13T04:09:11.450Z</time>
      </trkpt>
      <trkpt lat="48.615117" lon="16.756243">
        <ele>221.946083</ele>
        <time>2020-08-13T04:09:13.426Z</time>
      </trkpt>
      <trkpt lat="48.615025" lon="16.756325">
        <ele>221.903244</ele>
        <time>2020-08-13T04:09:15.423Z</time>
      </trkpt>
      <trkpt lat="48.614889" lon="16.756444">
        <ele>221.842011</ele>
        <time>2020-08-13T04:09:18.436Z</time>
      </trkpt>
      <trkpt lat="48.614799" lon="16.756523">
        <ele>221.801457</ele>
        <time>2020-08-13T04:09:20.439Z</time>
      </trkpt>
      <trkpt lat="48.614707" lon="16.756599">
        <ele>221.760603</ele>
        <time>2020-08-13T04:09:22.436Z</time>
      </trkpt>
      <trkpt lat="48.614613" lon="16.756676">
        <ele>221.718941</ele>
        <time>2020-08-13T04:09:24.428Z</time>
      </trkpt>
      <trkpt lat="48.614516" lon="16.756754">
        <ele>221.676126</ele>
        <time>2020-08-13T04:09:26.437Z</time>
      </trkpt>
      <trkpt lat="48.614420" lon="16.756834">
        <ele>221.633410</ele>
        <time>2020-08-13T04:09:28.419Z</time>
      </trkpt>
      <trkpt lat="48.614327" lon="16.756910">
        <ele>221.592213</ele>
        <time>2020-08-13T04:09:30.434Z</time>
      </trkpt>
      <trkpt lat="48.614234" lon="16.756985">
        <ele>221.551138</ele>
        <time>2020-08-13T04:09:32.427Z</time>
      </trkpt>
      <trkpt lat="48.614140" lon="16.757065">
        <ele>221.509102</ele>
        <time>2020-08-13T04:09:34.428Z</time>
      </trkpt>
      <trkpt lat="48.614046" lon="16.757151">
        <ele>221.466287</ele>
        <time>2020-08-13T04:09:36.422Z</time>
      </trkpt>
      <trkpt lat="48.613951" lon="16.757234">
        <ele>221.423530</ele>
        <time>2020-08-13T04:09:38.433Z</time>
      </trkpt>
      <trkpt lat="48.613861" lon="16.757312">
        <ele>221.383104</ele>
        <time>2020-08-13T04:09:40.424Z</time>
      </trkpt>
      <trkpt lat="48.613770" lon="16.757394">
        <ele>221.341822</ele>
        <time>2020-08-13T04:09:42.426Z</time>
      </trkpt>
      <trkpt lat="48.613678" lon="16.757474">
        <ele>221.300463</ele>
        <time>2020-08-13T04:09:44.438Z</time>
      </trkpt>
      <trkpt lat="48.613582" lon="16.757547">
        <ele>221.258587</ele>
        <time>2020-08-13T04:09:46.416Z</time>
      </trkpt>
      <trkpt lat="48.613487" lon="16.757628">
        <ele>221.217290</ele>
        <time>2020-08-13T04:09:48.425Z</time>
      </trkpt>
      <trkpt lat="48.613397" lon="16.757702">
        <ele>221.192325</ele>
        <time>2020-08-13T04:09:50.447Z</time>
      </trkpt>
      <trkpt lat="48.613306" lon="16.757778">
        <ele>221.166991</ele>
        <time>2020-08-13T04:09:52.421Z</time>
      </trkpt>
      <trkpt lat="48.613222" lon="16.757849">
        <ele>221.143540</ele>
        <time>2020-08-13T04:09:54.425Z</time>
      </trkpt>
      <trkpt lat="48.613129" lon="16.757908">
        <ele>221.118962</ele>
        <time>2020-08-13T04:09:56.447Z</time>
      </trkpt>
      <trkpt lat="48.613042" lon="16.757946">
        <ele>221.096893</ele>
        <time>2020-08-13T04:09:58.463Z</time>
      </trkpt>
      <trkpt lat="48.612953" lon="16.757908">
        <ele>221.074355</ele>
        <time>2020-08-13T04:10:00.416Z</time>
      </trkpt>
      <trkpt lat="48.612875" lon="16.757749">
        <ele>221.042454</ele>
        <time>2020-08-13T04:10:03.417Z</time>
      </trkpt>
      <trkpt lat="48.612818" lon="16.757576">
        <ele>221.011309</ele>
        <time>2020-08-13T04:10:06.436Z</time>
      </trkpt>
      <trkpt lat="48.612764" lon="16.757411">
        <ele>220.981644</ele>
        <time>2020-08-13T04:10:09.435Z</time>
      </trkpt>
      <trkpt lat="48.612700" lon="16.757241">
        <ele>220.950123</ele>
        <time>2020-08-13T04:10:12.421Z</time>
      </trkpt>
      <trkpt lat="48.612653" lon="16.757116">
        <ele>220.926953</ele>
        <time>2020-08-13T04:10:14.440Z</time>
      </trkpt>
      <trkpt lat="48.612610" lon="16.756990">
        <ele>220.904106</ele>
        <time>2020-08-13T04:10:16.447Z</time>
      </trkpt>
      <trkpt lat="48.612566" lon="16.756863">
        <ele>220.881003</ele>
        <time>2020-08-13T04:10:18.431Z</time>
      </trkpt>
      <trkpt lat="48.612519" lon="16.756733">
        <ele>220.857129</ele>
        <time>2020-08-13T04:10:20.438Z</time>
      </trkpt>
      <trkpt lat="48.612471" lon="16.756602">
        <ele>220.832997</ele>
        <time>2020-08-13T04:10:22.429Z</time>
      </trkpt>
      <trkpt lat="48.612425" lon="16.756469">
        <ele>220.808812</ele>
        <time>2020-08-13T04:10:24.434Z</time>
      </trkpt>
      <trkpt lat="48.612380" lon="16.756341">
        <ele>220.785453</ele>
        <time>2020-08-13T04:10:26.421Z</time>
      </trkpt>
      <trkpt lat="48.612339" lon="16.756215">
        <ele>220.763711</ele>
        <time>2020-08-13T04:10:28.413Z</time>
      </trkpt>
      <trkpt lat="48.612295" lon="16.756094">
        <ele>220.742547</ele>
        <time>2020-08-13T04:10:30.458Z</time>
      </trkpt>
      <trkpt lat="48.612250" lon="16.755972">
        <ele>220.721136</ele>
        <time>2020-08-13T04:10:32.436Z</time>
      </trkpt>
      <trkpt lat="48.612208" lon="16.755851">
        <ele>220.700192</ele>
        <time>2020-08-13T04:10:34.441Z</time>
      </trkpt>
      <trkpt lat="48.612108" lon="16.755633">
        <ele>220.659528</ele>
        <time>2020-08-13T04:10:38.446Z</time>
      </trkpt>
      <trkpt lat="48.612008" lon="16.755522">
        <ele>220.630775</ele>
        <time>2020-08-13T04:10:41.415Z</time>
      </trkpt>
      <trkpt lat="48.611921" lon="16.755567">
        <ele>220.609462</ele>
        <time>2020-08-13T04:10:43.422Z</time>
      </trkpt>
      <trkpt lat="48.611854" lon="16.755672">
        <ele>220.587097</ele>
        <time>2020-08-13T04:10:45.410Z</time>
      </trkpt>
      <trkpt lat="48.611793" lon="16.755797">
        <ele>220.563287</ele>
        <time>2020-08-13T04:10:47.442Z</time>
      </trkpt>
      <trkpt lat="48.611734" lon="16.755931">
        <ele>220.538613</ele>
        <time>2020-08-13T04:10:49.409Z</time>
      </trkpt>
      <trkpt lat="48.611680" lon="16.756071">
        <ele>220.513773</ele>
        <time>2020-08-13T04:10:51.425Z</time>
      </trkpt>
      <trkpt lat="48.611627" lon="16.756201">
        <ele>220.490366</ele>
        <time>2020-08-13T04:10:53.422Z</time>
      </trkpt>
      <trkpt lat="48.611575" lon="16.756332">
        <ele>220.466948</ele>
        <time>2020-08-13T04:10:55.422Z</time>
      </trkpt>
      <trkpt lat="48.611518" lon="16.756462">
        <ele>220.443042</ele>
        <time>2020-08-13T04:10:57.418Z</time>
      </trkpt>
      <trkpt lat="48.611456" lon="16.756584">
        <ele>220.419459</ele>
        <time>2020-08-13T04:10:59.423Z</time>
      </trkpt>
      <trkpt lat="48.611378" lon="16.756684">
        <ele>220.395756</ele>
        <time>2020-08-13T04:11:01.424Z</time>
      </trkpt>
      <trkpt lat="48.611286" lon="16.756752">
        <ele>220.372020</ele>
        <time>2020-08-13T04:11:03.411Z</time>
      </trkpt>
      <trkpt lat="48.611184" lon="16.756791">
        <ele>220.349955</ele>
        <time>2020-08-13T04:11:05.427Z</time>
      </trkpt>
      <trkpt lat="48.611088" lon="16.756835">
        <ele>220.329997</ele>
        <time>2020-08-13T04:11:07.435Z</time>
      </trkpt>
      <trkpt lat="48.610994" lon="16.756883">
        <ele>220.310257</ele>
        <time>2020-08-13T04:11:09.423Z</time>
      </trkpt>
      <trkpt lat="48.610901" lon="16.756934">
        <ele>220.290575</ele>
        <time>2020-08-13T04:11:11.424Z</time>
      </trkpt>
      <trkpt lat="48.610808" lon="16.756986">
        <ele>220.270848</ele>
        <time>2020-08-13T04:11:13.434Z</time>
      </trkpt>
      <trkpt lat="48.610721" lon="16.757035">
        <ele>220.252377</ele>
        <time>2020-08-13T04:11:15.425Z</time>
      </trkpt>
      <trkpt lat="48.610631" lon="16.757090">
        <ele>220.233064</ele>
        <time>2020-08-13T04:11:17.445Z</time>
      </trkpt>
      <trkpt lat="48.610542" lon="16.757145">
        <ele>220.213935</ele>
        <time>2020-08-13T04:11:19.429Z</time>
      </trkpt>
      <trkpt lat="48.610453" lon="16.757196">
        <ele>220.194999</ele>
        <time>2020-08-13T04:11:21.472Z</time>
      </trkpt>
      <trkpt lat="48.610363" lon="16.757247">
        <ele>220.175877</ele>
        <time>2020-08-13T04:11:23.440Z</time>
      </trkpt>
      <trkpt lat="48.610271" lon="16.757300">
        <ele>220.156290</ele>
        <time>2020-08-13T04:11:25.425Z</time>
      </trkpt>
      <trkpt lat="48.610180" lon="16.757349">
        <ele>220.137071</ele>
        <time>2020-08-13T04:11:27.415Z</time>
      </trkpt>
      <trkpt lat="48.610088" lon="16.757393">
        <ele>220.117873</ele>
        <time>2020-08-13T04:11:29.440Z</time>
      </trkpt>
      <trkpt lat="48.609993" lon="16.757424">
        <ele>220.098537</ele>
        <time>2020-08-13T04:11:31.438Z</time>
      </trkpt>
      <trkpt lat="48.609897" lon="16.757448">
        <ele>220.079177</ele>
        <time>2020-08-13T04:11:33.436Z</time>
      </trkpt>
      <trkpt lat="48.609805" lon="16.757471">
        <ele>220.060625</ele>
        <time>2020-08-13T04:11:35.427Z</time>
      </trkpt>
      <trkpt lat="48.609708" lon="16.757477">
        <ele>220.041309</ele>
        <time>2020-08-13T04:11:37.465Z</time>
      </trkpt>
      <trkpt lat="48.609612" lon="16.757470">
        <ele>220.022187</ele>
        <time>2020-08-13T04:11:39.428Z</time>
      </trkpt>
      <trkpt lat="48.609522" lon="16.757537">
        <ele>220.000792</ele>
        <time>2020-08-13T04:11:41.420Z</time>
      </trkpt>
      <trkpt lat="48.609423" lon="16.757587">
        <ele>219.972442</ele>
        <time>2020-08-13T04:11:43.416Z</time>
      </trkpt>
      <trkpt lat="48.609321" lon="16.757616">
        <ele>219.944251</ele>
        <time>2020-08-13T04:11:45.414Z</time>
      </trkpt>
      <trkpt lat="48.609218" lon="16.757630">
        <ele>219.916162</ele>
        <time>2020-08-13T04:11:47.440Z</time>
      </trkpt>
      <trkpt lat="48.609119" lon="16.757662">
        <ele>219.888664</ele>
        <time>2020-08-13T04:11:49.434Z</time>
      </trkpt>
      <trkpt lat="48.609021" lon="16.757692">
        <ele>219.861506</ele>
        <time>2020-08-13T04:11:51.434Z</time>
      </trkpt>
      <trkpt lat="48.608925" lon="16.757718">
        <ele>219.835016</ele>
        <time>2020-08-13T04:11:53.421Z</time>
      </trkpt>
      <trkpt lat="48.608831" lon="16.757741">
        <ele>219.809152</ele>
        <time>2020-08-13T04:11:55.449Z</time>
      </trkpt>
      <trkpt lat="48.608734" lon="16.757750">
        <ele>219.782755</ele>
        <time>2020-08-13T04:11:57.457Z</time>
      </trkpt>
      <trkpt lat="48.608615" lon="16.757767">
        <ele>219.750289</ele>
        <time>2020-08-13T04:12:00.433Z</time>
      </trkpt>
      <trkpt lat="48.608487" lon="16.757818">
        <ele>219.714335</ele>
        <time>2020-08-13T04:12:03.428Z</time>
      </trkpt>
      <trkpt lat="48.608390" lon="16.757851">
        <ele>219.687330</ele>
        <time>2020-08-13T04:12:05.449Z</time>
      </trkpt>
      <trkpt lat="48.608267" lon="16.757915">
        <ele>219.651999</ele>
        <time>2020-08-13T04:12:08.440Z</time>
      </trkpt>
      <trkpt lat="48.608178" lon="16.757968">
        <ele>219.626018</ele>
        <time>2020-08-13T04:12:10.431Z</time>
      </trkpt>
      <trkpt lat="48.608084" lon="16.758038">
        <ele>219.597559</ele>
        <time>2020-08-13T04:12:12.440Z</time>
      </trkpt>
      <trkpt lat="48.608000" lon="16.758092">
        <ele>219.572767</ele>
        <time>2020-08-13T04:12:14.446Z</time>
      </trkpt>
      <trkpt lat="48.607911" lon="16.758148">
        <ele>219.546584</ele>
        <time>2020-08-13T04:12:16.432Z</time>
      </trkpt>
      <trkpt lat="48.607825" lon="16.758200">
        <ele>219.521428</ele>
        <time>2020-08-13T04:12:18.471Z</time>
      </trkpt>
      <trkpt lat="48.607730" lon="16.758269">
        <ele>219.500067</ele>
        <time>2020-08-13T04:12:20.459Z</time>
      </trkpt>
      <trkpt lat="48.607635" lon="16.758341">
        <ele>219.479655</ele>
        <time>2020-08-13T04:12:22.456Z</time>
      </trkpt>
      <trkpt lat="48.607533" lon="16.758423">
        <ele>219.457465</ele>
        <time>2020-08-13T04:12:24.440Z</time>
      </trkpt>
      <trkpt lat="48.607438" lon="16.758499">
        <ele>219.436820</ele>
        <time>2020-08-13T04:12:26.435Z</time>
      </trkpt>
      <trkpt lat="48.607348" lon="16.758585">
        <ele>219.416369</ele>
        <time>2020-08-13T04:12:28.456Z</time>
      </trkpt>
      <trkpt lat="48.607268" lon="16.758668">
        <ele>219.397733</ele>
        <time>2020-08-13T04:12:30.440Z</time>
      </trkpt>
      <trkpt lat="48.607188" lon="16.758765">
        <ele>219.378036</ele>
        <time>2020-08-13T04:12:32.423Z</time>
      </trkpt>
      <trkpt lat="48.607118" lon="16.758875">
        <ele>219.358644</ele>
        <time>2020-08-13T04:12:34.439Z</time>
      </trkpt>
      <trkpt lat="48.607048" lon="16.758984">
        <ele>219.339344</ele>
        <time>2020-08-13T04:12:36.518Z</time>
      </trkpt>
      <trkpt lat="48.606984" lon="16.759096">
        <ele>219.320542</ele>
        <time>2020-08-13T04:12:38.434Z</time>
      </trkpt>
      <trkpt lat="48.606923" lon="16.759201">
        <ele>219.302788</ele>
        <time>2020-08-13T04:12:40.452Z</time>
      </trkpt>
      <trkpt lat="48.606860" lon="16.759301">
        <ele>219.285244</ele>
        <time>2020-08-13T04:12:42.433Z</time>
      </trkpt>
      <trkpt lat="48.606777" lon="16.759448">
        <ele>219.260691</ele>
        <time>2020-08-13T04:12:45.421Z</time>
      </trkpt>
      <trkpt lat="48.606694" lon="16.759608">
        <ele>219.234860</ele>
        <time>2020-08-13T04:12:48.430Z</time>
      </trkpt>
      <trkpt lat="48.606644" lon="16.759734">
        <ele>219.216195</ele>
        <time>2020-08-13T04:12:50.437Z</time>
      </trkpt>
      <trkpt lat="48.606587" lon="16.759859">
        <ele>219.196908</ele>
        <time>2020-08-13T04:12:52.419Z</time>
      </trkpt>
      <trkpt lat="48.606524" lon="16.759990">
        <ele>219.176333</ele>
        <time>2020-08-13T04:12:54.433Z</time>
      </trkpt>
      <trkpt lat="48.606460" lon="16.760124">
        <ele>219.169259</ele>
        <time>2020-08-13T04:12:56.432Z</time>
      </trkpt>
      <trkpt lat="48.606398" lon="16.760261">
        <ele>219.165682</ele>
        <time>2020-08-13T04:12:58.429Z</time>
      </trkpt>
      <trkpt lat="48.606343" lon="16.760411">
        <ele>219.161987</ele>
        <time>2020-08-13T04:13:00.426Z</time>
      </trkpt>
      <trkpt lat="48.606292" lon="16.760560">
        <ele>219.158372</ele>
        <time>2020-08-13T04:13:02.432Z</time>
      </trkpt>
      <trkpt lat="48.606245" lon="16.760714">
        <ele>219.154718</ele>
        <time>2020-08-13T04:13:04.448Z</time>
      </trkpt>
      <trkpt lat="48.606210" lon="16.760874">
        <ele>219.151087</ele>
        <time>2020-08-13T04:13:06.454Z</time>
      </trkpt>
      <trkpt lat="48.606188" lon="16.761038">
        <ele>219.147482</ele>
        <time>2020-08-13T04:13:08.424Z</time>
      </trkpt>
      <trkpt lat="48.606170" lon="16.761201">
        <ele>219.143921</ele>
        <time>2020-08-13T04:13:10.465Z</time>
      </trkpt>
      <trkpt lat="48.606156" lon="16.761361">
        <ele>219.140444</ele>
        <time>2020-08-13T04:13:12.436Z</time>
      </trkpt>
      <trkpt lat="48.606145" lon="16.761513">
        <ele>219.137149</ele>
        <time>2020-08-13T04:13:14.423Z</time>
      </trkpt>
      <trkpt lat="48.606136" lon="16.761663">
        <ele>219.133904</ele>
        <time>2020-08-13T04:13:16.429Z</time>
      </trkpt>
      <trkpt lat="48.606136" lon="16.761808">
        <ele>219.130780</ele>
        <time>2020-08-13T04:13:18.444Z</time>
      </trkpt>
      <trkpt lat="48.606135" lon="16.761951">
        <ele>219.127699</ele>
        <time>2020-08-13T04:13:20.435Z</time>
      </trkpt>
      <trkpt lat="48.606133" lon="16.762095">
        <ele>219.124596</ele>
        <time>2020-08-13T04:13:22.432Z</time>
      </trkpt>
      <trkpt lat="48.606133" lon="16.762242">
        <ele>219.121429</ele>
        <time>2020-08-13T04:13:24.425Z</time>
      </trkpt>
      <trkpt lat="48.606131" lon="16.762393">
        <ele>219.118175</ele>
        <time>2020-08-13T04:13:26.442Z</time>
      </trkpt>
      <trkpt lat="48.606130" lon="16.762549">
        <ele>219.114814</ele>
        <time>2020-08-13T04:13:28.445Z</time>
      </trkpt>
      <trkpt lat="48.606125" lon="16.762715">
        <ele>219.123097</ele>
        <time>2020-08-13T04:13:30.448Z</time>
      </trkpt>
      <trkpt lat="48.606114" lon="16.762883">
        <ele>219.138520</ele>
        <time>2020-08-13T04:13:32.440Z</time>
      </trkpt>
      <trkpt lat="48.606114" lon="16.763055">
        <ele>219.154233</ele>
        <time>2020-08-13T04:13:34.440Z</time>
      </trkpt>
      <trkpt lat="48.606115" lon="16.763228">
        <ele>219.170039</ele>
        <time>2020-08-13T04:13:36.432Z</time>
      </trkpt>
      <trkpt lat="48.606103" lon="16.763398">
        <ele>219.185658</ele>
        <time>2020-08-13T04:13:38.432Z</time>
      </trkpt>
      <trkpt lat="48.606098" lon="16.763568">
        <ele>219.201204</ele>
        <time>2020-08-13T04:13:40.434Z</time>
      </trkpt>
      <trkpt lat="48.606095" lon="16.763738">
        <ele>219.216740</ele>
        <time>2020-08-13T04:13:42.442Z</time>
      </trkpt>
      <trkpt lat="48.606092" lon="16.763910">
        <ele>219.232459</ele>
        <time>2020-08-13T04:13:44.426Z</time>
      </trkpt>
      <trkpt lat="48.606087" lon="16.764081">
        <ele>219.248097</ele>
        <time>2020-08-13T04:13:46.423Z</time>
      </trkpt>
      <trkpt lat="48.606079" lon="16.764252">
        <ele>219.263758</ele>
        <time>2020-08-13T04:13:48.428Z</time>
      </trkpt>
      <trkpt lat="48.606076" lon="16.764415">
        <ele>219.278655</ele>
        <time>2020-08-13T04:13:50.445Z</time>
      </trkpt>
      <trkpt lat="48.606073" lon="16.764575">
        <ele>219.293278</ele>
        <time>2020-08-13T04:13:52.448Z</time>
      </trkpt>
      <trkpt lat="48.606068" lon="16.764735">
        <ele>219.307912</ele>
        <time>2020-08-13T04:13:54.424Z</time>
      </trkpt>
      <trkpt lat="48.606067" lon="16.764898">
        <ele>219.322804</ele>
        <time>2020-08-13T04:13:56.448Z</time>
      </trkpt>
      <trkpt lat="48.606067" lon="16.765055">
        <ele>219.337147</ele>
        <time>2020-08-13T04:13:58.419Z</time>
      </trkpt>
      <trkpt lat="48.606069" lon="16.765205">
        <ele>219.350853</ele>
        <time>2020-08-13T04:14:00.445Z</time>
      </trkpt>
      <trkpt lat="48.606069" lon="16.765359">
        <ele>219.365410</ele>
        <time>2020-08-13T04:14:02.451Z</time>
      </trkpt>
      <trkpt lat="48.606064" lon="16.765521">
        <ele>219.382703</ele>
        <time>2020-08-13T04:14:04.470Z</time>
      </trkpt>
      <trkpt lat="48.606058" lon="16.765683">
        <ele>219.400004</ele>
        <time>2020-08-13T04:14:06.423Z</time>
      </trkpt>
      <trkpt lat="48.606051" lon="16.765846">
        <ele>219.417422</ele>
        <time>2020-08-13T04:14:08.448Z</time>
      </trkpt>
      <trkpt lat="48.606040" lon="16.766015">
        <ele>219.435529</ele>
        <time>2020-08-13T04:14:10.435Z</time>
      </trkpt>
      <trkpt lat="48.606025" lon="16.766188">
        <ele>219.454134</ele>
        <time>2020-08-13T04:14:12.429Z</time>
      </trkpt>
      <trkpt lat="48.606014" lon="16.766353">
        <ele>219.471817</ele>
        <time>2020-08-13T04:14:14.482Z</time>
      </trkpt>
      <trkpt lat="48.606006" lon="16.766516">
        <ele>219.489246</ele>
        <time>2020-08-13T04:14:16.440Z</time>
      </trkpt>
      <trkpt lat="48.606003" lon="16.766666">
        <ele>219.505247</ele>
        <time>2020-08-13T04:14:18.443Z</time>
      </trkpt>
      <trkpt lat="48.605986" lon="16.766842">
        <ele>219.524213</ele>
        <time>2020-08-13T04:14:20.431Z</time>
      </trkpt>
      <trkpt lat="48.605955" lon="16.766996">
        <ele>219.541379</ele>
        <time>2020-08-13T04:14:22.438Z</time>
      </trkpt>
      <trkpt lat="48.605911" lon="16.767136">
        <ele>219.557907</ele>
        <time>2020-08-13T04:14:24.450Z</time>
      </trkpt>
      <trkpt lat="48.605862" lon="16.767261">
        <ele>219.573402</ele>
        <time>2020-08-13T04:14:26.435Z</time>
      </trkpt>
      <trkpt lat="48.605808" lon="16.767378">
        <ele>219.588616</ele>
        <time>2020-08-13T04:14:28.447Z</time>
      </trkpt>
      <trkpt lat="48.605753" lon="16.767491">
        <ele>219.603578</ele>
        <time>2020-08-13T04:14:30.464Z</time>
      </trkpt>
      <trkpt lat="48.605707" lon="16.767615">
        <ele>219.618739</ele>
        <time>2020-08-13T04:14:32.463Z</time>
      </trkpt>
      <trkpt lat="48.605673" lon="16.767747">
        <ele>219.633844</ele>
        <time>2020-08-13T04:14:34.466Z</time>
      </trkpt>
      <trkpt lat="48.605647" lon="16.767877">
        <ele>219.648326</ele>
        <time>2020-08-13T04:14:36.442Z</time>
      </trkpt>
      <trkpt lat="48.605630" lon="16.768010">
        <ele>219.652156</ele>
        <time>2020-08-13T04:14:38.442Z</time>
      </trkpt>
      <trkpt lat="48.605608" lon="16.768212">
        <ele>219.652372</ele>
        <time>2020-08-13T04:14:41.435Z</time>
      </trkpt>
      <trkpt lat="48.605594" lon="16.768356">
        <ele>219.652526</ele>
        <time>2020-08-13T04:14:43.432Z</time>
      </trkpt>
      <trkpt lat="48.605591" lon="16.768500">
        <ele>219.652678</ele>
        <time>2020-08-13T04:14:45.429Z</time>
      </trkpt>
      <trkpt lat="48.605597" lon="16.768649">
        <ele>219.652835</ele>
        <time>2020-08-13T04:14:47.447Z</time>
      </trkpt>
      <trkpt lat="48.605603" lon="16.768797">
        <ele>219.652991</ele>
        <time>2020-08-13T04:14:49.435Z</time>
      </trkpt>
      <trkpt lat="48.605612" lon="16.768947">
        <ele>219.653150</ele>
        <time>2020-08-13T04:14:51.451Z</time>
      </trkpt>
      <trkpt lat="48.605621" lon="16.769098">
        <ele>219.653310</ele>
        <time>2020-08-13T04:14:53.418Z</time>
      </trkpt>
      <trkpt lat="48.605626" lon="16.769249">
        <ele>219.653469</ele>
        <time>2020-08-13T04:14:55.435Z</time>
      </trkpt>
      <trkpt lat="48.605633" lon="16.769401">
        <ele>219.653630</ele>
        <time>2020-08-13T04:14:57.444Z</time>
      </trkpt>
      <trkpt lat="48.605642" lon="16.769557">
        <ele>219.653795</ele>
        <time>2020-08-13T04:14:59.441Z</time>
      </trkpt>
      <trkpt lat="48.605652" lon="16.769705">
        <ele>219.653952</ele>
        <time>2020-08-13T04:15:01.431Z</time>
      </trkpt>
      <trkpt lat="48.605659" lon="16.769849">
        <ele>219.654104</ele>
        <time>2020-08-13T04:15:03.440Z</time>
      </trkpt>
      <trkpt lat="48.605664" lon="16.769995">
        <ele>219.654258</ele>
        <time>2020-08-13T04:15:05.458Z</time>
      </trkpt>
      <trkpt lat="48.605668" lon="16.770144">
        <ele>219.654415</ele>
        <time>2020-08-13T04:15:07.437Z</time>
      </trkpt>
      <trkpt lat="48.605676" lon="16.770291">
        <ele>219.654571</ele>
        <time>2020-08-13T04:15:09.425Z</time>
      </trkpt>
      <trkpt lat="48.605678" lon="16.770433">
        <ele>219.654721</ele>
        <time>2020-08-13T04:15:11.434Z</time>
      </trkpt>
      <trkpt lat="48.605677" lon="16.770575">
        <ele>219.654870</ele>
        <time>2020-08-13T04:15:13.449Z</time>
      </trkpt>
      <trkpt lat="48.605681" lon="16.770717">
        <ele>219.654160</ele>
        <time>2020-08-13T04:15:15.452Z</time>
      </trkpt>
      <trkpt lat="48.605686" lon="16.770861">
        <ele>219.653032</ele>
        <time>2020-08-13T04:15:17.428Z</time>
      </trkpt>
      <trkpt lat="48.605690" lon="16.771008">
        <ele>219.651881</ele>
        <time>2020-08-13T04:15:19.436Z</time>
      </trkpt>
      <trkpt lat="48.605690" lon="16.771156">
        <ele>219.650723</ele>
        <time>2020-08-13T04:15:21.423Z</time>
      </trkpt>
      <trkpt lat="48.605688" lon="16.771301">
        <ele>219.649588</ele>
        <time>2020-08-13T04:15:23.417Z</time>
      </trkpt>
      <trkpt lat="48.605669" lon="16.771446">
        <ele>219.648432</ele>
        <time>2020-08-13T04:15:25.420Z</time>
      </trkpt>
      <trkpt lat="48.605643" lon="16.771588">
        <ele>219.647279</ele>
        <time>2020-08-13T04:15:27.415Z</time>
      </trkpt>
      <trkpt lat="48.605616" lon="16.771733">
        <ele>219.646100</ele>
        <time>2020-08-13T04:15:29.417Z</time>
      </trkpt>
      <trkpt lat="48.605586" lon="16.771884">
        <ele>219.644867</ele>
        <time>2020-08-13T04:15:31.453Z</time>
      </trkpt>
      <trkpt lat="48.605553" lon="16.772026">
        <ele>219.643689</ele>
        <time>2020-08-13T04:15:33.434Z</time>
      </trkpt>
      <trkpt lat="48.605525" lon="16.772172">
        <ele>219.642500</ele>
        <time>2020-08-13T04:15:35.424Z</time>
      </trkpt>
      <trkpt lat="48.605501" lon="16.772324">
        <ele>219.641277</ele>
        <time>2020-08-13T04:15:37.442Z</time>
      </trkpt>
      <trkpt lat="48.605481" lon="16.772479">
        <ele>219.640042</ele>
        <time>2020-08-13T04:15:39.418Z</time>
      </trkpt>
      <trkpt lat="48.605460" lon="16.772633">
        <ele>219.638811</ele>
        <time>2020-08-13T04:15:41.432Z</time>
      </trkpt>
      <trkpt lat="48.605438" lon="16.772786">
        <ele>219.637586</ele>
        <time>2020-08-13T04:15:43.435Z</time>
      </trkpt>
      <trkpt lat="48.605416" lon="16.772932">
        <ele>219.636415</ele>
        <time>2020-08-13T04:15:45.417Z</time>
      </trkpt>
      <trkpt lat="48.605400" lon="16.773077">
        <ele>219.635264</ele>
        <time>2020-08-13T04:15:47.422Z</time>
      </trkpt>
      <trkpt lat="48.605389" lon="16.773222">
        <ele>219.634123</ele>
        <time>2020-08-13T04:15:49.424Z</time>
      </trkpt>
      <trkpt lat="48.605381" lon="16.773365">
        <ele>219.639021</ele>
        <time>2020-08-13T04:15:51.431Z</time>
      </trkpt>
      <trkpt lat="48.605371" lon="16.773509">
        <ele>219.648610</ele>
        <time>2020-08-13T04:15:53.427Z</time>
      </trkpt>
      <trkpt lat="48.605359" lon="16.773652">
        <ele>219.658157</ele>
        <time>2020-08-13T04:15:55.429Z</time>
      </trkpt>
      <trkpt lat="48.605340" lon="16.773810">
        <ele>219.668793</ele>
        <time>2020-08-13T04:15:57.424Z</time>
      </trkpt>
      <trkpt lat="48.605316" lon="16.773964">
        <ele>219.679271</ele>
        <time>2020-08-13T04:15:59.461Z</time>
      </trkpt>
      <trkpt lat="48.605294" lon="16.774117">
        <ele>219.689641</ele>
        <time>2020-08-13T04:16:01.434Z</time>
      </trkpt>
      <trkpt lat="48.605266" lon="16.774273">
        <ele>219.700347</ele>
        <time>2020-08-13T04:16:03.412Z</time>
      </trkpt>
      <trkpt lat="48.605234" lon="16.774424">
        <ele>219.710848</ele>
        <time>2020-08-13T04:16:05.423Z</time>
      </trkpt>
      <trkpt lat="48.605195" lon="16.774581">
        <ele>219.721956</ele>
        <time>2020-08-13T04:16:07.429Z</time>
      </trkpt>
      <trkpt lat="48.605145" lon="16.774719">
        <ele>219.732378</ele>
        <time>2020-08-13T04:16:09.443Z</time>
      </trkpt>
      <trkpt lat="48.605089" lon="16.774855">
        <ele>219.742988</ele>
        <time>2020-08-13T04:16:11.418Z</time>
      </trkpt>
      <trkpt lat="48.605037" lon="16.774980">
        <ele>219.752769</ele>
        <time>2020-08-13T04:16:13.439Z</time>
      </trkpt>
      <trkpt lat="48.604987" lon="16.775105">
        <ele>219.762445</ele>
        <time>2020-08-13T04:16:15.442Z</time>
      </trkpt>
      <trkpt lat="48.604942" lon="16.775236">
        <ele>219.772221</ele>
        <time>2020-08-13T04:16:17.423Z</time>
      </trkpt>
      <trkpt lat="48.604898" lon="16.775364">
        <ele>219.781776</ele>
        <time>2020-08-13T04:16:19.416Z</time>
      </trkpt>
      <trkpt lat="48.604842" lon="16.775534">
        <ele>219.794355</ele>
        <time>2020-08-13T04:16:22.429Z</time>
      </trkpt>
      <trkpt lat="48.604790" lon="16.775702">
        <ele>219.806640</ele>
        <time>2020-08-13T04:16:25.458Z</time>
      </trkpt>
      <trkpt lat="48.604746" lon="16.775863">
        <ele>219.822105</ele>
        <time>2020-08-13T04:16:28.424Z</time>
      </trkpt>
      <trkpt lat="48.604705" lon="16.776018">
        <ele>219.843047</ele>
        <time>2020-08-13T04:16:31.422Z</time>
      </trkpt>
      <trkpt lat="48.604668" lon="16.776166">
        <ele>219.862895</ele>
        <time>2020-08-13T04:16:34.429Z</time>
      </trkpt>
      <trkpt lat="48.604630" lon="16.776311">
        <ele>219.882461</ele>
        <time>2020-08-13T04:16:37.429Z</time>
      </trkpt>
      <trkpt lat="48.604601" lon="16.776461">
        <ele>219.902065</ele>
        <time>2020-08-13T04:16:40.430Z</time>
      </trkpt>
      <trkpt lat="48.604570" lon="16.776630">
        <ele>219.924066</ele>
        <time>2020-08-13T04:16:43.451Z</time>
      </trkpt>
      <trkpt lat="48.604534" lon="16.776826">
        <ele>219.949584</ele>
        <time>2020-08-13T04:16:46.442Z</time>
      </trkpt>
      <trkpt lat="48.604510" lon="16.776973">
        <ele>219.968578</ele>
        <time>2020-08-13T04:16:48.421Z</time>
      </trkpt>
      <trkpt lat="48.604487" lon="16.777127">
        <ele>219.988383</ele>
        <time>2020-08-13T04:16:50.440Z</time>
      </trkpt>
      <trkpt lat="48.604464" lon="16.777284">
        <ele>220.008555</ele>
        <time>2020-08-13T04:16:52.443Z</time>
      </trkpt>
      <trkpt lat="48.604440" lon="16.777445">
        <ele>220.029259</ele>
        <time>2020-08-13T04:16:54.422Z</time>
      </trkpt>
      <trkpt lat="48.604411" lon="16.777600">
        <ele>220.049466</ele>
        <time>2020-08-13T04:16:56.415Z</time>
      </trkpt>
      <trkpt lat="48.604375" lon="16.777745">
        <ele>220.068895</ele>
        <time>2020-08-13T04:16:58.426Z</time>
      </trkpt>
      <trkpt lat="48.604333" lon="16.777876">
        <ele>220.087158</ele>
        <time>2020-08-13T04:17:00.450Z</time>
      </trkpt>
      <trkpt lat="48.604291" lon="16.778062">
        <ele>220.111814</ele>
        <time>2020-08-13T04:17:03.451Z</time>
      </trkpt>
      <trkpt lat="48.604307" lon="16.778205">
        <ele>220.130007</ele>
        <time>2020-08-13T04:17:05.456Z</time>
      </trkpt>
      <trkpt lat="48.604318" lon="16.778358">
        <ele>220.149313</ele>
        <time>2020-08-13T04:17:07.450Z</time>
      </trkpt>
      <trkpt lat="48.604335" lon="16.778521">
        <ele>220.152923</ele>
        <time>2020-08-13T04:17:09.429Z</time>
      </trkpt>
      <trkpt lat="48.604323" lon="16.778690">
        <ele>220.149974</ele>
        <time>2020-08-13T04:17:11.440Z</time>
      </trkpt>
      <trkpt lat="48.604292" lon="16.778862">
        <ele>220.146881</ele>
        <time>2020-08-13T04:17:13.431Z</time>
      </trkpt>
      <trkpt lat="48.604248" lon="16.779032">
        <ele>220.143714</ele>
        <time>2020-08-13T04:17:15.441Z</time>
      </trkpt>
      <trkpt lat="48.604192" lon="16.779198">
        <ele>220.140481</ele>
        <time>2020-08-13T04:17:17.435Z</time>
      </trkpt>
      <trkpt lat="48.604118" lon="16.779355">
        <ele>220.137135</ele>
        <time>2020-08-13T04:17:19.433Z</time>
      </trkpt>
      <trkpt lat="48.604035" lon="16.779510">
        <ele>220.133675</ele>
        <time>2020-08-13T04:17:21.449Z</time>
      </trkpt>
      <trkpt lat="48.603951" lon="16.779659">
        <ele>220.130278</ele>
        <time>2020-08-13T04:17:23.429Z</time>
      </trkpt>
      <trkpt lat="48.603857" lon="16.779800">
        <ele>220.126804</ele>
        <time>2020-08-13T04:17:25.457Z</time>
      </trkpt>
      <trkpt lat="48.603770" lon="16.779952">
        <ele>220.123316</ele>
        <time>2020-08-13T04:17:27.443Z</time>
      </trkpt>
      <trkpt lat="48.603683" lon="16.780117">
        <ele>220.119654</ele>
        <time>2020-08-13T04:17:29.435Z</time>
      </trkpt>
      <trkpt lat="48.603595" lon="16.780280">
        <ele>220.116003</ele>
        <time>2020-08-13T04:17:31.461Z</time>
      </trkpt>
      <trkpt lat="48.603503" lon="16.780447">
        <ele>220.112232</ele>
        <time>2020-08-13T04:17:33.441Z</time>
      </trkpt>
      <trkpt lat="48.603412" lon="16.780608">
        <ele>220.108557</ele>
        <time>2020-08-13T04:17:35.432Z</time>
      </trkpt>
      <trkpt lat="48.603324" lon="16.780781">
        <ele>220.026759</ele>
        <time>2020-08-13T04:17:37.413Z</time>
      </trkpt>
      <trkpt lat="48.603243" lon="16.780964">
        <ele>219.924775</ele>
        <time>2020-08-13T04:17:39.424Z</time>
      </trkpt>
      <trkpt lat="48.603171" lon="16.781150">
        <ele>219.824960</ele>
        <time>2020-08-13T04:17:41.427Z</time>
      </trkpt>
      <trkpt lat="48.603102" lon="16.781335">
        <ele>219.726594</ele>
        <time>2020-08-13T04:17:43.439Z</time>
      </trkpt>
      <trkpt lat="48.603027" lon="16.781514">
        <ele>219.628455</ele>
        <time>2020-08-13T04:17:45.430Z</time>
      </trkpt>
      <trkpt lat="48.602954" lon="16.781695">
        <ele>219.530268</ele>
        <time>2020-08-13T04:17:47.405Z</time>
      </trkpt>
      <trkpt lat="48.602861" lon="16.781837">
        <ele>219.437709</ele>
        <time>2020-08-13T04:17:49.459Z</time>
      </trkpt>
      <trkpt lat="48.602759" lon="16.781964">
        <ele>219.345175</ele>
        <time>2020-08-13T04:17:51.414Z</time>
      </trkpt>
      <trkpt lat="48.602658" lon="16.782089">
        <ele>219.253770</ele>
        <time>2020-08-13T04:17:53.452Z</time>
      </trkpt>
      <trkpt lat="48.602563" lon="16.782218">
        <ele>219.164350</ele>
        <time>2020-08-13T04:17:55.441Z</time>
      </trkpt>
      <trkpt lat="48.602467" lon="16.782342">
        <ele>219.075929</ele>
        <time>2020-08-13T04:17:57.449Z</time>
      </trkpt>
      <trkpt lat="48.602371" lon="16.782464">
        <ele>218.988106</ele>
        <time>2020-08-13T04:17:59.425Z</time>
      </trkpt>
      <trkpt lat="48.602285" lon="16.782595">
        <ele>218.902616</ele>
        <time>2020-08-13T04:18:01.420Z</time>
      </trkpt>
      <trkpt lat="48.602205" lon="16.782732">
        <ele>218.782386</ele>
        <time>2020-08-13T04:18:03.429Z</time>
      </trkpt>
      <trkpt lat="48.602131" lon="16.782867">
        <ele>218.605338</ele>
        <time>2020-08-13T04:18:05.437Z</time>
      </trkpt>
      <trkpt lat="48.602060" lon="16.783011">
        <ele>218.423977</ele>
        <time>2020-08-13T04:18:07.425Z</time>
      </trkpt>
      <trkpt lat="48.601993" lon="16.783154">
        <ele>218.247024</ele>
        <time>2020-08-13T04:18:09.427Z</time>
      </trkpt>
      <trkpt lat="48.601930" lon="16.783295">
        <ele>218.075207</ele>
        <time>2020-08-13T04:18:11.437Z</time>
      </trkpt>
      <trkpt lat="48.601876" lon="16.783447">
        <ele>217.900989</ele>
        <time>2020-08-13T04:18:13.435Z</time>
      </trkpt>
      <trkpt lat="48.601831" lon="16.783603">
        <ele>217.729143</ele>
        <time>2020-08-13T04:18:15.443Z</time>
      </trkpt>
      <trkpt lat="48.601793" lon="16.783765">
        <ele>217.555587</ele>
        <time>2020-08-13T04:18:17.431Z</time>
      </trkpt>
      <trkpt lat="48.601758" lon="16.783934">
        <ele>217.376776</ele>
        <time>2020-08-13T04:18:19.421Z</time>
      </trkpt>
      <trkpt lat="48.601723" lon="16.784098">
        <ele>217.202776</ele>
        <time>2020-08-13T04:18:21.443Z</time>
      </trkpt>
      <trkpt lat="48.601686" lon="16.784257">
        <ele>217.032585</ele>
        <time>2020-08-13T04:18:23.424Z</time>
      </trkpt>
      <trkpt lat="48.601643" lon="16.784414">
        <ele>216.861004</ele>
        <time>2020-08-13T04:18:25.421Z</time>
      </trkpt>
      <trkpt lat="48.601600" lon="16.784568">
        <ele>216.692218</ele>
        <time>2020-08-13T04:18:27.454Z</time>
      </trkpt>
      <trkpt lat="48.601557" lon="16.784719">
        <ele>216.526218</ele>
        <time>2020-08-13T04:18:29.437Z</time>
      </trkpt>
      <trkpt lat="48.601512" lon="16.784867">
        <ele>216.361743</ele>
        <time>2020-08-13T04:18:31.451Z</time>
      </trkpt>
      <trkpt lat="48.601465" lon="16.785020">
        <ele>216.191405</ele>
        <time>2020-08-13T04:18:33.450Z</time>
      </trkpt>
      <trkpt lat="48.601424" lon="16.785172">
        <ele>216.070021</ele>
        <time>2020-08-13T04:18:35.421Z</time>
      </trkpt>
      <trkpt lat="48.601382" lon="16.785322">
        <ele>216.001321</ele>
        <time>2020-08-13T04:18:37.423Z</time>
      </trkpt>
      <trkpt lat="48.601343" lon="16.785473">
        <ele>215.932952</ele>
        <time>2020-08-13T04:18:39.423Z</time>
      </trkpt>
      <trkpt lat="48.601313" lon="16.785630">
        <ele>215.864028</ele>
        <time>2020-08-13T04:18:41.428Z</time>
      </trkpt>
      <trkpt lat="48.601280" lon="16.785782">
        <ele>215.796555</ele>
        <time>2020-08-13T04:18:43.438Z</time>
      </trkpt>
      <trkpt lat="48.601248" lon="16.785939">
        <ele>215.727266</ele>
        <time>2020-08-13T04:18:45.420Z</time>
      </trkpt>
      <trkpt lat="48.601220" lon="16.786095">
        <ele>215.659092</ele>
        <time>2020-08-13T04:18:47.438Z</time>
      </trkpt>
      <trkpt lat="48.601222" lon="16.786247">
        <ele>215.594973</ele>
        <time>2020-08-13T04:18:49.419Z</time>
      </trkpt>
      <trkpt lat="48.601312" lon="16.786321">
        <ele>215.529638</ele>
        <time>2020-08-13T04:18:51.414Z</time>
      </trkpt>
      <trkpt lat="48.601420" lon="16.786346">
        <ele>215.459957</ele>
        <time>2020-08-13T04:18:53.429Z</time>
      </trkpt>
      <trkpt lat="48.601533" lon="16.786378">
        <ele>215.386636</ele>
        <time>2020-08-13T04:18:55.432Z</time>
      </trkpt>
      <trkpt lat="48.601639" lon="16.786413">
        <ele>215.317440</ele>
        <time>2020-08-13T04:18:57.419Z</time>
      </trkpt>
      <trkpt lat="48.601740" lon="16.786456">
        <ele>215.250521</ele>
        <time>2020-08-13T04:18:59.415Z</time>
      </trkpt>
      <trkpt lat="48.601838" lon="16.786509">
        <ele>215.184143</ele>
        <time>2020-08-13T04:19:01.420Z</time>
      </trkpt>
      <trkpt lat="48.601937" lon="16.786575">
        <ele>215.115141</ele>
        <time>2020-08-13T04:19:03.439Z</time>
      </trkpt>
      <trkpt lat="48.602034" lon="16.786636">
        <ele>215.048142</ele>
        <time>2020-08-13T04:19:05.426Z</time>
      </trkpt>
      <trkpt lat="48.602131" lon="16.786686">
        <ele>214.982783</ele>
        <time>2020-08-13T04:19:07.458Z</time>
      </trkpt>
      <trkpt lat="48.602226" lon="16.786730">
        <ele>214.928479</ele>
        <time>2020-08-13T04:19:09.460Z</time>
      </trkpt>
      <trkpt lat="48.602328" lon="16.786763">
        <ele>214.879027</ele>
        <time>2020-08-13T04:19:11.429Z</time>
      </trkpt>
      <trkpt lat="48.602427" lon="16.786792">
        <ele>214.831218</ele>
        <time>2020-08-13T04:19:13.447Z</time>
      </trkpt>
      <trkpt lat="48.602530" lon="16.786825">
        <ele>214.781302</ele>
        <time>2020-08-13T04:19:15.435Z</time>
      </trkpt>
      <trkpt lat="48.602631" lon="16.786859">
        <ele>214.732245</ele>
        <time>2020-08-13T04:19:17.416Z</time>
      </trkpt>
      <trkpt lat="48.602731" lon="16.786891">
        <ele>214.683785</ele>
        <time>2020-08-13T04:19:19.434Z</time>
      </trkpt>
      <trkpt lat="48.602834" lon="16.786923">
        <ele>214.633933</ele>
        <time>2020-08-13T04:19:21.442Z</time>
      </trkpt>
      <trkpt lat="48.602933" lon="16.786952">
        <ele>214.586124</ele>
        <time>2020-08-13T04:19:23.447Z</time>
      </trkpt>
      <trkpt lat="48.603035" lon="16.786982">
        <ele>214.536860</ele>
        <time>2020-08-13T04:19:25.430Z</time>
      </trkpt>
      <trkpt lat="48.603133" lon="16.787012">
        <ele>214.489456</ele>
        <time>2020-08-13T04:19:27.431Z</time>
      </trkpt>
      <trkpt lat="48.603231" lon="16.787043">
        <ele>214.441988</ele>
        <time>2020-08-13T04:19:29.434Z</time>
      </trkpt>
      <trkpt lat="48.603333" lon="16.787075">
        <ele>214.392600</ele>
        <time>2020-08-13T04:19:31.458Z</time>
      </trkpt>
      <trkpt lat="48.603436" lon="16.787107">
        <ele>214.342748</ele>
        <time>2020-08-13T04:19:33.437Z</time>
      </trkpt>
      <trkpt lat="48.603537" lon="16.787138">
        <ele>214.293887</ele>
        <time>2020-08-13T04:19:35.432Z</time>
      </trkpt>
      <trkpt lat="48.603637" lon="16.787163">
        <ele>214.245833</ele>
        <time>2020-08-13T04:19:37.424Z</time>
      </trkpt>
      <trkpt lat="48.603732" lon="16.787188">
        <ele>214.200117</ele>
        <time>2020-08-13T04:19:39.407Z</time>
      </trkpt>
      <trkpt lat="48.603822" lon="16.787209">
        <ele>214.156943</ele>
        <time>2020-08-13T04:19:41.440Z</time>
      </trkpt>
      <trkpt lat="48.603913" lon="16.787235">
        <ele>214.113036</ele>
        <time>2020-08-13T04:19:43.428Z</time>
      </trkpt>
      <trkpt lat="48.604025" lon="16.787279">
        <ele>214.102149</ele>
        <time>2020-08-13T04:19:46.422Z</time>
      </trkpt>
      <trkpt lat="48.604123" lon="16.787321">
        <ele>214.102323</ele>
        <time>2020-08-13T04:19:49.434Z</time>
      </trkpt>
      <trkpt lat="48.604224" lon="16.787361">
        <ele>214.102502</ele>
        <time>2020-08-13T04:19:52.450Z</time>
      </trkpt>
      <trkpt lat="48.604334" lon="16.787407">
        <ele>214.102697</ele>
        <time>2020-08-13T04:19:55.433Z</time>
      </trkpt>
      <trkpt lat="48.604422" lon="16.787441">
        <ele>214.102852</ele>
        <time>2020-08-13T04:19:57.412Z</time>
      </trkpt>
      <trkpt lat="48.604525" lon="16.787475">
        <ele>214.103032</ele>
        <time>2020-08-13T04:19:59.419Z</time>
      </trkpt>
      <trkpt lat="48.604638" lon="16.787520">
        <ele>214.103232</ele>
        <time>2020-08-13T04:20:01.465Z</time>
      </trkpt>
      <trkpt lat="48.604756" lon="16.787571">
        <ele>214.103442</ele>
        <time>2020-08-13T04:20:03.417Z</time>
      </trkpt>
      <trkpt lat="48.604883" lon="16.787619">
        <ele>214.103666</ele>
        <time>2020-08-13T04:20:05.456Z</time>
      </trkpt>
      <trkpt lat="48.605006" lon="16.787668">
        <ele>214.103883</ele>
        <time>2020-08-13T04:20:07.448Z</time>
      </trkpt>
      <trkpt lat="48.605126" lon="16.787708">
        <ele>214.104093</ele>
        <time>2020-08-13T04:20:09.430Z</time>
      </trkpt>
      <trkpt lat="48.605244" lon="16.787752">
        <ele>214.104301</ele>
        <time>2020-08-13T04:20:11.443Z</time>
      </trkpt>
      <trkpt lat="48.605359" lon="16.787799">
        <ele>214.104505</ele>
        <time>2020-08-13T04:20:13.423Z</time>
      </trkpt>
      <trkpt lat="48.605474" lon="16.787854">
        <ele>214.104711</ele>
        <time>2020-08-13T04:20:15.430Z</time>
      </trkpt>
      <trkpt lat="48.605584" lon="16.787903">
        <ele>214.104907</ele>
        <time>2020-08-13T04:20:17.443Z</time>
      </trkpt>
      <trkpt lat="48.605691" lon="16.787947">
        <ele>214.115456</ele>
        <time>2020-08-13T04:20:19.446Z</time>
      </trkpt>
      <trkpt lat="48.605800" lon="16.787990">
        <ele>214.181162</ele>
        <time>2020-08-13T04:20:21.450Z</time>
      </trkpt>
      <trkpt lat="48.605907" lon="16.788038">
        <ele>214.246261</ele>
        <time>2020-08-13T04:20:23.438Z</time>
      </trkpt>
      <trkpt lat="48.606014" lon="16.788078">
        <ele>214.310551</ele>
        <time>2020-08-13T04:20:25.434Z</time>
      </trkpt>
      <trkpt lat="48.606118" lon="16.788113">
        <ele>214.372697</ele>
        <time>2020-08-13T04:20:27.469Z</time>
      </trkpt>
      <trkpt lat="48.606219" lon="16.788152">
        <ele>214.433499</ele>
        <time>2020-08-13T04:20:29.451Z</time>
      </trkpt>
      <trkpt lat="48.606320" lon="16.788195">
        <ele>214.494701</ele>
        <time>2020-08-13T04:20:31.426Z</time>
      </trkpt>
      <trkpt lat="48.606418" lon="16.788240">
        <ele>214.554439</ele>
        <time>2020-08-13T04:20:33.448Z</time>
      </trkpt>
      <trkpt lat="48.606513" lon="16.788289">
        <ele>214.612986</ele>
        <time>2020-08-13T04:20:35.430Z</time>
      </trkpt>
      <trkpt lat="48.606609" lon="16.788338">
        <ele>214.672084</ele>
        <time>2020-08-13T04:20:37.435Z</time>
      </trkpt>
      <trkpt lat="48.606706" lon="16.788387">
        <ele>214.731736</ele>
        <time>2020-08-13T04:20:39.432Z</time>
      </trkpt>
      <trkpt lat="48.606804" lon="16.788438">
        <ele>214.792188</ele>
        <time>2020-08-13T04:20:41.429Z</time>
      </trkpt>
      <trkpt lat="48.606898" lon="16.788487">
        <ele>214.850182</ele>
        <time>2020-08-13T04:20:43.441Z</time>
      </trkpt>
      <trkpt lat="48.606990" lon="16.788530">
        <ele>214.906349</ele>
        <time>2020-08-13T04:20:45.415Z</time>
      </trkpt>
      <trkpt lat="48.607083" lon="16.788564">
        <ele>214.962157</ele>
        <time>2020-08-13T04:20:47.431Z</time>
      </trkpt>
      <trkpt lat="48.607182" lon="16.788595">
        <ele>215.021127</ele>
        <time>2020-08-13T04:20:49.445Z</time>
      </trkpt>
      <trkpt lat="48.607280" lon="16.788626">
        <ele>215.079526</ele>
        <time>2020-08-13T04:20:51.441Z</time>
      </trkpt>
      <trkpt lat="48.607378" lon="16.788659">
        <ele>215.138088</ele>
        <time>2020-08-13T04:20:53.429Z</time>
      </trkpt>
      <trkpt lat="48.607480" lon="16.788699">
        <ele>215.198681</ele>
        <time>2020-08-13T04:20:55.434Z</time>
      </trkpt>
      <trkpt lat="48.607580" lon="16.788736">
        <ele>215.257578</ele>
        <time>2020-08-13T04:20:57.434Z</time>
      </trkpt>
      <trkpt lat="48.607679" lon="16.788767">
        <ele>215.315418</ele>
        <time>2020-08-13T04:20:59.429Z</time>
      </trkpt>
      <trkpt lat="48.607773" lon="16.788804">
        <ele>215.370987</ele>
        <time>2020-08-13T04:21:01.429Z</time>
      </trkpt>
      <trkpt lat="48.607864" lon="16.788841">
        <ele>215.424897</ele>
        <time>2020-08-13T04:21:03.421Z</time>
      </trkpt>
      <trkpt lat="48.607955" lon="16.788879">
        <ele>215.478906</ele>
        <time>2020-08-13T04:21:05.433Z</time>
      </trkpt>
      <trkpt lat="48.608045" lon="16.788921">
        <ele>215.532791</ele>
        <time>2020-08-13T04:21:07.424Z</time>
      </trkpt>
      <trkpt lat="48.608137" lon="16.788964">
        <ele>215.587881</ele>
        <time>2020-08-13T04:21:09.434Z</time>
      </trkpt>
      <trkpt lat="48.608228" lon="16.789005">
        <ele>215.642203</ele>
        <time>2020-08-13T04:21:11.442Z</time>
      </trkpt>
      <trkpt lat="48.608319" lon="16.789041">
        <ele>215.696016</ele>
        <time>2020-08-13T04:21:13.468Z</time>
      </trkpt>
      <trkpt lat="48.608412" lon="16.789070">
        <ele>215.750341</ele>
        <time>2020-08-13T04:21:15.420Z</time>
      </trkpt>
      <trkpt lat="48.608505" lon="16.789098">
        <ele>215.804590</ele>
        <time>2020-08-13T04:21:17.411Z</time>
      </trkpt>
      <trkpt lat="48.608638" lon="16.789132">
        <ele>215.881759</ele>
        <time>2020-08-13T04:21:20.442Z</time>
      </trkpt>
      <trkpt lat="48.608737" lon="16.789177">
        <ele>215.940900</ele>
        <time>2020-08-13T04:21:23.422Z</time>
      </trkpt>
      <trkpt lat="48.608776" lon="16.789313">
        <ele>215.996975</ele>
        <time>2020-08-13T04:21:26.426Z</time>
      </trkpt>
      <trkpt lat="48.608838" lon="16.789482">
        <ele>216.070084</ele>
        <time>2020-08-13T04:21:29.425Z</time>
      </trkpt>
      <trkpt lat="48.608919" lon="16.789641">
        <ele>216.146011</ele>
        <time>2020-08-13T04:21:32.445Z</time>
      </trkpt>
      <trkpt lat="48.609025" lon="16.789769">
        <ele>216.158313</ele>
        <time>2020-08-13T04:21:35.425Z</time>
      </trkpt>
      <trkpt lat="48.609114" lon="16.789834">
        <ele>216.123495</ele>
        <time>2020-08-13T04:21:37.423Z</time>
      </trkpt>
      <trkpt lat="48.609207" lon="16.789895">
        <ele>216.087784</ele>
        <time>2020-08-13T04:21:39.463Z</time>
      </trkpt>
      <trkpt lat="48.609299" lon="16.789952">
        <ele>216.052759</ele>
        <time>2020-08-13T04:21:41.436Z</time>
      </trkpt>
      <trkpt lat="48.609386" lon="16.790012">
        <ele>216.019074</ele>
        <time>2020-08-13T04:21:43.456Z</time>
      </trkpt>
      <trkpt lat="48.609471" lon="16.790067">
        <ele>215.986504</ele>
        <time>2020-08-13T04:21:45.414Z</time>
      </trkpt>
      <trkpt lat="48.609598" lon="16.790133">
        <ele>215.939195</ele>
        <time>2020-08-13T04:21:48.413Z</time>
      </trkpt>
      <trkpt lat="48.609727" lon="16.790189">
        <ele>215.891915</ele>
        <time>2020-08-13T04:21:51.432Z</time>
      </trkpt>
      <trkpt lat="48.609819" lon="16.790207">
        <ele>215.859234</ele>
        <time>2020-08-13T04:21:53.462Z</time>
      </trkpt>
      <trkpt lat="48.609951" lon="16.790225">
        <ele>215.812544</ele>
        <time>2020-08-13T04:21:56.423Z</time>
      </trkpt>
      <trkpt lat="48.610075" lon="16.790240">
        <ele>215.768720</ele>
        <time>2020-08-13T04:21:59.424Z</time>
      </trkpt>
      <trkpt lat="48.610198" lon="16.790250">
        <ele>215.725326</ele>
        <time>2020-08-13T04:22:02.421Z</time>
      </trkpt>
      <trkpt lat="48.610314" lon="16.790280">
        <ele>215.683867</ele>
        <time>2020-08-13T04:22:05.435Z</time>
      </trkpt>
      <trkpt lat="48.610430" lon="16.790320">
        <ele>215.641953</ele>
        <time>2020-08-13T04:22:08.416Z</time>
      </trkpt>
      <trkpt lat="48.610546" lon="16.790344">
        <ele>215.600707</ele>
        <time>2020-08-13T04:22:11.442Z</time>
      </trkpt>
      <trkpt lat="48.610659" lon="16.790312">
        <ele>215.560206</ele>
        <time>2020-08-13T04:22:14.454Z</time>
      </trkpt>
      <trkpt lat="48.610766" lon="16.790275">
        <ele>215.546875</ele>
        <time>2020-08-13T04:22:17.436Z</time>
      </trkpt>
      <trkpt lat="48.610862" lon="16.790189">
        <ele>215.543114</ele>
        <time>2020-08-13T04:22:20.430Z</time>
      </trkpt>
      <trkpt lat="48.610916" lon="16.790056">
        <ele>215.539636</ele>
        <time>2020-08-13T04:22:23.421Z</time>
      </trkpt>
      <trkpt lat="48.610960" lon="16.789915">
        <ele>215.536161</ele>
        <time>2020-08-13T04:22:26.434Z</time>
      </trkpt>
      <trkpt lat="48.611047" lon="16.789867">
        <ele>215.533040</ele>
        <time>2020-08-13T04:22:30.421Z</time>
      </trkpt>
      <trkpt lat="48.611153" lon="16.789935">
        <ele>215.529159</ele>
        <time>2020-08-13T04:22:33.423Z</time>
      </trkpt>
      <trkpt lat="48.611264" lon="16.789998">
        <ele>215.525163</ele>
        <time>2020-08-13T04:22:36.451Z</time>
      </trkpt>
      <trkpt lat="48.611373" lon="16.790052">
        <ele>215.521297</ele>
        <time>2020-08-13T04:22:39.426Z</time>
      </trkpt>
      <trkpt lat="48.611476" lon="16.790129">
        <ele>215.517425</ele>
        <time>2020-08-13T04:22:42.427Z</time>
      </trkpt>
      <trkpt lat="48.611568" lon="16.790233">
        <ele>215.513553</ele>
        <time>2020-08-13T04:22:45.415Z</time>
      </trkpt>
      <trkpt lat="48.611681" lon="16.790280">
        <ele>215.509603</ele>
        <time>2020-08-13T04:22:48.417Z</time>
      </trkpt>
      <trkpt lat="48.611813" lon="16.790278">
        <ele>215.505154</ele>
        <time>2020-08-13T04:22:51.426Z</time>
      </trkpt>
      <trkpt lat="48.611939" lon="16.790267">
        <ele>215.500900</ele>
        <time>2020-08-13T04:22:54.442Z</time>
      </trkpt>
      <trkpt lat="48.612058" lon="16.790241">
        <ele>215.496847</ele>
        <time>2020-08-13T04:22:57.457Z</time>
      </trkpt>
      <trkpt lat="48.612184" lon="16.790208">
        <ele>215.492537</ele>
        <time>2020-08-13T04:23:00.411Z</time>
      </trkpt>
      <trkpt lat="48.612303" lon="16.790122">
        <ele>215.491169</ele>
        <time>2020-08-13T04:23:03.412Z</time>
      </trkpt>
      <trkpt lat="48.612320" lon="16.789929">
        <ele>215.502734</ele>
        <time>2020-08-13T04:23:06.446Z</time>
      </trkpt>
      <trkpt lat="48.612303" lon="16.789727">
        <ele>215.514830</ele>
        <time>2020-08-13T04:23:09.447Z</time>
      </trkpt>
      <trkpt lat="48.612293" lon="16.789578">
        <ele>215.523726</ele>
        <time>2020-08-13T04:23:11.463Z</time>
      </trkpt>
      <trkpt lat="48.612281" lon="16.789440">
        <ele>215.531994</ele>
        <time>2020-08-13T04:23:13.417Z</time>
      </trkpt>
      <trkpt lat="48.612268" lon="16.789304">
        <ele>215.540157</ele>
        <time>2020-08-13T04:23:15.434Z</time>
      </trkpt>
      <trkpt lat="48.612255" lon="16.789159">
        <ele>215.548849</ele>
        <time>2020-08-13T04:23:17.432Z</time>
      </trkpt>
      <trkpt lat="48.612243" lon="16.789010">
        <ele>215.557765</ele>
        <time>2020-08-13T04:23:19.461Z</time>
      </trkpt>
      <trkpt lat="48.612235" lon="16.788858">
        <ele>215.566822</ele>
        <time>2020-08-13T04:23:21.442Z</time>
      </trkpt>
      <trkpt lat="48.612265" lon="16.788713">
        <ele>215.575847</ele>
        <time>2020-08-13T04:23:23.401Z</time>
      </trkpt>
      <trkpt lat="48.612330" lon="16.788600">
        <ele>215.584744</ele>
        <time>2020-08-13T04:23:25.421Z</time>
      </trkpt>
      <trkpt lat="48.612408" lon="16.788501">
        <ele>215.593893</ele>
        <time>2020-08-13T04:23:27.421Z</time>
      </trkpt>
      <trkpt lat="48.612483" lon="16.788400">
        <ele>215.602915</ele>
        <time>2020-08-13T04:23:29.443Z</time>
      </trkpt>
      <trkpt lat="48.612552" lon="16.788296">
        <ele>215.611667</ele>
        <time>2020-08-13T04:23:31.444Z</time>
      </trkpt>
      <trkpt lat="48.612621" lon="16.788194">
        <ele>215.620335</ele>
        <time>2020-08-13T04:23:33.444Z</time>
      </trkpt>
      <trkpt lat="48.612688" lon="16.788090">
        <ele>215.628961</ele>
        <time>2020-08-13T04:23:35.432Z</time>
      </trkpt>
      <trkpt lat="48.612750" lon="16.787986">
        <ele>215.637279</ele>
        <time>2020-08-13T04:23:37.451Z</time>
      </trkpt>
      <trkpt lat="48.612812" lon="16.787887">
        <ele>215.645379</ele>
        <time>2020-08-13T04:23:39.448Z</time>
      </trkpt>
      <trkpt lat="48.612906" lon="16.787744">
        <ele>215.658183</ele>
        <time>2020-08-13T04:23:42.454Z</time>
      </trkpt>
      <trkpt lat="48.612999" lon="16.787599">
        <ele>215.671635</ele>
        <time>2020-08-13T04:23:45.411Z</time>
      </trkpt>
      <trkpt lat="48.613063" lon="16.787501">
        <ele>215.680807</ele>
        <time>2020-08-13T04:23:47.421Z</time>
      </trkpt>
      <trkpt lat="48.613124" lon="16.787401">
        <ele>215.689867</ele>
        <time>2020-08-13T04:23:49.427Z</time>
      </trkpt>
      <trkpt lat="48.613185" lon="16.787301">
        <ele>215.698927</ele>
        <time>2020-08-13T04:23:51.433Z</time>
      </trkpt>
      <trkpt lat="48.613246" lon="16.787199">
        <ele>215.708085</ele>
        <time>2020-08-13T04:23:53.440Z</time>
      </trkpt>
      <trkpt lat="48.613305" lon="16.787096">
        <ele>215.717159</ele>
        <time>2020-08-13T04:23:55.438Z</time>
      </trkpt>
      <trkpt lat="48.613365" lon="16.786991">
        <ele>215.726401</ele>
        <time>2020-08-13T04:23:57.431Z</time>
      </trkpt>
      <trkpt lat="48.613452" lon="16.786835">
        <ele>215.739990</ele>
        <time>2020-08-13T04:24:00.475Z</time>
      </trkpt>
      <trkpt lat="48.613539" lon="16.786683">
        <ele>215.753377</ele>
        <time>2020-08-13T04:24:03.441Z</time>
      </trkpt>
      <trkpt lat="48.613623" lon="16.786534">
        <ele>215.766416</ele>
        <time>2020-08-13T04:24:06.420Z</time>
      </trkpt>
      <trkpt lat="48.613705" lon="16.786384">
        <ele>215.779376</ele>
        <time>2020-08-13T04:24:09.433Z</time>
      </trkpt>
      <trkpt lat="48.613787" lon="16.786246">
        <ele>215.791730</ele>
        <time>2020-08-13T04:24:12.449Z</time>
      </trkpt>
      <trkpt lat="48.613870" lon="16.786106">
        <ele>215.804251</ele>
        <time>2020-08-13T04:24:15.436Z</time>
      </trkpt>
      <trkpt lat="48.613952" lon="16.785968">
        <ele>215.816606</ele>
        <time>2020-08-13T04:24:18.430Z</time>
      </trkpt>
      <trkpt lat="48.614031" lon="16.785833">
        <ele>215.828610</ele>
        <time>2020-08-13T04:24:21.463Z</time>
      </trkpt>
      <trkpt lat="48.614111" lon="16.785702">
        <ele>215.844031</ele>
        <time>2020-08-13T04:24:24.454Z</time>
      </trkpt>
      <trkpt lat="48.614198" lon="16.785574">
        <ele>215.861178</ele>
        <time>2020-08-13T04:24:27.442Z</time>
      </trkpt>
      <trkpt lat="48.614283" lon="16.785449">
        <ele>215.877926</ele>
        <time>2020-08-13T04:24:30.421Z</time>
      </trkpt>
      <trkpt lat="48.614378" lon="16.785336">
        <ele>215.895000</ele>
        <time>2020-08-13T04:24:33.433Z</time>
      </trkpt>
      <trkpt lat="48.614476" lon="16.785226">
        <ele>215.912241</ele>
        <time>2020-08-13T04:24:36.461Z</time>
      </trkpt>
      <trkpt lat="48.614573" lon="16.785119">
        <ele>215.929202</ele>
        <time>2020-08-13T04:24:39.429Z</time>
      </trkpt>
      <trkpt lat="48.614673" lon="16.785016">
        <ele>215.946294</ele>
        <time>2020-08-13T04:24:42.444Z</time>
      </trkpt>
      <trkpt lat="48.614773" lon="16.784920">
        <ele>215.963026</ele>
        <time>2020-08-13T04:24:45.426Z</time>
      </trkpt>
      <trkpt lat="48.614876" lon="16.784822">
        <ele>215.980217</ele>
        <time>2020-08-13T04:24:48.450Z</time>
      </trkpt>
      <trkpt lat="48.614979" lon="16.784718">
        <ele>215.997713</ele>
        <time>2020-08-13T04:24:51.435Z</time>
      </trkpt>
      <trkpt lat="48.615081" lon="16.784616">
        <ele>216.014987</ele>
        <time>2020-08-13T04:24:54.454Z</time>
      </trkpt>
      <trkpt lat="48.615174" lon="16.784515">
        <ele>216.031162</ele>
        <time>2020-08-13T04:24:57.442Z</time>
      </trkpt>
      <trkpt lat="48.615267" lon="16.784417">
        <ele>216.047174</ele>
        <time>2020-08-13T04:25:00.429Z</time>
      </trkpt>
      <trkpt lat="48.615362" lon="16.784331">
        <ele>216.062816</ele>
        <time>2020-08-13T04:25:03.428Z</time>
      </trkpt>
      <trkpt lat="48.615458" lon="16.784259">
        <ele>216.077954</ele>
        <time>2020-08-13T04:25:06.441Z</time>
      </trkpt>
      <trkpt lat="48.615553" lon="16.784200">
        <ele>216.094928</ele>
        <time>2020-08-13T04:25:09.435Z</time>
      </trkpt>
      <trkpt lat="48.615670" lon="16.784107">
        <ele>216.120495</ele>
        <time>2020-08-13T04:25:12.432Z</time>
      </trkpt>
      <trkpt lat="48.615751" lon="16.783998">
        <ele>216.141466</ele>
        <time>2020-08-13T04:25:14.457Z</time>
      </trkpt>
      <trkpt lat="48.615837" lon="16.783874">
        <ele>216.164449</ele>
        <time>2020-08-13T04:25:16.422Z</time>
      </trkpt>
      <trkpt lat="48.615940" lon="16.783775">
        <ele>216.188055</ele>
        <time>2020-08-13T04:25:18.445Z</time>
      </trkpt>
      <trkpt lat="48.616047" lon="16.783692">
        <ele>216.211316</ele>
        <time>2020-08-13T04:25:20.464Z</time>
      </trkpt>
      <trkpt lat="48.616152" lon="16.783617">
        <ele>216.233777</ele>
        <time>2020-08-13T04:25:22.437Z</time>
      </trkpt>
      <trkpt lat="48.616256" lon="16.783555">
        <ele>216.255401</ele>
        <time>2020-08-13T04:25:24.421Z</time>
      </trkpt>
      <trkpt lat="48.616357" lon="16.783504">
        <ele>216.275998</ele>
        <time>2020-08-13T04:25:26.459Z</time>
      </trkpt>
      <trkpt lat="48.616460" lon="16.783459">
        <ele>216.296737</ele>
        <time>2020-08-13T04:25:28.422Z</time>
      </trkpt>
      <trkpt lat="48.616567" lon="16.783423">
        <ele>216.317940</ele>
        <time>2020-08-13T04:25:30.437Z</time>
      </trkpt>
      <trkpt lat="48.616674" lon="16.783397">
        <ele>216.338903</ele>
        <time>2020-08-13T04:25:32.445Z</time>
      </trkpt>
      <trkpt lat="48.616784" lon="16.783375">
        <ele>216.360367</ele>
        <time>2020-08-13T04:25:34.441Z</time>
      </trkpt>
      <trkpt lat="48.616894" lon="16.783358">
        <ele>216.381756</ele>
        <time>2020-08-13T04:25:36.430Z</time>
      </trkpt>
      <trkpt lat="48.617001" lon="16.783341">
        <ele>216.402567</ele>
        <time>2020-08-13T04:25:38.444Z</time>
      </trkpt>
      <trkpt lat="48.617102" lon="16.783324">
        <ele>216.422225</ele>
        <time>2020-08-13T04:25:40.429Z</time>
      </trkpt>
      <trkpt lat="48.617193" lon="16.783307">
        <ele>216.453512</ele>
        <time>2020-08-13T04:25:42.459Z</time>
      </trkpt>
      <trkpt lat="48.617317" lon="16.783296">
        <ele>216.529610</ele>
        <time>2020-08-13T04:25:45.417Z</time>
      </trkpt>
      <trkpt lat="48.617428" lon="16.783284">
        <ele>216.597787</ele>
        <time>2020-08-13T04:25:48.443Z</time>
      </trkpt>
      <trkpt lat="48.617539" lon="16.783273">
        <ele>216.665936</ele>
        <time>2020-08-13T04:25:51.435Z</time>
      </trkpt>
      <trkpt lat="48.617646" lon="16.783249">
        <ele>216.732206</ele>
        <time>2020-08-13T04:25:54.451Z</time>
      </trkpt>
      <trkpt lat="48.617741" lon="16.783245">
        <ele>216.790430</ele>
        <time>2020-08-13T04:26:35.426Z</time>
      </trkpt>
      <trkpt lat="48.617841" lon="16.783233">
        <ele>216.851887</ele>
        <time>2020-08-13T04:26:40.422Z</time>
      </trkpt>
      <trkpt lat="48.617937" lon="16.783222">
        <ele>216.910869</ele>
        <time>2020-08-13T04:26:43.448Z</time>
      </trkpt>
      <trkpt lat="48.618045" lon="16.783202">
        <ele>216.977528</ele>
        <time>2020-08-13T04:26:46.443Z</time>
      </trkpt>
      <trkpt lat="48.618168" lon="16.783195">
        <ele>217.052937</ele>
        <time>2020-08-13T04:26:49.440Z</time>
      </trkpt>
      <trkpt lat="48.618287" lon="16.783185">
        <ele>217.125954</ele>
        <time>2020-08-13T04:26:52.454Z</time>
      </trkpt>
      <trkpt lat="48.618410" lon="16.783170">
        <ele>217.201554</ele>
        <time>2020-08-13T04:26:55.424Z</time>
      </trkpt>
      <trkpt lat="48.618538" lon="16.783156">
        <ele>217.280177</ele>
        <time>2020-08-13T04:26:58.434Z</time>
      </trkpt>
      <trkpt lat="48.618666" lon="16.783140">
        <ele>217.358862</ele>
        <time>2020-08-13T04:27:01.426Z</time>
      </trkpt>
      <trkpt lat="48.618791" lon="16.783094">
        <ele>217.437676</ele>
        <time>2020-08-13T04:27:04.433Z</time>
      </trkpt>
      <trkpt lat="48.618901" lon="16.783033">
        <ele>217.509453</ele>
        <time>2020-08-13T04:27:07.438Z</time>
      </trkpt>
      <trkpt lat="48.619013" lon="16.782968">
        <ele>217.577487</ele>
        <time>2020-08-13T04:27:10.445Z</time>
      </trkpt>
      <trkpt lat="48.619128" lon="16.782890">
        <ele>217.645791</ele>
        <time>2020-08-13T04:27:13.440Z</time>
      </trkpt>
      <trkpt lat="48.619234" lon="16.782773">
        <ele>217.716906</ele>
        <time>2020-08-13T04:27:16.429Z</time>
      </trkpt>
      <trkpt lat="48.619320" lon="16.782629">
        <ele>217.786433</ele>
        <time>2020-08-13T04:27:19.430Z</time>
      </trkpt>
      <trkpt lat="48.619390" lon="16.782483">
        <ele>217.851049</ele>
        <time>2020-08-13T04:27:22.438Z</time>
      </trkpt>
      <trkpt lat="48.619464" lon="16.782336">
        <ele>217.917246</ele>
        <time>2020-08-13T04:27:25.451Z</time>
      </trkpt>
      <trkpt lat="48.619546" lon="16.782187">
        <ele>217.986706</ele>
        <time>2020-08-13T04:27:28.461Z</time>
      </trkpt>
      <trkpt lat="48.619601" lon="16.782077">
        <ele>218.036118</ele>
        <time>2020-08-13T04:27:30.426Z</time>
      </trkpt>
      <trkpt lat="48.619682" lon="16.781910">
        <ele>218.110326</ele>
        <time>2020-08-13T04:27:33.456Z</time>
      </trkpt>
      <trkpt lat="48.619766" lon="16.781747">
        <ele>218.184371</ele>
        <time>2020-08-13T04:27:36.444Z</time>
      </trkpt>
      <trkpt lat="48.619822" lon="16.781639">
        <ele>218.233547</ele>
        <time>2020-08-13T04:27:38.429Z</time>
      </trkpt>
      <trkpt lat="48.619883" lon="16.781532">
        <ele>218.284168</ele>
        <time>2020-08-13T04:27:40.433Z</time>
      </trkpt>
      <trkpt lat="48.619941" lon="16.781426">
        <ele>218.333465</ele>
        <time>2020-08-13T04:27:42.434Z</time>
      </trkpt>
      <trkpt lat="48.620010" lon="16.781329">
        <ele>218.384515</ele>
        <time>2020-08-13T04:27:44.443Z</time>
      </trkpt>
      <trkpt lat="48.620088" lon="16.781242">
        <ele>218.437037</ele>
        <time>2020-08-13T04:27:46.432Z</time>
      </trkpt>
      <trkpt lat="48.620166" lon="16.781155">
        <ele>218.489558</ele>
        <time>2020-08-13T04:27:48.446Z</time>
      </trkpt>
      <trkpt lat="48.620245" lon="16.781065">
        <ele>218.535904</ele>
        <time>2020-08-13T04:27:50.442Z</time>
      </trkpt>
      <trkpt lat="48.620321" lon="16.780978">
        <ele>218.576110</ele>
        <time>2020-08-13T04:27:52.434Z</time>
      </trkpt>
      <trkpt lat="48.620395" lon="16.780891">
        <ele>218.615647</ele>
        <time>2020-08-13T04:27:54.433Z</time>
      </trkpt>
      <trkpt lat="48.620471" lon="16.780805">
        <ele>218.655685</ele>
        <time>2020-08-13T04:27:56.455Z</time>
      </trkpt>
      <trkpt lat="48.620553" lon="16.780722">
        <ele>218.697306</ele>
        <time>2020-08-13T04:27:58.457Z</time>
      </trkpt>
      <trkpt lat="48.620632" lon="16.780639">
        <ele>218.737882</ele>
        <time>2020-08-13T04:28:00.439Z</time>
      </trkpt>
      <trkpt lat="48.620710" lon="16.780555">
        <ele>218.778273</ele>
        <time>2020-08-13T04:28:02.439Z</time>
      </trkpt>
      <trkpt lat="48.620785" lon="16.780466">
        <ele>218.818485</ele>
        <time>2020-08-13T04:28:04.477Z</time>
      </trkpt>
      <trkpt lat="48.620858" lon="16.780379">
        <ele>218.857689</ele>
        <time>2020-08-13T04:28:06.428Z</time>
      </trkpt>
      <trkpt lat="48.620929" lon="16.780295">
        <ele>218.895713</ele>
        <time>2020-08-13T04:28:08.449Z</time>
      </trkpt>
      <trkpt lat="48.621004" lon="16.780204">
        <ele>218.936272</ele>
        <time>2020-08-13T04:28:10.442Z</time>
      </trkpt>
      <trkpt lat="48.621078" lon="16.780108">
        <ele>218.977396</ele>
        <time>2020-08-13T04:28:12.460Z</time>
      </trkpt>
      <trkpt lat="48.621152" lon="16.780010">
        <ele>219.018885</ele>
        <time>2020-08-13T04:28:14.458Z</time>
      </trkpt>
      <trkpt lat="48.621239" lon="16.779942">
        <ele>219.060196</ele>
        <time>2020-08-13T04:28:16.434Z</time>
      </trkpt>
      <trkpt lat="48.621332" lon="16.780007">
        <ele>219.103413</ele>
        <time>2020-08-13T04:28:18.441Z</time>
      </trkpt>
      <trkpt lat="48.621396" lon="16.780121">
        <ele>219.145121</ele>
        <time>2020-08-13T04:28:20.440Z</time>
      </trkpt>
      <trkpt lat="48.621462" lon="16.780222">
        <ele>219.184725</ele>
        <time>2020-08-13T04:28:22.421Z</time>
      </trkpt>
      <trkpt lat="48.621530" lon="16.780329">
        <ele>219.226116</ele>
        <time>2020-08-13T04:28:24.427Z</time>
      </trkpt>
      <trkpt lat="48.621593" lon="16.780435">
        <ele>219.265866</ele>
        <time>2020-08-13T04:28:26.429Z</time>
      </trkpt>
      <trkpt lat="48.621654" lon="16.780536">
        <ele>219.348361</ele>
        <time>2020-08-13T04:28:28.452Z</time>
      </trkpt>
      <trkpt lat="48.621739" lon="16.780680">
        <ele>219.470766</ele>
        <time>2020-08-13T04:28:31.454Z</time>
      </trkpt>
      <trkpt lat="48.621824" lon="16.780821">
        <ele>219.591758</ele>
        <time>2020-08-13T04:28:34.463Z</time>
      </trkpt>
      <trkpt lat="48.621909" lon="16.780963">
        <ele>219.713219</ele>
        <time>2020-08-13T04:28:37.448Z</time>
      </trkpt>
      <trkpt lat="48.621997" lon="16.781086">
        <ele>219.828138</ele>
        <time>2020-08-13T04:28:40.433Z</time>
      </trkpt>
      <trkpt lat="48.622073" lon="16.781212">
        <ele>219.936285</ele>
        <time>2020-08-13T04:28:43.440Z</time>
      </trkpt>
      <trkpt lat="48.622145" lon="16.781326">
        <ele>220.036253</ele>
        <time>2020-08-13T04:28:46.453Z</time>
      </trkpt>
      <trkpt lat="48.622210" lon="16.781433">
        <ele>220.128391</ele>
        <time>2020-08-13T04:28:49.438Z</time>
      </trkpt>
      <trkpt lat="48.622290" lon="16.781553">
        <ele>220.236450</ele>
        <time>2020-08-13T04:28:53.425Z</time>
      </trkpt>
      <trkpt lat="48.622361" lon="16.781677">
        <ele>220.340463</ele>
        <time>2020-08-13T04:28:57.440Z</time>
      </trkpt>
      <trkpt lat="48.622424" lon="16.781783">
        <ele>220.430841</ele>
        <time>2020-08-13T04:29:01.458Z</time>
      </trkpt>
      <trkpt lat="48.622496" lon="16.781902">
        <ele>220.533124</ele>
        <time>2020-08-13T04:29:06.444Z</time>
      </trkpt>
      <trkpt lat="48.622558" lon="16.782007">
        <ele>220.622389</ele>
        <time>2020-08-13T04:29:11.418Z</time>
      </trkpt>
      <trkpt lat="48.622624" lon="16.782113">
        <ele>220.714716</ele>
        <time>2020-08-13T04:29:16.427Z</time>
      </trkpt>
      <trkpt lat="48.622684" lon="16.782243">
        <ele>220.815242</ele>
        <time>2020-08-13T04:29:22.431Z</time>
      </trkpt>
      <trkpt lat="48.622746" lon="16.782341">
        <ele>220.901249</ele>
        <time>2020-08-13T04:29:27.423Z</time>
      </trkpt>
      <trkpt lat="48.622808" lon="16.782441">
        <ele>220.988176</ele>
        <time>2020-08-13T04:29:32.458Z</time>
      </trkpt>
      <trkpt lat="48.622880" lon="16.782564">
        <ele>221.198275</ele>
        <time>2020-08-13T04:29:37.452Z</time>
      </trkpt>
      <trkpt lat="48.622955" lon="16.782676">
        <ele>221.408676</ele>
        <time>2020-08-13T04:29:41.471Z</time>
      </trkpt>
      <trkpt lat="48.623031" lon="16.782811">
        <ele>221.642694</ele>
        <time>2020-08-13T04:29:45.424Z</time>
      </trkpt>
      <trkpt lat="48.623092" lon="16.782917">
        <ele>221.828169</ele>
        <time>2020-08-13T04:29:48.483Z</time>
      </trkpt>
      <trkpt lat="48.623160" lon="16.783022">
        <ele>222.022161</ele>
        <time>2020-08-13T04:29:51.419Z</time>
      </trkpt>
      <trkpt lat="48.623214" lon="16.783140">
        <ele>222.211565</ele>
        <time>2020-08-13T04:29:54.436Z</time>
      </trkpt>
      <trkpt lat="48.623293" lon="16.783277">
        <ele>222.451492</ele>
        <time>2020-08-13T04:29:58.432Z</time>
      </trkpt>
      <trkpt lat="48.623355" lon="16.783381">
        <ele>222.636315</ele>
        <time>2020-08-13T04:30:01.435Z</time>
      </trkpt>
      <trkpt lat="48.623412" lon="16.783487">
        <ele>222.816646</ele>
        <time>2020-08-13T04:30:04.452Z</time>
      </trkpt>
      <trkpt lat="48.623486" lon="16.783622">
        <ele>223.048094</ele>
        <time>2020-08-13T04:30:08.432Z</time>
      </trkpt>
      <trkpt lat="48.623555" lon="16.783758">
        <ele>223.274347</ele>
        <time>2020-08-13T04:30:12.467Z</time>
      </trkpt>
      <trkpt lat="48.623621" lon="16.783872">
        <ele>223.474339</ele>
        <time>2020-08-13T04:30:16.431Z</time>
      </trkpt>
      <trkpt lat="48.623679" lon="16.783981">
        <ele>223.659003</ele>
        <time>2020-08-13T04:30:20.419Z</time>
      </trkpt>
      <trkpt lat="48.623743" lon="16.784100">
        <ele>223.861461</ele>
        <time>2020-08-13T04:30:25.419Z</time>
      </trkpt>
      <trkpt lat="48.623803" lon="16.784215">
        <ele>224.054806</ele>
        <time>2020-08-13T04:30:30.456Z</time>
      </trkpt>
      <trkpt lat="48.623879" lon="16.784331">
        <ele>224.270347</ele>
        <time>2020-08-13T04:30:36.435Z</time>
      </trkpt>
      <trkpt lat="48.623945" lon="16.784451">
        <ele>224.476361</ele>
        <time>2020-08-13T04:30:42.438Z</time>
      </trkpt>
      <trkpt lat="48.624007" lon="16.784575">
        <ele>224.703974</ele>
        <time>2020-08-13T04:30:48.444Z</time>
      </trkpt>
      <trkpt lat="48.624070" lon="16.784674">
        <ele>224.927631</ele>
        <time>2020-08-13T04:30:53.430Z</time>
      </trkpt>
      <trkpt lat="48.624135" lon="16.784805">
        <ele>225.194219</ele>
        <time>2020-08-13T04:30:59.459Z</time>
      </trkpt>
      <trkpt lat="48.624198" lon="16.784917">
        <ele>225.433568</ele>
        <time>2020-08-13T04:31:04.432Z</time>
      </trkpt>
      <trkpt lat="48.624270" lon="16.785034">
        <ele>225.693734</ele>
        <time>2020-08-13T04:31:09.441Z</time>
      </trkpt>
      <trkpt lat="48.624328" lon="16.785147">
        <ele>225.926577</ele>
        <time>2020-08-13T04:31:13.433Z</time>
      </trkpt>
      <trkpt lat="48.624392" lon="16.785267">
        <ele>226.177522</ele>
        <time>2020-08-13T04:31:17.440Z</time>
      </trkpt>
      <trkpt lat="48.624466" lon="16.785388">
        <ele>226.445809</ele>
        <time>2020-08-13T04:31:21.446Z</time>
      </trkpt>
      <trkpt lat="48.624540" lon="16.785524">
        <ele>226.732495</ele>
        <time>2020-08-13T04:31:25.424Z</time>
      </trkpt>
      <trkpt lat="48.624614" lon="16.785662">
        <ele>227.021701</ele>
        <time>2020-08-13T04:31:29.478Z</time>
      </trkpt>
      <trkpt lat="48.624675" lon="16.785770">
        <ele>227.252900</ele>
        <time>2020-08-13T04:31:32.437Z</time>
      </trkpt>
      <trkpt lat="48.624732" lon="16.785878">
        <ele>227.477825</ele>
        <time>2020-08-13T04:31:35.435Z</time>
      </trkpt>
      <trkpt lat="48.624807" lon="16.786019">
        <ele>227.772375</ele>
        <time>2020-08-13T04:31:39.432Z</time>
      </trkpt>
      <trkpt lat="48.624887" lon="16.786145">
        <ele>228.056717</ele>
        <time>2020-08-13T04:31:43.449Z</time>
      </trkpt>
      <trkpt lat="48.624958" lon="16.786278">
        <ele>228.334949</ele>
        <time>2020-08-13T04:31:47.437Z</time>
      </trkpt>
      <trkpt lat="48.625022" lon="16.786405">
        <ele>228.594857</ele>
        <time>2020-08-13T04:31:51.448Z</time>
      </trkpt>
      <trkpt lat="48.625082" lon="16.786524">
        <ele>228.838440</ele>
        <time>2020-08-13T04:31:55.419Z</time>
      </trkpt>
      <trkpt lat="48.625140" lon="16.786637">
        <ele>229.073137</ele>
        <time>2020-08-13T04:31:59.449Z</time>
      </trkpt>
      <trkpt lat="48.625196" lon="16.786745">
        <ele>229.303774</ele>
        <time>2020-08-13T04:32:03.424Z</time>
      </trkpt>
      <trkpt lat="48.625260" lon="16.786847">
        <ele>229.540078</ele>
        <time>2020-08-13T04:32:07.431Z</time>
      </trkpt>
      <trkpt lat="48.625323" lon="16.786945">
        <ele>229.769775</ele>
        <time>2020-08-13T04:32:11.459Z</time>
      </trkpt>
      <trkpt lat="48.625406" lon="16.787021">
        <ele>230.016395</ele>
        <time>2020-08-13T04:32:16.434Z</time>
      </trkpt>
      <trkpt lat="48.625511" lon="16.786981">
        <ele>230.291638</ele>
        <time>2020-08-13T04:32:21.440Z</time>
      </trkpt>
      <trkpt lat="48.625615" lon="16.786934">
        <ele>230.567550</ele>
        <time>2020-08-13T04:32:25.438Z</time>
      </trkpt>
      <trkpt lat="48.625728" lon="16.786879">
        <ele>230.869296</ele>
        <time>2020-08-13T04:32:29.438Z</time>
      </trkpt>
      <trkpt lat="48.625813" lon="16.786832">
        <ele>231.099345</ele>
        <time>2020-08-13T04:32:32.457Z</time>
      </trkpt>
      <trkpt lat="48.625902" lon="16.786793">
        <ele>231.334883</ele>
        <time>2020-08-13T04:32:35.441Z</time>
      </trkpt>
      <trkpt lat="48.625989" lon="16.786755">
        <ele>231.565070</ele>
        <time>2020-08-13T04:32:38.433Z</time>
      </trkpt>
      <trkpt lat="48.626099" lon="16.786690">
        <ele>231.865262</ele>
        <time>2020-08-13T04:32:42.445Z</time>
      </trkpt>
      <trkpt lat="48.626210" lon="16.786636">
        <ele>232.161654</ele>
        <time>2020-08-13T04:32:46.419Z</time>
      </trkpt>
      <trkpt lat="48.626324" lon="16.786594">
        <ele>232.459911</ele>
        <time>2020-08-13T04:32:50.464Z</time>
      </trkpt>
      <trkpt lat="48.626430" lon="16.786554">
        <ele>232.737619</ele>
        <time>2020-08-13T04:32:54.437Z</time>
      </trkpt>
      <trkpt lat="48.626527" lon="16.786519">
        <ele>232.991110</ele>
        <time>2020-08-13T04:32:58.449Z</time>
      </trkpt>
      <trkpt lat="48.626627" lon="16.786465">
        <ele>233.261017</ele>
        <time>2020-08-13T04:33:02.455Z</time>
      </trkpt>
      <trkpt lat="48.626737" lon="16.786408">
        <ele>233.556584</ele>
        <time>2020-08-13T04:33:06.439Z</time>
      </trkpt>
      <trkpt lat="48.626846" lon="16.786348">
        <ele>233.830489</ele>
        <time>2020-08-13T04:33:10.460Z</time>
      </trkpt>
      <trkpt lat="48.626932" lon="16.786305">
        <ele>234.042551</ele>
        <time>2020-08-13T04:33:13.476Z</time>
      </trkpt>
      <trkpt lat="48.627038" lon="16.786245">
        <ele>234.307529</ele>
        <time>2020-08-13T04:33:17.443Z</time>
      </trkpt>
      <trkpt lat="48.627125" lon="16.786193">
        <ele>234.526541</ele>
        <time>2020-08-13T04:33:20.440Z</time>
      </trkpt>
      <trkpt lat="48.627218" lon="16.786150">
        <ele>234.754223</ele>
        <time>2020-08-13T04:33:23.430Z</time>
      </trkpt>
      <trkpt lat="48.627321" lon="16.786108">
        <ele>235.003982</ele>
        <time>2020-08-13T04:33:26.423Z</time>
      </trkpt>
      <trkpt lat="48.627439" lon="16.786063">
        <ele>235.288896</ele>
        <time>2020-08-13T04:33:29.455Z</time>
      </trkpt>
      <trkpt lat="48.627530" lon="16.786025">
        <ele>235.509920</ele>
        <time>2020-08-13T04:33:31.427Z</time>
      </trkpt>
      <trkpt lat="48.627642" lon="16.785986">
        <ele>235.779001</ele>
        <time>2020-08-13T04:33:33.441Z</time>
      </trkpt>
      <trkpt lat="48.627768" lon="16.785941">
        <ele>236.082113</ele>
        <time>2020-08-13T04:33:35.460Z</time>
      </trkpt>
      <trkpt lat="48.627890" lon="16.785883">
        <ele>236.381520</ele>
        <time>2020-08-13T04:33:37.443Z</time>
      </trkpt>
      <trkpt lat="48.628013" lon="16.785820">
        <ele>236.685555</ele>
        <time>2020-08-13T04:33:39.453Z</time>
      </trkpt>
      <trkpt lat="48.628130" lon="16.785758">
        <ele>236.975802</ele>
        <time>2020-08-13T04:33:41.446Z</time>
      </trkpt>
      <trkpt lat="48.628243" lon="16.785700">
        <ele>237.255179</ele>
        <time>2020-08-13T04:33:43.454Z</time>
      </trkpt>
      <trkpt lat="48.628358" lon="16.785645">
        <ele>237.537560</ele>
        <time>2020-08-13T04:33:45.427Z</time>
      </trkpt>
      <trkpt lat="48.628479" lon="16.785584">
        <ele>237.822514</ele>
        <time>2020-08-13T04:33:47.428Z</time>
      </trkpt>
      <trkpt lat="48.628610" lon="16.785529">
        <ele>238.028874</ele>
        <time>2020-08-13T04:33:49.464Z</time>
      </trkpt>
      <trkpt lat="48.628746" lon="16.785466">
        <ele>238.244769</ele>
        <time>2020-08-13T04:33:51.441Z</time>
      </trkpt>
      <trkpt lat="48.628880" lon="16.785404">
        <ele>238.457467</ele>
        <time>2020-08-13T04:33:53.430Z</time>
      </trkpt>
      <trkpt lat="48.629014" lon="16.785345">
        <ele>238.669304</ele>
        <time>2020-08-13T04:33:55.437Z</time>
      </trkpt>
      <trkpt lat="48.629148" lon="16.785321">
        <ele>238.874124</ele>
        <time>2020-08-13T04:33:57.445Z</time>
      </trkpt>
      <trkpt lat="48.629280" lon="16.785340">
        <ele>239.075393</ele>
        <time>2020-08-13T04:33:59.428Z</time>
      </trkpt>
      <trkpt lat="48.629394" lon="16.785408">
        <ele>239.261397</ele>
        <time>2020-08-13T04:34:01.446Z</time>
      </trkpt>
      <trkpt lat="48.629495" lon="16.785470">
        <ele>239.426843</ele>
        <time>2020-08-13T04:34:03.436Z</time>
      </trkpt>
      <trkpt lat="48.629592" lon="16.785524">
        <ele>239.583730</ele>
        <time>2020-08-13T04:34:05.432Z</time>
      </trkpt>
      <trkpt lat="48.629677" lon="16.785571">
        <ele>239.721099</ele>
        <time>2020-08-13T04:34:07.425Z</time>
      </trkpt>
      <trkpt lat="48.629794" lon="16.785633">
        <ele>239.909271</ele>
        <time>2020-08-13T04:34:10.458Z</time>
      </trkpt>
      <trkpt lat="48.629897" lon="16.785678">
        <ele>240.072003</ele>
        <time>2020-08-13T04:34:13.454Z</time>
      </trkpt>
      <trkpt lat="48.629989" lon="16.785727">
        <ele>240.220051</ele>
        <time>2020-08-13T04:34:16.443Z</time>
      </trkpt>
      <trkpt lat="48.630098" lon="16.785797">
        <ele>240.399789</ele>
        <time>2020-08-13T04:34:20.474Z</time>
      </trkpt>
      <trkpt lat="48.630204" lon="16.785874">
        <ele>240.615037</ele>
        <time>2020-08-13T04:34:24.447Z</time>
      </trkpt>
      <trkpt lat="48.630292" lon="16.785914">
        <ele>240.855552</ele>
        <time>2020-08-13T04:34:27.427Z</time>
      </trkpt>
      <trkpt lat="48.630376" lon="16.785966">
        <ele>241.093119</ele>
        <time>2020-08-13T04:34:30.420Z</time>
      </trkpt>
      <trkpt lat="48.630462" lon="16.786009">
        <ele>241.330202</ele>
        <time>2020-08-13T04:34:33.446Z</time>
      </trkpt>
      <trkpt lat="48.630569" lon="16.786079">
        <ele>241.635340</ele>
        <time>2020-08-13T04:34:37.454Z</time>
      </trkpt>
      <trkpt lat="48.630654" lon="16.786134">
        <ele>241.877324</ele>
        <time>2020-08-13T04:34:40.442Z</time>
      </trkpt>
      <trkpt lat="48.630769" lon="16.786184">
        <ele>242.190525</ele>
        <time>2020-08-13T04:34:44.437Z</time>
      </trkpt>
      <trkpt lat="48.630859" lon="16.786221">
        <ele>242.434646</ele>
        <time>2020-08-13T04:34:47.432Z</time>
      </trkpt>
      <trkpt lat="48.630946" lon="16.786264">
        <ele>242.674216</ele>
        <time>2020-08-13T04:34:50.441Z</time>
      </trkpt>
      <trkpt lat="48.631037" lon="16.786312">
        <ele>242.926473</ele>
        <time>2020-08-13T04:34:53.439Z</time>
      </trkpt>
      <trkpt lat="48.631129" lon="16.786367">
        <ele>243.185404</ele>
        <time>2020-08-13T04:34:56.429Z</time>
      </trkpt>
      <trkpt lat="48.631221" lon="16.786420">
        <ele>243.443084</ele>
        <time>2020-08-13T04:34:59.430Z</time>
      </trkpt>
      <trkpt lat="48.631323" lon="16.786469">
        <ele>243.723209</ele>
        <time>2020-08-13T04:35:02.463Z</time>
      </trkpt>
      <trkpt lat="48.631423" lon="16.786520">
        <ele>243.999434</ele>
        <time>2020-08-13T04:35:05.428Z</time>
      </trkpt>
      <trkpt lat="48.631515" lon="16.786579">
        <ele>244.260986</ele>
        <time>2020-08-13T04:35:08.440Z</time>
      </trkpt>
      <trkpt lat="48.631610" lon="16.786619">
        <ele>244.519103</ele>
        <time>2020-08-13T04:35:11.431Z</time>
      </trkpt>
      <trkpt lat="48.631709" lon="16.786660">
        <ele>244.787773</ele>
        <time>2020-08-13T04:35:14.438Z</time>
      </trkpt>
      <trkpt lat="48.631806" lon="16.786706">
        <ele>245.053855</ele>
        <time>2020-08-13T04:35:17.442Z</time>
      </trkpt>
      <trkpt lat="48.631903" lon="16.786758">
        <ele>245.347129</ele>
        <time>2020-08-13T04:35:20.416Z</time>
      </trkpt>
      <trkpt lat="48.631993" lon="16.786817">
        <ele>245.673899</ele>
        <time>2020-08-13T04:35:23.428Z</time>
      </trkpt>
      <trkpt lat="48.632085" lon="16.786871">
        <ele>246.002653</ele>
        <time>2020-08-13T04:35:26.418Z</time>
      </trkpt>
      <trkpt lat="48.632196" lon="16.786934">
        <ele>246.397614</ele>
        <time>2020-08-13T04:35:30.444Z</time>
      </trkpt>
      <trkpt lat="48.632282" lon="16.786981">
        <ele>246.702241</ele>
        <time>2020-08-13T04:35:33.423Z</time>
      </trkpt>
      <trkpt lat="48.632370" lon="16.787032">
        <ele>247.016185</ele>
        <time>2020-08-13T04:35:36.434Z</time>
      </trkpt>
      <trkpt lat="48.632479" lon="16.787091">
        <ele>247.401859</ele>
        <time>2020-08-13T04:35:40.446Z</time>
      </trkpt>
      <trkpt lat="48.632586" lon="16.787151">
        <ele>247.782025</ele>
        <time>2020-08-13T04:35:44.485Z</time>
      </trkpt>
      <trkpt lat="48.632698" lon="16.787205">
        <ele>248.173641</ele>
        <time>2020-08-13T04:35:48.422Z</time>
      </trkpt>
      <trkpt lat="48.632790" lon="16.787241">
        <ele>248.490226</ele>
        <time>2020-08-13T04:35:51.461Z</time>
      </trkpt>
      <trkpt lat="48.632880" lon="16.787279">
        <ele>248.801519</ele>
        <time>2020-08-13T04:35:54.458Z</time>
      </trkpt>
      <trkpt lat="48.632969" lon="16.787320">
        <ele>249.111462</ele>
        <time>2020-08-13T04:35:57.450Z</time>
      </trkpt>
      <trkpt lat="48.633061" lon="16.787375">
        <ele>249.441019</ele>
        <time>2020-08-13T04:36:00.463Z</time>
      </trkpt>
      <trkpt lat="48.633154" lon="16.787428">
        <ele>249.772098</ele>
        <time>2020-08-13T04:36:03.426Z</time>
      </trkpt>
      <trkpt lat="48.633255" lon="16.787482">
        <ele>250.128971</ele>
        <time>2020-08-13T04:36:06.437Z</time>
      </trkpt>
      <trkpt lat="48.633371" lon="16.787542">
        <ele>250.537384</ele>
        <time>2020-08-13T04:36:09.426Z</time>
      </trkpt>
      <trkpt lat="48.633486" lon="16.787604">
        <ele>250.944103</ele>
        <time>2020-08-13T04:36:12.469Z</time>
      </trkpt>
      <trkpt lat="48.633604" lon="16.787660">
        <ele>251.398597</ele>
        <time>2020-08-13T04:36:15.444Z</time>
      </trkpt>
      <trkpt lat="48.633691" lon="16.787701">
        <ele>251.802727</ele>
        <time>2020-08-13T04:36:17.429Z</time>
      </trkpt>
      <trkpt lat="48.633810" lon="16.787771">
        <ele>252.368976</ele>
        <time>2020-08-13T04:36:20.428Z</time>
      </trkpt>
      <trkpt lat="48.633936" lon="16.787835">
        <ele>252.958436</ele>
        <time>2020-08-13T04:36:23.439Z</time>
      </trkpt>
      <trkpt lat="48.634062" lon="16.787906">
        <ele>253.554743</ele>
        <time>2020-08-13T04:36:26.434Z</time>
      </trkpt>
      <trkpt lat="48.634188" lon="16.787973">
        <ele>254.147061</ele>
        <time>2020-08-13T04:36:29.438Z</time>
      </trkpt>
      <trkpt lat="48.634311" lon="16.788034">
        <ele>254.721124</ele>
        <time>2020-08-13T04:36:32.443Z</time>
      </trkpt>
      <trkpt lat="48.634434" lon="16.788095">
        <ele>255.295187</ele>
        <time>2020-08-13T04:36:35.440Z</time>
      </trkpt>
      <trkpt lat="48.634556" lon="16.788160">
        <ele>255.868824</ele>
        <time>2020-08-13T04:36:38.447Z</time>
      </trkpt>
      <trkpt lat="48.634641" lon="16.788207">
        <ele>256.270184</ele>
        <time>2020-08-13T04:36:40.424Z</time>
      </trkpt>
      <trkpt lat="48.634759" lon="16.788280">
        <ele>256.835568</ele>
        <time>2020-08-13T04:36:43.450Z</time>
      </trkpt>
      <trkpt lat="48.634878" lon="16.788346">
        <ele>257.397674</ele>
        <time>2020-08-13T04:36:46.465Z</time>
      </trkpt>
      <trkpt lat="48.634992" lon="16.788403">
        <ele>257.930156</ele>
        <time>2020-08-13T04:36:49.431Z</time>
      </trkpt>
      <trkpt lat="48.635106" lon="16.788458">
        <ele>258.460829</ele>
        <time>2020-08-13T04:36:52.430Z</time>
      </trkpt>
      <trkpt lat="48.635223" lon="16.788512">
        <ele>259.003330</ele>
        <time>2020-08-13T04:36:55.424Z</time>
      </trkpt>
      <trkpt lat="48.635330" lon="16.788565">
        <ele>259.673703</ele>
        <time>2020-08-13T04:36:58.440Z</time>
      </trkpt>
      <trkpt lat="48.635429" lon="16.788617">
        <ele>260.405462</ele>
        <time>2020-08-13T04:37:01.437Z</time>
      </trkpt>
      <trkpt lat="48.635523" lon="16.788669">
        <ele>261.104331</ele>
        <time>2020-08-13T04:37:04.440Z</time>
      </trkpt>
      <trkpt lat="48.635609" lon="16.788718">
        <ele>261.746011</ele>
        <time>2020-08-13T04:37:07.429Z</time>
      </trkpt>
      <trkpt lat="48.635708" lon="16.788770">
        <ele>262.477769</ele>
        <time>2020-08-13T04:37:11.432Z</time>
      </trkpt>
      <trkpt lat="48.635741" lon="16.788784">
        <ele>262.717086</ele>
        <time>2020-08-13T04:37:27.613Z</time>
      </trkpt>
      <trkpt lat="48.635832" lon="16.788849">
        <ele>263.419756</ele>
        <time>2020-08-13T04:41:57.454Z</time>
      </trkpt>
      <trkpt lat="48.635935" lon="16.788890">
        <ele>264.163452</ele>
        <time>2020-08-13T04:42:04.424Z</time>
      </trkpt>
      <trkpt lat="48.636021" lon="16.788939">
        <ele>264.805131</ele>
        <time>2020-08-13T04:42:08.445Z</time>
      </trkpt>
      <trkpt lat="48.636124" lon="16.788994">
        <ele>265.567825</ele>
        <time>2020-08-13T04:42:12.441Z</time>
      </trkpt>
      <trkpt lat="48.636236" lon="16.789045">
        <ele>266.384540</ele>
        <time>2020-08-13T04:42:15.430Z</time>
      </trkpt>
      <trkpt lat="48.636323" lon="16.789090">
        <ele>267.026553</ele>
        <time>2020-08-13T04:42:17.447Z</time>
      </trkpt>
      <trkpt lat="48.636417" lon="16.789143">
        <ele>267.727018</ele>
        <time>2020-08-13T04:42:19.447Z</time>
      </trkpt>
      <trkpt lat="48.636516" lon="16.789198">
        <ele>268.463431</ele>
        <time>2020-08-13T04:42:21.471Z</time>
      </trkpt>
      <trkpt lat="48.636620" lon="16.789249">
        <ele>269.226822</ele>
        <time>2020-08-13T04:42:23.461Z</time>
      </trkpt>
      <trkpt lat="48.636727" lon="16.789305">
        <ele>270.017406</ele>
        <time>2020-08-13T04:42:25.440Z</time>
      </trkpt>
      <trkpt lat="48.636838" lon="16.789360">
        <ele>270.832990</ele>
        <time>2020-08-13T04:42:27.448Z</time>
      </trkpt>
      <trkpt lat="48.636951" lon="16.789423">
        <ele>271.673895</ele>
        <time>2020-08-13T04:42:29.447Z</time>
      </trkpt>
      <trkpt lat="48.637066" lon="16.789489">
        <ele>271.638579</ele>
        <time>2020-08-13T04:42:31.445Z</time>
      </trkpt>
      <trkpt lat="48.637182" lon="16.789553">
        <ele>271.497299</ele>
        <time>2020-08-13T04:42:33.447Z</time>
      </trkpt>
      <trkpt lat="48.637304" lon="16.789614">
        <ele>271.350278</ele>
        <time>2020-08-13T04:42:35.471Z</time>
      </trkpt>
      <trkpt lat="48.637428" lon="16.789679">
        <ele>271.200119</ele>
        <time>2020-08-13T04:42:37.432Z</time>
      </trkpt>
      <trkpt lat="48.637551" lon="16.789743">
        <ele>271.051289</ele>
        <time>2020-08-13T04:42:39.471Z</time>
      </trkpt>
      <trkpt lat="48.637674" lon="16.789805">
        <ele>270.902944</ele>
        <time>2020-08-13T04:42:41.443Z</time>
      </trkpt>
      <trkpt lat="48.637796" lon="16.789867">
        <ele>270.755684</ele>
        <time>2020-08-13T04:42:43.439Z</time>
      </trkpt>
      <trkpt lat="48.637916" lon="16.789929">
        <ele>270.610591</ele>
        <time>2020-08-13T04:42:45.429Z</time>
      </trkpt>
      <trkpt lat="48.638033" lon="16.789993">
        <ele>270.468236</ele>
        <time>2020-08-13T04:42:47.449Z</time>
      </trkpt>
      <trkpt lat="48.638145" lon="16.790056">
        <ele>270.331513</ele>
        <time>2020-08-13T04:42:49.449Z</time>
      </trkpt>
      <trkpt lat="48.638257" lon="16.790116">
        <ele>270.195564</ele>
        <time>2020-08-13T04:42:51.455Z</time>
      </trkpt>
      <trkpt lat="48.638365" lon="16.790173">
        <ele>270.064685</ele>
        <time>2020-08-13T04:42:53.439Z</time>
      </trkpt>
      <trkpt lat="48.638472" lon="16.790231">
        <ele>269.934633</ele>
        <time>2020-08-13T04:42:55.434Z</time>
      </trkpt>
      <trkpt lat="48.638578" lon="16.790286">
        <ele>269.806411</ele>
        <time>2020-08-13T04:42:57.448Z</time>
      </trkpt>
      <trkpt lat="48.638684" lon="16.790338">
        <ele>269.704668</ele>
        <time>2020-08-13T04:42:59.435Z</time>
      </trkpt>
      <trkpt lat="48.638786" lon="16.790390">
        <ele>269.697016</ele>
        <time>2020-08-13T04:43:01.449Z</time>
      </trkpt>
      <trkpt lat="48.638885" lon="16.790439">
        <ele>269.689611</ele>
        <time>2020-08-13T04:43:03.472Z</time>
      </trkpt>
      <trkpt lat="48.638982" lon="16.790487">
        <ele>269.682356</ele>
        <time>2020-08-13T04:43:05.423Z</time>
      </trkpt>
      <trkpt lat="48.639076" lon="16.790530">
        <ele>269.675375</ele>
        <time>2020-08-13T04:43:07.454Z</time>
      </trkpt>
      <trkpt lat="48.639169" lon="16.790577">
        <ele>269.668405</ele>
        <time>2020-08-13T04:43:09.462Z</time>
      </trkpt>
      <trkpt lat="48.639262" lon="16.790627">
        <ele>269.661389</ele>
        <time>2020-08-13T04:43:11.446Z</time>
      </trkpt>
      <trkpt lat="48.639351" lon="16.790680">
        <ele>269.654590</ele>
        <time>2020-08-13T04:43:13.434Z</time>
      </trkpt>
      <trkpt lat="48.639440" lon="16.790728">
        <ele>269.647873</ele>
        <time>2020-08-13T04:43:15.455Z</time>
      </trkpt>
      <trkpt lat="48.639528" lon="16.790775">
        <ele>269.641239</ele>
        <time>2020-08-13T04:43:17.432Z</time>
      </trkpt>
      <trkpt lat="48.639617" lon="16.790824">
        <ele>269.634506</ele>
        <time>2020-08-13T04:43:19.436Z</time>
      </trkpt>
      <trkpt lat="48.639708" lon="16.790875">
        <ele>269.627608</ele>
        <time>2020-08-13T04:43:21.426Z</time>
      </trkpt>
      <trkpt lat="48.639797" lon="16.790924">
        <ele>269.620875</ele>
        <time>2020-08-13T04:43:23.443Z</time>
      </trkpt>
      <trkpt lat="48.639884" lon="16.790971">
        <ele>269.614308</ele>
        <time>2020-08-13T04:43:25.460Z</time>
      </trkpt>
      <trkpt lat="48.640012" lon="16.791029">
        <ele>269.604809</ele>
        <time>2020-08-13T04:43:28.446Z</time>
      </trkpt>
      <trkpt lat="48.640134" lon="16.791094">
        <ele>269.595615</ele>
        <time>2020-08-13T04:43:31.443Z</time>
      </trkpt>
      <trkpt lat="48.640252" lon="16.791160">
        <ele>269.586671</ele>
        <time>2020-08-13T04:43:34.435Z</time>
      </trkpt>
      <trkpt lat="48.640366" lon="16.791212">
        <ele>269.579871</ele>
        <time>2020-08-13T04:43:37.446Z</time>
      </trkpt>
      <trkpt lat="48.640482" lon="16.791271">
        <ele>269.619066</ele>
        <time>2020-08-13T04:43:40.447Z</time>
      </trkpt>
      <trkpt lat="48.640591" lon="16.791323">
        <ele>269.655670</ele>
        <time>2020-08-13T04:43:43.436Z</time>
      </trkpt>
      <trkpt lat="48.640695" lon="16.791386">
        <ele>269.691548</ele>
        <time>2020-08-13T04:43:46.442Z</time>
      </trkpt>
      <trkpt lat="48.640798" lon="16.791443">
        <ele>269.726674</ele>
        <time>2020-08-13T04:43:49.425Z</time>
      </trkpt>
      <trkpt lat="48.640902" lon="16.791498">
        <ele>269.761958</ele>
        <time>2020-08-13T04:43:52.431Z</time>
      </trkpt>
      <trkpt lat="48.641009" lon="16.791558">
        <ele>269.798505</ele>
        <time>2020-08-13T04:43:55.421Z</time>
      </trkpt>
      <trkpt lat="48.641121" lon="16.791619">
        <ele>269.836629</ele>
        <time>2020-08-13T04:43:58.460Z</time>
      </trkpt>
      <trkpt lat="48.641243" lon="16.791685">
        <ele>269.878125</ele>
        <time>2020-08-13T04:44:01.444Z</time>
      </trkpt>
      <trkpt lat="48.641336" lon="16.791722">
        <ele>269.908923</ele>
        <time>2020-08-13T04:44:03.442Z</time>
      </trkpt>
      <trkpt lat="48.641437" lon="16.791766">
        <ele>269.942586</ele>
        <time>2020-08-13T04:44:05.458Z</time>
      </trkpt>
      <trkpt lat="48.641540" lon="16.791812">
        <ele>269.976981</ele>
        <time>2020-08-13T04:44:07.450Z</time>
      </trkpt>
      <trkpt lat="48.641645" lon="16.791864">
        <ele>270.012365</ele>
        <time>2020-08-13T04:44:09.425Z</time>
      </trkpt>
      <trkpt lat="48.641753" lon="16.791915">
        <ele>270.048601</ele>
        <time>2020-08-13T04:44:11.436Z</time>
      </trkpt>
      <trkpt lat="48.641870" lon="16.791974">
        <ele>270.088099</ele>
        <time>2020-08-13T04:44:13.441Z</time>
      </trkpt>
      <trkpt lat="48.641990" lon="16.792033">
        <ele>270.128510</ele>
        <time>2020-08-13T04:44:15.442Z</time>
      </trkpt>
      <trkpt lat="48.642102" lon="16.792093">
        <ele>270.127691</ele>
        <time>2020-08-13T04:44:17.450Z</time>
      </trkpt>
      <trkpt lat="48.642217" lon="16.792163">
        <ele>270.038584</ele>
        <time>2020-08-13T04:44:19.454Z</time>
      </trkpt>
      <trkpt lat="48.642331" lon="16.792232">
        <ele>269.950321</ele>
        <time>2020-08-13T04:44:21.437Z</time>
      </trkpt>
      <trkpt lat="48.642445" lon="16.792302">
        <ele>269.861881</ele>
        <time>2020-08-13T04:44:23.460Z</time>
      </trkpt>
      <trkpt lat="48.642557" lon="16.792375">
        <ele>269.774217</ele>
        <time>2020-08-13T04:44:25.442Z</time>
      </trkpt>
      <trkpt lat="48.642672" lon="16.792441">
        <ele>269.685802</ele>
        <time>2020-08-13T04:44:27.439Z</time>
      </trkpt>
      <trkpt lat="48.642790" lon="16.792499">
        <ele>269.596613</ele>
        <time>2020-08-13T04:44:29.436Z</time>
      </trkpt>
      <trkpt lat="48.642910" lon="16.792562">
        <ele>269.505305</ele>
        <time>2020-08-13T04:44:31.438Z</time>
      </trkpt>
      <trkpt lat="48.643029" lon="16.792626">
        <ele>269.414517</ele>
        <time>2020-08-13T04:44:33.433Z</time>
      </trkpt>
      <trkpt lat="48.643148" lon="16.792692">
        <ele>269.323408</ele>
        <time>2020-08-13T04:44:35.430Z</time>
      </trkpt>
      <trkpt lat="48.643269" lon="16.792761">
        <ele>269.230454</ele>
        <time>2020-08-13T04:44:37.469Z</time>
      </trkpt>
      <trkpt lat="48.643391" lon="16.792825">
        <ele>269.137632</ele>
        <time>2020-08-13T04:44:39.462Z</time>
      </trkpt>
      <trkpt lat="48.643518" lon="16.792890">
        <ele>269.041256</ele>
        <time>2020-08-13T04:44:41.432Z</time>
      </trkpt>
      <trkpt lat="48.643643" lon="16.792964">
        <ele>268.944766</ele>
        <time>2020-08-13T04:44:43.427Z</time>
      </trkpt>
      <trkpt lat="48.643769" lon="16.793030">
        <ele>268.834510</ele>
        <time>2020-08-13T04:44:45.438Z</time>
      </trkpt>
      <trkpt lat="48.643894" lon="16.793094">
        <ele>268.631741</ele>
        <time>2020-08-13T04:44:47.433Z</time>
      </trkpt>
      <trkpt lat="48.644024" lon="16.793155">
        <ele>268.422601</ele>
        <time>2020-08-13T04:44:49.429Z</time>
      </trkpt>
      <trkpt lat="48.644160" lon="16.793184">
        <ele>268.211558</ele>
        <time>2020-08-13T04:44:51.440Z</time>
      </trkpt>
      <trkpt lat="48.644304" lon="16.793169">
        <ele>267.989762</ele>
        <time>2020-08-13T04:44:53.421Z</time>
      </trkpt>
      <trkpt lat="48.644424" lon="16.793148">
        <ele>267.804141</ele>
        <time>2020-08-13T04:44:55.432Z</time>
      </trkpt>
      <trkpt lat="48.644506" lon="16.793280">
        <ele>267.620192</ele>
        <time>2020-08-13T04:44:59.424Z</time>
      </trkpt>
      <trkpt lat="48.644529" lon="16.793425">
        <ele>267.468793</ele>
        <time>2020-08-13T04:45:02.428Z</time>
      </trkpt>
      <trkpt lat="48.644541" lon="16.793570">
        <ele>267.320426</ele>
        <time>2020-08-13T04:45:05.449Z</time>
      </trkpt>
      <trkpt lat="48.644540" lon="16.793716">
        <ele>267.172187</ele>
        <time>2020-08-13T04:45:08.433Z</time>
      </trkpt>
      <trkpt lat="48.644539" lon="16.793858">
        <ele>267.028009</ele>
        <time>2020-08-13T04:45:11.437Z</time>
      </trkpt>
      <trkpt lat="48.644534" lon="16.794002">
        <ele>266.881607</ele>
        <time>2020-08-13T04:45:14.431Z</time>
      </trkpt>
      <trkpt lat="48.644539" lon="16.794143">
        <ele>266.738246</ele>
        <time>2020-08-13T04:45:17.423Z</time>
      </trkpt>
      <trkpt lat="48.644533" lon="16.794308">
        <ele>266.570471</ele>
        <time>2020-08-13T04:45:20.439Z</time>
      </trkpt>
      <trkpt lat="48.644523" lon="16.794491">
        <ele>266.384039</ele>
        <time>2020-08-13T04:45:23.435Z</time>
      </trkpt>
      <trkpt lat="48.644521" lon="16.794697">
        <ele>266.174869</ele>
        <time>2020-08-13T04:45:26.433Z</time>
      </trkpt>
      <trkpt lat="48.644529" lon="16.794847">
        <ele>266.018949</ele>
        <time>2020-08-13T04:45:28.436Z</time>
      </trkpt>
      <trkpt lat="48.644538" lon="16.794998">
        <ele>265.858648</ele>
        <time>2020-08-13T04:45:30.431Z</time>
      </trkpt>
      <trkpt lat="48.644543" lon="16.795145">
        <ele>265.703019</ele>
        <time>2020-08-13T04:45:32.436Z</time>
      </trkpt>
      <trkpt lat="48.644539" lon="16.795281">
        <ele>265.559084</ele>
        <time>2020-08-13T04:45:34.428Z</time>
      </trkpt>
      <trkpt lat="48.644549" lon="16.795472">
        <ele>265.356507</ele>
        <time>2020-08-13T04:45:37.451Z</time>
      </trkpt>
      <trkpt lat="48.644561" lon="16.795652">
        <ele>265.165226</ele>
        <time>2020-08-13T04:45:40.453Z</time>
      </trkpt>
      <trkpt lat="48.644556" lon="16.795827">
        <ele>264.980026</ele>
        <time>2020-08-13T04:45:43.455Z</time>
      </trkpt>
      <trkpt lat="48.644554" lon="16.795995">
        <ele>264.802371</ele>
        <time>2020-08-13T04:45:46.428Z</time>
      </trkpt>
      <trkpt lat="48.644546" lon="16.796157">
        <ele>264.630611</ele>
        <time>2020-08-13T04:45:49.448Z</time>
      </trkpt>
      <trkpt lat="48.644543" lon="16.796308">
        <ele>264.470886</ele>
        <time>2020-08-13T04:45:52.449Z</time>
      </trkpt>
      <trkpt lat="48.644586" lon="16.796428">
        <ele>264.326553</ele>
        <time>2020-08-13T04:45:55.435Z</time>
      </trkpt>
      <trkpt lat="48.644689" lon="16.796436">
        <ele>264.161515</ele>
        <time>2020-08-13T04:45:58.433Z</time>
      </trkpt>
      <trkpt lat="48.644784" lon="16.796410">
        <ele>264.007030</ele>
        <time>2020-08-13T04:46:01.435Z</time>
      </trkpt>
      <trkpt lat="48.644884" lon="16.796358">
        <ele>263.837828</ele>
        <time>2020-08-13T04:46:04.451Z</time>
      </trkpt>
      <trkpt lat="48.644987" lon="16.796323">
        <ele>263.668904</ele>
        <time>2020-08-13T04:46:07.433Z</time>
      </trkpt>
      <trkpt lat="48.645093" lon="16.796300">
        <ele>263.497548</ele>
        <time>2020-08-13T04:46:10.440Z</time>
      </trkpt>
      <trkpt lat="48.645196" lon="16.796271">
        <ele>263.329900</ele>
        <time>2020-08-13T04:46:13.444Z</time>
      </trkpt>
      <trkpt lat="48.645308" lon="16.796231">
        <ele>263.244701</ele>
        <time>2020-08-13T04:46:16.436Z</time>
      </trkpt>
      <trkpt lat="48.645413" lon="16.796191">
        <ele>263.303685</ele>
        <time>2020-08-13T04:46:19.437Z</time>
      </trkpt>
      <trkpt lat="48.645521" lon="16.796169">
        <ele>263.363049</ele>
        <time>2020-08-13T04:46:22.455Z</time>
      </trkpt>
      <trkpt lat="48.645637" lon="16.796163">
        <ele>263.426278</ele>
        <time>2020-08-13T04:46:25.440Z</time>
      </trkpt>
      <trkpt lat="48.645752" lon="16.796140">
        <ele>263.489470</ele>
        <time>2020-08-13T04:46:28.455Z</time>
      </trkpt>
      <trkpt lat="48.645855" lon="16.796125">
        <ele>263.545840</ele>
        <time>2020-08-13T04:46:31.441Z</time>
      </trkpt>
      <trkpt lat="48.645971" lon="16.796119">
        <ele>263.609069</ele>
        <time>2020-08-13T04:46:34.467Z</time>
      </trkpt>
      <trkpt lat="48.646083" lon="16.796106">
        <ele>263.670261</ele>
        <time>2020-08-13T04:46:37.435Z</time>
      </trkpt>
      <trkpt lat="48.646184" lon="16.796091">
        <ele>263.725546</ele>
        <time>2020-08-13T04:46:40.442Z</time>
      </trkpt>
      <trkpt lat="48.646281" lon="16.796079">
        <ele>263.778564</ele>
        <time>2020-08-13T04:46:43.445Z</time>
      </trkpt>
      <trkpt lat="48.646380" lon="16.796066">
        <ele>263.832698</ele>
        <time>2020-08-13T04:46:46.456Z</time>
      </trkpt>
      <trkpt lat="48.646477" lon="16.796056">
        <ele>263.885662</ele>
        <time>2020-08-13T04:46:49.442Z</time>
      </trkpt>
      <trkpt lat="48.646572" lon="16.796044">
        <ele>263.937594</ele>
        <time>2020-08-13T04:46:52.447Z</time>
      </trkpt>
      <trkpt lat="48.646678" lon="16.796035">
        <ele>263.995429</ele>
        <time>2020-08-13T04:46:56.448Z</time>
      </trkpt>
      <trkpt lat="48.646786" lon="16.796024">
        <ele>264.054397</ele>
        <time>2020-08-13T04:47:00.428Z</time>
      </trkpt>
      <trkpt lat="48.646892" lon="16.796002">
        <ele>264.112681</ele>
        <time>2020-08-13T04:47:04.463Z</time>
      </trkpt>
      <trkpt lat="48.647006" lon="16.795991">
        <ele>264.174910</ele>
        <time>2020-08-13T04:47:09.447Z</time>
      </trkpt>
      <trkpt lat="48.647106" lon="16.795987">
        <ele>264.348827</ele>
        <time>2020-08-13T04:47:13.451Z</time>
      </trkpt>
      <trkpt lat="48.647206" lon="16.796002">
        <ele>264.621449</ele>
        <time>2020-08-13T04:47:17.438Z</time>
      </trkpt>
      <trkpt lat="48.647291" lon="16.796086">
        <ele>264.896848</ele>
        <time>2020-08-13T04:47:21.448Z</time>
      </trkpt>
      <trkpt lat="48.647286" lon="16.796249">
        <ele>265.189326</ele>
        <time>2020-08-13T04:47:26.467Z</time>
      </trkpt>
      <trkpt lat="48.647280" lon="16.796403">
        <ele>265.465837</ele>
        <time>2020-08-13T04:47:31.423Z</time>
      </trkpt>
      <trkpt lat="48.647270" lon="16.796554">
        <ele>265.737847</ele>
        <time>2020-08-13T04:47:36.452Z</time>
      </trkpt>
      <trkpt lat="48.647269" lon="16.796705">
        <ele>266.008515</ele>
        <time>2020-08-13T04:47:41.428Z</time>
      </trkpt>
      <trkpt lat="48.647265" lon="16.796857">
        <ele>266.281178</ele>
        <time>2020-08-13T04:47:46.424Z</time>
      </trkpt>
      <trkpt lat="48.647258" lon="16.797008">
        <ele>266.552498</ele>
        <time>2020-08-13T04:47:51.464Z</time>
      </trkpt>
      <trkpt lat="48.647239" lon="16.797157">
        <ele>266.824496</ele>
        <time>2020-08-13T04:47:56.447Z</time>
      </trkpt>
      <trkpt lat="48.647262" lon="16.797310">
        <ele>267.105744</ele>
        <time>2020-08-13T04:48:01.462Z</time>
      </trkpt>
      <trkpt lat="48.647324" lon="16.797425">
        <ele>267.371790</ele>
        <time>2020-08-13T04:48:05.437Z</time>
      </trkpt>
      <trkpt lat="48.647367" lon="16.797576">
        <ele>267.666514</ele>
        <time>2020-08-13T04:48:10.438Z</time>
      </trkpt>
      <trkpt lat="48.647367" lon="16.797731">
        <ele>267.944337</ele>
        <time>2020-08-13T04:48:16.430Z</time>
      </trkpt>
      <trkpt lat="48.647363" lon="16.797886">
        <ele>268.222372</ele>
        <time>2020-08-13T04:48:22.426Z</time>
      </trkpt>
      <trkpt lat="48.647348" lon="16.798032">
        <ele>268.487209</ele>
        <time>2020-08-13T04:48:28.447Z</time>
      </trkpt>
      <trkpt lat="48.647342" lon="16.798178">
        <ele>268.749407</ele>
        <time>2020-08-13T04:48:34.437Z</time>
      </trkpt>
      <trkpt lat="48.647317" lon="16.798317">
        <ele>269.007618</ele>
        <time>2020-08-13T04:48:40.460Z</time>
      </trkpt>
      <trkpt lat="48.647296" lon="16.798473">
        <ele>269.413450</ele>
        <time>2020-08-13T04:48:46.435Z</time>
      </trkpt>
      <trkpt lat="48.647297" lon="16.798612">
        <ele>269.802881</ele>
        <time>2020-08-13T04:48:52.434Z</time>
      </trkpt>
      <trkpt lat="48.647351" lon="16.798720">
        <ele>270.182318</ele>
        <time>2020-08-13T04:48:59.438Z</time>
      </trkpt>
      <trkpt lat="48.647429" lon="16.798802">
        <ele>270.585010</ele>
        <time>2020-08-13T04:49:06.424Z</time>
      </trkpt>
      <trkpt lat="48.647521" lon="16.798874">
        <ele>271.024175</ele>
        <time>2020-08-13T04:49:13.428Z</time>
      </trkpt>
      <trkpt lat="48.647607" lon="16.798930">
        <ele>271.421151</ele>
        <time>2020-08-13T04:49:19.441Z</time>
      </trkpt>
      <trkpt lat="48.647697" lon="16.798988">
        <ele>271.835925</ele>
        <time>2020-08-13T04:49:26.430Z</time>
      </trkpt>
      <trkpt lat="48.647778" lon="16.799047">
        <ele>272.217087</ele>
        <time>2020-08-13T04:49:32.445Z</time>
      </trkpt>
      <trkpt lat="48.647861" lon="16.799111">
        <ele>272.612065</ele>
        <time>2020-08-13T04:49:38.449Z</time>
      </trkpt>
      <trkpt lat="48.647951" lon="16.799186">
        <ele>273.047705</ele>
        <time>2020-08-13T04:49:45.423Z</time>
      </trkpt>
      <trkpt lat="48.648031" lon="16.799252">
        <ele>273.434042</ele>
        <time>2020-08-13T04:49:51.443Z</time>
      </trkpt>
      <trkpt lat="48.648118" lon="16.799316">
        <ele>273.844206</ele>
        <time>2020-08-13T04:49:57.466Z</time>
      </trkpt>
      <trkpt lat="48.648208" lon="16.799390">
        <ele>274.278500</ele>
        <time>2020-08-13T04:50:04.433Z</time>
      </trkpt>
      <trkpt lat="48.648287" lon="16.799454">
        <ele>274.658444</ele>
        <time>2020-08-13T04:50:10.428Z</time>
      </trkpt>
      <trkpt lat="48.648379" lon="16.799531">
        <ele>275.104214</ele>
        <time>2020-08-13T04:50:16.446Z</time>
      </trkpt>
      <trkpt lat="48.648471" lon="16.799593">
        <ele>275.531236</ele>
        <time>2020-08-13T04:50:22.428Z</time>
      </trkpt>
      <trkpt lat="48.648561" lon="16.799662">
        <ele>275.959021</ele>
        <time>2020-08-13T04:50:28.460Z</time>
      </trkpt>
      <trkpt lat="48.648662" lon="16.799724">
        <ele>276.421166</ele>
        <time>2020-08-13T04:50:34.432Z</time>
      </trkpt>
      <trkpt lat="48.648756" lon="16.799790">
        <ele>276.807644</ele>
        <time>2020-08-13T04:50:39.449Z</time>
      </trkpt>
      <trkpt lat="48.648854" lon="16.799861">
        <ele>277.110967</ele>
        <time>2020-08-13T04:50:44.448Z</time>
      </trkpt>
      <trkpt lat="48.648941" lon="16.799926">
        <ele>277.381832</ele>
        <time>2020-08-13T04:50:48.428Z</time>
      </trkpt>
      <trkpt lat="48.649044" lon="16.799997">
        <ele>277.697803</ele>
        <time>2020-08-13T04:50:52.429Z</time>
      </trkpt>
      <trkpt lat="48.649155" lon="16.800067">
        <ele>278.033514</ele>
        <time>2020-08-13T04:50:56.452Z</time>
      </trkpt>
      <trkpt lat="48.649265" lon="16.800143">
        <ele>278.371092</ele>
        <time>2020-08-13T04:51:00.435Z</time>
      </trkpt>
      <trkpt lat="48.649355" lon="16.800202">
        <ele>278.644908</ele>
        <time>2020-08-13T04:51:03.462Z</time>
      </trkpt>
      <trkpt lat="48.649446" lon="16.800264">
        <ele>278.923513</ele>
        <time>2020-08-13T04:51:06.462Z</time>
      </trkpt>
      <trkpt lat="48.649547" lon="16.800332">
        <ele>279.232121</ele>
        <time>2020-08-13T04:51:09.463Z</time>
      </trkpt>
      <trkpt lat="48.649653" lon="16.800404">
        <ele>279.556483</ele>
        <time>2020-08-13T04:51:12.431Z</time>
      </trkpt>
      <trkpt lat="48.649755" lon="16.800486">
        <ele>279.878919</ele>
        <time>2020-08-13T04:51:15.452Z</time>
      </trkpt>
      <trkpt lat="48.649848" lon="16.800565">
        <ele>280.176649</ele>
        <time>2020-08-13T04:51:18.429Z</time>
      </trkpt>
      <trkpt lat="48.649941" lon="16.800639">
        <ele>280.469976</ele>
        <time>2020-08-13T04:51:21.442Z</time>
      </trkpt>
      <trkpt lat="48.650040" lon="16.800715">
        <ele>280.779879</ele>
        <time>2020-08-13T04:51:24.435Z</time>
      </trkpt>
      <trkpt lat="48.650137" lon="16.800790">
        <ele>281.083969</ele>
        <time>2020-08-13T04:51:27.487Z</time>
      </trkpt>
      <trkpt lat="48.650226" lon="16.800843">
        <ele>281.350977</ele>
        <time>2020-08-13T04:51:30.433Z</time>
      </trkpt>
      <trkpt lat="48.650329" lon="16.800926">
        <ele>281.676743</ele>
        <time>2020-08-13T04:51:34.441Z</time>
      </trkpt>
      <trkpt lat="48.650430" lon="16.801002">
        <ele>281.976607</ele>
        <time>2020-08-13T04:51:38.437Z</time>
      </trkpt>
      <trkpt lat="48.650528" lon="16.801078">
        <ele>282.266555</ele>
        <time>2020-08-13T04:51:42.429Z</time>
      </trkpt>
      <trkpt lat="48.650638" lon="16.801144">
        <ele>282.578130</ele>
        <time>2020-08-13T04:51:46.432Z</time>
      </trkpt>
      <trkpt lat="48.650733" lon="16.801236">
        <ele>282.875098</ele>
        <time>2020-08-13T04:51:50.441Z</time>
      </trkpt>
      <trkpt lat="48.650827" lon="16.801311">
        <ele>283.154897</ele>
        <time>2020-08-13T04:51:54.463Z</time>
      </trkpt>
      <trkpt lat="48.650919" lon="16.801387">
        <ele>283.430878</ele>
        <time>2020-08-13T04:51:58.442Z</time>
      </trkpt>
      <trkpt lat="48.651020" lon="16.801456">
        <ele>283.722661</ele>
        <time>2020-08-13T04:52:02.440Z</time>
      </trkpt>
      <trkpt lat="48.651129" lon="16.801526">
        <ele>284.034440</ele>
        <time>2020-08-13T04:52:06.438Z</time>
      </trkpt>
      <trkpt lat="48.651231" lon="16.801597">
        <ele>284.330061</ele>
        <time>2020-08-13T04:52:10.424Z</time>
      </trkpt>
      <trkpt lat="48.651333" lon="16.801670">
        <ele>284.627153</ele>
        <time>2020-08-13T04:52:14.446Z</time>
      </trkpt>
      <trkpt lat="48.651412" lon="16.801738">
        <ele>284.866455</ele>
        <time>2020-08-13T04:52:17.439Z</time>
      </trkpt>
      <trkpt lat="48.651498" lon="16.801813">
        <ele>285.127803</ele>
        <time>2020-08-13T04:52:20.442Z</time>
      </trkpt>
      <trkpt lat="48.651591" lon="16.801886">
        <ele>285.403657</ele>
        <time>2020-08-13T04:52:23.438Z</time>
      </trkpt>
      <trkpt lat="48.651697" lon="16.801967">
        <ele>285.716323</ele>
        <time>2020-08-13T04:52:26.421Z</time>
      </trkpt>
      <trkpt lat="48.651809" lon="16.802046">
        <ele>286.041686</ele>
        <time>2020-08-13T04:52:29.447Z</time>
      </trkpt>
      <trkpt lat="48.651928" lon="16.802127">
        <ele>286.385256</ele>
        <time>2020-08-13T04:52:32.436Z</time>
      </trkpt>
      <trkpt lat="48.652014" lon="16.802183">
        <ele>286.534985</ele>
        <time>2020-08-13T04:52:34.441Z</time>
      </trkpt>
      <trkpt lat="48.652108" lon="16.802243">
        <ele>286.649307</ele>
        <time>2020-08-13T04:52:36.432Z</time>
      </trkpt>
      <trkpt lat="48.652206" lon="16.802309">
        <ele>286.769508</ele>
        <time>2020-08-13T04:52:38.439Z</time>
      </trkpt>
      <trkpt lat="48.652312" lon="16.802379">
        <ele>286.899106</ele>
        <time>2020-08-13T04:52:40.452Z</time>
      </trkpt>
      <trkpt lat="48.652426" lon="16.802455">
        <ele>287.038700</ele>
        <time>2020-08-13T04:52:42.432Z</time>
      </trkpt>
      <trkpt lat="48.652552" lon="16.802537">
        <ele>287.192396</ele>
        <time>2020-08-13T04:52:44.463Z</time>
      </trkpt>
      <trkpt lat="48.652686" lon="16.802622">
        <ele>287.355212</ele>
        <time>2020-08-13T04:52:46.439Z</time>
      </trkpt>
      <trkpt lat="48.652824" lon="16.802713">
        <ele>287.523896</ele>
        <time>2020-08-13T04:52:48.422Z</time>
      </trkpt>
      <trkpt lat="48.652962" lon="16.802808">
        <ele>287.693784</ele>
        <time>2020-08-13T04:52:50.444Z</time>
      </trkpt>
      <trkpt lat="48.653107" lon="16.802915">
        <ele>287.874555</ele>
        <time>2020-08-13T04:52:52.449Z</time>
      </trkpt>
      <trkpt lat="48.653262" lon="16.803011">
        <ele>288.062230</ele>
        <time>2020-08-13T04:52:54.461Z</time>
      </trkpt>
      <trkpt lat="48.653420" lon="16.803110">
        <ele>288.253859</ele>
        <time>2020-08-13T04:52:56.446Z</time>
      </trkpt>
      <trkpt lat="48.653578" lon="16.803220">
        <ele>288.448747</ele>
        <time>2020-08-13T04:52:58.450Z</time>
      </trkpt>
      <trkpt lat="48.653737" lon="16.803333">
        <ele>288.510569</ele>
        <time>2020-08-13T04:53:00.443Z</time>
      </trkpt>
      <trkpt lat="48.653895" lon="16.803451">
        <ele>288.548088</ele>
        <time>2020-08-13T04:53:02.447Z</time>
      </trkpt>
      <trkpt lat="48.654054" lon="16.803566">
        <ele>288.585615</ele>
        <time>2020-08-13T04:53:04.434Z</time>
      </trkpt>
      <trkpt lat="48.654207" lon="16.803691">
        <ele>288.622640</ele>
        <time>2020-08-13T04:53:06.446Z</time>
      </trkpt>
      <trkpt lat="48.654358" lon="16.803811">
        <ele>288.658959</ele>
        <time>2020-08-13T04:53:08.453Z</time>
      </trkpt>
      <trkpt lat="48.654503" lon="16.803935">
        <ele>288.694425</ele>
        <time>2020-08-13T04:53:10.460Z</time>
      </trkpt>
      <trkpt lat="48.654648" lon="16.804051">
        <ele>288.729350</ele>
        <time>2020-08-13T04:53:12.439Z</time>
      </trkpt>
      <trkpt lat="48.654793" lon="16.804170">
        <ele>288.764475</ele>
        <time>2020-08-13T04:53:14.461Z</time>
      </trkpt>
      <trkpt lat="48.654935" lon="16.804287">
        <ele>288.798905</ele>
        <time>2020-08-13T04:53:16.453Z</time>
      </trkpt>
      <trkpt lat="48.655070" lon="16.804406">
        <ele>288.832173</ele>
        <time>2020-08-13T04:53:18.453Z</time>
      </trkpt>
      <trkpt lat="48.655202" lon="16.804522">
        <ele>288.861698</ele>
        <time>2020-08-13T04:53:20.436Z</time>
      </trkpt>
      <trkpt lat="48.655331" lon="16.804639">
        <ele>288.859036</ele>
        <time>2020-08-13T04:53:22.437Z</time>
      </trkpt>
      <trkpt lat="48.655458" lon="16.804757">
        <ele>288.856399</ele>
        <time>2020-08-13T04:53:24.437Z</time>
      </trkpt>
      <trkpt lat="48.655579" lon="16.804875">
        <ele>288.853852</ele>
        <time>2020-08-13T04:53:26.439Z</time>
      </trkpt>
      <trkpt lat="48.655702" lon="16.804990">
        <ele>288.851294</ele>
        <time>2020-08-13T04:53:28.464Z</time>
      </trkpt>
      <trkpt lat="48.655826" lon="16.805104">
        <ele>288.848726</ele>
        <time>2020-08-13T04:53:30.451Z</time>
      </trkpt>
      <trkpt lat="48.655947" lon="16.805215">
        <ele>288.846222</ele>
        <time>2020-08-13T04:53:32.421Z</time>
      </trkpt>
      <trkpt lat="48.656064" lon="16.805327">
        <ele>288.843773</ele>
        <time>2020-08-13T04:53:34.420Z</time>
      </trkpt>
      <trkpt lat="48.656179" lon="16.805438">
        <ele>288.841359</ele>
        <time>2020-08-13T04:53:36.453Z</time>
      </trkpt>
      <trkpt lat="48.656293" lon="16.805544">
        <ele>288.838991</ele>
        <time>2020-08-13T04:53:38.452Z</time>
      </trkpt>
      <trkpt lat="48.656405" lon="16.805654">
        <ele>288.836629</ele>
        <time>2020-08-13T04:53:40.448Z</time>
      </trkpt>
      <trkpt lat="48.656522" lon="16.805761">
        <ele>288.834210</ele>
        <time>2020-08-13T04:53:42.439Z</time>
      </trkpt>
      <trkpt lat="48.656638" lon="16.805862">
        <ele>288.831842</ele>
        <time>2020-08-13T04:53:44.425Z</time>
      </trkpt>
      <trkpt lat="48.656758" lon="16.805956">
        <ele>288.821428</ele>
        <time>2020-08-13T04:53:46.441Z</time>
      </trkpt>
      <trkpt lat="48.656878" lon="16.806059">
        <ele>288.788635</ele>
        <time>2020-08-13T04:53:48.435Z</time>
      </trkpt>
      <trkpt lat="48.657007" lon="16.806151">
        <ele>288.754737</ele>
        <time>2020-08-13T04:53:50.439Z</time>
      </trkpt>
      <trkpt lat="48.657142" lon="16.806240">
        <ele>288.719733</ele>
        <time>2020-08-13T04:53:52.431Z</time>
      </trkpt>
      <trkpt lat="48.657279" lon="16.806330">
        <ele>288.684231</ele>
        <time>2020-08-13T04:53:54.450Z</time>
      </trkpt>
      <trkpt lat="48.657419" lon="16.806424">
        <ele>288.647824</ele>
        <time>2020-08-13T04:53:56.452Z</time>
      </trkpt>
      <trkpt lat="48.657560" lon="16.806527">
        <ele>288.610607</ele>
        <time>2020-08-13T04:53:58.445Z</time>
      </trkpt>
      <trkpt lat="48.657708" lon="16.806624">
        <ele>288.572268</ele>
        <time>2020-08-13T04:54:00.455Z</time>
      </trkpt>
      <trkpt lat="48.657856" lon="16.806719">
        <ele>288.534054</ele>
        <time>2020-08-13T04:54:02.457Z</time>
      </trkpt>
      <trkpt lat="48.658005" lon="16.806809">
        <ele>288.495918</ele>
        <time>2020-08-13T04:54:04.448Z</time>
      </trkpt>
      <trkpt lat="48.658158" lon="16.806891">
        <ele>288.457335</ele>
        <time>2020-08-13T04:54:06.427Z</time>
      </trkpt>
      <trkpt lat="48.658314" lon="16.806956">
        <ele>288.418871</ele>
        <time>2020-08-13T04:54:08.451Z</time>
      </trkpt>
      <trkpt lat="48.658467" lon="16.807026">
        <ele>288.358898</ele>
        <time>2020-08-13T04:54:10.467Z</time>
      </trkpt>
      <trkpt lat="48.658616" lon="16.807077">
        <ele>288.285712</ele>
        <time>2020-08-13T04:54:12.431Z</time>
      </trkpt>
      <trkpt lat="48.658737" lon="16.807129">
        <ele>288.225451</ele>
        <time>2020-08-13T04:54:14.461Z</time>
      </trkpt>
      <trkpt lat="48.658837" lon="16.807230">
        <ele>288.167858</ele>
        <time>2020-08-13T04:54:16.429Z</time>
      </trkpt>
      <trkpt lat="48.658930" lon="16.807333">
        <ele>288.112653</ele>
        <time>2020-08-13T04:54:18.440Z</time>
      </trkpt>
      <trkpt lat="48.659018" lon="16.807434">
        <ele>288.059746</ele>
        <time>2020-08-13T04:54:20.430Z</time>
      </trkpt>
      <trkpt lat="48.659093" lon="16.807527">
        <ele>288.013300</ele>
        <time>2020-08-13T04:54:22.431Z</time>
      </trkpt>
      <trkpt lat="48.659202" lon="16.807723">
        <ele>287.932218</ele>
        <time>2020-08-13T04:55:28.429Z</time>
      </trkpt>
      <trkpt lat="48.659309" lon="16.807838">
        <ele>287.869351</ele>
        <time>2020-08-13T04:55:31.419Z</time>
      </trkpt>
      <trkpt lat="48.659391" lon="16.807932">
        <ele>287.820073</ele>
        <time>2020-08-13T04:55:33.419Z</time>
      </trkpt>
      <trkpt lat="48.659481" lon="16.808030">
        <ele>287.766960</ele>
        <time>2020-08-13T04:55:35.444Z</time>
      </trkpt>
      <trkpt lat="48.659578" lon="16.808132">
        <ele>287.710378</ele>
        <time>2020-08-13T04:55:37.432Z</time>
      </trkpt>
      <trkpt lat="48.659682" lon="16.808237">
        <ele>287.650489</ele>
        <time>2020-08-13T04:55:39.460Z</time>
      </trkpt>
      <trkpt lat="48.659787" lon="16.808352">
        <ele>287.588401</ele>
        <time>2020-08-13T04:55:41.423Z</time>
      </trkpt>
      <trkpt lat="48.659893" lon="16.808470">
        <ele>287.452332</ele>
        <time>2020-08-13T04:55:43.432Z</time>
      </trkpt>
      <trkpt lat="48.660008" lon="16.808591">
        <ele>287.067809</ele>
        <time>2020-08-13T04:55:45.425Z</time>
      </trkpt>
      <trkpt lat="48.660125" lon="16.808717">
        <ele>286.673577</ele>
        <time>2020-08-13T04:55:47.419Z</time>
      </trkpt>
      <trkpt lat="48.660248" lon="16.808846">
        <ele>286.262736</ele>
        <time>2020-08-13T04:55:49.429Z</time>
      </trkpt>
      <trkpt lat="48.660373" lon="16.808982">
        <ele>285.840089</ele>
        <time>2020-08-13T04:55:51.438Z</time>
      </trkpt>
      <trkpt lat="48.660501" lon="16.809120">
        <ele>285.408633</ele>
        <time>2020-08-13T04:55:53.459Z</time>
      </trkpt>
      <trkpt lat="48.660630" lon="16.809261">
        <ele>284.971775</ele>
        <time>2020-08-13T04:55:55.472Z</time>
      </trkpt>
      <trkpt lat="48.660757" lon="16.809406">
        <ele>284.535028</ele>
        <time>2020-08-13T04:55:57.460Z</time>
      </trkpt>
      <trkpt lat="48.660886" lon="16.809547">
        <ele>284.098171</ele>
        <time>2020-08-13T04:55:59.447Z</time>
      </trkpt>
      <trkpt lat="48.661015" lon="16.809688">
        <ele>283.661314</ele>
        <time>2020-08-13T04:56:01.437Z</time>
      </trkpt>
      <trkpt lat="48.661144" lon="16.809828">
        <ele>283.225517</ele>
        <time>2020-08-13T04:56:03.430Z</time>
      </trkpt>
      <trkpt lat="48.661269" lon="16.809957">
        <ele>282.810153</ele>
        <time>2020-08-13T04:56:05.427Z</time>
      </trkpt>
      <trkpt lat="48.661364" lon="16.810060">
        <ele>282.375035</ele>
        <time>2020-08-13T04:56:07.433Z</time>
      </trkpt>
      <trkpt lat="48.661556" lon="16.810296">
        <ele>281.008863</ele>
        <time>2020-08-13T04:56:47.442Z</time>
      </trkpt>
      <trkpt lat="48.661635" lon="16.810389">
        <ele>280.456057</ele>
        <time>2020-08-13T04:56:49.464Z</time>
      </trkpt>
      <trkpt lat="48.661736" lon="16.810497">
        <ele>279.772994</ele>
        <time>2020-08-13T04:56:51.457Z</time>
      </trkpt>
      <trkpt lat="48.661849" lon="16.810621">
        <ele>279.002048</ele>
        <time>2020-08-13T04:56:53.460Z</time>
      </trkpt>
      <trkpt lat="48.661973" lon="16.810755">
        <ele>278.160467</ele>
        <time>2020-08-13T04:56:55.436Z</time>
      </trkpt>
      <trkpt lat="48.662106" lon="16.810906">
        <ele>277.242131</ele>
        <time>2020-08-13T04:56:57.430Z</time>
      </trkpt>
      <trkpt lat="48.662249" lon="16.811063">
        <ele>276.266342</ele>
        <time>2020-08-13T04:56:59.456Z</time>
      </trkpt>
      <trkpt lat="48.662325" lon="16.811144">
        <ele>275.752918</ele>
        <time>2020-08-13T04:57:00.428Z</time>
      </trkpt>
      <trkpt lat="48.662402" lon="16.811229">
        <ele>275.226503</ele>
        <time>2020-08-13T04:57:01.436Z</time>
      </trkpt>
      <trkpt lat="48.662481" lon="16.811313">
        <ele>274.693227</ele>
        <time>2020-08-13T04:57:02.447Z</time>
      </trkpt>
      <trkpt lat="48.662559" lon="16.811401">
        <ele>274.155871</ele>
        <time>2020-08-13T04:57:03.438Z</time>
      </trkpt>
      <trkpt lat="48.662639" lon="16.811490">
        <ele>273.607464</ele>
        <time>2020-08-13T04:57:04.449Z</time>
      </trkpt>
      <trkpt lat="48.662722" lon="16.811580">
        <ele>273.043500</ele>
        <time>2020-08-13T04:57:05.442Z</time>
      </trkpt>
      <trkpt lat="48.662807" lon="16.811672">
        <ele>272.613623</ele>
        <time>2020-08-13T04:57:06.454Z</time>
      </trkpt>
      <trkpt lat="48.662892" lon="16.811764">
        <ele>272.461485</ele>
        <time>2020-08-13T04:57:07.425Z</time>
      </trkpt>
      <trkpt lat="48.662978" lon="16.811856">
        <ele>272.308161</ele>
        <time>2020-08-13T04:57:08.430Z</time>
      </trkpt>
      <trkpt lat="48.663069" lon="16.811940">
        <ele>272.152976</ele>
        <time>2020-08-13T04:57:09.423Z</time>
      </trkpt>
      <trkpt lat="48.663154" lon="16.812040">
        <ele>271.996239</ele>
        <time>2020-08-13T04:57:10.429Z</time>
      </trkpt>
      <trkpt lat="48.663240" lon="16.812136">
        <ele>271.840663</ele>
        <time>2020-08-13T04:57:11.427Z</time>
      </trkpt>
      <trkpt lat="48.663327" lon="16.812232">
        <ele>271.683913</ele>
        <time>2020-08-13T04:57:12.431Z</time>
      </trkpt>
      <trkpt lat="48.663414" lon="16.812328">
        <ele>271.527163</ele>
        <time>2020-08-13T04:57:13.439Z</time>
      </trkpt>
      <trkpt lat="48.663503" lon="16.812425">
        <ele>271.367491</ele>
        <time>2020-08-13T04:57:14.433Z</time>
      </trkpt>
      <trkpt lat="48.663592" lon="16.812522">
        <ele>271.207819</ele>
        <time>2020-08-13T04:57:15.434Z</time>
      </trkpt>
      <trkpt lat="48.663685" lon="16.812608">
        <ele>271.049147</ele>
        <time>2020-08-13T04:57:16.459Z</time>
      </trkpt>
      <trkpt lat="48.663772" lon="16.812708">
        <ele>270.890101</ele>
        <time>2020-08-13T04:57:17.445Z</time>
      </trkpt>
      <trkpt lat="48.663866" lon="16.812792">
        <ele>270.731171</ele>
        <time>2020-08-13T04:57:18.435Z</time>
      </trkpt>
      <trkpt lat="48.663955" lon="16.812886">
        <ele>270.573167</ele>
        <time>2020-08-13T04:57:19.430Z</time>
      </trkpt>
      <trkpt lat="48.664036" lon="16.812996">
        <ele>270.414736</ele>
        <time>2020-08-13T04:57:20.438Z</time>
      </trkpt>
      <trkpt lat="48.664127" lon="16.813085">
        <ele>270.256995</ele>
        <time>2020-08-13T04:57:21.450Z</time>
      </trkpt>
      <trkpt lat="48.664215" lon="16.813177">
        <ele>270.101285</ele>
        <time>2020-08-13T04:57:22.452Z</time>
      </trkpt>
      <trkpt lat="48.664302" lon="16.813274">
        <ele>269.987683</ele>
        <time>2020-08-13T04:57:23.438Z</time>
      </trkpt>
      <trkpt lat="48.664388" lon="16.813371">
        <ele>269.897514</ele>
        <time>2020-08-13T04:57:24.421Z</time>
      </trkpt>
      <trkpt lat="48.664473" lon="16.813466">
        <ele>269.808681</ele>
        <time>2020-08-13T04:57:25.440Z</time>
      </trkpt>
      <trkpt lat="48.664559" lon="16.813559">
        <ele>269.719820</ele>
        <time>2020-08-13T04:57:26.485Z</time>
      </trkpt>
      <trkpt lat="48.664647" lon="16.813648">
        <ele>269.630839</ele>
        <time>2020-08-13T04:57:27.456Z</time>
      </trkpt>
      <trkpt lat="48.664735" lon="16.813739">
        <ele>269.541236</ele>
        <time>2020-08-13T04:57:28.448Z</time>
      </trkpt>
      <trkpt lat="48.664819" lon="16.813830">
        <ele>269.454390</ele>
        <time>2020-08-13T04:57:29.444Z</time>
      </trkpt>
      <trkpt lat="48.664902" lon="16.813920">
        <ele>269.368550</ele>
        <time>2020-08-13T04:57:30.458Z</time>
      </trkpt>
      <trkpt lat="48.664984" lon="16.814011">
        <ele>269.283066</ele>
        <time>2020-08-13T04:57:31.427Z</time>
      </trkpt>
      <trkpt lat="48.665064" lon="16.814102">
        <ele>269.198932</ele>
        <time>2020-08-13T04:57:32.458Z</time>
      </trkpt>
      <trkpt lat="48.665145" lon="16.814190">
        <ele>269.115107</ele>
        <time>2020-08-13T04:57:33.454Z</time>
      </trkpt>
      <trkpt lat="48.665225" lon="16.814277">
        <ele>269.032288</ele>
        <time>2020-08-13T04:57:34.430Z</time>
      </trkpt>
      <trkpt lat="48.665301" lon="16.814376">
        <ele>268.947991</ele>
        <time>2020-08-13T04:57:35.441Z</time>
      </trkpt>
      <trkpt lat="48.665381" lon="16.814467">
        <ele>268.863858</ele>
        <time>2020-08-13T04:57:36.436Z</time>
      </trkpt>
      <trkpt lat="48.665461" lon="16.814555">
        <ele>268.780714</ele>
        <time>2020-08-13T04:57:37.435Z</time>
      </trkpt>
      <trkpt lat="48.665538" lon="16.814644">
        <ele>268.699262</ele>
        <time>2020-08-13T04:57:38.437Z</time>
      </trkpt>
      <trkpt lat="48.665614" lon="16.814732">
        <ele>268.618815</ele>
        <time>2020-08-13T04:57:39.436Z</time>
      </trkpt>
      <trkpt lat="48.665689" lon="16.814816">
        <ele>268.540376</ele>
        <time>2020-08-13T04:57:40.426Z</time>
      </trkpt>
      <trkpt lat="48.665768" lon="16.814885">
        <ele>268.313933</ele>
        <time>2020-08-13T04:57:41.451Z</time>
      </trkpt>
      <trkpt lat="48.665838" lon="16.814972">
        <ele>268.078064</ele>
        <time>2020-08-13T04:57:42.454Z</time>
      </trkpt>
      <trkpt lat="48.665982" lon="16.815126">
        <ele>267.618899</ele>
        <time>2020-08-13T04:57:44.467Z</time>
      </trkpt>
      <trkpt lat="48.666122" lon="16.815266">
        <ele>267.181923</ele>
        <time>2020-08-13T04:57:46.435Z</time>
      </trkpt>
      <trkpt lat="48.666253" lon="16.815419">
        <ele>266.751025</ele>
        <time>2020-08-13T04:57:48.424Z</time>
      </trkpt>
      <trkpt lat="48.666381" lon="16.815558">
        <ele>266.340774</ele>
        <time>2020-08-13T04:57:50.439Z</time>
      </trkpt>
      <trkpt lat="48.666496" lon="16.815706">
        <ele>265.947684</ele>
        <time>2020-08-13T04:57:52.440Z</time>
      </trkpt>
      <trkpt lat="48.666619" lon="16.815833">
        <ele>265.559936</ele>
        <time>2020-08-13T04:57:54.441Z</time>
      </trkpt>
      <trkpt lat="48.666738" lon="16.815964">
        <ele>265.176746</ele>
        <time>2020-08-13T04:57:56.445Z</time>
      </trkpt>
      <trkpt lat="48.666862" lon="16.816100">
        <ele>264.777965</ele>
        <time>2020-08-13T04:57:58.466Z</time>
      </trkpt>
      <trkpt lat="48.666991" lon="16.816234">
        <ele>264.370522</ele>
        <time>2020-08-13T04:58:00.433Z</time>
      </trkpt>
      <trkpt lat="48.667112" lon="16.816388">
        <ele>263.958837</ele>
        <time>2020-08-13T04:58:02.437Z</time>
      </trkpt>
      <trkpt lat="48.667245" lon="16.816512">
        <ele>263.419127</ele>
        <time>2020-08-13T04:58:04.440Z</time>
      </trkpt>
      <trkpt lat="48.667373" lon="16.816642">
        <ele>262.838961</ele>
        <time>2020-08-13T04:58:06.448Z</time>
      </trkpt>
      <trkpt lat="48.667497" lon="16.816775">
        <ele>262.266960</ele>
        <time>2020-08-13T04:58:08.459Z</time>
      </trkpt>
      <trkpt lat="48.667618" lon="16.816910">
        <ele>261.701200</ele>
        <time>2020-08-13T04:58:10.461Z</time>
      </trkpt>
      <trkpt lat="48.667732" lon="16.817038">
        <ele>261.166975</ele>
        <time>2020-08-13T04:58:12.430Z</time>
      </trkpt>
      <trkpt lat="48.667842" lon="16.817157">
        <ele>260.658091</ele>
        <time>2020-08-13T04:58:14.433Z</time>
      </trkpt>
      <trkpt lat="48.667942" lon="16.817294">
        <ele>260.150464</ele>
        <time>2020-08-13T04:58:16.437Z</time>
      </trkpt>
      <trkpt lat="48.668050" lon="16.817404">
        <ele>259.660518</ele>
        <time>2020-08-13T04:58:18.472Z</time>
      </trkpt>
      <trkpt lat="48.668156" lon="16.817512">
        <ele>259.179593</ele>
        <time>2020-08-13T04:58:20.455Z</time>
      </trkpt>
      <trkpt lat="48.668257" lon="16.817625">
        <ele>258.706887</ele>
        <time>2020-08-13T04:58:22.425Z</time>
      </trkpt>
      <trkpt lat="48.668358" lon="16.817736">
        <ele>258.237118</ele>
        <time>2020-08-13T04:58:24.426Z</time>
      </trkpt>
      <trkpt lat="48.668460" lon="16.817845">
        <ele>257.767182</ele>
        <time>2020-08-13T04:58:26.465Z</time>
      </trkpt>
      <trkpt lat="48.668557" lon="16.817955">
        <ele>257.311009</ele>
        <time>2020-08-13T04:58:28.430Z</time>
      </trkpt>
      <trkpt lat="48.668646" lon="16.818073">
        <ele>256.808177</ele>
        <time>2020-08-13T04:58:30.451Z</time>
      </trkpt>
      <trkpt lat="48.668739" lon="16.818181">
        <ele>256.248580</ele>
        <time>2020-08-13T04:58:32.447Z</time>
      </trkpt>
      <trkpt lat="48.668833" lon="16.818287">
        <ele>255.688977</ele>
        <time>2020-08-13T04:58:34.449Z</time>
      </trkpt>
      <trkpt lat="48.668931" lon="16.818397">
        <ele>255.106522</ele>
        <time>2020-08-13T04:58:36.454Z</time>
      </trkpt>
      <trkpt lat="48.669031" lon="16.818515">
        <ele>254.501198</ele>
        <time>2020-08-13T04:58:38.433Z</time>
      </trkpt>
      <trkpt lat="48.669128" lon="16.818628">
        <ele>253.916853</ele>
        <time>2020-08-13T04:58:40.443Z</time>
      </trkpt>
      <trkpt lat="48.669224" lon="16.818734">
        <ele>253.349564</ele>
        <time>2020-08-13T04:58:42.431Z</time>
      </trkpt>
      <trkpt lat="48.669319" lon="16.818840">
        <ele>252.786127</ele>
        <time>2020-08-13T04:58:44.444Z</time>
      </trkpt>
      <trkpt lat="48.669415" lon="16.818946">
        <ele>252.218838</ele>
        <time>2020-08-13T04:58:46.449Z</time>
      </trkpt>
      <trkpt lat="48.669511" lon="16.819051">
        <ele>251.653403</ele>
        <time>2020-08-13T04:58:48.453Z</time>
      </trkpt>
      <trkpt lat="48.669605" lon="16.819157">
        <ele>251.093803</ele>
        <time>2020-08-13T04:58:50.426Z</time>
      </trkpt>
      <trkpt lat="48.669699" lon="16.819258">
        <ele>250.543475</ele>
        <time>2020-08-13T04:58:52.418Z</time>
      </trkpt>
      <trkpt lat="48.669792" lon="16.819355">
        <ele>250.004287</ele>
        <time>2020-08-13T04:58:54.432Z</time>
      </trkpt>
      <trkpt lat="48.669883" lon="16.819452">
        <ele>249.472937</ele>
        <time>2020-08-13T04:58:56.438Z</time>
      </trkpt>
      <trkpt lat="48.669971" lon="16.819546">
        <ele>248.958744</ele>
        <time>2020-08-13T04:58:58.448Z</time>
      </trkpt>
      <trkpt lat="48.670056" lon="16.819647">
        <ele>248.457343</ele>
        <time>2020-08-13T04:59:00.450Z</time>
      </trkpt>
      <trkpt lat="48.670141" lon="16.819746">
        <ele>248.095660</ele>
        <time>2020-08-13T04:59:02.456Z</time>
      </trkpt>
      <trkpt lat="48.670227" lon="16.819842">
        <ele>247.735303</ele>
        <time>2020-08-13T04:59:04.429Z</time>
      </trkpt>
      <trkpt lat="48.670312" lon="16.819935">
        <ele>247.381609</ele>
        <time>2020-08-13T04:59:06.432Z</time>
      </trkpt>
      <trkpt lat="48.670397" lon="16.820029">
        <ele>247.026607</ele>
        <time>2020-08-13T04:59:08.462Z</time>
      </trkpt>
      <trkpt lat="48.670480" lon="16.820125">
        <ele>246.674344</ele>
        <time>2020-08-13T04:59:10.435Z</time>
      </trkpt>
      <trkpt lat="48.670566" lon="16.820214">
        <ele>246.323015</ele>
        <time>2020-08-13T04:59:12.432Z</time>
      </trkpt>
      <trkpt lat="48.670652" lon="16.820299">
        <ele>245.976635</ele>
        <time>2020-08-13T04:59:14.425Z</time>
      </trkpt>
      <trkpt lat="48.670734" lon="16.820388">
        <ele>245.636360</ele>
        <time>2020-08-13T04:59:16.468Z</time>
      </trkpt>
      <trkpt lat="48.670810" lon="16.820478">
        <ele>245.310951</ele>
        <time>2020-08-13T04:59:18.459Z</time>
      </trkpt>
      <trkpt lat="48.670885" lon="16.820566">
        <ele>244.990940</ele>
        <time>2020-08-13T04:59:20.432Z</time>
      </trkpt>
      <trkpt lat="48.670998" lon="16.820601">
        <ele>244.601923</ele>
        <time>2020-08-13T04:59:23.427Z</time>
      </trkpt>
      <trkpt lat="48.671040" lon="16.820474">
        <ele>244.285564</ele>
        <time>2020-08-13T04:59:25.434Z</time>
      </trkpt>
      <trkpt lat="48.671063" lon="16.820334">
        <ele>243.964233</ele>
        <time>2020-08-13T04:59:27.434Z</time>
      </trkpt>
      <trkpt lat="48.671116" lon="16.820149">
        <ele>243.515073</ele>
        <time>2020-08-13T04:59:30.458Z</time>
      </trkpt>
      <trkpt lat="48.671185" lon="16.819984">
        <ele>243.080076</ele>
        <time>2020-08-13T04:59:33.457Z</time>
      </trkpt>
      <trkpt lat="48.671259" lon="16.819819">
        <ele>242.635828</ele>
        <time>2020-08-13T04:59:36.436Z</time>
      </trkpt>
      <trkpt lat="48.671319" lon="16.819713">
        <ele>242.408904</ele>
        <time>2020-08-13T04:59:38.438Z</time>
      </trkpt>
      <trkpt lat="48.671381" lon="16.819602">
        <ele>242.354905</ele>
        <time>2020-08-13T04:59:40.432Z</time>
      </trkpt>
      <trkpt lat="48.671441" lon="16.819493">
        <ele>242.302199</ele>
        <time>2020-08-13T04:59:42.438Z</time>
      </trkpt>
      <trkpt lat="48.671500" lon="16.819380">
        <ele>242.248694</ele>
        <time>2020-08-13T04:59:44.432Z</time>
      </trkpt>
      <trkpt lat="48.671556" lon="16.819263">
        <ele>242.195023</ele>
        <time>2020-08-13T04:59:46.437Z</time>
      </trkpt>
      <trkpt lat="48.671617" lon="16.819146">
        <ele>242.139655</ele>
        <time>2020-08-13T04:59:48.450Z</time>
      </trkpt>
      <trkpt lat="48.671679" lon="16.819027">
        <ele>242.083355</ele>
        <time>2020-08-13T04:59:50.428Z</time>
      </trkpt>
      <trkpt lat="48.671744" lon="16.818910">
        <ele>242.026565</ele>
        <time>2020-08-13T04:59:52.451Z</time>
      </trkpt>
      <trkpt lat="48.671807" lon="16.818783">
        <ele>241.967568</ele>
        <time>2020-08-13T04:59:54.430Z</time>
      </trkpt>
      <trkpt lat="48.671867" lon="16.818657">
        <ele>241.909870</ele>
        <time>2020-08-13T04:59:56.453Z</time>
      </trkpt>
      <trkpt lat="48.671932" lon="16.818529">
        <ele>241.849896</ele>
        <time>2020-08-13T04:59:58.441Z</time>
      </trkpt>
      <trkpt lat="48.671998" lon="16.818401">
        <ele>241.789578</ele>
        <time>2020-08-13T05:00:00.424Z</time>
      </trkpt>
      <trkpt lat="48.672065" lon="16.818265">
        <ele>241.726556</ele>
        <time>2020-08-13T05:00:02.456Z</time>
      </trkpt>
      <trkpt lat="48.672136" lon="16.818117">
        <ele>241.658612</ele>
        <time>2020-08-13T05:00:04.444Z</time>
      </trkpt>
      <trkpt lat="48.672215" lon="16.817958">
        <ele>241.584706</ele>
        <time>2020-08-13T05:00:06.442Z</time>
      </trkpt>
      <trkpt lat="48.672301" lon="16.817788">
        <ele>241.505167</ele>
        <time>2020-08-13T05:00:08.424Z</time>
      </trkpt>
      <trkpt lat="48.672391" lon="16.817613">
        <ele>241.422782</ele>
        <time>2020-08-13T05:00:10.436Z</time>
      </trkpt>
      <trkpt lat="48.672482" lon="16.817441">
        <ele>241.301645</ele>
        <time>2020-08-13T05:00:12.445Z</time>
      </trkpt>
      <trkpt lat="48.672574" lon="16.817271">
        <ele>241.176178</ele>
        <time>2020-08-13T05:00:14.461Z</time>
      </trkpt>
      <trkpt lat="48.672661" lon="16.817099">
        <ele>241.052501</ele>
        <time>2020-08-13T05:00:16.437Z</time>
      </trkpt>
      <trkpt lat="48.672748" lon="16.816929">
        <ele>240.929728</ele>
        <time>2020-08-13T05:00:18.461Z</time>
      </trkpt>
      <trkpt lat="48.672833" lon="16.816758">
        <ele>240.807551</ele>
        <time>2020-08-13T05:00:20.437Z</time>
      </trkpt>
      <trkpt lat="48.672912" lon="16.816586">
        <ele>240.687953</ele>
        <time>2020-08-13T05:00:22.419Z</time>
      </trkpt>
      <trkpt lat="48.672990" lon="16.816414">
        <ele>240.568846</ele>
        <time>2020-08-13T05:00:24.446Z</time>
      </trkpt>
      <trkpt lat="48.673061" lon="16.816257">
        <ele>240.460224</ele>
        <time>2020-08-13T05:00:26.462Z</time>
      </trkpt>
      <trkpt lat="48.673127" lon="16.816164">
        <ele>240.382293</ele>
        <time>2020-08-13T05:00:28.439Z</time>
      </trkpt>
      <trkpt lat="48.673208" lon="16.816273">
        <ele>240.288622</ele>
        <time>2020-08-13T05:00:32.436Z</time>
      </trkpt>
      <trkpt lat="48.673213" lon="16.816439">
        <ele>240.193765</ele>
        <time>2020-08-13T05:00:35.420Z</time>
      </trkpt>
      <trkpt lat="48.673234" lon="16.816617">
        <ele>240.090548</ele>
        <time>2020-08-13T05:00:38.443Z</time>
      </trkpt>
      <trkpt lat="48.673265" lon="16.816805">
        <ele>239.979937</ele>
        <time>2020-08-13T05:00:41.447Z</time>
      </trkpt>
      <trkpt lat="48.673296" lon="16.816934">
        <ele>239.901575</ele>
        <time>2020-08-13T05:00:43.434Z</time>
      </trkpt>
      <trkpt lat="48.673333" lon="16.817059">
        <ele>239.854071</ele>
        <time>2020-08-13T05:00:45.436Z</time>
      </trkpt>
      <trkpt lat="48.673371" lon="16.817187">
        <ele>239.842479</ele>
        <time>2020-08-13T05:00:47.435Z</time>
      </trkpt>
      <trkpt lat="48.673407" lon="16.817314">
        <ele>239.831062</ele>
        <time>2020-08-13T05:00:49.462Z</time>
      </trkpt>
      <trkpt lat="48.673440" lon="16.817442">
        <ele>239.819712</ele>
        <time>2020-08-13T05:00:51.435Z</time>
      </trkpt>
      <trkpt lat="48.673492" lon="16.817622">
        <ele>239.803483</ele>
        <time>2020-08-13T05:00:54.445Z</time>
      </trkpt>
      <trkpt lat="48.673545" lon="16.817791">
        <ele>239.788028</ele>
        <time>2020-08-13T05:00:57.440Z</time>
      </trkpt>
      <trkpt lat="48.673591" lon="16.817960">
        <ele>239.772929</ele>
        <time>2020-08-13T05:01:00.419Z</time>
      </trkpt>
      <trkpt lat="48.673639" lon="16.818120">
        <ele>239.758412</ele>
        <time>2020-08-13T05:01:03.455Z</time>
      </trkpt>
      <trkpt lat="48.673686" lon="16.818272">
        <ele>239.744548</ele>
        <time>2020-08-13T05:01:06.446Z</time>
      </trkpt>
      <trkpt lat="48.673729" lon="16.818423">
        <ele>239.730965</ele>
        <time>2020-08-13T05:01:09.425Z</time>
      </trkpt>
      <trkpt lat="48.673769" lon="16.818581">
        <ele>239.716987</ele>
        <time>2020-08-13T05:01:12.424Z</time>
      </trkpt>
      <trkpt lat="48.673810" lon="16.818749">
        <ele>239.702192</ele>
        <time>2020-08-13T05:01:15.444Z</time>
      </trkpt>
      <trkpt lat="48.673843" lon="16.818923">
        <ele>239.687239</ele>
        <time>2020-08-13T05:01:18.422Z</time>
      </trkpt>
      <trkpt lat="48.673882" lon="16.819105">
        <ele>239.671433</ele>
        <time>2020-08-13T05:01:21.419Z</time>
      </trkpt>
      <trkpt lat="48.673907" lon="16.819236">
        <ele>239.660169</ele>
        <time>2020-08-13T05:01:23.433Z</time>
      </trkpt>
      <trkpt lat="48.673928" lon="16.819370">
        <ele>239.648793</ele>
        <time>2020-08-13T05:01:25.439Z</time>
      </trkpt>
      <trkpt lat="48.673950" lon="16.819509">
        <ele>239.636986</ele>
        <time>2020-08-13T05:01:27.461Z</time>
      </trkpt>
      <trkpt lat="48.673973" lon="16.819654">
        <ele>239.607629</ele>
        <time>2020-08-13T05:01:29.458Z</time>
      </trkpt>
      <trkpt lat="48.674000" lon="16.819801">
        <ele>239.572660</ele>
        <time>2020-08-13T05:01:31.436Z</time>
      </trkpt>
      <trkpt lat="48.674025" lon="16.819956">
        <ele>239.536093</ele>
        <time>2020-08-13T05:01:33.441Z</time>
      </trkpt>
      <trkpt lat="48.674050" lon="16.820110">
        <ele>239.499749</ele>
        <time>2020-08-13T05:01:35.444Z</time>
      </trkpt>
      <trkpt lat="48.674074" lon="16.820267">
        <ele>239.462816</ele>
        <time>2020-08-13T05:01:37.453Z</time>
      </trkpt>
      <trkpt lat="48.674102" lon="16.820422">
        <ele>239.425988</ele>
        <time>2020-08-13T05:01:39.438Z</time>
      </trkpt>
      <trkpt lat="48.674137" lon="16.820571">
        <ele>239.389744</ele>
        <time>2020-08-13T05:01:41.450Z</time>
      </trkpt>
      <trkpt lat="48.674167" lon="16.820727">
        <ele>239.352507</ele>
        <time>2020-08-13T05:01:43.452Z</time>
      </trkpt>
      <trkpt lat="48.674194" lon="16.820886">
        <ele>239.314882</ele>
        <time>2020-08-13T05:01:45.434Z</time>
      </trkpt>
      <trkpt lat="48.674222" lon="16.821044">
        <ele>239.277390</ele>
        <time>2020-08-13T05:01:47.432Z</time>
      </trkpt>
      <trkpt lat="48.674249" lon="16.821201">
        <ele>239.240209</ele>
        <time>2020-08-13T05:01:49.461Z</time>
      </trkpt>
      <trkpt lat="48.674280" lon="16.821359">
        <ele>239.202435</ele>
        <time>2020-08-13T05:01:51.436Z</time>
      </trkpt>
      <trkpt lat="48.674316" lon="16.821514">
        <ele>239.164779</ele>
        <time>2020-08-13T05:01:53.434Z</time>
      </trkpt>
      <trkpt lat="48.674352" lon="16.821669">
        <ele>239.127123</ele>
        <time>2020-08-13T05:01:55.440Z</time>
      </trkpt>
      <trkpt lat="48.674386" lon="16.821827">
        <ele>239.089039</ele>
        <time>2020-08-13T05:01:57.463Z</time>
      </trkpt>
      <trkpt lat="48.674414" lon="16.821983">
        <ele>239.051990</ele>
        <time>2020-08-13T05:01:59.431Z</time>
      </trkpt>
      <trkpt lat="48.674441" lon="16.822139">
        <ele>239.015030</ele>
        <time>2020-08-13T05:02:01.435Z</time>
      </trkpt>
      <trkpt lat="48.674473" lon="16.822294">
        <ele>238.988114</ele>
        <time>2020-08-13T05:02:03.417Z</time>
      </trkpt>
      <trkpt lat="48.674504" lon="16.822450">
        <ele>238.962716</ele>
        <time>2020-08-13T05:02:05.426Z</time>
      </trkpt>
      <trkpt lat="48.674534" lon="16.822608">
        <ele>238.937086</ele>
        <time>2020-08-13T05:02:07.423Z</time>
      </trkpt>
      <trkpt lat="48.674564" lon="16.822764">
        <ele>238.911756</ele>
        <time>2020-08-13T05:02:09.440Z</time>
      </trkpt>
      <trkpt lat="48.674594" lon="16.822916">
        <ele>238.887023</ele>
        <time>2020-08-13T05:02:11.432Z</time>
      </trkpt>
      <trkpt lat="48.674625" lon="16.823069">
        <ele>238.862073</ele>
        <time>2020-08-13T05:02:13.433Z</time>
      </trkpt>
      <trkpt lat="48.674662" lon="16.823228">
        <ele>238.835791</ele>
        <time>2020-08-13T05:02:15.437Z</time>
      </trkpt>
      <trkpt lat="48.674696" lon="16.823394">
        <ele>238.808696</ele>
        <time>2020-08-13T05:02:17.458Z</time>
      </trkpt>
      <trkpt lat="48.674730" lon="16.823572">
        <ele>238.779808</ele>
        <time>2020-08-13T05:02:19.461Z</time>
      </trkpt>
      <trkpt lat="48.674761" lon="16.823753">
        <ele>238.750657</ele>
        <time>2020-08-13T05:02:21.449Z</time>
      </trkpt>
      <trkpt lat="48.674793" lon="16.823933">
        <ele>238.721596</ele>
        <time>2020-08-13T05:02:23.449Z</time>
      </trkpt>
      <trkpt lat="48.674830" lon="16.824110">
        <ele>238.692653</ele>
        <time>2020-08-13T05:02:25.444Z</time>
      </trkpt>
      <trkpt lat="48.674868" lon="16.824286">
        <ele>238.663785</ele>
        <time>2020-08-13T05:02:27.466Z</time>
      </trkpt>
      <trkpt lat="48.674903" lon="16.824462">
        <ele>238.635130</ele>
        <time>2020-08-13T05:02:29.452Z</time>
      </trkpt>
      <trkpt lat="48.674934" lon="16.824637">
        <ele>238.606883</ele>
        <time>2020-08-13T05:02:31.437Z</time>
      </trkpt>
      <trkpt lat="48.674967" lon="16.824808">
        <ele>238.569982</ele>
        <time>2020-08-13T05:02:33.438Z</time>
      </trkpt>
      <trkpt lat="48.675003" lon="16.824978">
        <ele>238.501690</ele>
        <time>2020-08-13T05:02:35.441Z</time>
      </trkpt>
      <trkpt lat="48.675028" lon="16.825149">
        <ele>238.434693</ele>
        <time>2020-08-13T05:02:37.434Z</time>
      </trkpt>
      <trkpt lat="48.675055" lon="16.825315">
        <ele>238.369295</ele>
        <time>2020-08-13T05:02:39.424Z</time>
      </trkpt>
      <trkpt lat="48.675087" lon="16.825477">
        <ele>238.304612</ele>
        <time>2020-08-13T05:02:41.422Z</time>
      </trkpt>
      <trkpt lat="48.675109" lon="16.825640">
        <ele>238.240971</ele>
        <time>2020-08-13T05:02:43.453Z</time>
      </trkpt>
      <trkpt lat="48.675138" lon="16.825798">
        <ele>238.178240</ele>
        <time>2020-08-13T05:02:45.427Z</time>
      </trkpt>
      <trkpt lat="48.675166" lon="16.825957">
        <ele>238.115292</ele>
        <time>2020-08-13T05:02:47.429Z</time>
      </trkpt>
      <trkpt lat="48.675196" lon="16.826120">
        <ele>238.050563</ele>
        <time>2020-08-13T05:02:49.443Z</time>
      </trkpt>
      <trkpt lat="48.675228" lon="16.826280">
        <ele>237.986613</ele>
        <time>2020-08-13T05:02:51.433Z</time>
      </trkpt>
      <trkpt lat="48.675259" lon="16.826438">
        <ele>237.923562</ele>
        <time>2020-08-13T05:02:53.450Z</time>
      </trkpt>
      <trkpt lat="48.675290" lon="16.826594">
        <ele>237.861244</ele>
        <time>2020-08-13T05:02:55.441Z</time>
      </trkpt>
      <trkpt lat="48.675318" lon="16.826751">
        <ele>237.799035</ele>
        <time>2020-08-13T05:02:57.446Z</time>
      </trkpt>
      <trkpt lat="48.675341" lon="16.826910">
        <ele>237.736771</ele>
        <time>2020-08-13T05:02:59.467Z</time>
      </trkpt>
      <trkpt lat="48.675367" lon="16.827066">
        <ele>237.675225</ele>
        <time>2020-08-13T05:03:01.432Z</time>
      </trkpt>
      <trkpt lat="48.675391" lon="16.827219">
        <ele>237.615070</ele>
        <time>2020-08-13T05:03:03.456Z</time>
      </trkpt>
      <trkpt lat="48.675418" lon="16.827371">
        <ele>237.554859</ele>
        <time>2020-08-13T05:03:05.425Z</time>
      </trkpt>
      <trkpt lat="48.675448" lon="16.827522">
        <ele>237.496111</ele>
        <time>2020-08-13T05:03:07.430Z</time>
      </trkpt>
      <trkpt lat="48.675470" lon="16.827678">
        <ele>237.437052</ele>
        <time>2020-08-13T05:03:09.450Z</time>
      </trkpt>
      <trkpt lat="48.675487" lon="16.827840">
        <ele>237.376321</ele>
        <time>2020-08-13T05:03:11.438Z</time>
      </trkpt>
      <trkpt lat="48.675512" lon="16.827997">
        <ele>237.316528</ele>
        <time>2020-08-13T05:03:13.444Z</time>
      </trkpt>
      <trkpt lat="48.675536" lon="16.828152">
        <ele>237.257585</ele>
        <time>2020-08-13T05:03:15.454Z</time>
      </trkpt>
      <trkpt lat="48.675560" lon="16.828309">
        <ele>237.197922</ele>
        <time>2020-08-13T05:03:17.437Z</time>
      </trkpt>
      <trkpt lat="48.675582" lon="16.828465">
        <ele>237.138863</ele>
        <time>2020-08-13T05:03:19.436Z</time>
      </trkpt>
      <trkpt lat="48.675636" lon="16.828597">
        <ele>237.081373</ele>
        <time>2020-08-13T05:03:21.444Z</time>
      </trkpt>
      <trkpt lat="48.675725" lon="16.828665">
        <ele>237.025481</ele>
        <time>2020-08-13T05:03:23.424Z</time>
      </trkpt>
      <trkpt lat="48.675820" lon="16.828655">
        <ele>236.972087</ele>
        <time>2020-08-13T05:03:27.443Z</time>
      </trkpt>
      <trkpt lat="48.675722" lon="16.828631">
        <ele>236.916426</ele>
        <time>2020-08-13T05:03:33.450Z</time>
      </trkpt>
      <trkpt lat="48.675651" lon="16.828474">
        <ele>236.845975</ele>
        <time>2020-08-13T05:03:36.430Z</time>
      </trkpt>
      <trkpt lat="48.675639" lon="16.828306">
        <ele>236.783413</ele>
        <time>2020-08-13T05:03:39.421Z</time>
      </trkpt>
      <trkpt lat="48.675731" lon="16.828226">
        <ele>236.723931</ele>
        <time>2020-08-13T05:03:42.442Z</time>
      </trkpt>
      <trkpt lat="48.675853" lon="16.828172">
        <ele>236.652666</ele>
        <time>2020-08-13T05:03:45.425Z</time>
      </trkpt>
      <trkpt lat="48.675939" lon="16.828128">
        <ele>236.601770</ele>
        <time>2020-08-13T05:03:47.422Z</time>
      </trkpt>
      <trkpt lat="48.676023" lon="16.828075">
        <ele>236.550748</ele>
        <time>2020-08-13T05:03:49.435Z</time>
      </trkpt>
      <trkpt lat="48.676154" lon="16.828021">
        <ele>236.501904</ele>
        <time>2020-08-13T05:03:52.429Z</time>
      </trkpt>
      <trkpt lat="48.676248" lon="16.827987">
        <ele>236.472216</ele>
        <time>2020-08-13T05:03:54.444Z</time>
      </trkpt>
      <trkpt lat="48.676339" lon="16.827957">
        <ele>236.443607</ele>
        <time>2020-08-13T05:03:56.435Z</time>
      </trkpt>
      <trkpt lat="48.676430" lon="16.827920">
        <ele>236.414663</ele>
        <time>2020-08-13T05:03:58.443Z</time>
      </trkpt>
      <trkpt lat="48.676519" lon="16.827884">
        <ele>236.386365</ele>
        <time>2020-08-13T05:04:00.461Z</time>
      </trkpt>
      <trkpt lat="48.676648" lon="16.827831">
        <ele>236.345306</ele>
        <time>2020-08-13T05:04:03.446Z</time>
      </trkpt>
      <trkpt lat="48.676741" lon="16.827815">
        <ele>236.316554</ele>
        <time>2020-08-13T05:04:05.444Z</time>
      </trkpt>
      <trkpt lat="48.676835" lon="16.827797">
        <ele>236.287448</ele>
        <time>2020-08-13T05:04:07.444Z</time>
      </trkpt>
      <trkpt lat="48.676930" lon="16.827764">
        <ele>236.257508</ele>
        <time>2020-08-13T05:04:09.462Z</time>
      </trkpt>
      <trkpt lat="48.677026" lon="16.827725">
        <ele>236.226975</ele>
        <time>2020-08-13T05:04:11.441Z</time>
      </trkpt>
      <trkpt lat="48.677120" lon="16.827685">
        <ele>236.196982</ele>
        <time>2020-08-13T05:04:13.439Z</time>
      </trkpt>
      <trkpt lat="48.677218" lon="16.827645">
        <ele>236.165803</ele>
        <time>2020-08-13T05:04:15.427Z</time>
      </trkpt>
      <trkpt lat="48.677313" lon="16.827611">
        <ele>236.135817</ele>
        <time>2020-08-13T05:04:17.433Z</time>
      </trkpt>
      <trkpt lat="48.677408" lon="16.827580">
        <ele>236.105964</ele>
        <time>2020-08-13T05:04:19.430Z</time>
      </trkpt>
      <trkpt lat="48.677500" lon="16.827548">
        <ele>236.076967</ele>
        <time>2020-08-13T05:04:21.431Z</time>
      </trkpt>
      <trkpt lat="48.677592" lon="16.827513">
        <ele>236.047828</ele>
        <time>2020-08-13T05:04:23.434Z</time>
      </trkpt>
      <trkpt lat="48.677683" lon="16.827474">
        <ele>236.018776</ele>
        <time>2020-08-13T05:04:25.446Z</time>
      </trkpt>
      <trkpt lat="48.677774" lon="16.827431">
        <ele>235.989493</ele>
        <time>2020-08-13T05:04:27.449Z</time>
      </trkpt>
      <trkpt lat="48.677865" lon="16.827393">
        <ele>235.962989</ele>
        <time>2020-08-13T05:04:29.436Z</time>
      </trkpt>
      <trkpt lat="48.677994" lon="16.827344">
        <ele>235.926777</ele>
        <time>2020-08-13T05:04:32.432Z</time>
      </trkpt>
      <trkpt lat="48.678084" lon="16.827310">
        <ele>235.901521</ele>
        <time>2020-08-13T05:04:34.443Z</time>
      </trkpt>
      <trkpt lat="48.678214" lon="16.827263">
        <ele>235.865130</ele>
        <time>2020-08-13T05:04:37.455Z</time>
      </trkpt>
      <trkpt lat="48.678305" lon="16.827229">
        <ele>235.839609</ele>
        <time>2020-08-13T05:04:39.445Z</time>
      </trkpt>
      <trkpt lat="48.678395" lon="16.827195">
        <ele>235.814353</ele>
        <time>2020-08-13T05:04:41.456Z</time>
      </trkpt>
      <trkpt lat="48.678486" lon="16.827169">
        <ele>235.789139</ele>
        <time>2020-08-13T05:04:43.434Z</time>
      </trkpt>
      <trkpt lat="48.678576" lon="16.827139">
        <ele>235.764047</ele>
        <time>2020-08-13T05:04:45.436Z</time>
      </trkpt>
      <trkpt lat="48.678664" lon="16.827111">
        <ele>235.739563</ele>
        <time>2020-08-13T05:04:47.422Z</time>
      </trkpt>
      <trkpt lat="48.678792" lon="16.827061">
        <ele>235.703570</ele>
        <time>2020-08-13T05:04:50.451Z</time>
      </trkpt>
      <trkpt lat="48.678917" lon="16.827019">
        <ele>235.668708</ele>
        <time>2020-08-13T05:04:53.440Z</time>
      </trkpt>
      <trkpt lat="48.679022" lon="16.827032">
        <ele>235.640023</ele>
        <time>2020-08-13T05:04:56.448Z</time>
      </trkpt>
      <trkpt lat="48.679114" lon="16.827059">
        <ele>235.614507</ele>
        <time>2020-08-13T05:04:59.446Z</time>
      </trkpt>
      <trkpt lat="48.679222" lon="16.827006">
        <ele>235.583595</ele>
        <time>2020-08-13T05:05:02.417Z</time>
      </trkpt>
      <trkpt lat="48.679326" lon="16.826918">
        <ele>235.551158</ele>
        <time>2020-08-13T05:05:05.434Z</time>
      </trkpt>
      <trkpt lat="48.679433" lon="16.826829">
        <ele>235.517920</ele>
        <time>2020-08-13T05:05:08.451Z</time>
      </trkpt>
      <trkpt lat="48.679542" lon="16.826749">
        <ele>235.491411</ele>
        <time>2020-08-13T05:05:11.440Z</time>
      </trkpt>
      <trkpt lat="48.679650" lon="16.826662">
        <ele>235.485872</ele>
        <time>2020-08-13T05:05:14.437Z</time>
      </trkpt>
      <trkpt lat="48.679755" lon="16.826575">
        <ele>235.480452</ele>
        <time>2020-08-13T05:05:17.436Z</time>
      </trkpt>
      <trkpt lat="48.679865" lon="16.826496">
        <ele>235.474940</ele>
        <time>2020-08-13T05:05:20.424Z</time>
      </trkpt>
      <trkpt lat="48.679968" lon="16.826419">
        <ele>235.469738</ele>
        <time>2020-08-13T05:05:23.465Z</time>
      </trkpt>
      <trkpt lat="48.680068" lon="16.826341">
        <ele>235.464645</ele>
        <time>2020-08-13T05:05:26.432Z</time>
      </trkpt>
      <trkpt lat="48.680166" lon="16.826254">
        <ele>235.459501</ele>
        <time>2020-08-13T05:05:29.456Z</time>
      </trkpt>
      <trkpt lat="48.680267" lon="16.826168">
        <ele>235.454254</ele>
        <time>2020-08-13T05:05:32.439Z</time>
      </trkpt>
      <trkpt lat="48.680373" lon="16.826086">
        <ele>235.448864</ele>
        <time>2020-08-13T05:05:35.430Z</time>
      </trkpt>
      <trkpt lat="48.680479" lon="16.826010">
        <ele>235.443554</ele>
        <time>2020-08-13T05:05:38.426Z</time>
      </trkpt>
      <trkpt lat="48.680588" lon="16.825926">
        <ele>235.438016</ele>
        <time>2020-08-13T05:05:41.436Z</time>
      </trkpt>
      <trkpt lat="48.680690" lon="16.825844">
        <ele>235.432787</ele>
        <time>2020-08-13T05:05:44.446Z</time>
      </trkpt>
      <trkpt lat="48.680794" lon="16.825764">
        <ele>235.427505</ele>
        <time>2020-08-13T05:05:47.438Z</time>
      </trkpt>
      <trkpt lat="48.680897" lon="16.825684">
        <ele>235.422263</ele>
        <time>2020-08-13T05:05:50.460Z</time>
      </trkpt>
      <trkpt lat="48.680996" lon="16.825617">
        <ele>235.417353</ele>
        <time>2020-08-13T05:05:53.439Z</time>
      </trkpt>
      <trkpt lat="48.681089" lon="16.825542">
        <ele>235.412582</ele>
        <time>2020-08-13T05:05:56.463Z</time>
      </trkpt>
      <trkpt lat="48.681187" lon="16.825465">
        <ele>235.422719</ele>
        <time>2020-08-13T05:05:59.416Z</time>
      </trkpt>
      <trkpt lat="48.681286" lon="16.825387">
        <ele>235.438492</ele>
        <time>2020-08-13T05:06:02.446Z</time>
      </trkpt>
      <trkpt lat="48.681391" lon="16.825301">
        <ele>235.455364</ele>
        <time>2020-08-13T05:06:05.452Z</time>
      </trkpt>
      <trkpt lat="48.681491" lon="16.825218">
        <ele>235.471482</ele>
        <time>2020-08-13T05:06:08.422Z</time>
      </trkpt>
      <trkpt lat="48.681589" lon="16.825143">
        <ele>235.487002</ele>
        <time>2020-08-13T05:06:11.453Z</time>
      </trkpt>
      <trkpt lat="48.681689" lon="16.825065">
        <ele>235.502901</ele>
        <time>2020-08-13T05:06:14.420Z</time>
      </trkpt>
      <trkpt lat="48.681795" lon="16.824992">
        <ele>235.519359</ele>
        <time>2020-08-13T05:06:17.422Z</time>
      </trkpt>
      <trkpt lat="48.681898" lon="16.824921">
        <ele>235.535355</ele>
        <time>2020-08-13T05:06:20.430Z</time>
      </trkpt>
      <trkpt lat="48.682000" lon="16.824848">
        <ele>235.551300</ele>
        <time>2020-08-13T05:06:23.434Z</time>
      </trkpt>
      <trkpt lat="48.682099" lon="16.824772">
        <ele>235.566988</ele>
        <time>2020-08-13T05:06:26.431Z</time>
      </trkpt>
      <trkpt lat="48.682195" lon="16.824704">
        <ele>235.581968</ele>
        <time>2020-08-13T05:06:29.431Z</time>
      </trkpt>
      <trkpt lat="48.682296" lon="16.824630">
        <ele>235.597827</ele>
        <time>2020-08-13T05:06:32.446Z</time>
      </trkpt>
      <trkpt lat="48.682389" lon="16.824560">
        <ele>235.612505</ele>
        <time>2020-08-13T05:06:35.438Z</time>
      </trkpt>
      <trkpt lat="48.682481" lon="16.824489">
        <ele>235.627100</ele>
        <time>2020-08-13T05:06:38.433Z</time>
      </trkpt>
      <trkpt lat="48.682572" lon="16.824416">
        <ele>235.641655</ele>
        <time>2020-08-13T05:06:41.439Z</time>
      </trkpt>
      <trkpt lat="48.682659" lon="16.824345">
        <ele>235.655623</ele>
        <time>2020-08-13T05:06:44.437Z</time>
      </trkpt>
      <trkpt lat="48.682746" lon="16.824274">
        <ele>235.676632</ele>
        <time>2020-08-13T05:06:47.428Z</time>
      </trkpt>
      <trkpt lat="48.682838" lon="16.824203">
        <ele>235.716245</ele>
        <time>2020-08-13T05:06:50.451Z</time>
      </trkpt>
      <trkpt lat="48.682928" lon="16.824134">
        <ele>235.754945</ele>
        <time>2020-08-13T05:06:53.461Z</time>
      </trkpt>
      <trkpt lat="48.683016" lon="16.824070">
        <ele>235.792396</ele>
        <time>2020-08-13T05:06:56.452Z</time>
      </trkpt>
      <trkpt lat="48.683104" lon="16.824004">
        <ele>235.830069</ele>
        <time>2020-08-13T05:06:59.438Z</time>
      </trkpt>
      <trkpt lat="48.683192" lon="16.823935">
        <ele>235.868086</ele>
        <time>2020-08-13T05:07:02.429Z</time>
      </trkpt>
      <trkpt lat="48.683276" lon="16.823868">
        <ele>235.904508</ele>
        <time>2020-08-13T05:07:05.445Z</time>
      </trkpt>
      <trkpt lat="48.683375" lon="16.823773">
        <ele>235.949470</ele>
        <time>2020-08-13T05:07:09.436Z</time>
      </trkpt>
      <trkpt lat="48.683467" lon="16.823683">
        <ele>235.991487</ele>
        <time>2020-08-13T05:07:13.411Z</time>
      </trkpt>
      <trkpt lat="48.683559" lon="16.823603">
        <ele>236.032185</ele>
        <time>2020-08-13T05:07:17.451Z</time>
      </trkpt>
      <trkpt lat="48.683652" lon="16.823524">
        <ele>236.073093</ele>
        <time>2020-08-13T05:07:21.445Z</time>
      </trkpt>
      <trkpt lat="48.683737" lon="16.823445">
        <ele>236.111352</ele>
        <time>2020-08-13T05:07:25.423Z</time>
      </trkpt>
      <trkpt lat="48.683824" lon="16.823355">
        <ele>236.151772</ele>
        <time>2020-08-13T05:07:29.421Z</time>
      </trkpt>
      <trkpt lat="48.683904" lon="16.823274">
        <ele>236.188689</ele>
        <time>2020-08-13T05:07:33.435Z</time>
      </trkpt>
      <trkpt lat="48.683998" lon="16.823181">
        <ele>236.231764</ele>
        <time>2020-08-13T05:07:38.432Z</time>
      </trkpt>
      <trkpt lat="48.684082" lon="16.823111">
        <ele>236.268545</ele>
        <time>2020-08-13T05:07:42.431Z</time>
      </trkpt>
      <trkpt lat="48.684165" lon="16.823040">
        <ele>236.305115</ele>
        <time>2020-08-13T05:07:46.437Z</time>
      </trkpt>
      <trkpt lat="48.684246" lon="16.822960">
        <ele>236.342214</ele>
        <time>2020-08-13T05:07:50.451Z</time>
      </trkpt>
      <trkpt lat="48.684322" lon="16.822881">
        <ele>236.401740</ele>
        <time>2020-08-13T05:07:54.433Z</time>
      </trkpt>
      <trkpt lat="48.684400" lon="16.822805">
        <ele>236.476320</ele>
        <time>2020-08-13T05:07:58.455Z</time>
      </trkpt>
      <trkpt lat="48.684485" lon="16.822731">
        <ele>236.555158</ele>
        <time>2020-08-13T05:08:02.467Z</time>
      </trkpt>
      <trkpt lat="48.684567" lon="16.822667">
        <ele>236.629337</ele>
        <time>2020-08-13T05:08:06.437Z</time>
      </trkpt>
      <trkpt lat="48.684652" lon="16.822587">
        <ele>236.709809</ele>
        <time>2020-08-13T05:08:10.433Z</time>
      </trkpt>
      <trkpt lat="48.684734" lon="16.822507">
        <ele>236.788243</ele>
        <time>2020-08-13T05:08:14.438Z</time>
      </trkpt>
      <trkpt lat="48.684810" lon="16.822432">
        <ele>236.861184</ele>
        <time>2020-08-13T05:08:18.436Z</time>
      </trkpt>
      <trkpt lat="48.684888" lon="16.822359">
        <ele>236.934914</ele>
        <time>2020-08-13T05:08:22.421Z</time>
      </trkpt>
      <trkpt lat="48.684981" lon="16.822280">
        <ele>237.020656</ele>
        <time>2020-08-13T05:08:26.430Z</time>
      </trkpt>
      <trkpt lat="48.685085" lon="16.822195">
        <ele>237.115685</ele>
        <time>2020-08-13T05:08:30.458Z</time>
      </trkpt>
      <trkpt lat="48.685166" lon="16.822124">
        <ele>237.190940</ele>
        <time>2020-08-13T05:08:33.435Z</time>
      </trkpt>
      <trkpt lat="48.685250" lon="16.822049">
        <ele>237.269350</ele>
        <time>2020-08-13T05:08:36.453Z</time>
      </trkpt>
      <trkpt lat="48.685332" lon="16.821979">
        <ele>237.345040</ele>
        <time>2020-08-13T05:08:39.448Z</time>
      </trkpt>
      <trkpt lat="48.685411" lon="16.821904">
        <ele>237.420014</ele>
        <time>2020-08-13T05:08:42.419Z</time>
      </trkpt>
      <trkpt lat="48.685489" lon="16.821832">
        <ele>237.493466</ele>
        <time>2020-08-13T05:08:45.417Z</time>
      </trkpt>
      <trkpt lat="48.685585" lon="16.821736">
        <ele>237.585969</ele>
        <time>2020-08-13T05:08:49.436Z</time>
      </trkpt>
      <trkpt lat="48.685690" lon="16.821645">
        <ele>237.683248</ele>
        <time>2020-08-13T05:08:53.415Z</time>
      </trkpt>
      <trkpt lat="48.685776" lon="16.821575">
        <ele>237.761756</ele>
        <time>2020-08-13T05:08:56.433Z</time>
      </trkpt>
      <trkpt lat="48.685882" lon="16.821486">
        <ele>237.888134</ele>
        <time>2020-08-13T05:09:00.438Z</time>
      </trkpt>
      <trkpt lat="48.685960" lon="16.821412">
        <ele>237.999482</ele>
        <time>2020-08-13T05:09:03.452Z</time>
      </trkpt>
      <trkpt lat="48.686040" lon="16.821336">
        <ele>238.113728</ele>
        <time>2020-08-13T05:09:06.433Z</time>
      </trkpt>
      <trkpt lat="48.686118" lon="16.821264">
        <ele>238.224235</ele>
        <time>2020-08-13T05:09:09.432Z</time>
      </trkpt>
      <trkpt lat="48.686219" lon="16.821186">
        <ele>238.361392</ele>
        <time>2020-08-13T05:09:13.413Z</time>
      </trkpt>
      <trkpt lat="48.686352" lon="16.821030">
        <ele>238.564900</ele>
        <time>2020-08-13T05:09:57.410Z</time>
      </trkpt>
      <trkpt lat="48.686428" lon="16.820944">
        <ele>238.679670</ele>
        <time>2020-08-13T05:10:00.411Z</time>
      </trkpt>
      <trkpt lat="48.686515" lon="16.820861">
        <ele>238.804061</ele>
        <time>2020-08-13T05:10:03.418Z</time>
      </trkpt>
      <trkpt lat="48.686600" lon="16.820777">
        <ele>238.926846</ele>
        <time>2020-08-13T05:10:06.411Z</time>
      </trkpt>
      <trkpt lat="48.686687" lon="16.820683">
        <ele>239.056133</ele>
        <time>2020-08-13T05:10:09.406Z</time>
      </trkpt>
      <trkpt lat="48.686769" lon="16.820594">
        <ele>239.178176</ele>
        <time>2020-08-13T05:10:12.427Z</time>
      </trkpt>
      <trkpt lat="48.686854" lon="16.820514">
        <ele>239.299245</ele>
        <time>2020-08-13T05:10:15.418Z</time>
      </trkpt>
      <trkpt lat="48.686938" lon="16.820430">
        <ele>239.421018</ele>
        <time>2020-08-13T05:10:18.437Z</time>
      </trkpt>
      <trkpt lat="48.687017" lon="16.820346">
        <ele>239.537790</ele>
        <time>2020-08-13T05:10:21.448Z</time>
      </trkpt>
      <trkpt lat="48.687096" lon="16.820262">
        <ele>239.654563</ele>
        <time>2020-08-13T05:10:24.427Z</time>
      </trkpt>
      <trkpt lat="48.687180" lon="16.820180">
        <ele>239.775463</ele>
        <time>2020-08-13T05:10:27.438Z</time>
      </trkpt>
      <trkpt lat="48.687265" lon="16.820100">
        <ele>239.896531</ele>
        <time>2020-08-13T05:10:30.443Z</time>
      </trkpt>
      <trkpt lat="48.687345" lon="16.820013">
        <ele>240.060208</ele>
        <time>2020-08-13T05:10:33.446Z</time>
      </trkpt>
      <trkpt lat="48.687421" lon="16.819924">
        <ele>240.313516</ele>
        <time>2020-08-13T05:10:36.428Z</time>
      </trkpt>
      <trkpt lat="48.687501" lon="16.819838">
        <ele>240.572190</ele>
        <time>2020-08-13T05:10:39.411Z</time>
      </trkpt>
      <trkpt lat="48.687586" lon="16.819757">
        <ele>240.836989</ele>
        <time>2020-08-13T05:10:42.428Z</time>
      </trkpt>
      <trkpt lat="48.687670" lon="16.819672">
        <ele>241.103363</ele>
        <time>2020-08-13T05:10:45.423Z</time>
      </trkpt>
      <trkpt lat="48.687750" lon="16.819583">
        <ele>241.365094</ele>
        <time>2020-08-13T05:10:48.451Z</time>
      </trkpt>
      <trkpt lat="48.687843" lon="16.819483">
        <ele>241.665828</ele>
        <time>2020-08-13T05:10:52.443Z</time>
      </trkpt>
      <trkpt lat="48.687919" lon="16.819397">
        <ele>241.915974</ele>
        <time>2020-08-13T05:10:57.432Z</time>
      </trkpt>
      <trkpt lat="48.688009" lon="16.819336">
        <ele>242.175967</ele>
        <time>2020-08-13T05:11:36.419Z</time>
      </trkpt>
      <trkpt lat="48.688088" lon="16.819252">
        <ele>242.430478</ele>
        <time>2020-08-13T05:11:40.430Z</time>
      </trkpt>
      <trkpt lat="48.688164" lon="16.819165">
        <ele>242.681670</ele>
        <time>2020-08-13T05:11:43.432Z</time>
      </trkpt>
      <trkpt lat="48.688259" lon="16.819059">
        <ele>242.992797</ele>
        <time>2020-08-13T05:11:46.417Z</time>
      </trkpt>
      <trkpt lat="48.688365" lon="16.818956">
        <ele>243.324871</ele>
        <time>2020-08-13T05:11:49.447Z</time>
      </trkpt>
      <trkpt lat="48.688486" lon="16.818933">
        <ele>243.646436</ele>
        <time>2020-08-13T05:11:52.412Z</time>
      </trkpt>
      <trkpt lat="48.688564" lon="16.819018">
        <ele>243.899806</ele>
        <time>2020-08-13T05:11:54.421Z</time>
      </trkpt>
      <trkpt lat="48.688643" lon="16.819107">
        <ele>244.159414</ele>
        <time>2020-08-13T05:11:56.410Z</time>
      </trkpt>
      <trkpt lat="48.688727" lon="16.819218">
        <ele>244.453347</ele>
        <time>2020-08-13T05:11:58.448Z</time>
      </trkpt>
      <trkpt lat="48.688825" lon="16.819350">
        <ele>244.753449</ele>
        <time>2020-08-13T05:12:00.439Z</time>
      </trkpt>
      <trkpt lat="48.688922" lon="16.819484">
        <ele>244.897871</ele>
        <time>2020-08-13T05:12:02.436Z</time>
      </trkpt>
      <trkpt lat="48.689019" lon="16.819628">
        <ele>245.047282</ele>
        <time>2020-08-13T05:12:04.426Z</time>
      </trkpt>
      <trkpt lat="48.689113" lon="16.819782">
        <ele>245.199604</ele>
        <time>2020-08-13T05:12:06.416Z</time>
      </trkpt>
      <trkpt lat="48.689211" lon="16.819926">
        <ele>245.349803</ele>
        <time>2020-08-13T05:12:08.443Z</time>
      </trkpt>
      <trkpt lat="48.689310" lon="16.820069">
        <ele>245.500291</ele>
        <time>2020-08-13T05:12:10.413Z</time>
      </trkpt>
      <trkpt lat="48.689405" lon="16.820208">
        <ele>245.645593</ele>
        <time>2020-08-13T05:12:12.434Z</time>
      </trkpt>
      <trkpt lat="48.689496" lon="16.820337">
        <ele>245.782701</ele>
        <time>2020-08-13T05:12:14.424Z</time>
      </trkpt>
      <trkpt lat="48.689579" lon="16.820464">
        <ele>245.912485</ele>
        <time>2020-08-13T05:12:16.419Z</time>
      </trkpt>
      <trkpt lat="48.689647" lon="16.820594">
        <ele>246.032940</ele>
        <time>2020-08-13T05:12:18.434Z</time>
      </trkpt>
      <trkpt lat="48.689729" lon="16.820695">
        <ele>246.149206</ele>
        <time>2020-08-13T05:12:20.445Z</time>
      </trkpt>
      <trkpt lat="48.689804" lon="16.820815">
        <ele>246.269215</ele>
        <time>2020-08-13T05:12:22.424Z</time>
      </trkpt>
      <trkpt lat="48.689877" lon="16.820933">
        <ele>246.386658</ele>
        <time>2020-08-13T05:12:24.427Z</time>
      </trkpt>
      <trkpt lat="48.689946" lon="16.821049">
        <ele>246.500055</ele>
        <time>2020-08-13T05:12:26.423Z</time>
      </trkpt>
      <trkpt lat="48.690015" lon="16.821168">
        <ele>246.615078</ele>
        <time>2020-08-13T05:12:28.430Z</time>
      </trkpt>
      <trkpt lat="48.690086" lon="16.821279">
        <ele>246.744918</ele>
        <time>2020-08-13T05:12:30.442Z</time>
      </trkpt>
      <trkpt lat="48.690155" lon="16.821390">
        <ele>246.925537</ele>
        <time>2020-08-13T05:12:32.451Z</time>
      </trkpt>
      <trkpt lat="48.690222" lon="16.821507">
        <ele>247.109022</ele>
        <time>2020-08-13T05:12:34.438Z</time>
      </trkpt>
      <trkpt lat="48.690290" lon="16.821623">
        <ele>247.292801</ele>
        <time>2020-08-13T05:12:36.471Z</time>
      </trkpt>
      <trkpt lat="48.690356" lon="16.821743">
        <ele>247.477831</ele>
        <time>2020-08-13T05:12:38.430Z</time>
      </trkpt>
      <trkpt lat="48.690420" lon="16.821863">
        <ele>247.660585</ele>
        <time>2020-08-13T05:12:40.458Z</time>
      </trkpt>
      <trkpt lat="48.690484" lon="16.821992">
        <ele>247.851749</ele>
        <time>2020-08-13T05:12:42.437Z</time>
      </trkpt>
      <trkpt lat="48.690543" lon="16.822121">
        <ele>248.037661</ele>
        <time>2020-08-13T05:12:44.444Z</time>
      </trkpt>
      <trkpt lat="48.690595" lon="16.822252">
        <ele>248.218743</ele>
        <time>2020-08-13T05:12:46.448Z</time>
      </trkpt>
      <trkpt lat="48.690645" lon="16.822382">
        <ele>248.396976</ele>
        <time>2020-08-13T05:12:48.432Z</time>
      </trkpt>
      <trkpt lat="48.690696" lon="16.822516">
        <ele>248.580210</ele>
        <time>2020-08-13T05:12:50.440Z</time>
      </trkpt>
      <trkpt lat="48.690747" lon="16.822650">
        <ele>248.763443</ele>
        <time>2020-08-13T05:12:52.435Z</time>
      </trkpt>
      <trkpt lat="48.690796" lon="16.822783">
        <ele>248.943875</ele>
        <time>2020-08-13T05:12:54.453Z</time>
      </trkpt>
      <trkpt lat="48.690842" lon="16.822913">
        <ele>249.118604</ele>
        <time>2020-08-13T05:12:56.421Z</time>
      </trkpt>
      <trkpt lat="48.690892" lon="16.823045">
        <ele>249.298889</ele>
        <time>2020-08-13T05:12:58.467Z</time>
      </trkpt>
      <trkpt lat="48.690941" lon="16.823179">
        <ele>249.480355</ele>
        <time>2020-08-13T05:13:00.441Z</time>
      </trkpt>
      <trkpt lat="48.690991" lon="16.823312">
        <ele>249.661668</ele>
        <time>2020-08-13T05:13:02.470Z</time>
      </trkpt>
      <trkpt lat="48.691039" lon="16.823442">
        <ele>249.838121</ele>
        <time>2020-08-13T05:13:04.442Z</time>
      </trkpt>
      <trkpt lat="48.691088" lon="16.823570">
        <ele>249.976996</ele>
        <time>2020-08-13T05:13:06.438Z</time>
      </trkpt>
      <trkpt lat="48.691132" lon="16.823692">
        <ele>250.072133</ele>
        <time>2020-08-13T05:13:08.436Z</time>
      </trkpt>
      <trkpt lat="48.691180" lon="16.823816">
        <ele>250.170503</ele>
        <time>2020-08-13T05:13:10.429Z</time>
      </trkpt>
      <trkpt lat="48.691225" lon="16.823939">
        <ele>250.266739</ele>
        <time>2020-08-13T05:13:12.424Z</time>
      </trkpt>
      <trkpt lat="48.691269" lon="16.824063">
        <ele>250.363078</ele>
        <time>2020-08-13T05:13:14.448Z</time>
      </trkpt>
      <trkpt lat="48.691316" lon="16.824191">
        <ele>250.463311</ele>
        <time>2020-08-13T05:13:16.449Z</time>
      </trkpt>
      <trkpt lat="48.691367" lon="16.824320">
        <ele>250.566211</ele>
        <time>2020-08-13T05:13:18.431Z</time>
      </trkpt>
      <trkpt lat="48.691413" lon="16.824454">
        <ele>250.669569</ele>
        <time>2020-08-13T05:13:20.431Z</time>
      </trkpt>
      <trkpt lat="48.691463" lon="16.824593">
        <ele>250.777896</ele>
        <time>2020-08-13T05:13:22.479Z</time>
      </trkpt>
      <trkpt lat="48.691513" lon="16.824733">
        <ele>250.886824</ele>
        <time>2020-08-13T05:13:24.435Z</time>
      </trkpt>
      <trkpt lat="48.691565" lon="16.824876">
        <ele>250.998548</ele>
        <time>2020-08-13T05:13:26.417Z</time>
      </trkpt>
      <trkpt lat="48.691624" lon="16.825023">
        <ele>251.116279</ele>
        <time>2020-08-13T05:13:28.432Z</time>
      </trkpt>
      <trkpt lat="48.691684" lon="16.825174">
        <ele>251.236888</ele>
        <time>2020-08-13T05:13:30.427Z</time>
      </trkpt>
      <trkpt lat="48.691743" lon="16.825329">
        <ele>251.359329</ele>
        <time>2020-08-13T05:13:32.422Z</time>
      </trkpt>
      <trkpt lat="48.691801" lon="16.825486">
        <ele>251.482448</ele>
        <time>2020-08-13T05:13:34.430Z</time>
      </trkpt>
      <trkpt lat="48.691856" lon="16.825638">
        <ele>251.601067</ele>
        <time>2020-08-13T05:13:36.435Z</time>
      </trkpt>
      <trkpt lat="48.691908" lon="16.825780">
        <ele>251.712191</ele>
        <time>2020-08-13T05:13:38.441Z</time>
      </trkpt>
      <trkpt lat="48.691954" lon="16.825913">
        <ele>251.802964</ele>
        <time>2020-08-13T05:13:40.434Z</time>
      </trkpt>
      <trkpt lat="48.691997" lon="16.826034">
        <ele>251.848313</ele>
        <time>2020-08-13T05:13:42.424Z</time>
      </trkpt>
      <trkpt lat="48.692055" lon="16.826206">
        <ele>251.912050</ele>
        <time>2020-08-13T05:13:45.427Z</time>
      </trkpt>
      <trkpt lat="48.692115" lon="16.826376">
        <ele>251.975666</ele>
        <time>2020-08-13T05:13:48.413Z</time>
      </trkpt>
      <trkpt lat="48.692174" lon="16.826543">
        <ele>252.038173</ele>
        <time>2020-08-13T05:13:51.452Z</time>
      </trkpt>
      <trkpt lat="48.692235" lon="16.826723">
        <ele>252.104944</ele>
        <time>2020-08-13T05:13:54.401Z</time>
      </trkpt>
      <trkpt lat="48.692285" lon="16.826853">
        <ele>252.154595</ele>
        <time>2020-08-13T05:13:56.422Z</time>
      </trkpt>
      <trkpt lat="48.692339" lon="16.826988">
        <ele>252.206686</ele>
        <time>2020-08-13T05:13:58.432Z</time>
      </trkpt>
      <trkpt lat="48.692396" lon="16.827138">
        <ele>252.263802</ele>
        <time>2020-08-13T05:14:00.441Z</time>
      </trkpt>
      <trkpt lat="48.692462" lon="16.827314">
        <ele>252.330599</ele>
        <time>2020-08-13T05:14:02.432Z</time>
      </trkpt>
      <trkpt lat="48.692527" lon="16.827505">
        <ele>252.401512</ele>
        <time>2020-08-13T05:14:04.437Z</time>
      </trkpt>
      <trkpt lat="48.692598" lon="16.827708">
        <ele>252.477325</ele>
        <time>2020-08-13T05:14:06.442Z</time>
      </trkpt>
      <trkpt lat="48.692678" lon="16.827923">
        <ele>252.558770</ele>
        <time>2020-08-13T05:14:08.456Z</time>
      </trkpt>
      <trkpt lat="48.692761" lon="16.828155">
        <ele>252.645851</ele>
        <time>2020-08-13T05:14:10.447Z</time>
      </trkpt>
      <trkpt lat="48.692802" lon="16.828276">
        <ele>252.690734</ele>
        <time>2020-08-13T05:14:11.424Z</time>
      </trkpt>
      <trkpt lat="48.692845" lon="16.828400">
        <ele>252.740570</ele>
        <time>2020-08-13T05:14:12.419Z</time>
      </trkpt>
      <trkpt lat="48.692889" lon="16.828527">
        <ele>252.791623</ele>
        <time>2020-08-13T05:14:13.418Z</time>
      </trkpt>
      <trkpt lat="48.692936" lon="16.828657">
        <ele>252.844381</ele>
        <time>2020-08-13T05:14:14.448Z</time>
      </trkpt>
      <trkpt lat="48.692985" lon="16.828790">
        <ele>252.898596</ele>
        <time>2020-08-13T05:14:15.426Z</time>
      </trkpt>
      <trkpt lat="48.693036" lon="16.828912">
        <ele>252.949996</ele>
        <time>2020-08-13T05:14:16.422Z</time>
      </trkpt>
      <trkpt lat="48.693109" lon="16.829093">
        <ele>253.025495</ele>
        <time>2020-08-13T05:14:18.427Z</time>
      </trkpt>
      <trkpt lat="48.693173" lon="16.829196">
        <ele>253.075845</ele>
        <time>2020-08-13T05:14:20.428Z</time>
      </trkpt>
      <trkpt lat="48.693269" lon="16.829179">
        <ele>253.127963</ele>
        <time>2020-08-13T05:14:22.418Z</time>
      </trkpt>
      <trkpt lat="48.693361" lon="16.829074">
        <ele>253.190075</ele>
        <time>2020-08-13T05:14:24.418Z</time>
      </trkpt>
      <trkpt lat="48.693458" lon="16.828975">
        <ele>253.253142</ele>
        <time>2020-08-13T05:14:26.417Z</time>
      </trkpt>
      <trkpt lat="48.693565" lon="16.828874">
        <ele>253.321123</ele>
        <time>2020-08-13T05:14:28.410Z</time>
      </trkpt>
      <trkpt lat="48.693676" lon="16.828768">
        <ele>253.391876</ele>
        <time>2020-08-13T05:14:30.429Z</time>
      </trkpt>
      <trkpt lat="48.693790" lon="16.828655">
        <ele>253.465337</ele>
        <time>2020-08-13T05:14:32.445Z</time>
      </trkpt>
      <trkpt lat="48.693905" lon="16.828540">
        <ele>253.539640</ele>
        <time>2020-08-13T05:14:34.430Z</time>
      </trkpt>
      <trkpt lat="48.694019" lon="16.828417">
        <ele>253.615108</ele>
        <time>2020-08-13T05:14:36.451Z</time>
      </trkpt>
      <trkpt lat="48.694133" lon="16.828287">
        <ele>253.573780</ele>
        <time>2020-08-13T05:14:38.472Z</time>
      </trkpt>
      <trkpt lat="48.694246" lon="16.828145">
        <ele>253.352659</ele>
        <time>2020-08-13T05:14:40.479Z</time>
      </trkpt>
      <trkpt lat="48.694379" lon="16.828018">
        <ele>253.115875</ele>
        <time>2020-08-13T05:14:42.414Z</time>
      </trkpt>
      <trkpt lat="48.694536" lon="16.827910">
        <ele>252.856180</ele>
        <time>2020-08-13T05:14:44.415Z</time>
      </trkpt>
      <trkpt lat="48.694618" lon="16.827854">
        <ele>252.720709</ele>
        <time>2020-08-13T05:14:45.424Z</time>
      </trkpt>
      <trkpt lat="48.694706" lon="16.827804">
        <ele>252.579156</ele>
        <time>2020-08-13T05:14:46.484Z</time>
      </trkpt>
      <trkpt lat="48.694795" lon="16.827750">
        <ele>252.434761</ele>
        <time>2020-08-13T05:14:47.431Z</time>
      </trkpt>
      <trkpt lat="48.694886" lon="16.827695">
        <ele>252.287200</ele>
        <time>2020-08-13T05:14:48.434Z</time>
      </trkpt>
      <trkpt lat="48.694979" lon="16.827642">
        <ele>252.137548</ele>
        <time>2020-08-13T05:14:49.423Z</time>
      </trkpt>
      <trkpt lat="48.695073" lon="16.827598">
        <ele>251.989370</ele>
        <time>2020-08-13T05:14:50.456Z</time>
      </trkpt>
      <trkpt lat="48.695170" lon="16.827567">
        <ele>251.840061</ele>
        <time>2020-08-13T05:14:51.452Z</time>
      </trkpt>
      <trkpt lat="48.695269" lon="16.827540">
        <ele>251.688558</ele>
        <time>2020-08-13T05:14:52.431Z</time>
      </trkpt>
      <trkpt lat="48.695369" lon="16.827524">
        <ele>251.537108</ele>
        <time>2020-08-13T05:14:53.430Z</time>
      </trkpt>
      <trkpt lat="48.695470" lon="16.827508">
        <ele>251.384161</ele>
        <time>2020-08-13T05:14:54.430Z</time>
      </trkpt>
      <trkpt lat="48.695571" lon="16.827490">
        <ele>251.230994</ele>
        <time>2020-08-13T05:14:55.442Z</time>
      </trkpt>
      <trkpt lat="48.695672" lon="16.827465">
        <ele>251.076859</ele>
        <time>2020-08-13T05:14:56.430Z</time>
      </trkpt>
      <trkpt lat="48.695774" lon="16.827450">
        <ele>250.914285</ele>
        <time>2020-08-13T05:14:57.427Z</time>
      </trkpt>
      <trkpt lat="48.695878" lon="16.827444">
        <ele>250.713641</ele>
        <time>2020-08-13T05:14:58.442Z</time>
      </trkpt>
      <trkpt lat="48.695983" lon="16.827449">
        <ele>250.511116</ele>
        <time>2020-08-13T05:14:59.441Z</time>
      </trkpt>
      <trkpt lat="48.696090" lon="16.827465">
        <ele>250.303832</ele>
        <time>2020-08-13T05:15:00.414Z</time>
      </trkpt>
      <trkpt lat="48.696198" lon="16.827492">
        <ele>250.092806</ele>
        <time>2020-08-13T05:15:01.441Z</time>
      </trkpt>
      <trkpt lat="48.696308" lon="16.827515">
        <ele>249.878731</ele>
        <time>2020-08-13T05:15:02.447Z</time>
      </trkpt>
      <trkpt lat="48.696421" lon="16.827527">
        <ele>249.660348</ele>
        <time>2020-08-13T05:15:03.439Z</time>
      </trkpt>
      <trkpt lat="48.696536" lon="16.827541">
        <ele>249.437929</ele>
        <time>2020-08-13T05:15:04.446Z</time>
      </trkpt>
      <trkpt lat="48.696648" lon="16.827551">
        <ele>249.221633</ele>
        <time>2020-08-13T05:15:05.434Z</time>
      </trkpt>
      <trkpt lat="48.696752" lon="16.827553">
        <ele>249.021119</ele>
        <time>2020-08-13T05:15:06.446Z</time>
      </trkpt>
      <trkpt lat="48.696850" lon="16.827552">
        <ele>248.832184</ele>
        <time>2020-08-13T05:15:07.447Z</time>
      </trkpt>
      <trkpt lat="48.696943" lon="16.827530">
        <ele>248.650720</ele>
        <time>2020-08-13T05:15:08.429Z</time>
      </trkpt>
      <trkpt lat="48.697036" lon="16.827505">
        <ele>248.468628</ele>
        <time>2020-08-13T05:15:09.469Z</time>
      </trkpt>
      <trkpt lat="48.697124" lon="16.827464">
        <ele>248.291136</ele>
        <time>2020-08-13T05:15:10.426Z</time>
      </trkpt>
      <trkpt lat="48.697205" lon="16.827401">
        <ele>248.115603</ele>
        <time>2020-08-13T05:15:11.466Z</time>
      </trkpt>
      <trkpt lat="48.697275" lon="16.827312">
        <ele>247.939430</ele>
        <time>2020-08-13T05:15:12.431Z</time>
      </trkpt>
      <trkpt lat="48.697413" lon="16.827144">
        <ele>247.598139</ele>
        <time>2020-08-13T05:15:14.411Z</time>
      </trkpt>
      <trkpt lat="48.697546" lon="16.826988">
        <ele>247.137061</ele>
        <time>2020-08-13T05:15:16.481Z</time>
      </trkpt>
      <trkpt lat="48.697672" lon="16.826833">
        <ele>246.620775</ele>
        <time>2020-08-13T05:15:18.419Z</time>
      </trkpt>
      <trkpt lat="48.697788" lon="16.826677">
        <ele>246.127384</ele>
        <time>2020-08-13T05:15:20.418Z</time>
      </trkpt>
      <trkpt lat="48.697908" lon="16.826540">
        <ele>245.649423</ele>
        <time>2020-08-13T05:15:22.436Z</time>
      </trkpt>
      <trkpt lat="48.698020" lon="16.826400">
        <ele>245.187548</ele>
        <time>2020-08-13T05:15:24.425Z</time>
      </trkpt>
      <trkpt lat="48.698124" lon="16.826255">
        <ele>244.737966</ele>
        <time>2020-08-13T05:15:26.420Z</time>
      </trkpt>
      <trkpt lat="48.698227" lon="16.826118">
        <ele>244.301978</ele>
        <time>2020-08-13T05:15:28.431Z</time>
      </trkpt>
      <trkpt lat="48.698319" lon="16.825982">
        <ele>243.893106</ele>
        <time>2020-08-13T05:15:30.450Z</time>
      </trkpt>
      <trkpt lat="48.698403" lon="16.825864">
        <ele>243.528723</ele>
        <time>2020-08-13T05:15:32.457Z</time>
      </trkpt>
      <trkpt lat="48.698455" lon="16.825727">
        <ele>243.196916</ele>
        <time>2020-08-13T05:15:34.459Z</time>
      </trkpt>
      <trkpt lat="48.698479" lon="16.825566">
        <ele>242.850378</ele>
        <time>2020-08-13T05:15:36.451Z</time>
      </trkpt>
      <trkpt lat="48.698492" lon="16.825383">
        <ele>242.463946</ele>
        <time>2020-08-13T05:15:38.427Z</time>
      </trkpt>
      <trkpt lat="48.698507" lon="16.825193">
        <ele>242.062192</ele>
        <time>2020-08-13T05:15:40.430Z</time>
      </trkpt>
      <trkpt lat="48.698518" lon="16.825001">
        <ele>241.580863</ele>
        <time>2020-08-13T05:15:42.446Z</time>
      </trkpt>
      <trkpt lat="48.698527" lon="16.824819">
        <ele>240.918564</ele>
        <time>2020-08-13T05:15:44.448Z</time>
      </trkpt>
      <trkpt lat="48.698538" lon="16.824521">
        <ele>239.835483</ele>
        <time>2020-08-13T05:16:20.457Z</time>
      </trkpt>
      <trkpt lat="48.698552" lon="16.824367">
        <ele>239.271367</ele>
        <time>2020-08-13T05:16:23.445Z</time>
      </trkpt>
      <trkpt lat="48.698562" lon="16.824203">
        <ele>238.673704</ele>
        <time>2020-08-13T05:16:26.442Z</time>
      </trkpt>
      <trkpt lat="48.698581" lon="16.824029">
        <ele>238.033705</ele>
        <time>2020-08-13T05:16:29.434Z</time>
      </trkpt>
      <trkpt lat="48.698592" lon="16.823833">
        <ele>237.319888</ele>
        <time>2020-08-13T05:16:32.420Z</time>
      </trkpt>
      <trkpt lat="48.698608" lon="16.823629">
        <ele>236.574399</ele>
        <time>2020-08-13T05:16:35.458Z</time>
      </trkpt>
      <trkpt lat="48.698624" lon="16.823491">
        <ele>236.065953</ele>
        <time>2020-08-13T05:16:37.438Z</time>
      </trkpt>
      <trkpt lat="48.698644" lon="16.823289">
        <ele>235.324728</ele>
        <time>2020-08-13T05:16:40.444Z</time>
      </trkpt>
      <trkpt lat="48.698658" lon="16.823142">
        <ele>234.785766</ele>
        <time>2020-08-13T05:16:42.469Z</time>
      </trkpt>
      <trkpt lat="48.698663" lon="16.822990">
        <ele>234.233501</ele>
        <time>2020-08-13T05:16:44.465Z</time>
      </trkpt>
      <trkpt lat="48.698668" lon="16.822848">
        <ele>233.717475</ele>
        <time>2020-08-13T05:16:46.445Z</time>
      </trkpt>
      <trkpt lat="48.698677" lon="16.822706">
        <ele>233.199812</ele>
        <time>2020-08-13T05:16:48.425Z</time>
      </trkpt>
      <trkpt lat="48.698674" lon="16.822566">
        <ele>232.691509</ele>
        <time>2020-08-13T05:16:50.440Z</time>
      </trkpt>
      <trkpt lat="48.698647" lon="16.822429">
        <ele>232.172671</ele>
        <time>2020-08-13T05:16:52.424Z</time>
      </trkpt>
      <trkpt lat="48.698610" lon="16.822305">
        <ele>231.790693</ele>
        <time>2020-08-13T05:16:54.415Z</time>
      </trkpt>
      <trkpt lat="48.698561" lon="16.822143">
        <ele>231.514970</ele>
        <time>2020-08-13T05:16:57.441Z</time>
      </trkpt>
      <trkpt lat="48.698520" lon="16.821979">
        <ele>231.243626</ele>
        <time>2020-08-13T05:17:00.482Z</time>
      </trkpt>
      <trkpt lat="48.698486" lon="16.821809">
        <ele>230.968780</ele>
        <time>2020-08-13T05:17:03.429Z</time>
      </trkpt>
      <trkpt lat="48.698470" lon="16.821620">
        <ele>230.673952</ele>
        <time>2020-08-13T05:17:06.412Z</time>
      </trkpt>
      <trkpt lat="48.698456" lon="16.821423">
        <ele>230.367379</ele>
        <time>2020-08-13T05:17:09.431Z</time>
      </trkpt>
      <trkpt lat="48.698430" lon="16.821221">
        <ele>230.048944</ele>
        <time>2020-08-13T05:17:12.429Z</time>
      </trkpt>
      <trkpt lat="48.698404" lon="16.821083">
        <ele>229.826892</ele>
        <time>2020-08-13T05:17:14.430Z</time>
      </trkpt>
      <trkpt lat="48.698370" lon="16.820952">
        <ele>229.609092</ele>
        <time>2020-08-13T05:17:16.433Z</time>
      </trkpt>
      <trkpt lat="48.698328" lon="16.820823">
        <ele>229.386531</ele>
        <time>2020-08-13T05:17:18.427Z</time>
      </trkpt>
      <trkpt lat="48.698284" lon="16.820686">
        <ele>229.150792</ele>
        <time>2020-08-13T05:17:20.432Z</time>
      </trkpt>
      <trkpt lat="48.698242" lon="16.820552">
        <ele>228.921267</ele>
        <time>2020-08-13T05:17:22.412Z</time>
      </trkpt>
      <trkpt lat="48.698196" lon="16.820407">
        <ele>228.672342</ele>
        <time>2020-08-13T05:17:24.452Z</time>
      </trkpt>
      <trkpt lat="48.698153" lon="16.820255">
        <ele>228.416464</ele>
        <time>2020-08-13T05:17:26.423Z</time>
      </trkpt>
      <trkpt lat="48.698106" lon="16.820102">
        <ele>228.155347</ele>
        <time>2020-08-13T05:17:28.429Z</time>
      </trkpt>
      <trkpt lat="48.698046" lon="16.819958">
        <ele>227.891856</ele>
        <time>2020-08-13T05:17:30.426Z</time>
      </trkpt>
      <trkpt lat="48.697981" lon="16.819825">
        <ele>227.650841</ele>
        <time>2020-08-13T05:17:32.458Z</time>
      </trkpt>
      <trkpt lat="48.697911" lon="16.819702">
        <ele>227.575053</ele>
        <time>2020-08-13T05:17:34.423Z</time>
      </trkpt>
      <trkpt lat="48.697841" lon="16.819585">
        <ele>227.501364</ele>
        <time>2020-08-13T05:17:36.439Z</time>
      </trkpt>
      <trkpt lat="48.697772" lon="16.819464">
        <ele>227.426745</ele>
        <time>2020-08-13T05:17:38.432Z</time>
      </trkpt>
      <trkpt lat="48.697706" lon="16.819340">
        <ele>227.352411</ele>
        <time>2020-08-13T05:17:40.445Z</time>
      </trkpt>
      <trkpt lat="48.697641" lon="16.819221">
        <ele>227.280331</ele>
        <time>2020-08-13T05:17:42.441Z</time>
      </trkpt>
      <trkpt lat="48.697572" lon="16.819105">
        <ele>227.207462</ele>
        <time>2020-08-13T05:17:44.453Z</time>
      </trkpt>
      <trkpt lat="48.697505" lon="16.818991">
        <ele>227.136231</ele>
        <time>2020-08-13T05:17:46.437Z</time>
      </trkpt>
      <trkpt lat="48.697436" lon="16.818885">
        <ele>227.066757</ele>
        <time>2020-08-13T05:17:48.421Z</time>
      </trkpt>
      <trkpt lat="48.697365" lon="16.818774">
        <ele>226.994627</ele>
        <time>2020-08-13T05:17:50.442Z</time>
      </trkpt>
      <trkpt lat="48.697300" lon="16.818659">
        <ele>226.923975</ele>
        <time>2020-08-13T05:17:52.446Z</time>
      </trkpt>
      <trkpt lat="48.697237" lon="16.818542">
        <ele>226.853513</ele>
        <time>2020-08-13T05:17:54.413Z</time>
      </trkpt>
      <trkpt lat="48.697176" lon="16.818429">
        <ele>226.785392</ele>
        <time>2020-08-13T05:17:56.424Z</time>
      </trkpt>
      <trkpt lat="48.697114" lon="16.818314">
        <ele>226.716100</ele>
        <time>2020-08-13T05:17:58.427Z</time>
      </trkpt>
      <trkpt lat="48.697051" lon="16.818199">
        <ele>226.646359</ele>
        <time>2020-08-13T05:18:00.434Z</time>
      </trkpt>
      <trkpt lat="48.696993" lon="16.818080">
        <ele>226.577328</ele>
        <time>2020-08-13T05:18:02.444Z</time>
      </trkpt>
      <trkpt lat="48.696931" lon="16.817966">
        <ele>226.508397</ele>
        <time>2020-08-13T05:18:04.428Z</time>
      </trkpt>
      <trkpt lat="48.696869" lon="16.817846">
        <ele>226.437283</ele>
        <time>2020-08-13T05:18:06.446Z</time>
      </trkpt>
      <trkpt lat="48.696806" lon="16.817720">
        <ele>226.366460</ele>
        <time>2020-08-13T05:18:08.410Z</time>
      </trkpt>
      <trkpt lat="48.696753" lon="16.817582">
        <ele>226.301838</ele>
        <time>2020-08-13T05:18:10.438Z</time>
      </trkpt>
      <trkpt lat="48.696708" lon="16.817438">
        <ele>226.237352</ele>
        <time>2020-08-13T05:18:12.448Z</time>
      </trkpt>
      <trkpt lat="48.696680" lon="16.817287">
        <ele>226.173869</ele>
        <time>2020-08-13T05:18:14.441Z</time>
      </trkpt>
      <trkpt lat="48.696645" lon="16.817132">
        <ele>226.107563</ele>
        <time>2020-08-13T05:18:16.434Z</time>
      </trkpt>
      <trkpt lat="48.696610" lon="16.816972">
        <ele>226.039339</ele>
        <time>2020-08-13T05:18:18.464Z</time>
      </trkpt>
      <trkpt lat="48.696580" lon="16.816807">
        <ele>225.970068</ele>
        <time>2020-08-13T05:18:20.444Z</time>
      </trkpt>
      <trkpt lat="48.696562" lon="16.816649">
        <ele>225.905172</ele>
        <time>2020-08-13T05:18:22.433Z</time>
      </trkpt>
      <trkpt lat="48.696550" lon="16.816491">
        <ele>225.840800</ele>
        <time>2020-08-13T05:18:24.457Z</time>
      </trkpt>
      <trkpt lat="48.696545" lon="16.816337">
        <ele>225.778393</ele>
        <time>2020-08-13T05:18:26.422Z</time>
      </trkpt>
      <trkpt lat="48.696537" lon="16.816184">
        <ele>225.716272</ele>
        <time>2020-08-13T05:18:28.437Z</time>
      </trkpt>
      <trkpt lat="48.696529" lon="16.816025">
        <ele>225.651730</ele>
        <time>2020-08-13T05:18:30.451Z</time>
      </trkpt>
      <trkpt lat="48.696523" lon="16.815869">
        <ele>225.588482</ele>
        <time>2020-08-13T05:18:32.438Z</time>
      </trkpt>
      <trkpt lat="48.696516" lon="16.815716">
        <ele>225.526407</ele>
        <time>2020-08-13T05:18:34.451Z</time>
      </trkpt>
      <trkpt lat="48.696511" lon="16.815564">
        <ele>225.464808</ele>
        <time>2020-08-13T05:18:36.451Z</time>
      </trkpt>
      <trkpt lat="48.696506" lon="16.815415">
        <ele>225.404423</ele>
        <time>2020-08-13T05:18:38.437Z</time>
      </trkpt>
      <trkpt lat="48.696501" lon="16.815264">
        <ele>225.343229</ele>
        <time>2020-08-13T05:18:40.445Z</time>
      </trkpt>
      <trkpt lat="48.696495" lon="16.815079">
        <ele>225.263349</ele>
        <time>2020-08-13T05:18:43.434Z</time>
      </trkpt>
      <trkpt lat="48.696497" lon="16.814895">
        <ele>225.163609</ele>
        <time>2020-08-13T05:18:46.432Z</time>
      </trkpt>
      <trkpt lat="48.696497" lon="16.814700">
        <ele>225.057919</ele>
        <time>2020-08-13T05:18:49.441Z</time>
      </trkpt>
      <trkpt lat="48.696506" lon="16.814503">
        <ele>224.950891</ele>
        <time>2020-08-13T05:18:52.431Z</time>
      </trkpt>
      <trkpt lat="48.696512" lon="16.814299">
        <ele>224.840214</ele>
        <time>2020-08-13T05:18:55.415Z</time>
      </trkpt>
      <trkpt lat="48.696528" lon="16.814165">
        <ele>224.766407</ele>
        <time>2020-08-13T05:18:57.441Z</time>
      </trkpt>
      <trkpt lat="48.696543" lon="16.813968">
        <ele>224.658926</ele>
        <time>2020-08-13T05:19:00.430Z</time>
      </trkpt>
      <trkpt lat="48.696555" lon="16.813770">
        <ele>224.551160</ele>
        <time>2020-08-13T05:19:03.419Z</time>
      </trkpt>
      <trkpt lat="48.696572" lon="16.813631">
        <ele>224.474540</ele>
        <time>2020-08-13T05:19:05.423Z</time>
      </trkpt>
      <trkpt lat="48.696585" lon="16.813495">
        <ele>224.400059</ele>
        <time>2020-08-13T05:19:07.416Z</time>
      </trkpt>
      <trkpt lat="48.696610" lon="16.813293">
        <ele>224.288668</ele>
        <time>2020-08-13T05:19:10.437Z</time>
      </trkpt>
      <trkpt lat="48.696628" lon="16.813157">
        <ele>224.213490</ele>
        <time>2020-08-13T05:19:12.451Z</time>
      </trkpt>
      <trkpt lat="48.696647" lon="16.812956">
        <ele>224.103437</ele>
        <time>2020-08-13T05:19:15.426Z</time>
      </trkpt>
      <trkpt lat="48.696659" lon="16.812821">
        <ele>224.029608</ele>
        <time>2020-08-13T05:19:17.433Z</time>
      </trkpt>
      <trkpt lat="48.696674" lon="16.812622">
        <ele>223.921050</ele>
        <time>2020-08-13T05:19:20.425Z</time>
      </trkpt>
      <trkpt lat="48.696685" lon="16.812487">
        <ele>223.847325</ele>
        <time>2020-08-13T05:19:22.418Z</time>
      </trkpt>
      <trkpt lat="48.696702" lon="16.812352">
        <ele>223.782306</ele>
        <time>2020-08-13T05:19:24.471Z</time>
      </trkpt>
      <trkpt lat="48.696718" lon="16.812217">
        <ele>223.729332</ele>
        <time>2020-08-13T05:19:26.412Z</time>
      </trkpt>
      <trkpt lat="48.696745" lon="16.812018">
        <ele>223.650865</ele>
        <time>2020-08-13T05:19:29.452Z</time>
      </trkpt>
      <trkpt lat="48.696760" lon="16.811878">
        <ele>223.596085</ele>
        <time>2020-08-13T05:19:31.448Z</time>
      </trkpt>
      <trkpt lat="48.696772" lon="16.811736">
        <ele>223.540793</ele>
        <time>2020-08-13T05:19:33.436Z</time>
      </trkpt>
      <trkpt lat="48.696787" lon="16.811595">
        <ele>223.485632</ele>
        <time>2020-08-13T05:19:35.435Z</time>
      </trkpt>
      <trkpt lat="48.696801" lon="16.811453">
        <ele>223.430179</ele>
        <time>2020-08-13T05:19:37.439Z</time>
      </trkpt>
      <trkpt lat="48.696819" lon="16.811318">
        <ele>223.376985</ele>
        <time>2020-08-13T05:19:39.450Z</time>
      </trkpt>
      <trkpt lat="48.696835" lon="16.811180">
        <ele>223.322869</ele>
        <time>2020-08-13T05:19:41.438Z</time>
      </trkpt>
      <trkpt lat="48.696845" lon="16.811037">
        <ele>223.267330</ele>
        <time>2020-08-13T05:19:43.434Z</time>
      </trkpt>
      <trkpt lat="48.696854" lon="16.810894">
        <ele>223.211848</ele>
        <time>2020-08-13T05:19:45.414Z</time>
      </trkpt>
      <trkpt lat="48.696860" lon="16.810757">
        <ele>223.158819</ele>
        <time>2020-08-13T05:19:47.415Z</time>
      </trkpt>
      <trkpt lat="48.696872" lon="16.810612">
        <ele>223.102377</ele>
        <time>2020-08-13T05:19:49.445Z</time>
      </trkpt>
      <trkpt lat="48.696886" lon="16.810471">
        <ele>223.047306</ele>
        <time>2020-08-13T05:19:51.439Z</time>
      </trkpt>
      <trkpt lat="48.696896" lon="16.810332">
        <ele>222.993303</ele>
        <time>2020-08-13T05:19:53.432Z</time>
      </trkpt>
      <trkpt lat="48.696896" lon="16.810190">
        <ele>222.938458</ele>
        <time>2020-08-13T05:19:55.420Z</time>
      </trkpt>
      <trkpt lat="48.696885" lon="16.810052">
        <ele>222.884772</ele>
        <time>2020-08-13T05:19:57.424Z</time>
      </trkpt>
      <trkpt lat="48.696864" lon="16.809856">
        <ele>222.808080</ele>
        <time>2020-08-13T05:20:00.431Z</time>
      </trkpt>
      <trkpt lat="48.696844" lon="16.809722">
        <ele>222.755019</ele>
        <time>2020-08-13T05:20:02.447Z</time>
      </trkpt>
      <trkpt lat="48.696811" lon="16.809526">
        <ele>222.703624</ele>
        <time>2020-08-13T05:20:05.432Z</time>
      </trkpt>
      <trkpt lat="48.696771" lon="16.809338">
        <ele>222.654023</ele>
        <time>2020-08-13T05:20:08.429Z</time>
      </trkpt>
      <trkpt lat="48.696717" lon="16.809150">
        <ele>222.602537</ele>
        <time>2020-08-13T05:20:11.421Z</time>
      </trkpt>
      <trkpt lat="48.696673" lon="16.809027">
        <ele>222.567406</ele>
        <time>2020-08-13T05:20:13.415Z</time>
      </trkpt>
      <trkpt lat="48.696623" lon="16.808902">
        <ele>222.530703</ele>
        <time>2020-08-13T05:20:15.457Z</time>
      </trkpt>
      <trkpt lat="48.696560" lon="16.808787">
        <ele>222.493174</ele>
        <time>2020-08-13T05:20:17.443Z</time>
      </trkpt>
      <trkpt lat="48.696497" lon="16.808684">
        <ele>222.457911</ele>
        <time>2020-08-13T05:20:19.437Z</time>
      </trkpt>
      <trkpt lat="48.696404" lon="16.808535">
        <ele>222.406415</ele>
        <time>2020-08-13T05:20:22.438Z</time>
      </trkpt>
      <trkpt lat="48.696310" lon="16.808395">
        <ele>222.356267</ele>
        <time>2020-08-13T05:20:25.426Z</time>
      </trkpt>
      <trkpt lat="48.696215" lon="16.808253">
        <ele>222.305495</ele>
        <time>2020-08-13T05:20:28.417Z</time>
      </trkpt>
      <trkpt lat="48.696124" lon="16.808118">
        <ele>222.257040</ele>
        <time>2020-08-13T05:20:31.466Z</time>
      </trkpt>
      <trkpt lat="48.696036" lon="16.807995">
        <ele>222.211489</ele>
        <time>2020-08-13T05:20:34.424Z</time>
      </trkpt>
      <trkpt lat="48.695949" lon="16.807878">
        <ele>222.167231</ele>
        <time>2020-08-13T05:20:37.451Z</time>
      </trkpt>
      <trkpt lat="48.695867" lon="16.807755">
        <ele>222.123330</ele>
        <time>2020-08-13T05:20:40.452Z</time>
      </trkpt>
      <trkpt lat="48.695775" lon="16.807619">
        <ele>222.074428</ele>
        <time>2020-08-13T05:20:43.431Z</time>
      </trkpt>
      <trkpt lat="48.695677" lon="16.807487">
        <ele>222.047354</ele>
        <time>2020-08-13T05:20:46.442Z</time>
      </trkpt>
      <trkpt lat="48.695610" lon="16.807392">
        <ele>222.030353</ele>
        <time>2020-08-13T05:20:48.432Z</time>
      </trkpt>
      <trkpt lat="48.695546" lon="16.807296">
        <ele>222.013667</ele>
        <time>2020-08-13T05:20:50.433Z</time>
      </trkpt>
      <trkpt lat="48.695459" lon="16.807151">
        <ele>221.989703</ele>
        <time>2020-08-13T05:20:53.434Z</time>
      </trkpt>
      <trkpt lat="48.695395" lon="16.807044">
        <ele>221.972045</ele>
        <time>2020-08-13T05:20:55.424Z</time>
      </trkpt>
      <trkpt lat="48.695330" lon="16.806925">
        <ele>221.953155</ele>
        <time>2020-08-13T05:20:57.442Z</time>
      </trkpt>
      <trkpt lat="48.695269" lon="16.806798">
        <ele>221.933948</ele>
        <time>2020-08-13T05:20:59.427Z</time>
      </trkpt>
      <trkpt lat="48.695206" lon="16.806656">
        <ele>221.913024</ele>
        <time>2020-08-13T05:21:01.436Z</time>
      </trkpt>
      <trkpt lat="48.695149" lon="16.806510">
        <ele>221.892280</ele>
        <time>2020-08-13T05:21:03.413Z</time>
      </trkpt>
      <trkpt lat="48.695104" lon="16.806365">
        <ele>221.872685</ele>
        <time>2020-08-13T05:21:05.433Z</time>
      </trkpt>
      <trkpt lat="48.695064" lon="16.806222">
        <ele>221.853692</ele>
        <time>2020-08-13T05:21:07.420Z</time>
      </trkpt>
      <trkpt lat="48.695027" lon="16.806079">
        <ele>221.834909</ele>
        <time>2020-08-13T05:21:09.437Z</time>
      </trkpt>
      <trkpt lat="48.694995" lon="16.805930">
        <ele>221.815747</ele>
        <time>2020-08-13T05:21:11.428Z</time>
      </trkpt>
      <trkpt lat="48.694963" lon="16.805783">
        <ele>221.796818</ele>
        <time>2020-08-13T05:21:13.421Z</time>
      </trkpt>
      <trkpt lat="48.694935" lon="16.805629">
        <ele>221.777283</ele>
        <time>2020-08-13T05:21:15.434Z</time>
      </trkpt>
      <trkpt lat="48.694921" lon="16.805469">
        <ele>221.757545</ele>
        <time>2020-08-13T05:21:17.418Z</time>
      </trkpt>
      <trkpt lat="48.694915" lon="16.805313">
        <ele>221.738435</ele>
        <time>2020-08-13T05:21:19.422Z</time>
      </trkpt>
      <trkpt lat="48.694915" lon="16.805159">
        <ele>221.717031</ele>
        <time>2020-08-13T05:21:21.417Z</time>
      </trkpt>
      <trkpt lat="48.694915" lon="16.805006">
        <ele>221.695344</ele>
        <time>2020-08-13T05:21:23.443Z</time>
      </trkpt>
      <trkpt lat="48.694921" lon="16.804854">
        <ele>221.673761</ele>
        <time>2020-08-13T05:21:25.436Z</time>
      </trkpt>
      <trkpt lat="48.694925" lon="16.804702">
        <ele>221.652200</ele>
        <time>2020-08-13T05:21:27.423Z</time>
      </trkpt>
      <trkpt lat="48.694928" lon="16.804545">
        <ele>221.629937</ele>
        <time>2020-08-13T05:21:29.448Z</time>
      </trkpt>
      <trkpt lat="48.694933" lon="16.804389">
        <ele>221.607800</ele>
        <time>2020-08-13T05:21:31.418Z</time>
      </trkpt>
      <trkpt lat="48.694940" lon="16.804237">
        <ele>221.586203</ele>
        <time>2020-08-13T05:21:33.439Z</time>
      </trkpt>
      <trkpt lat="48.694947" lon="16.804087">
        <ele>221.564889</ele>
        <time>2020-08-13T05:21:35.440Z</time>
      </trkpt>
      <trkpt lat="48.694957" lon="16.803932">
        <ele>221.542814</ele>
        <time>2020-08-13T05:21:37.433Z</time>
      </trkpt>
      <trkpt lat="48.694963" lon="16.803779">
        <ele>221.521090</ele>
        <time>2020-08-13T05:21:39.430Z</time>
      </trkpt>
      <trkpt lat="48.694981" lon="16.803628">
        <ele>221.499341</ele>
        <time>2020-08-13T05:21:41.447Z</time>
      </trkpt>
      <trkpt lat="48.694995" lon="16.803480">
        <ele>221.478149</ele>
        <time>2020-08-13T05:21:43.420Z</time>
      </trkpt>
      <trkpt lat="48.695005" lon="16.803326">
        <ele>221.456215</ele>
        <time>2020-08-13T05:21:45.417Z</time>
      </trkpt>
      <trkpt lat="48.695012" lon="16.803178">
        <ele>221.435184</ele>
        <time>2020-08-13T05:21:47.430Z</time>
      </trkpt>
      <trkpt lat="48.695020" lon="16.803030">
        <ele>221.414136</ele>
        <time>2020-08-13T05:21:49.438Z</time>
      </trkpt>
      <trkpt lat="48.695022" lon="16.802881">
        <ele>221.393013</ele>
        <time>2020-08-13T05:21:51.431Z</time>
      </trkpt>
      <trkpt lat="48.695020" lon="16.802737">
        <ele>221.372597</ele>
        <time>2020-08-13T05:21:53.436Z</time>
      </trkpt>
      <trkpt lat="48.695012" lon="16.802601">
        <ele>221.353244</ele>
        <time>2020-08-13T05:21:55.434Z</time>
      </trkpt>
      <trkpt lat="48.694987" lon="16.802406">
        <ele>221.341706</ele>
        <time>2020-08-13T05:21:58.463Z</time>
      </trkpt>
      <trkpt lat="48.694954" lon="16.802219">
        <ele>221.332916</ele>
        <time>2020-08-13T05:22:01.442Z</time>
      </trkpt>
      <trkpt lat="48.694914" lon="16.802046">
        <ele>221.324592</ele>
        <time>2020-08-13T05:22:04.425Z</time>
      </trkpt>
      <trkpt lat="48.694856" lon="16.801885">
        <ele>221.316263</ele>
        <time>2020-08-13T05:22:07.443Z</time>
      </trkpt>
      <trkpt lat="48.694778" lon="16.801731">
        <ele>221.307448</ele>
        <time>2020-08-13T05:22:10.455Z</time>
      </trkpt>
      <trkpt lat="48.694699" lon="16.801585">
        <ele>221.298875</ele>
        <time>2020-08-13T05:22:13.415Z</time>
      </trkpt>
      <trkpt lat="48.694619" lon="16.801440">
        <ele>221.290294</ele>
        <time>2020-08-13T05:22:16.438Z</time>
      </trkpt>
      <trkpt lat="48.694533" lon="16.801285">
        <ele>221.281099</ele>
        <time>2020-08-13T05:22:19.427Z</time>
      </trkpt>
      <trkpt lat="48.694443" lon="16.801154">
        <ele>221.272513</ele>
        <time>2020-08-13T05:22:22.454Z</time>
      </trkpt>
      <trkpt lat="48.694344" lon="16.801034">
        <ele>221.263790</ele>
        <time>2020-08-13T05:22:25.427Z</time>
      </trkpt>
      <trkpt lat="48.694231" lon="16.800939">
        <ele>221.254900</ele>
        <time>2020-08-13T05:22:28.430Z</time>
      </trkpt>
      <trkpt lat="48.694117" lon="16.800844">
        <ele>221.245949</ele>
        <time>2020-08-13T05:22:31.421Z</time>
      </trkpt>
      <trkpt lat="48.694035" lon="16.800784">
        <ele>221.239684</ele>
        <time>2020-08-13T05:22:33.444Z</time>
      </trkpt>
      <trkpt lat="48.693947" lon="16.800746">
        <ele>221.233389</ele>
        <time>2020-08-13T05:22:35.420Z</time>
      </trkpt>
      <trkpt lat="48.693820" lon="16.800707">
        <ele>221.228356</ele>
        <time>2020-08-13T05:22:38.422Z</time>
      </trkpt>
      <trkpt lat="48.693731" lon="16.800680">
        <ele>221.240391</ele>
        <time>2020-08-13T05:22:40.440Z</time>
      </trkpt>
      <trkpt lat="48.693640" lon="16.800660">
        <ele>221.252583</ele>
        <time>2020-08-13T05:22:42.423Z</time>
      </trkpt>
      <trkpt lat="48.693510" lon="16.800616">
        <ele>221.270244</ele>
        <time>2020-08-13T05:22:45.418Z</time>
      </trkpt>
      <trkpt lat="48.693379" lon="16.800576">
        <ele>221.287963</ele>
        <time>2020-08-13T05:22:48.440Z</time>
      </trkpt>
      <trkpt lat="48.693290" lon="16.800549">
        <ele>221.299998</ele>
        <time>2020-08-13T05:22:50.432Z</time>
      </trkpt>
      <trkpt lat="48.693199" lon="16.800525">
        <ele>221.312245</ele>
        <time>2020-08-13T05:22:52.437Z</time>
      </trkpt>
      <trkpt lat="48.693109" lon="16.800502">
        <ele>221.324347</ele>
        <time>2020-08-13T05:22:54.444Z</time>
      </trkpt>
      <trkpt lat="48.692980" lon="16.800464">
        <ele>221.341771</ele>
        <time>2020-08-13T05:22:57.416Z</time>
      </trkpt>
      <trkpt lat="48.692855" lon="16.800417">
        <ele>221.358848</ele>
        <time>2020-08-13T05:23:00.448Z</time>
      </trkpt>
      <trkpt lat="48.692731" lon="16.800375">
        <ele>221.375695</ele>
        <time>2020-08-13T05:23:03.420Z</time>
      </trkpt>
      <trkpt lat="48.692610" lon="16.800327">
        <ele>221.392279</ele>
        <time>2020-08-13T05:23:06.424Z</time>
      </trkpt>
      <trkpt lat="48.692484" lon="16.800279">
        <ele>221.409506</ele>
        <time>2020-08-13T05:23:09.452Z</time>
      </trkpt>
      <trkpt lat="48.692392" lon="16.800244">
        <ele>221.422083</ele>
        <time>2020-08-13T05:23:11.422Z</time>
      </trkpt>
      <trkpt lat="48.692292" lon="16.800218">
        <ele>221.435536</ele>
        <time>2020-08-13T05:23:13.438Z</time>
      </trkpt>
      <trkpt lat="48.692190" lon="16.800192">
        <ele>221.449250</ele>
        <time>2020-08-13T05:23:15.431Z</time>
      </trkpt>
      <trkpt lat="48.692086" lon="16.800155">
        <ele>221.463415</ele>
        <time>2020-08-13T05:23:17.446Z</time>
      </trkpt>
      <trkpt lat="48.691984" lon="16.800119">
        <ele>221.468827</ele>
        <time>2020-08-13T05:23:19.417Z</time>
      </trkpt>
      <trkpt lat="48.691885" lon="16.800084">
        <ele>221.473532</ele>
        <time>2020-08-13T05:23:21.429Z</time>
      </trkpt>
      <trkpt lat="48.691789" lon="16.800047">
        <ele>221.478116</ele>
        <time>2020-08-13T05:23:23.426Z</time>
      </trkpt>
      <trkpt lat="48.691693" lon="16.800015">
        <ele>221.482665</ele>
        <time>2020-08-13T05:23:25.423Z</time>
      </trkpt>
      <trkpt lat="48.691597" lon="16.800001">
        <ele>221.487129</ele>
        <time>2020-08-13T05:23:27.434Z</time>
      </trkpt>
      <trkpt lat="48.691504" lon="16.799977">
        <ele>221.491495</ele>
        <time>2020-08-13T05:23:29.430Z</time>
      </trkpt>
      <trkpt lat="48.691416" lon="16.799947">
        <ele>221.495669</ele>
        <time>2020-08-13T05:23:31.449Z</time>
      </trkpt>
      <trkpt lat="48.691287" lon="16.799913">
        <ele>221.501729</ele>
        <time>2020-08-13T05:23:34.425Z</time>
      </trkpt>
      <trkpt lat="48.691161" lon="16.799882">
        <ele>221.507637</ele>
        <time>2020-08-13T05:23:37.430Z</time>
      </trkpt>
      <trkpt lat="48.691034" lon="16.799850">
        <ele>221.513595</ele>
        <time>2020-08-13T05:23:40.456Z</time>
      </trkpt>
      <trkpt lat="48.690908" lon="16.799821">
        <ele>221.519494</ele>
        <time>2020-08-13T05:23:43.426Z</time>
      </trkpt>
      <trkpt lat="48.690779" lon="16.799783">
        <ele>221.525576</ele>
        <time>2020-08-13T05:23:46.450Z</time>
      </trkpt>
      <trkpt lat="48.690651" lon="16.799742">
        <ele>221.531631</ele>
        <time>2020-08-13T05:23:49.415Z</time>
      </trkpt>
      <trkpt lat="48.690535" lon="16.799709">
        <ele>221.537093</ele>
        <time>2020-08-13T05:23:52.442Z</time>
      </trkpt>
      <trkpt lat="48.690435" lon="16.799684">
        <ele>221.541784</ele>
        <time>2020-08-13T05:23:55.459Z</time>
      </trkpt>
      <trkpt lat="48.690346" lon="16.799655">
        <ele>221.545997</ele>
        <time>2020-08-13T05:24:00.423Z</time>
      </trkpt>
      <trkpt lat="48.690295" lon="16.799523">
        <ele>221.545867</ele>
        <time>2020-08-13T05:24:05.424Z</time>
      </trkpt>
      <trkpt lat="48.690318" lon="16.799338">
        <ele>221.542835</ele>
        <time>2020-08-13T05:24:08.410Z</time>
      </trkpt>
      <trkpt lat="48.690355" lon="16.799152">
        <ele>221.539705</ele>
        <time>2020-08-13T05:24:11.415Z</time>
      </trkpt>
      <trkpt lat="48.690386" lon="16.798968">
        <ele>221.536647</ele>
        <time>2020-08-13T05:24:14.428Z</time>
      </trkpt>
      <trkpt lat="48.690417" lon="16.798772">
        <ele>221.533400</ele>
        <time>2020-08-13T05:24:17.425Z</time>
      </trkpt>
      <trkpt lat="48.690446" lon="16.798642">
        <ele>221.531190</ele>
        <time>2020-08-13T05:24:19.430Z</time>
      </trkpt>
      <trkpt lat="48.690507" lon="16.798460">
        <ele>221.527902</ele>
        <time>2020-08-13T05:24:22.442Z</time>
      </trkpt>
      <trkpt lat="48.690581" lon="16.798297">
        <ele>221.524715</ele>
        <time>2020-08-13T05:24:25.409Z</time>
      </trkpt>
      <trkpt lat="48.690664" lon="16.798151">
        <ele>221.521612</ele>
        <time>2020-08-13T05:24:28.440Z</time>
      </trkpt>
      <trkpt lat="48.690731" lon="16.798060">
        <ele>221.519416</ele>
        <time>2020-08-13T05:24:30.456Z</time>
      </trkpt>
      <trkpt lat="48.690802" lon="16.797969">
        <ele>221.517147</ele>
        <time>2020-08-13T05:24:32.442Z</time>
      </trkpt>
      <trkpt lat="48.690868" lon="16.797872">
        <ele>221.514903</ele>
        <time>2020-08-13T05:24:34.442Z</time>
      </trkpt>
      <trkpt lat="48.690957" lon="16.797722">
        <ele>221.511654</ele>
        <time>2020-08-13T05:24:37.430Z</time>
      </trkpt>
      <trkpt lat="48.691043" lon="16.797576">
        <ele>221.508502</ele>
        <time>2020-08-13T05:24:40.422Z</time>
      </trkpt>
      <trkpt lat="48.691125" lon="16.797432">
        <ele>221.505439</ele>
        <time>2020-08-13T05:24:43.449Z</time>
      </trkpt>
      <trkpt lat="48.691208" lon="16.797287">
        <ele>221.504779</ele>
        <time>2020-08-13T05:24:46.442Z</time>
      </trkpt>
      <trkpt lat="48.691299" lon="16.797142">
        <ele>221.507639</ele>
        <time>2020-08-13T05:24:49.434Z</time>
      </trkpt>
      <trkpt lat="48.691361" lon="16.797043">
        <ele>221.509589</ele>
        <time>2020-08-13T05:24:51.459Z</time>
      </trkpt>
      <trkpt lat="48.691426" lon="16.796945">
        <ele>221.511574</ele>
        <time>2020-08-13T05:24:53.439Z</time>
      </trkpt>
      <trkpt lat="48.691523" lon="16.796806">
        <ele>221.514465</ele>
        <time>2020-08-13T05:24:56.434Z</time>
      </trkpt>
      <trkpt lat="48.691617" lon="16.796665">
        <ele>221.517328</ele>
        <time>2020-08-13T05:24:59.439Z</time>
      </trkpt>
      <trkpt lat="48.691705" lon="16.796519">
        <ele>221.520154</ele>
        <time>2020-08-13T05:25:02.427Z</time>
      </trkpt>
      <trkpt lat="48.691790" lon="16.796369">
        <ele>221.522979</ele>
        <time>2020-08-13T05:25:05.431Z</time>
      </trkpt>
      <trkpt lat="48.691878" lon="16.796220">
        <ele>221.525836</ele>
        <time>2020-08-13T05:25:08.428Z</time>
      </trkpt>
      <trkpt lat="48.691975" lon="16.796082">
        <ele>221.528717</ele>
        <time>2020-08-13T05:25:11.438Z</time>
      </trkpt>
      <trkpt lat="48.692077" lon="16.795955">
        <ele>221.531575</ele>
        <time>2020-08-13T05:25:14.445Z</time>
      </trkpt>
      <trkpt lat="48.692182" lon="16.795835">
        <ele>221.534423</ele>
        <time>2020-08-13T05:25:17.432Z</time>
      </trkpt>
      <trkpt lat="48.692284" lon="16.795723">
        <ele>221.537150</ele>
        <time>2020-08-13T05:25:20.444Z</time>
      </trkpt>
      <trkpt lat="48.692388" lon="16.795605">
        <ele>221.539963</ele>
        <time>2020-08-13T05:25:23.423Z</time>
      </trkpt>
      <trkpt lat="48.692490" lon="16.795494">
        <ele>221.543572</ele>
        <time>2020-08-13T05:25:26.422Z</time>
      </trkpt>
      <trkpt lat="48.692594" lon="16.795377">
        <ele>221.569734</ele>
        <time>2020-08-13T05:25:29.422Z</time>
      </trkpt>
      <trkpt lat="48.692694" lon="16.795269">
        <ele>221.594537</ele>
        <time>2020-08-13T05:25:32.431Z</time>
      </trkpt>
      <trkpt lat="48.692780" lon="16.795173">
        <ele>221.616112</ele>
        <time>2020-08-13T05:25:35.421Z</time>
      </trkpt>
      <trkpt lat="48.692872" lon="16.795069">
        <ele>221.639296</ele>
        <time>2020-08-13T05:25:38.426Z</time>
      </trkpt>
      <trkpt lat="48.692950" lon="16.794971">
        <ele>221.659762</ele>
        <time>2020-08-13T05:25:41.420Z</time>
      </trkpt>
      <trkpt lat="48.692959" lon="16.794832">
        <ele>221.678382</ele>
        <time>2020-08-13T05:25:46.437Z</time>
      </trkpt>
      <trkpt lat="48.692866" lon="16.794789">
        <ele>221.698020</ele>
        <time>2020-08-13T05:25:49.425Z</time>
      </trkpt>
      <trkpt lat="48.692763" lon="16.794752">
        <ele>221.719399</ele>
        <time>2020-08-13T05:25:52.430Z</time>
      </trkpt>
      <trkpt lat="48.692649" lon="16.794715">
        <ele>221.742945</ele>
        <time>2020-08-13T05:25:55.418Z</time>
      </trkpt>
      <trkpt lat="48.692527" lon="16.794673">
        <ele>221.768213</ele>
        <time>2020-08-13T05:25:58.432Z</time>
      </trkpt>
      <trkpt lat="48.692406" lon="16.794609">
        <ele>221.794097</ele>
        <time>2020-08-13T05:26:01.412Z</time>
      </trkpt>
      <trkpt lat="48.692284" lon="16.794534">
        <ele>221.820688</ele>
        <time>2020-08-13T05:26:04.409Z</time>
      </trkpt>
      <trkpt lat="48.692163" lon="16.794452">
        <ele>221.847460</ele>
        <time>2020-08-13T05:26:07.422Z</time>
      </trkpt>
      <trkpt lat="48.692050" lon="16.794355">
        <ele>221.873691</ele>
        <time>2020-08-13T05:26:10.435Z</time>
      </trkpt>
      <trkpt lat="48.691943" lon="16.794244">
        <ele>221.899882</ele>
        <time>2020-08-13T05:26:13.422Z</time>
      </trkpt>
      <trkpt lat="48.691838" lon="16.794125">
        <ele>221.938572</ele>
        <time>2020-08-13T05:26:16.433Z</time>
      </trkpt>
      <trkpt lat="48.691731" lon="16.793996">
        <ele>221.982610</ele>
        <time>2020-08-13T05:26:19.418Z</time>
      </trkpt>
      <trkpt lat="48.691663" lon="16.793893">
        <ele>222.013577</ele>
        <time>2020-08-13T05:26:21.438Z</time>
      </trkpt>
      <trkpt lat="48.691594" lon="16.793790">
        <ele>222.044772</ele>
        <time>2020-08-13T05:26:23.441Z</time>
      </trkpt>
      <trkpt lat="48.691525" lon="16.793681">
        <ele>222.076876</ele>
        <time>2020-08-13T05:26:25.434Z</time>
      </trkpt>
      <trkpt lat="48.691456" lon="16.793571">
        <ele>222.109133</ele>
        <time>2020-08-13T05:26:27.430Z</time>
      </trkpt>
      <trkpt lat="48.691388" lon="16.793459">
        <ele>222.141481</ele>
        <time>2020-08-13T05:26:29.429Z</time>
      </trkpt>
      <trkpt lat="48.691324" lon="16.793342">
        <ele>222.173783</ele>
        <time>2020-08-13T05:26:31.437Z</time>
      </trkpt>
      <trkpt lat="48.691264" lon="16.793224">
        <ele>222.205446</ele>
        <time>2020-08-13T05:26:33.456Z</time>
      </trkpt>
      <trkpt lat="48.691204" lon="16.793108">
        <ele>222.236774</ele>
        <time>2020-08-13T05:26:35.456Z</time>
      </trkpt>
      <trkpt lat="48.691140" lon="16.792995">
        <ele>222.268426</ele>
        <time>2020-08-13T05:26:37.463Z</time>
      </trkpt>
      <trkpt lat="48.691074" lon="16.792882">
        <ele>222.300500</ele>
        <time>2020-08-13T05:26:39.439Z</time>
      </trkpt>
      <trkpt lat="48.691009" lon="16.792764">
        <ele>222.333171</ele>
        <time>2020-08-13T05:26:41.415Z</time>
      </trkpt>
      <trkpt lat="48.690946" lon="16.792640">
        <ele>222.366435</ele>
        <time>2020-08-13T05:26:43.427Z</time>
      </trkpt>
      <trkpt lat="48.690882" lon="16.792515">
        <ele>222.400064</ele>
        <time>2020-08-13T05:26:45.419Z</time>
      </trkpt>
      <trkpt lat="48.690813" lon="16.792390">
        <ele>222.434703</ele>
        <time>2020-08-13T05:26:47.434Z</time>
      </trkpt>
      <trkpt lat="48.690744" lon="16.792271">
        <ele>222.468373</ele>
        <time>2020-08-13T05:26:49.455Z</time>
      </trkpt>
      <trkpt lat="48.690677" lon="16.792145">
        <ele>222.502952</ele>
        <time>2020-08-13T05:26:51.436Z</time>
      </trkpt>
      <trkpt lat="48.690610" lon="16.792014">
        <ele>222.538548</ele>
        <time>2020-08-13T05:26:53.429Z</time>
      </trkpt>
      <trkpt lat="48.690544" lon="16.791883">
        <ele>222.573946</ele>
        <time>2020-08-13T05:26:55.446Z</time>
      </trkpt>
      <trkpt lat="48.690476" lon="16.791751">
        <ele>222.609911</ele>
        <time>2020-08-13T05:26:57.441Z</time>
      </trkpt>
      <trkpt lat="48.690407" lon="16.791625">
        <ele>222.645076</ele>
        <time>2020-08-13T05:26:59.428Z</time>
      </trkpt>
      <trkpt lat="48.690335" lon="16.791497">
        <ele>222.681198</ele>
        <time>2020-08-13T05:27:01.434Z</time>
      </trkpt>
      <trkpt lat="48.690264" lon="16.791366">
        <ele>222.717606</ele>
        <time>2020-08-13T05:27:03.439Z</time>
      </trkpt>
      <trkpt lat="48.690194" lon="16.791236">
        <ele>222.753641</ele>
        <time>2020-08-13T05:27:05.430Z</time>
      </trkpt>
      <trkpt lat="48.690124" lon="16.791112">
        <ele>222.788687</ele>
        <time>2020-08-13T05:27:07.441Z</time>
      </trkpt>
      <trkpt lat="48.690054" lon="16.790990">
        <ele>222.823408</ele>
        <time>2020-08-13T05:27:09.448Z</time>
      </trkpt>
      <trkpt lat="48.689987" lon="16.790866">
        <ele>222.857828</ele>
        <time>2020-08-13T05:27:11.445Z</time>
      </trkpt>
      <trkpt lat="48.689918" lon="16.790739">
        <ele>222.893159</ele>
        <time>2020-08-13T05:27:13.449Z</time>
      </trkpt>
      <trkpt lat="48.689852" lon="16.790610">
        <ele>222.928216</ele>
        <time>2020-08-13T05:27:15.434Z</time>
      </trkpt>
      <trkpt lat="48.689786" lon="16.790484">
        <ele>222.962767</ele>
        <time>2020-08-13T05:27:17.427Z</time>
      </trkpt>
      <trkpt lat="48.689721" lon="16.790359">
        <ele>222.996947</ele>
        <time>2020-08-13T05:27:19.425Z</time>
      </trkpt>
      <trkpt lat="48.689654" lon="16.790235">
        <ele>223.031367</ele>
        <time>2020-08-13T05:27:21.439Z</time>
      </trkpt>
      <trkpt lat="48.689586" lon="16.790111">
        <ele>223.065994</ele>
        <time>2020-08-13T05:27:23.449Z</time>
      </trkpt>
      <trkpt lat="48.689516" lon="16.789983">
        <ele>223.090766</ele>
        <time>2020-08-13T05:27:25.412Z</time>
      </trkpt>
      <trkpt lat="48.689446" lon="16.789857">
        <ele>223.113816</ele>
        <time>2020-08-13T05:27:27.422Z</time>
      </trkpt>
      <trkpt lat="48.689376" lon="16.789733">
        <ele>223.136652</ele>
        <time>2020-08-13T05:27:29.426Z</time>
      </trkpt>
      <trkpt lat="48.689307" lon="16.789609">
        <ele>223.159351</ele>
        <time>2020-08-13T05:27:31.416Z</time>
      </trkpt>
      <trkpt lat="48.689239" lon="16.789483">
        <ele>223.182130</ele>
        <time>2020-08-13T05:27:33.437Z</time>
      </trkpt>
      <trkpt lat="48.689170" lon="16.789360">
        <ele>223.204723</ele>
        <time>2020-08-13T05:27:35.449Z</time>
      </trkpt>
      <trkpt lat="48.689103" lon="16.789238">
        <ele>223.226935</ele>
        <time>2020-08-13T05:27:37.426Z</time>
      </trkpt>
      <trkpt lat="48.689038" lon="16.789111">
        <ele>223.249427</ele>
        <time>2020-08-13T05:27:39.440Z</time>
      </trkpt>
      <trkpt lat="48.688972" lon="16.788985">
        <ele>223.271940</ele>
        <time>2020-08-13T05:27:41.434Z</time>
      </trkpt>
      <trkpt lat="48.688907" lon="16.788856">
        <ele>223.294655</ele>
        <time>2020-08-13T05:27:43.435Z</time>
      </trkpt>
      <trkpt lat="48.688841" lon="16.788729">
        <ele>223.317277</ele>
        <time>2020-08-13T05:27:45.415Z</time>
      </trkpt>
      <trkpt lat="48.688774" lon="16.788604">
        <ele>223.339814</ele>
        <time>2020-08-13T05:27:47.460Z</time>
      </trkpt>
      <trkpt lat="48.688710" lon="16.788482">
        <ele>223.361625</ele>
        <time>2020-08-13T05:27:49.423Z</time>
      </trkpt>
      <trkpt lat="48.688647" lon="16.788364">
        <ele>223.382867</ele>
        <time>2020-08-13T05:27:51.430Z</time>
      </trkpt>
      <trkpt lat="48.688584" lon="16.788248">
        <ele>223.403892</ele>
        <time>2020-08-13T05:27:53.410Z</time>
      </trkpt>
      <trkpt lat="48.688525" lon="16.788137">
        <ele>223.423838</ele>
        <time>2020-08-13T05:27:55.440Z</time>
      </trkpt>
      <trkpt lat="48.688447" lon="16.787990">
        <ele>223.450236</ele>
        <time>2020-08-13T05:27:58.440Z</time>
      </trkpt>
      <trkpt lat="48.688531" lon="16.787886">
        <ele>223.465483</ele>
        <time>2020-08-13T05:28:05.461Z</time>
      </trkpt>
      <trkpt lat="48.688630" lon="16.787858">
        <ele>223.479155</ele>
        <time>2020-08-13T05:28:09.432Z</time>
      </trkpt>
      <trkpt lat="48.688723" lon="16.787807">
        <ele>223.492583</ele>
        <time>2020-08-13T05:28:13.423Z</time>
      </trkpt>
      <trkpt lat="48.688836" lon="16.787786">
        <ele>223.508039</ele>
        <time>2020-08-13T05:28:17.451Z</time>
      </trkpt>
      <trkpt lat="48.688930" lon="16.787782">
        <ele>223.520805</ele>
        <time>2020-08-13T05:28:20.430Z</time>
      </trkpt>
      <trkpt lat="48.689037" lon="16.787773">
        <ele>223.535354</ele>
        <time>2020-08-13T05:28:23.438Z</time>
      </trkpt>
      <trkpt lat="48.689151" lon="16.787753">
        <ele>223.550934</ele>
        <time>2020-08-13T05:28:26.434Z</time>
      </trkpt>
      <trkpt lat="48.689272" lon="16.787748">
        <ele>223.567367</ele>
        <time>2020-08-13T05:28:29.441Z</time>
      </trkpt>
      <trkpt lat="48.689396" lon="16.787748">
        <ele>223.584201</ele>
        <time>2020-08-13T05:28:32.431Z</time>
      </trkpt>
      <trkpt lat="48.689524" lon="16.787731">
        <ele>223.601645</ele>
        <time>2020-08-13T05:28:35.448Z</time>
      </trkpt>
      <trkpt lat="48.689654" lon="16.787694">
        <ele>223.619603</ele>
        <time>2020-08-13T05:28:38.425Z</time>
      </trkpt>
      <trkpt lat="48.689774" lon="16.787643">
        <ele>223.636523</ele>
        <time>2020-08-13T05:28:41.451Z</time>
      </trkpt>
      <trkpt lat="48.689884" lon="16.787583">
        <ele>223.652396</ele>
        <time>2020-08-13T05:28:44.451Z</time>
      </trkpt>
      <trkpt lat="48.689995" lon="16.787509">
        <ele>223.668860</ele>
        <time>2020-08-13T05:28:47.430Z</time>
      </trkpt>
      <trkpt lat="48.690108" lon="16.787447">
        <ele>223.685176</ele>
        <time>2020-08-13T05:28:50.445Z</time>
      </trkpt>
      <trkpt lat="48.690216" lon="16.787375">
        <ele>223.706458</ele>
        <time>2020-08-13T05:28:53.444Z</time>
      </trkpt>
      <trkpt lat="48.690318" lon="16.787302">
        <ele>223.736885</ele>
        <time>2020-08-13T05:28:56.437Z</time>
      </trkpt>
      <trkpt lat="48.690420" lon="16.787247">
        <ele>223.766086</ele>
        <time>2020-08-13T05:28:59.424Z</time>
      </trkpt>
      <trkpt lat="48.690518" lon="16.787198">
        <ele>223.793921</ele>
        <time>2020-08-13T05:29:02.449Z</time>
      </trkpt>
      <trkpt lat="48.690613" lon="16.787156">
        <ele>223.820612</ele>
        <time>2020-08-13T05:29:05.450Z</time>
      </trkpt>
      <trkpt lat="48.690711" lon="16.787102">
        <ele>223.848738</ele>
        <time>2020-08-13T05:29:08.433Z</time>
      </trkpt>
      <trkpt lat="48.690806" lon="16.787042">
        <ele>223.876499</ele>
        <time>2020-08-13T05:29:11.430Z</time>
      </trkpt>
      <trkpt lat="48.690901" lon="16.786978">
        <ele>223.904541</ele>
        <time>2020-08-13T05:29:14.450Z</time>
      </trkpt>
      <trkpt lat="48.691003" lon="16.786919">
        <ele>223.933989</ele>
        <time>2020-08-13T05:29:17.453Z</time>
      </trkpt>
      <trkpt lat="48.691107" lon="16.786874">
        <ele>223.963161</ele>
        <time>2020-08-13T05:29:20.435Z</time>
      </trkpt>
      <trkpt lat="48.691205" lon="16.786831">
        <ele>223.990679</ele>
        <time>2020-08-13T05:29:23.434Z</time>
      </trkpt>
      <trkpt lat="48.691298" lon="16.786797">
        <ele>224.016483</ele>
        <time>2020-08-13T05:29:26.419Z</time>
      </trkpt>
      <trkpt lat="48.691407" lon="16.786782">
        <ele>224.046003</ele>
        <time>2020-08-13T05:29:29.426Z</time>
      </trkpt>
      <trkpt lat="48.691520" lon="16.786754">
        <ele>224.076885</ele>
        <time>2020-08-13T05:29:32.469Z</time>
      </trkpt>
      <trkpt lat="48.691638" lon="16.786706">
        <ele>224.109839</ele>
        <time>2020-08-13T05:29:35.434Z</time>
      </trkpt>
      <trkpt lat="48.691753" lon="16.786641">
        <ele>224.142944</ele>
        <time>2020-08-13T05:29:38.442Z</time>
      </trkpt>
      <trkpt lat="48.691863" lon="16.786569">
        <ele>224.175264</ele>
        <time>2020-08-13T05:29:41.429Z</time>
      </trkpt>
      <trkpt lat="48.691971" lon="16.786481">
        <ele>224.211003</ele>
        <time>2020-08-13T05:29:44.439Z</time>
      </trkpt>
      <trkpt lat="48.692072" lon="16.786387">
        <ele>224.246088</ele>
        <time>2020-08-13T05:29:47.446Z</time>
      </trkpt>
      <trkpt lat="48.692171" lon="16.786294">
        <ele>224.280567</ele>
        <time>2020-08-13T05:29:50.433Z</time>
      </trkpt>
      <trkpt lat="48.692271" lon="16.786213">
        <ele>224.314130</ele>
        <time>2020-08-13T05:29:53.433Z</time>
      </trkpt>
      <trkpt lat="48.692365" lon="16.786133">
        <ele>224.346042</ele>
        <time>2020-08-13T05:29:56.432Z</time>
      </trkpt>
      <trkpt lat="48.692457" lon="16.786044">
        <ele>224.378350</ele>
        <time>2020-08-13T05:29:59.433Z</time>
      </trkpt>
      <trkpt lat="48.692552" lon="16.785943">
        <ele>224.412702</ele>
        <time>2020-08-13T05:30:02.435Z</time>
      </trkpt>
      <trkpt lat="48.692646" lon="16.785850">
        <ele>224.445931</ele>
        <time>2020-08-13T05:30:05.442Z</time>
      </trkpt>
      <trkpt lat="48.692742" lon="16.785778">
        <ele>224.477637</ele>
        <time>2020-08-13T05:30:08.444Z</time>
      </trkpt>
      <trkpt lat="48.692839" lon="16.785717">
        <ele>224.508722</ele>
        <time>2020-08-13T05:30:11.433Z</time>
      </trkpt>
      <trkpt lat="48.692938" lon="16.785655">
        <ele>224.540429</ele>
        <time>2020-08-13T05:30:14.442Z</time>
      </trkpt>
      <trkpt lat="48.693033" lon="16.785595">
        <ele>224.570893</ele>
        <time>2020-08-13T05:30:17.424Z</time>
      </trkpt>
      <trkpt lat="48.693134" lon="16.785559">
        <ele>224.601603</ele>
        <time>2020-08-13T05:30:20.425Z</time>
      </trkpt>
      <trkpt lat="48.693229" lon="16.785516">
        <ele>224.630950</ele>
        <time>2020-08-13T05:30:23.443Z</time>
      </trkpt>
      <trkpt lat="48.693320" lon="16.785465">
        <ele>224.659668</ele>
        <time>2020-08-13T05:30:26.428Z</time>
      </trkpt>
      <trkpt lat="48.693411" lon="16.785414">
        <ele>224.688386</ele>
        <time>2020-08-13T05:30:29.436Z</time>
      </trkpt>
      <trkpt lat="48.693499" lon="16.785366">
        <ele>224.722096</ele>
        <time>2020-08-13T05:30:32.458Z</time>
      </trkpt>
      <trkpt lat="48.693611" lon="16.785307">
        <ele>224.834732</ele>
        <time>2020-08-13T05:30:36.445Z</time>
      </trkpt>
      <trkpt lat="48.693717" lon="16.785244">
        <ele>224.942892</ele>
        <time>2020-08-13T05:30:40.450Z</time>
      </trkpt>
      <trkpt lat="48.693813" lon="16.785184">
        <ele>225.041538</ele>
        <time>2020-08-13T05:30:44.447Z</time>
      </trkpt>
      <trkpt lat="48.693902" lon="16.785124">
        <ele>225.134071</ele>
        <time>2020-08-13T05:30:48.429Z</time>
      </trkpt>
      <trkpt lat="48.694006" lon="16.785053">
        <ele>225.242427</ele>
        <time>2020-08-13T05:30:53.443Z</time>
      </trkpt>
      <trkpt lat="48.694086" lon="16.784981">
        <ele>225.330817</ele>
        <time>2020-08-13T05:30:57.446Z</time>
      </trkpt>
      <trkpt lat="48.694169" lon="16.784901">
        <ele>225.424262</ele>
        <time>2020-08-13T05:31:02.427Z</time>
      </trkpt>
      <trkpt lat="48.694257" lon="16.784832">
        <ele>225.518385</ele>
        <time>2020-08-13T05:31:07.423Z</time>
      </trkpt>
      <trkpt lat="48.694344" lon="16.784765">
        <ele>225.611091</ele>
        <time>2020-08-13T05:31:11.416Z</time>
      </trkpt>
      <trkpt lat="48.694453" lon="16.784719">
        <ele>225.718571</ele>
        <time>2020-08-13T05:31:15.442Z</time>
      </trkpt>
      <trkpt lat="48.694542" lon="16.784671">
        <ele>225.808309</ele>
        <time>2020-08-13T05:31:18.434Z</time>
      </trkpt>
      <trkpt lat="48.694640" lon="16.784626">
        <ele>225.905581</ele>
        <time>2020-08-13T05:31:21.451Z</time>
      </trkpt>
      <trkpt lat="48.694738" lon="16.784584">
        <ele>226.002324</ele>
        <time>2020-08-13T05:31:24.434Z</time>
      </trkpt>
      <trkpt lat="48.694844" lon="16.784546">
        <ele>226.105793</ele>
        <time>2020-08-13T05:31:27.451Z</time>
      </trkpt>
      <trkpt lat="48.694965" lon="16.784522">
        <ele>226.221711</ele>
        <time>2020-08-13T05:31:30.427Z</time>
      </trkpt>
      <trkpt lat="48.695055" lon="16.784499">
        <ele>226.308410</ele>
        <time>2020-08-13T05:31:32.439Z</time>
      </trkpt>
      <trkpt lat="48.695151" lon="16.784478">
        <ele>226.400545</ele>
        <time>2020-08-13T05:31:34.451Z</time>
      </trkpt>
      <trkpt lat="48.695257" lon="16.784470">
        <ele>226.461026</ele>
        <time>2020-08-13T05:31:36.441Z</time>
      </trkpt>
      <trkpt lat="48.695358" lon="16.784482">
        <ele>226.508434</ele>
        <time>2020-08-13T05:31:38.455Z</time>
      </trkpt>
      <trkpt lat="48.695465" lon="16.784508">
        <ele>226.559145</ele>
        <time>2020-08-13T05:31:40.430Z</time>
      </trkpt>
      <trkpt lat="48.695573" lon="16.784546">
        <ele>226.611029</ele>
        <time>2020-08-13T05:31:42.437Z</time>
      </trkpt>
      <trkpt lat="48.695689" lon="16.784604">
        <ele>226.668191</ele>
        <time>2020-08-13T05:31:44.435Z</time>
      </trkpt>
      <trkpt lat="48.695815" lon="16.784683">
        <ele>226.732003</ele>
        <time>2020-08-13T05:31:46.453Z</time>
      </trkpt>
      <trkpt lat="48.695955" lon="16.784751">
        <ele>226.800800</ele>
        <time>2020-08-13T05:31:48.422Z</time>
      </trkpt>
      <trkpt lat="48.696101" lon="16.784762">
        <ele>226.869206</ele>
        <time>2020-08-13T05:31:50.423Z</time>
      </trkpt>
      <trkpt lat="48.696238" lon="16.784689">
        <ele>226.937165</ele>
        <time>2020-08-13T05:31:52.443Z</time>
      </trkpt>
      <trkpt lat="48.696373" lon="16.784582">
        <ele>227.008461</ele>
        <time>2020-08-13T05:31:54.421Z</time>
      </trkpt>
      <trkpt lat="48.696498" lon="16.784460">
        <ele>227.078042</ele>
        <time>2020-08-13T05:31:56.442Z</time>
      </trkpt>
      <trkpt lat="48.696623" lon="16.784366">
        <ele>227.143345</ele>
        <time>2020-08-13T05:31:58.435Z</time>
      </trkpt>
      <trkpt lat="48.696753" lon="16.784315">
        <ele>227.206185</ele>
        <time>2020-08-13T05:32:00.441Z</time>
      </trkpt>
      <trkpt lat="48.696868" lon="16.784271">
        <ele>227.261689</ele>
        <time>2020-08-13T05:32:02.453Z</time>
      </trkpt>
      <trkpt lat="48.696942" lon="16.784153">
        <ele>227.299276</ele>
        <time>2020-08-13T05:32:04.428Z</time>
      </trkpt>
      <trkpt lat="48.696995" lon="16.784013">
        <ele>227.336063</ele>
        <time>2020-08-13T05:32:06.413Z</time>
      </trkpt>
      <trkpt lat="48.697031" lon="16.783858">
        <ele>227.373517</ele>
        <time>2020-08-13T05:32:08.416Z</time>
      </trkpt>
      <trkpt lat="48.697066" lon="16.783702">
        <ele>227.411073</ele>
        <time>2020-08-13T05:32:10.430Z</time>
      </trkpt>
      <trkpt lat="48.697100" lon="16.783556">
        <ele>227.446362</ele>
        <time>2020-08-13T05:32:12.432Z</time>
      </trkpt>
      <trkpt lat="48.697137" lon="16.783414">
        <ele>227.481160</ele>
        <time>2020-08-13T05:32:14.440Z</time>
      </trkpt>
      <trkpt lat="48.697175" lon="16.783274">
        <ele>227.515664</ele>
        <time>2020-08-13T05:32:16.439Z</time>
      </trkpt>
      <trkpt lat="48.697213" lon="16.783135">
        <ele>227.549957</ele>
        <time>2020-08-13T05:32:18.441Z</time>
      </trkpt>
      <trkpt lat="48.697250" lon="16.782994">
        <ele>227.584542</ele>
        <time>2020-08-13T05:32:20.432Z</time>
      </trkpt>
      <trkpt lat="48.697293" lon="16.782861">
        <ele>227.618299</ele>
        <time>2020-08-13T05:32:22.428Z</time>
      </trkpt>
      <trkpt lat="48.697343" lon="16.782730">
        <ele>227.652792</ele>
        <time>2020-08-13T05:32:24.424Z</time>
      </trkpt>
      <trkpt lat="48.697394" lon="16.782596">
        <ele>227.688049</ele>
        <time>2020-08-13T05:32:26.440Z</time>
      </trkpt>
      <trkpt lat="48.697441" lon="16.782464">
        <ele>227.722235</ele>
        <time>2020-08-13T05:32:28.437Z</time>
      </trkpt>
      <trkpt lat="48.697488" lon="16.782334">
        <ele>227.756021</ele>
        <time>2020-08-13T05:32:30.428Z</time>
      </trkpt>
      <trkpt lat="48.697534" lon="16.782215">
        <ele>227.787454</ele>
        <time>2020-08-13T05:32:32.423Z</time>
      </trkpt>
      <trkpt lat="48.697631" lon="16.782085">
        <ele>227.832177</ele>
        <time>2020-08-13T05:32:35.420Z</time>
      </trkpt>
      <trkpt lat="48.697729" lon="16.782165">
        <ele>227.870619</ele>
        <time>2020-08-13T05:32:38.421Z</time>
      </trkpt>
      <trkpt lat="48.697819" lon="16.782059">
        <ele>227.891837</ele>
        <time>2020-08-13T05:32:41.424Z</time>
      </trkpt>
      <trkpt lat="48.697871" lon="16.781947">
        <ele>227.900664</ele>
        <time>2020-08-13T05:32:43.416Z</time>
      </trkpt>
      <trkpt lat="48.697937" lon="16.781842">
        <ele>227.910012</ele>
        <time>2020-08-13T05:32:45.411Z</time>
      </trkpt>
      <trkpt lat="48.698029" lon="16.781782">
        <ele>227.919795</ele>
        <time>2020-08-13T05:32:47.429Z</time>
      </trkpt>
      <trkpt lat="48.698124" lon="16.781768">
        <ele>227.929118</ele>
        <time>2020-08-13T05:32:49.422Z</time>
      </trkpt>
      <trkpt lat="48.698213" lon="16.781780">
        <ele>227.937845</ele>
        <time>2020-08-13T05:32:51.423Z</time>
      </trkpt>
      <trkpt lat="48.698310" lon="16.781833">
        <ele>227.947916</ele>
        <time>2020-08-13T05:32:54.417Z</time>
      </trkpt>
      <trkpt lat="48.698451" lon="16.781923">
        <ele>227.962860</ele>
        <time>2020-08-13T05:33:33.419Z</time>
      </trkpt>
      <trkpt lat="48.698532" lon="16.781984">
        <ele>227.971695</ele>
        <time>2020-08-13T05:33:36.434Z</time>
      </trkpt>
      <trkpt lat="48.698637" lon="16.782020">
        <ele>227.982210</ele>
        <time>2020-08-13T05:33:39.419Z</time>
      </trkpt>
      <trkpt lat="48.698745" lon="16.782050">
        <ele>227.992934</ele>
        <time>2020-08-13T05:33:42.435Z</time>
      </trkpt>
      <trkpt lat="48.698854" lon="16.782071">
        <ele>228.003666</ele>
        <time>2020-08-13T05:33:45.415Z</time>
      </trkpt>
      <trkpt lat="48.698983" lon="16.782071">
        <ele>228.016266</ele>
        <time>2020-08-13T05:33:48.446Z</time>
      </trkpt>
      <trkpt lat="48.699110" lon="16.782120">
        <ele>228.029066</ele>
        <time>2020-08-13T05:33:51.450Z</time>
      </trkpt>
      <trkpt lat="48.699219" lon="16.782204">
        <ele>228.041011</ele>
        <time>2020-08-13T05:33:54.429Z</time>
      </trkpt>
      <trkpt lat="48.699327" lon="16.782264">
        <ele>228.052246</ele>
        <time>2020-08-13T05:33:57.426Z</time>
      </trkpt>
      <trkpt lat="48.699437" lon="16.782249">
        <ele>228.054395</ele>
        <time>2020-08-13T05:34:00.426Z</time>
      </trkpt>
      <trkpt lat="48.699514" lon="16.782105">
        <ele>228.027786</ele>
        <time>2020-08-13T05:34:03.420Z</time>
      </trkpt>
      <trkpt lat="48.699567" lon="16.781929">
        <ele>228.000011</ele>
        <time>2020-08-13T05:34:06.427Z</time>
      </trkpt>
      <trkpt lat="48.699622" lon="16.781752">
        <ele>227.971922</ele>
        <time>2020-08-13T05:34:09.432Z</time>
      </trkpt>
      <trkpt lat="48.699680" lon="16.781575">
        <ele>227.943549</ele>
        <time>2020-08-13T05:34:12.431Z</time>
      </trkpt>
      <trkpt lat="48.699740" lon="16.781398">
        <ele>227.914980</ele>
        <time>2020-08-13T05:34:15.449Z</time>
      </trkpt>
      <trkpt lat="48.699780" lon="16.781271">
        <ele>227.894776</ele>
        <time>2020-08-13T05:34:17.424Z</time>
      </trkpt>
      <trkpt lat="48.699819" lon="16.781147">
        <ele>227.875055</ele>
        <time>2020-08-13T05:34:19.442Z</time>
      </trkpt>
      <trkpt lat="48.699883" lon="16.780968">
        <ele>227.845826</ele>
        <time>2020-08-13T05:34:22.424Z</time>
      </trkpt>
      <trkpt lat="48.699944" lon="16.780795">
        <ele>227.817665</ele>
        <time>2020-08-13T05:34:25.443Z</time>
      </trkpt>
      <trkpt lat="48.699985" lon="16.780666">
        <ele>227.797108</ele>
        <time>2020-08-13T05:34:27.438Z</time>
      </trkpt>
      <trkpt lat="48.700040" lon="16.780500">
        <ele>227.770440</ele>
        <time>2020-08-13T05:34:30.446Z</time>
      </trkpt>
      <trkpt lat="48.700092" lon="16.780331">
        <ele>227.743668</ele>
        <time>2020-08-13T05:34:33.440Z</time>
      </trkpt>
      <trkpt lat="48.700144" lon="16.780156">
        <ele>227.716113</ele>
        <time>2020-08-13T05:34:36.434Z</time>
      </trkpt>
      <trkpt lat="48.700193" lon="16.779995">
        <ele>227.690659</ele>
        <time>2020-08-13T05:34:39.436Z</time>
      </trkpt>
      <trkpt lat="48.700226" lon="16.779833">
        <ele>227.672241</ele>
        <time>2020-08-13T05:34:42.434Z</time>
      </trkpt>
      <trkpt lat="48.700212" lon="16.779661">
        <ele>227.700643</ele>
        <time>2020-08-13T05:34:45.418Z</time>
      </trkpt>
      <trkpt lat="48.700180" lon="16.779482">
        <ele>227.731035</ele>
        <time>2020-08-13T05:34:48.434Z</time>
      </trkpt>
      <trkpt lat="48.700136" lon="16.779309">
        <ele>227.761419</ele>
        <time>2020-08-13T05:34:51.472Z</time>
      </trkpt>
      <trkpt lat="48.700093" lon="16.779156">
        <ele>227.788672</ele>
        <time>2020-08-13T05:34:54.436Z</time>
      </trkpt>
      <trkpt lat="48.700040" lon="16.779010">
        <ele>227.815980</ele>
        <time>2020-08-13T05:34:57.466Z</time>
      </trkpt>
      <trkpt lat="48.699991" lon="16.778864">
        <ele>227.842823</ele>
        <time>2020-08-13T05:35:00.429Z</time>
      </trkpt>
      <trkpt lat="48.699943" lon="16.778719">
        <ele>227.869408</ele>
        <time>2020-08-13T05:35:03.430Z</time>
      </trkpt>
      <trkpt lat="48.699885" lon="16.778587">
        <ele>227.895396</ele>
        <time>2020-08-13T05:35:06.424Z</time>
      </trkpt>
      <trkpt lat="48.699830" lon="16.778461">
        <ele>227.920153</ele>
        <time>2020-08-13T05:35:09.435Z</time>
      </trkpt>
      <trkpt lat="48.699777" lon="16.778334">
        <ele>227.944778</ele>
        <time>2020-08-13T05:35:12.450Z</time>
      </trkpt>
      <trkpt lat="48.699727" lon="16.778204">
        <ele>227.969437</ele>
        <time>2020-08-13T05:35:15.454Z</time>
      </trkpt>
      <trkpt lat="48.699700" lon="16.778038">
        <ele>227.997456</ele>
        <time>2020-08-13T05:35:18.422Z</time>
      </trkpt>
      <trkpt lat="48.699746" lon="16.777857">
        <ele>228.029242</ele>
        <time>2020-08-13T05:35:21.423Z</time>
      </trkpt>
      <trkpt lat="48.699838" lon="16.777723">
        <ele>228.060930</ele>
        <time>2020-08-13T05:35:24.430Z</time>
      </trkpt>
      <trkpt lat="48.699939" lon="16.777608">
        <ele>228.092302</ele>
        <time>2020-08-13T05:35:27.424Z</time>
      </trkpt>
      <trkpt lat="48.700027" lon="16.777481">
        <ele>228.121926</ele>
        <time>2020-08-13T05:35:30.418Z</time>
      </trkpt>
      <trkpt lat="48.700119" lon="16.777334">
        <ele>228.152415</ele>
        <time>2020-08-13T05:35:33.415Z</time>
      </trkpt>
      <trkpt lat="48.700171" lon="16.777221">
        <ele>228.173147</ele>
        <time>2020-08-13T05:35:35.447Z</time>
      </trkpt>
      <trkpt lat="48.700223" lon="16.777031">
        <ele>228.204104</ele>
        <time>2020-08-13T05:35:38.434Z</time>
      </trkpt>
      <trkpt lat="48.700247" lon="16.776890">
        <ele>228.226019</ele>
        <time>2020-08-13T05:35:40.423Z</time>
      </trkpt>
      <trkpt lat="48.700272" lon="16.776749">
        <ele>228.247992</ele>
        <time>2020-08-13T05:35:42.429Z</time>
      </trkpt>
      <trkpt lat="48.700306" lon="16.776608">
        <ele>228.270585</ele>
        <time>2020-08-13T05:35:44.425Z</time>
      </trkpt>
      <trkpt lat="48.700325" lon="16.776455">
        <ele>228.294016</ele>
        <time>2020-08-13T05:35:46.446Z</time>
      </trkpt>
      <trkpt lat="48.700338" lon="16.776309">
        <ele>228.316188</ele>
        <time>2020-08-13T05:35:48.436Z</time>
      </trkpt>
      <trkpt lat="48.700348" lon="16.776166">
        <ele>228.337830</ele>
        <time>2020-08-13T05:35:50.449Z</time>
      </trkpt>
      <trkpt lat="48.700348" lon="16.776026">
        <ele>228.358900</ele>
        <time>2020-08-13T05:35:52.417Z</time>
      </trkpt>
      <trkpt lat="48.700346" lon="16.775884">
        <ele>228.380277</ele>
        <time>2020-08-13T05:35:54.450Z</time>
      </trkpt>
      <trkpt lat="48.700347" lon="16.775739">
        <ele>228.402100</ele>
        <time>2020-08-13T05:35:56.434Z</time>
      </trkpt>
      <trkpt lat="48.700345" lon="16.775595">
        <ele>228.423778</ele>
        <time>2020-08-13T05:35:58.453Z</time>
      </trkpt>
      <trkpt lat="48.700334" lon="16.775451">
        <ele>228.445594</ele>
        <time>2020-08-13T05:36:00.426Z</time>
      </trkpt>
      <trkpt lat="48.700316" lon="16.775311">
        <ele>228.467061</ele>
        <time>2020-08-13T05:36:02.452Z</time>
      </trkpt>
      <trkpt lat="48.700298" lon="16.775167">
        <ele>228.489118</ele>
        <time>2020-08-13T05:36:04.438Z</time>
      </trkpt>
      <trkpt lat="48.700275" lon="16.775023">
        <ele>228.511416</ele>
        <time>2020-08-13T05:36:06.432Z</time>
      </trkpt>
      <trkpt lat="48.700240" lon="16.774878">
        <ele>228.535035</ele>
        <time>2020-08-13T05:36:08.421Z</time>
      </trkpt>
      <trkpt lat="48.700208" lon="16.774726">
        <ele>228.560091</ele>
        <time>2020-08-13T05:36:10.442Z</time>
      </trkpt>
      <trkpt lat="48.700179" lon="16.774575">
        <ele>228.584788</ele>
        <time>2020-08-13T05:36:12.434Z</time>
      </trkpt>
      <trkpt lat="48.700147" lon="16.774427">
        <ele>228.609246</ele>
        <time>2020-08-13T05:36:14.419Z</time>
      </trkpt>
      <trkpt lat="48.700114" lon="16.774274">
        <ele>228.634525</ele>
        <time>2020-08-13T05:36:16.437Z</time>
      </trkpt>
      <trkpt lat="48.700078" lon="16.774125">
        <ele>228.659443</ele>
        <time>2020-08-13T05:36:18.414Z</time>
      </trkpt>
      <trkpt lat="48.700042" lon="16.773974">
        <ele>228.684656</ele>
        <time>2020-08-13T05:36:20.408Z</time>
      </trkpt>
      <trkpt lat="48.700004" lon="16.773815">
        <ele>228.711213</ele>
        <time>2020-08-13T05:36:22.437Z</time>
      </trkpt>
      <trkpt lat="48.699970" lon="16.773655">
        <ele>228.737611</ele>
        <time>2020-08-13T05:36:24.429Z</time>
      </trkpt>
      <trkpt lat="48.699938" lon="16.773494">
        <ele>228.764017</ele>
        <time>2020-08-13T05:36:26.441Z</time>
      </trkpt>
      <trkpt lat="48.699900" lon="16.773324">
        <ele>228.792204</ele>
        <time>2020-08-13T05:36:28.420Z</time>
      </trkpt>
      <trkpt lat="48.699860" lon="16.773154">
        <ele>228.820548</ele>
        <time>2020-08-13T05:36:30.425Z</time>
      </trkpt>
      <trkpt lat="48.699825" lon="16.772978">
        <ele>228.849415</ele>
        <time>2020-08-13T05:36:32.443Z</time>
      </trkpt>
      <trkpt lat="48.699796" lon="16.772798">
        <ele>228.878513</ele>
        <time>2020-08-13T05:36:34.455Z</time>
      </trkpt>
      <trkpt lat="48.699771" lon="16.772612">
        <ele>228.908324</ele>
        <time>2020-08-13T05:36:36.436Z</time>
      </trkpt>
      <trkpt lat="48.699761" lon="16.772427">
        <ele>228.937474</ele>
        <time>2020-08-13T05:36:38.430Z</time>
      </trkpt>
      <trkpt lat="48.699767" lon="16.772245">
        <ele>228.986057</ele>
        <time>2020-08-13T05:36:40.424Z</time>
      </trkpt>
      <trkpt lat="48.699780" lon="16.772067">
        <ele>229.059994</ele>
        <time>2020-08-13T05:36:42.457Z</time>
      </trkpt>
      <trkpt lat="48.699798" lon="16.771896">
        <ele>229.131485</ele>
        <time>2020-08-13T05:36:44.438Z</time>
      </trkpt>
      <trkpt lat="48.699824" lon="16.771733">
        <ele>229.200718</ele>
        <time>2020-08-13T05:36:46.449Z</time>
      </trkpt>
      <trkpt lat="48.699852" lon="16.771574">
        <ele>229.268658</ele>
        <time>2020-08-13T05:36:48.431Z</time>
      </trkpt>
      <trkpt lat="48.699877" lon="16.771422">
        <ele>229.333332</ele>
        <time>2020-08-13T05:36:50.430Z</time>
      </trkpt>
      <trkpt lat="48.699903" lon="16.771264">
        <ele>229.400560</ele>
        <time>2020-08-13T05:36:52.433Z</time>
      </trkpt>
      <trkpt lat="48.699929" lon="16.771109">
        <ele>229.466587</ele>
        <time>2020-08-13T05:36:54.430Z</time>
      </trkpt>
      <trkpt lat="48.699955" lon="16.770960">
        <ele>229.530216</ele>
        <time>2020-08-13T05:36:56.437Z</time>
      </trkpt>
      <trkpt lat="48.699983" lon="16.770808">
        <ele>229.595368</ele>
        <time>2020-08-13T05:36:58.435Z</time>
      </trkpt>
      <trkpt lat="48.700022" lon="16.770657">
        <ele>229.662313</ele>
        <time>2020-08-13T05:37:00.429Z</time>
      </trkpt>
      <trkpt lat="48.700067" lon="16.770508">
        <ele>229.729963</ele>
        <time>2020-08-13T05:37:02.445Z</time>
      </trkpt>
      <trkpt lat="48.700116" lon="16.770363">
        <ele>229.797217</ele>
        <time>2020-08-13T05:37:04.441Z</time>
      </trkpt>
      <trkpt lat="48.700173" lon="16.770221">
        <ele>229.865834</ele>
        <time>2020-08-13T05:37:06.446Z</time>
      </trkpt>
      <trkpt lat="48.700229" lon="16.770085">
        <ele>229.932013</ele>
        <time>2020-08-13T05:37:08.448Z</time>
      </trkpt>
      <trkpt lat="48.700284" lon="16.769954">
        <ele>229.996112</ele>
        <time>2020-08-13T05:37:10.445Z</time>
      </trkpt>
      <trkpt lat="48.700345" lon="16.769817">
        <ele>230.064341</ele>
        <time>2020-08-13T05:37:12.468Z</time>
      </trkpt>
      <trkpt lat="48.700409" lon="16.769682">
        <ele>230.103297</ele>
        <time>2020-08-13T05:37:14.463Z</time>
      </trkpt>
      <trkpt lat="48.700470" lon="16.769552">
        <ele>230.132979</ele>
        <time>2020-08-13T05:37:16.445Z</time>
      </trkpt>
      <trkpt lat="48.700529" lon="16.769424">
        <ele>230.162033</ele>
        <time>2020-08-13T05:37:18.428Z</time>
      </trkpt>
      <trkpt lat="48.700586" lon="16.769292">
        <ele>230.191387</ele>
        <time>2020-08-13T05:37:20.438Z</time>
      </trkpt>
      <trkpt lat="48.700642" lon="16.769154">
        <ele>230.221533</ele>
        <time>2020-08-13T05:37:22.440Z</time>
      </trkpt>
      <trkpt lat="48.700693" lon="16.769017">
        <ele>230.250803</ele>
        <time>2020-08-13T05:37:24.425Z</time>
      </trkpt>
      <trkpt lat="48.700747" lon="16.768879">
        <ele>230.280657</ele>
        <time>2020-08-13T05:37:26.439Z</time>
      </trkpt>
      <trkpt lat="48.700800" lon="16.768743">
        <ele>230.310048</ele>
        <time>2020-08-13T05:37:28.430Z</time>
      </trkpt>
      <trkpt lat="48.700841" lon="16.768609">
        <ele>230.337533</ele>
        <time>2020-08-13T05:37:30.420Z</time>
      </trkpt>
      <trkpt lat="48.700877" lon="16.768474">
        <ele>230.364628</ele>
        <time>2020-08-13T05:37:32.428Z</time>
      </trkpt>
      <trkpt lat="48.700909" lon="16.768337">
        <ele>230.391671</ele>
        <time>2020-08-13T05:37:34.470Z</time>
      </trkpt>
      <trkpt lat="48.700935" lon="16.768197">
        <ele>230.418735</ele>
        <time>2020-08-13T05:37:36.430Z</time>
      </trkpt>
      <trkpt lat="48.700955" lon="16.768048">
        <ele>230.447030</ele>
        <time>2020-08-13T05:37:38.413Z</time>
      </trkpt>
      <trkpt lat="48.700972" lon="16.767896">
        <ele>230.475718</ele>
        <time>2020-08-13T05:37:40.461Z</time>
      </trkpt>
      <trkpt lat="48.700986" lon="16.767743">
        <ele>230.504462</ele>
        <time>2020-08-13T05:37:42.440Z</time>
      </trkpt>
      <trkpt lat="48.700987" lon="16.767581">
        <ele>230.534609</ele>
        <time>2020-08-13T05:37:44.438Z</time>
      </trkpt>
      <trkpt lat="48.700980" lon="16.767419">
        <ele>230.564820</ele>
        <time>2020-08-13T05:37:46.434Z</time>
      </trkpt>
      <trkpt lat="48.700965" lon="16.767256">
        <ele>230.590177</ele>
        <time>2020-08-13T05:37:48.430Z</time>
      </trkpt>
      <trkpt lat="48.700951" lon="16.767090">
        <ele>230.603787</ele>
        <time>2020-08-13T05:37:50.464Z</time>
      </trkpt>
      <trkpt lat="48.700938" lon="16.766930">
        <ele>230.616897</ele>
        <time>2020-08-13T05:37:52.431Z</time>
      </trkpt>
      <trkpt lat="48.700920" lon="16.766768">
        <ele>230.630257</ele>
        <time>2020-08-13T05:37:54.436Z</time>
      </trkpt>
      <trkpt lat="48.700896" lon="16.766605">
        <ele>230.643838</ele>
        <time>2020-08-13T05:37:56.442Z</time>
      </trkpt>
      <trkpt lat="48.700869" lon="16.766444">
        <ele>230.657348</ele>
        <time>2020-08-13T05:37:58.451Z</time>
      </trkpt>
      <trkpt lat="48.700843" lon="16.766282">
        <ele>230.670906</ele>
        <time>2020-08-13T05:38:00.447Z</time>
      </trkpt>
      <trkpt lat="48.700825" lon="16.766119">
        <ele>230.684346</ele>
        <time>2020-08-13T05:38:02.427Z</time>
      </trkpt>
      <trkpt lat="48.700806" lon="16.765960">
        <ele>230.697487</ele>
        <time>2020-08-13T05:38:04.439Z</time>
      </trkpt>
      <trkpt lat="48.700789" lon="16.765804">
        <ele>230.710345</ele>
        <time>2020-08-13T05:38:06.423Z</time>
      </trkpt>
      <trkpt lat="48.700769" lon="16.765650">
        <ele>230.723109</ele>
        <time>2020-08-13T05:38:08.433Z</time>
      </trkpt>
      <trkpt lat="48.700749" lon="16.765499">
        <ele>230.735634</ele>
        <time>2020-08-13T05:38:10.451Z</time>
      </trkpt>
      <trkpt lat="48.700730" lon="16.765352">
        <ele>230.747816</ele>
        <time>2020-08-13T05:38:12.450Z</time>
      </trkpt>
      <trkpt lat="48.700705" lon="16.765199">
        <ele>230.760634</ele>
        <time>2020-08-13T05:38:14.433Z</time>
      </trkpt>
      <trkpt lat="48.700682" lon="16.765044">
        <ele>230.773554</ele>
        <time>2020-08-13T05:38:16.454Z</time>
      </trkpt>
      <trkpt lat="48.700663" lon="16.764885">
        <ele>230.786695</ele>
        <time>2020-08-13T05:38:18.433Z</time>
      </trkpt>
      <trkpt lat="48.700645" lon="16.764730">
        <ele>230.799494</ele>
        <time>2020-08-13T05:38:20.427Z</time>
      </trkpt>
      <trkpt lat="48.700632" lon="16.764578">
        <ele>230.812946</ele>
        <time>2020-08-13T05:38:22.431Z</time>
      </trkpt>
      <trkpt lat="48.700628" lon="16.764426">
        <ele>230.828199</ele>
        <time>2020-08-13T05:38:24.433Z</time>
      </trkpt>
      <trkpt lat="48.700625" lon="16.764272">
        <ele>230.843646</ele>
        <time>2020-08-13T05:38:26.429Z</time>
      </trkpt>
      <trkpt lat="48.700634" lon="16.764113">
        <ele>230.859646</ele>
        <time>2020-08-13T05:38:28.434Z</time>
      </trkpt>
      <trkpt lat="48.700645" lon="16.763959">
        <ele>230.875177</ele>
        <time>2020-08-13T05:38:30.450Z</time>
      </trkpt>
      <trkpt lat="48.700659" lon="16.763804">
        <ele>230.890863</ele>
        <time>2020-08-13T05:38:32.431Z</time>
      </trkpt>
      <trkpt lat="48.700682" lon="16.763656">
        <ele>230.906108</ele>
        <time>2020-08-13T05:38:34.461Z</time>
      </trkpt>
      <trkpt lat="48.700702" lon="16.763505">
        <ele>230.921550</ele>
        <time>2020-08-13T05:38:36.411Z</time>
      </trkpt>
      <trkpt lat="48.700724" lon="16.763352">
        <ele>230.937250</ele>
        <time>2020-08-13T05:38:38.431Z</time>
      </trkpt>
      <trkpt lat="48.700750" lon="16.763196">
        <ele>230.953382</ele>
        <time>2020-08-13T05:38:40.431Z</time>
      </trkpt>
      <trkpt lat="48.700777" lon="16.763043">
        <ele>230.969261</ele>
        <time>2020-08-13T05:38:42.419Z</time>
      </trkpt>
      <trkpt lat="48.700816" lon="16.762892">
        <ele>230.985519</ele>
        <time>2020-08-13T05:38:44.419Z</time>
      </trkpt>
      <trkpt lat="48.700861" lon="16.762747">
        <ele>231.001584</ele>
        <time>2020-08-13T05:38:46.418Z</time>
      </trkpt>
      <trkpt lat="48.700913" lon="16.762614">
        <ele>231.017084</ele>
        <time>2020-08-13T05:38:48.410Z</time>
      </trkpt>
      <trkpt lat="48.700967" lon="16.762478">
        <ele>231.032997</ele>
        <time>2020-08-13T05:38:50.447Z</time>
      </trkpt>
      <trkpt lat="48.701024" lon="16.762343">
        <ele>231.049065</ele>
        <time>2020-08-13T05:38:52.464Z</time>
      </trkpt>
      <trkpt lat="48.701082" lon="16.762213">
        <ele>231.064798</ele>
        <time>2020-08-13T05:38:54.459Z</time>
      </trkpt>
      <trkpt lat="48.701152" lon="16.762084">
        <ele>231.081509</ele>
        <time>2020-08-13T05:38:56.446Z</time>
      </trkpt>
      <trkpt lat="48.701227" lon="16.761968">
        <ele>231.096844</ele>
        <time>2020-08-13T05:38:58.427Z</time>
      </trkpt>
      <trkpt lat="48.701305" lon="16.761856">
        <ele>231.112220</ele>
        <time>2020-08-13T05:39:00.413Z</time>
      </trkpt>
      <trkpt lat="48.701384" lon="16.761755">
        <ele>231.127010</ele>
        <time>2020-08-13T05:39:02.445Z</time>
      </trkpt>
      <trkpt lat="48.701465" lon="16.761659">
        <ele>231.141725</ele>
        <time>2020-08-13T05:39:04.456Z</time>
      </trkpt>
      <trkpt lat="48.701548" lon="16.761564">
        <ele>231.156609</ele>
        <time>2020-08-13T05:39:06.420Z</time>
      </trkpt>
      <trkpt lat="48.701635" lon="16.761473">
        <ele>231.171735</ele>
        <time>2020-08-13T05:39:08.458Z</time>
      </trkpt>
      <trkpt lat="48.701722" lon="16.761395">
        <ele>231.186200</ele>
        <time>2020-08-13T05:39:10.428Z</time>
      </trkpt>
      <trkpt lat="48.701814" lon="16.761324">
        <ele>231.200973</ele>
        <time>2020-08-13T05:39:12.420Z</time>
      </trkpt>
      <trkpt lat="48.701909" lon="16.761251">
        <ele>231.216215</ele>
        <time>2020-08-13T05:39:14.445Z</time>
      </trkpt>
      <trkpt lat="48.702005" lon="16.761163">
        <ele>231.232269</ele>
        <time>2020-08-13T05:39:16.421Z</time>
      </trkpt>
      <trkpt lat="48.702092" lon="16.761075">
        <ele>231.247237</ele>
        <time>2020-08-13T05:39:18.443Z</time>
      </trkpt>
      <trkpt lat="48.702176" lon="16.760988">
        <ele>231.261796</ele>
        <time>2020-08-13T05:39:20.430Z</time>
      </trkpt>
      <trkpt lat="48.702264" lon="16.760903">
        <ele>231.276728</ele>
        <time>2020-08-13T05:39:22.436Z</time>
      </trkpt>
      <trkpt lat="48.702353" lon="16.760816">
        <ele>231.291883</ele>
        <time>2020-08-13T05:39:24.419Z</time>
      </trkpt>
      <trkpt lat="48.702437" lon="16.760725">
        <ele>231.306658</ele>
        <time>2020-08-13T05:39:26.441Z</time>
      </trkpt>
      <trkpt lat="48.702518" lon="16.760631">
        <ele>231.321257</ele>
        <time>2020-08-13T05:39:28.439Z</time>
      </trkpt>
      <trkpt lat="48.702599" lon="16.760530">
        <ele>231.336267</ele>
        <time>2020-08-13T05:39:30.455Z</time>
      </trkpt>
      <trkpt lat="48.702674" lon="16.760433">
        <ele>231.362442</ele>
        <time>2020-08-13T05:39:32.442Z</time>
      </trkpt>
      <trkpt lat="48.702746" lon="16.760334">
        <ele>231.390281</ele>
        <time>2020-08-13T05:39:34.432Z</time>
      </trkpt>
      <trkpt lat="48.702817" lon="16.760231">
        <ele>231.418424</ele>
        <time>2020-08-13T05:39:36.449Z</time>
      </trkpt>
      <trkpt lat="48.702890" lon="16.760124">
        <ele>231.447505</ele>
        <time>2020-08-13T05:39:38.451Z</time>
      </trkpt>
      <trkpt lat="48.702958" lon="16.760019">
        <ele>231.475303</ele>
        <time>2020-08-13T05:39:40.424Z</time>
      </trkpt>
      <trkpt lat="48.703022" lon="16.759906">
        <ele>231.503441</ele>
        <time>2020-08-13T05:39:42.421Z</time>
      </trkpt>
      <trkpt lat="48.703084" lon="16.759791">
        <ele>231.531501</ele>
        <time>2020-08-13T05:39:44.472Z</time>
      </trkpt>
      <trkpt lat="48.703142" lon="16.759676">
        <ele>231.558851</ele>
        <time>2020-08-13T05:39:46.432Z</time>
      </trkpt>
      <trkpt lat="48.703196" lon="16.759556">
        <ele>231.586296</ele>
        <time>2020-08-13T05:39:48.483Z</time>
      </trkpt>
      <trkpt lat="48.703252" lon="16.759439">
        <ele>231.613607</ele>
        <time>2020-08-13T05:39:50.436Z</time>
      </trkpt>
      <trkpt lat="48.703304" lon="16.759326">
        <ele>231.639637</ele>
        <time>2020-08-13T05:39:52.441Z</time>
      </trkpt>
      <trkpt lat="48.703380" lon="16.759160">
        <ele>231.677814</ele>
        <time>2020-08-13T05:39:55.475Z</time>
      </trkpt>
      <trkpt lat="48.703435" lon="16.759045">
        <ele>231.704651</ele>
        <time>2020-08-13T05:39:57.434Z</time>
      </trkpt>
      <trkpt lat="48.703509" lon="16.758875">
        <ele>231.743132</ele>
        <time>2020-08-13T05:40:00.448Z</time>
      </trkpt>
      <trkpt lat="48.703556" lon="16.758756">
        <ele>231.769338</ele>
        <time>2020-08-13T05:40:02.431Z</time>
      </trkpt>
      <trkpt lat="48.703625" lon="16.758580">
        <ele>231.808020</ele>
        <time>2020-08-13T05:40:05.452Z</time>
      </trkpt>
      <trkpt lat="48.703671" lon="16.758461">
        <ele>231.834080</ele>
        <time>2020-08-13T05:40:07.451Z</time>
      </trkpt>
      <trkpt lat="48.703713" lon="16.758338">
        <ele>231.865719</ele>
        <time>2020-08-13T05:40:09.446Z</time>
      </trkpt>
      <trkpt lat="48.703768" lon="16.758154">
        <ele>231.934005</ele>
        <time>2020-08-13T05:40:12.463Z</time>
      </trkpt>
      <trkpt lat="48.703810" lon="16.757970">
        <ele>231.999824</ele>
        <time>2020-08-13T05:40:15.431Z</time>
      </trkpt>
      <trkpt lat="48.703844" lon="16.757780">
        <ele>232.066375</ele>
        <time>2020-08-13T05:40:18.427Z</time>
      </trkpt>
      <trkpt lat="48.703871" lon="16.757592">
        <ele>232.131417</ele>
        <time>2020-08-13T05:40:21.452Z</time>
      </trkpt>
      <trkpt lat="48.703892" lon="16.757406">
        <ele>232.195210</ele>
        <time>2020-08-13T05:40:24.421Z</time>
      </trkpt>
      <trkpt lat="48.703903" lon="16.757216">
        <ele>232.259688</ele>
        <time>2020-08-13T05:40:27.450Z</time>
      </trkpt>
      <trkpt lat="48.703910" lon="16.757032">
        <ele>232.321994</ele>
        <time>2020-08-13T05:40:30.461Z</time>
      </trkpt>
      <trkpt lat="48.703915" lon="16.756846">
        <ele>232.384925</ele>
        <time>2020-08-13T05:40:33.423Z</time>
      </trkpt>
      <trkpt lat="48.703918" lon="16.756664">
        <ele>232.446471</ele>
        <time>2020-08-13T05:40:36.418Z</time>
      </trkpt>
      <trkpt lat="48.703920" lon="16.756482">
        <ele>232.508006</ele>
        <time>2020-08-13T05:40:39.477Z</time>
      </trkpt>
      <trkpt lat="48.703920" lon="16.756309">
        <ele>232.566490</ele>
        <time>2020-08-13T05:40:42.474Z</time>
      </trkpt>
      <trkpt lat="48.703917" lon="16.756125">
        <ele>232.628712</ele>
        <time>2020-08-13T05:40:45.423Z</time>
      </trkpt>
      <trkpt lat="48.703917" lon="16.755940">
        <ele>232.691253</ele>
        <time>2020-08-13T05:40:48.450Z</time>
      </trkpt>
      <trkpt lat="48.703898" lon="16.755757">
        <ele>232.753879</ele>
        <time>2020-08-13T05:40:51.437Z</time>
      </trkpt>
      <trkpt lat="48.703871" lon="16.755561">
        <ele>232.822309</ele>
        <time>2020-08-13T05:40:54.423Z</time>
      </trkpt>
      <trkpt lat="48.703846" lon="16.755429">
        <ele>232.869469</ele>
        <time>2020-08-13T05:40:56.428Z</time>
      </trkpt>
      <trkpt lat="48.703812" lon="16.755242">
        <ele>232.936080</ele>
        <time>2020-08-13T05:40:59.422Z</time>
      </trkpt>
      <trkpt lat="48.703787" lon="16.755046">
        <ele>233.004634</ele>
        <time>2020-08-13T05:41:02.453Z</time>
      </trkpt>
      <trkpt lat="48.703775" lon="16.754909">
        <ele>233.052094</ele>
        <time>2020-08-13T05:41:04.439Z</time>
      </trkpt>
      <trkpt lat="48.703766" lon="16.754710">
        <ele>233.120594</ele>
        <time>2020-08-13T05:41:07.436Z</time>
      </trkpt>
      <trkpt lat="48.703761" lon="16.754514">
        <ele>233.187953</ele>
        <time>2020-08-13T05:41:10.454Z</time>
      </trkpt>
      <trkpt lat="48.703768" lon="16.754314">
        <ele>233.256732</ele>
        <time>2020-08-13T05:41:13.438Z</time>
      </trkpt>
      <trkpt lat="48.703782" lon="16.754178">
        <ele>233.304001</ele>
        <time>2020-08-13T05:41:15.415Z</time>
      </trkpt>
      <trkpt lat="48.703802" lon="16.753984">
        <ele>233.371431</ele>
        <time>2020-08-13T05:41:18.425Z</time>
      </trkpt>
      <trkpt lat="48.703817" lon="16.753799">
        <ele>233.435440</ele>
        <time>2020-08-13T05:41:21.437Z</time>
      </trkpt>
      <trkpt lat="48.703831" lon="16.753625">
        <ele>233.495636</ele>
        <time>2020-08-13T05:41:24.426Z</time>
      </trkpt>
      <trkpt lat="48.703845" lon="16.753453">
        <ele>233.555151</ele>
        <time>2020-08-13T05:41:27.431Z</time>
      </trkpt>
      <trkpt lat="48.703866" lon="16.753282">
        <ele>233.614883</ele>
        <time>2020-08-13T05:41:30.441Z</time>
      </trkpt>
      <trkpt lat="48.703897" lon="16.753119">
        <ele>233.673137</ele>
        <time>2020-08-13T05:41:33.438Z</time>
      </trkpt>
      <trkpt lat="48.703946" lon="16.752967">
        <ele>233.725951</ele>
        <time>2020-08-13T05:41:36.426Z</time>
      </trkpt>
      <trkpt lat="48.703992" lon="16.752814">
        <ele>233.768906</ele>
        <time>2020-08-13T05:41:39.433Z</time>
      </trkpt>
      <trkpt lat="48.704052" lon="16.752650">
        <ele>233.816814</ele>
        <time>2020-08-13T05:41:42.437Z</time>
      </trkpt>
      <trkpt lat="48.704114" lon="16.752482">
        <ele>233.865991</ele>
        <time>2020-08-13T05:41:45.415Z</time>
      </trkpt>
      <trkpt lat="48.704173" lon="16.752307">
        <ele>233.916197</ele>
        <time>2020-08-13T05:41:48.423Z</time>
      </trkpt>
      <trkpt lat="48.704240" lon="16.752129">
        <ele>233.968551</ele>
        <time>2020-08-13T05:41:51.441Z</time>
      </trkpt>
      <trkpt lat="48.704291" lon="16.752010">
        <ele>234.004802</ele>
        <time>2020-08-13T05:41:53.442Z</time>
      </trkpt>
      <trkpt lat="48.704340" lon="16.751890">
        <ele>234.040854</ele>
        <time>2020-08-13T05:41:55.431Z</time>
      </trkpt>
      <trkpt lat="48.704390" lon="16.751768">
        <ele>234.077545</ele>
        <time>2020-08-13T05:41:57.417Z</time>
      </trkpt>
      <trkpt lat="48.704441" lon="16.751648">
        <ele>234.114011</ele>
        <time>2020-08-13T05:41:59.424Z</time>
      </trkpt>
      <trkpt lat="48.704494" lon="16.751529">
        <ele>234.150689</ele>
        <time>2020-08-13T05:42:01.437Z</time>
      </trkpt>
      <trkpt lat="48.704549" lon="16.751410">
        <ele>234.187806</ele>
        <time>2020-08-13T05:42:03.430Z</time>
      </trkpt>
      <trkpt lat="48.704604" lon="16.751294">
        <ele>234.224298</ele>
        <time>2020-08-13T05:42:05.452Z</time>
      </trkpt>
      <trkpt lat="48.704656" lon="16.751177">
        <ele>234.260337</ele>
        <time>2020-08-13T05:42:07.424Z</time>
      </trkpt>
      <trkpt lat="48.704709" lon="16.751058">
        <ele>234.297015</ele>
        <time>2020-08-13T05:42:09.444Z</time>
      </trkpt>
      <trkpt lat="48.704760" lon="16.750938">
        <ele>234.333481</ele>
        <time>2020-08-13T05:42:11.417Z</time>
      </trkpt>
      <trkpt lat="48.704833" lon="16.750763">
        <ele>234.386373</ele>
        <time>2020-08-13T05:42:14.434Z</time>
      </trkpt>
      <trkpt lat="48.704889" lon="16.750645">
        <ele>234.417894</ele>
        <time>2020-08-13T05:42:16.432Z</time>
      </trkpt>
      <trkpt lat="48.704943" lon="16.750531">
        <ele>234.441612</ele>
        <time>2020-08-13T05:42:18.438Z</time>
      </trkpt>
      <trkpt lat="48.704998" lon="16.750417">
        <ele>234.465480</ele>
        <time>2020-08-13T05:42:20.432Z</time>
      </trkpt>
      <trkpt lat="48.705075" lon="16.750253">
        <ele>234.499499</ele>
        <time>2020-08-13T05:42:23.456Z</time>
      </trkpt>
      <trkpt lat="48.705148" lon="16.750080">
        <ele>234.534205</ele>
        <time>2020-08-13T05:42:26.430Z</time>
      </trkpt>
      <trkpt lat="48.705198" lon="16.749941">
        <ele>234.560962</ele>
        <time>2020-08-13T05:42:28.444Z</time>
      </trkpt>
      <trkpt lat="48.705248" lon="16.749779">
        <ele>234.591190</ele>
        <time>2020-08-13T05:42:30.413Z</time>
      </trkpt>
      <trkpt lat="48.705288" lon="16.749589">
        <ele>234.624898</ele>
        <time>2020-08-13T05:42:32.436Z</time>
      </trkpt>
      <trkpt lat="48.705320" lon="16.749386">
        <ele>234.660174</ele>
        <time>2020-08-13T05:42:34.420Z</time>
      </trkpt>
      <trkpt lat="48.705340" lon="16.749164">
        <ele>234.698044</ele>
        <time>2020-08-13T05:42:36.423Z</time>
      </trkpt>
      <trkpt lat="48.705356" lon="16.748939">
        <ele>234.736293</ele>
        <time>2020-08-13T05:42:38.418Z</time>
      </trkpt>
      <trkpt lat="48.705364" lon="16.748714">
        <ele>234.774377</ele>
        <time>2020-08-13T05:42:40.418Z</time>
      </trkpt>
      <trkpt lat="48.705373" lon="16.748492">
        <ele>234.811970</ele>
        <time>2020-08-13T05:42:42.423Z</time>
      </trkpt>
      <trkpt lat="48.705382" lon="16.748274">
        <ele>234.848888</ele>
        <time>2020-08-13T05:42:44.431Z</time>
      </trkpt>
      <trkpt lat="48.705397" lon="16.748061">
        <ele>234.901684</ele>
        <time>2020-08-13T05:42:46.443Z</time>
      </trkpt>
      <trkpt lat="48.705437" lon="16.747857">
        <ele>234.971735</ele>
        <time>2020-08-13T05:42:48.433Z</time>
      </trkpt>
      <trkpt lat="48.705479" lon="16.747651">
        <ele>235.042706</ele>
        <time>2020-08-13T05:42:50.421Z</time>
      </trkpt>
      <trkpt lat="48.705548" lon="16.747467">
        <ele>235.112367</ele>
        <time>2020-08-13T05:42:52.421Z</time>
      </trkpt>
      <trkpt lat="48.705608" lon="16.747283">
        <ele>235.179924</ele>
        <time>2020-08-13T05:42:54.445Z</time>
      </trkpt>
      <trkpt lat="48.705674" lon="16.747113">
        <ele>235.244847</ele>
        <time>2020-08-13T05:42:56.434Z</time>
      </trkpt>
      <trkpt lat="48.705735" lon="16.746947">
        <ele>235.307388</ele>
        <time>2020-08-13T05:42:58.438Z</time>
      </trkpt>
      <trkpt lat="48.705799" lon="16.746786">
        <ele>235.369255</ele>
        <time>2020-08-13T05:43:00.449Z</time>
      </trkpt>
      <trkpt lat="48.705851" lon="16.746619">
        <ele>235.430037</ele>
        <time>2020-08-13T05:43:02.473Z</time>
      </trkpt>
      <trkpt lat="48.705908" lon="16.746462">
        <ele>235.489020</ele>
        <time>2020-08-13T05:43:04.442Z</time>
      </trkpt>
      <trkpt lat="48.705967" lon="16.746316">
        <ele>235.545372</ele>
        <time>2020-08-13T05:43:06.429Z</time>
      </trkpt>
      <trkpt lat="48.706036" lon="16.746185">
        <ele>235.600543</ele>
        <time>2020-08-13T05:43:08.433Z</time>
      </trkpt>
      <trkpt lat="48.706111" lon="16.746071">
        <ele>235.653529</ele>
        <time>2020-08-13T05:43:10.431Z</time>
      </trkpt>
      <trkpt lat="48.706195" lon="16.745979">
        <ele>235.705226</ele>
        <time>2020-08-13T05:43:12.418Z</time>
      </trkpt>
      <trkpt lat="48.706286" lon="16.745888">
        <ele>235.759608</ele>
        <time>2020-08-13T05:43:14.428Z</time>
      </trkpt>
      <trkpt lat="48.706379" lon="16.745808">
        <ele>235.803669</ele>
        <time>2020-08-13T05:43:16.450Z</time>
      </trkpt>
      <trkpt lat="48.706477" lon="16.745729">
        <ele>235.848383</ele>
        <time>2020-08-13T05:43:18.449Z</time>
      </trkpt>
      <trkpt lat="48.706571" lon="16.745638">
        <ele>235.893314</ele>
        <time>2020-08-13T05:43:20.429Z</time>
      </trkpt>
      <trkpt lat="48.706660" lon="16.745549">
        <ele>235.936267</ele>
        <time>2020-08-13T05:43:22.434Z</time>
      </trkpt>
      <trkpt lat="48.706761" lon="16.745465">
        <ele>235.982676</ele>
        <time>2020-08-13T05:43:24.438Z</time>
      </trkpt>
      <trkpt lat="48.706866" lon="16.745382">
        <ele>236.030379</ele>
        <time>2020-08-13T05:43:26.425Z</time>
      </trkpt>
      <trkpt lat="48.706970" lon="16.745303">
        <ele>236.077241</ele>
        <time>2020-08-13T05:43:28.442Z</time>
      </trkpt>
      <trkpt lat="48.707074" lon="16.745221">
        <ele>236.124464</ele>
        <time>2020-08-13T05:43:30.425Z</time>
      </trkpt>
      <trkpt lat="48.707177" lon="16.745135">
        <ele>236.171835</ele>
        <time>2020-08-13T05:43:32.434Z</time>
      </trkpt>
      <trkpt lat="48.707277" lon="16.745047">
        <ele>236.218416</ele>
        <time>2020-08-13T05:43:34.421Z</time>
      </trkpt>
      <trkpt lat="48.707371" lon="16.744963">
        <ele>236.262373</ele>
        <time>2020-08-13T05:43:36.422Z</time>
      </trkpt>
      <trkpt lat="48.707460" lon="16.744878">
        <ele>236.304749</ele>
        <time>2020-08-13T05:43:38.440Z</time>
      </trkpt>
      <trkpt lat="48.707547" lon="16.744791">
        <ele>236.346737</ele>
        <time>2020-08-13T05:43:40.449Z</time>
      </trkpt>
      <trkpt lat="48.707633" lon="16.744694">
        <ele>236.389921</ele>
        <time>2020-08-13T05:43:42.428Z</time>
      </trkpt>
      <trkpt lat="48.707721" lon="16.744594">
        <ele>236.434228</ele>
        <time>2020-08-13T05:43:44.428Z</time>
      </trkpt>
      <trkpt lat="48.707803" lon="16.744493">
        <ele>236.476793</ele>
        <time>2020-08-13T05:43:46.416Z</time>
      </trkpt>
      <trkpt lat="48.707885" lon="16.744395">
        <ele>236.500863</ele>
        <time>2020-08-13T05:43:48.420Z</time>
      </trkpt>
      <trkpt lat="48.707970" lon="16.744308">
        <ele>236.517078</ele>
        <time>2020-08-13T05:43:50.418Z</time>
      </trkpt>
      <trkpt lat="48.708050" lon="16.744225">
        <ele>236.532405</ele>
        <time>2020-08-13T05:43:52.409Z</time>
      </trkpt>
      <trkpt lat="48.708134" lon="16.744144">
        <ele>236.548144</ele>
        <time>2020-08-13T05:43:54.434Z</time>
      </trkpt>
      <trkpt lat="48.708220" lon="16.744077">
        <ele>236.563431</ele>
        <time>2020-08-13T05:43:56.407Z</time>
      </trkpt>
      <trkpt lat="48.708312" lon="16.744026">
        <ele>236.578918</ele>
        <time>2020-08-13T05:43:58.423Z</time>
      </trkpt>
      <trkpt lat="48.708405" lon="16.743983">
        <ele>236.594289</ele>
        <time>2020-08-13T05:44:00.433Z</time>
      </trkpt>
      <trkpt lat="48.708503" lon="16.743951">
        <ele>236.610137</ele>
        <time>2020-08-13T05:44:02.456Z</time>
      </trkpt>
      <trkpt lat="48.708605" lon="16.743940">
        <ele>236.626302</ele>
        <time>2020-08-13T05:44:04.431Z</time>
      </trkpt>
      <trkpt lat="48.708707" lon="16.743930">
        <ele>236.642461</ele>
        <time>2020-08-13T05:44:06.441Z</time>
      </trkpt>
      <trkpt lat="48.708811" lon="16.743927">
        <ele>236.658905</ele>
        <time>2020-08-13T05:44:08.420Z</time>
      </trkpt>
      <trkpt lat="48.708919" lon="16.743932">
        <ele>236.675986</ele>
        <time>2020-08-13T05:44:10.426Z</time>
      </trkpt>
      <trkpt lat="48.709026" lon="16.743953">
        <ele>236.693042</ele>
        <time>2020-08-13T05:44:12.436Z</time>
      </trkpt>
      <trkpt lat="48.709132" lon="16.743984">
        <ele>236.710109</ele>
        <time>2020-08-13T05:44:14.430Z</time>
      </trkpt>
      <trkpt lat="48.709239" lon="16.744036">
        <ele>236.727872</ele>
        <time>2020-08-13T05:44:16.447Z</time>
      </trkpt>
      <trkpt lat="48.709344" lon="16.744095">
        <ele>236.745576</ele>
        <time>2020-08-13T05:44:18.422Z</time>
      </trkpt>
      <trkpt lat="48.709449" lon="16.744154">
        <ele>236.763279</ele>
        <time>2020-08-13T05:44:20.425Z</time>
      </trkpt>
      <trkpt lat="48.709557" lon="16.744214">
        <ele>236.777841</ele>
        <time>2020-08-13T05:44:22.430Z</time>
      </trkpt>
      <trkpt lat="48.709664" lon="16.744275">
        <ele>236.787611</ele>
        <time>2020-08-13T05:44:24.456Z</time>
      </trkpt>
      <trkpt lat="48.709773" lon="16.744331">
        <ele>236.797447</ele>
        <time>2020-08-13T05:44:26.427Z</time>
      </trkpt>
      <trkpt lat="48.709883" lon="16.744382">
        <ele>236.807278</ele>
        <time>2020-08-13T05:44:28.456Z</time>
      </trkpt>
      <trkpt lat="48.709991" lon="16.744427">
        <ele>236.816850</ele>
        <time>2020-08-13T05:44:30.411Z</time>
      </trkpt>
      <trkpt lat="48.710100" lon="16.744463">
        <ele>236.826384</ele>
        <time>2020-08-13T05:44:32.418Z</time>
      </trkpt>
      <trkpt lat="48.710210" lon="16.744490">
        <ele>236.835907</ele>
        <time>2020-08-13T05:44:34.439Z</time>
      </trkpt>
      <trkpt lat="48.710318" lon="16.744506">
        <ele>236.845181</ele>
        <time>2020-08-13T05:44:36.452Z</time>
      </trkpt>
      <trkpt lat="48.710428" lon="16.744512">
        <ele>236.854588</ele>
        <time>2020-08-13T05:44:38.446Z</time>
      </trkpt>
      <trkpt lat="48.710534" lon="16.744516">
        <ele>236.863650</ele>
        <time>2020-08-13T05:44:40.429Z</time>
      </trkpt>
      <trkpt lat="48.710639" lon="16.744515">
        <ele>236.872623</ele>
        <time>2020-08-13T05:44:42.432Z</time>
      </trkpt>
      <trkpt lat="48.710744" lon="16.744497">
        <ele>236.881654</ele>
        <time>2020-08-13T05:44:44.459Z</time>
      </trkpt>
      <trkpt lat="48.710846" lon="16.744469">
        <ele>236.890513</ele>
        <time>2020-08-13T05:44:46.449Z</time>
      </trkpt>
      <trkpt lat="48.710942" lon="16.744443">
        <ele>236.898847</ele>
        <time>2020-08-13T05:44:48.415Z</time>
      </trkpt>
      <trkpt lat="48.711037" lon="16.744409">
        <ele>236.907189</ele>
        <time>2020-08-13T05:44:50.427Z</time>
      </trkpt>
      <trkpt lat="48.711129" lon="16.744363">
        <ele>236.915469</ele>
        <time>2020-08-13T05:44:52.453Z</time>
      </trkpt>
      <trkpt lat="48.711219" lon="16.744315">
        <ele>236.923623</ele>
        <time>2020-08-13T05:44:54.441Z</time>
      </trkpt>
      <trkpt lat="48.711303" lon="16.744263">
        <ele>236.931993</ele>
        <time>2020-08-13T05:44:56.464Z</time>
      </trkpt>
      <trkpt lat="48.711387" lon="16.744201">
        <ele>236.941183</ele>
        <time>2020-08-13T05:44:58.462Z</time>
      </trkpt>
      <trkpt lat="48.711498" lon="16.744105">
        <ele>236.953752</ele>
        <time>2020-08-13T05:45:01.442Z</time>
      </trkpt>
      <trkpt lat="48.711605" lon="16.744020">
        <ele>236.965633</ele>
        <time>2020-08-13T05:45:04.455Z</time>
      </trkpt>
      <trkpt lat="48.711713" lon="16.743929">
        <ele>236.977787</ele>
        <time>2020-08-13T05:45:07.435Z</time>
      </trkpt>
      <trkpt lat="48.711810" lon="16.743818">
        <ele>236.989741</ele>
        <time>2020-08-13T05:45:10.428Z</time>
      </trkpt>
      <trkpt lat="48.711902" lon="16.743687">
        <ele>237.002156</ele>
        <time>2020-08-13T05:45:13.435Z</time>
      </trkpt>
      <trkpt lat="48.711991" lon="16.743542">
        <ele>237.015008</ele>
        <time>2020-08-13T05:45:16.441Z</time>
      </trkpt>
      <trkpt lat="48.712072" lon="16.743391">
        <ele>237.027636</ele>
        <time>2020-08-13T05:45:19.446Z</time>
      </trkpt>
      <trkpt lat="48.712150" lon="16.743234">
        <ele>237.040390</ele>
        <time>2020-08-13T05:45:22.421Z</time>
      </trkpt>
      <trkpt lat="48.712207" lon="16.743125">
        <ele>237.049416</ele>
        <time>2020-08-13T05:45:24.425Z</time>
      </trkpt>
      <trkpt lat="48.712263" lon="16.743011">
        <ele>237.058639</ele>
        <time>2020-08-13T05:45:26.442Z</time>
      </trkpt>
      <trkpt lat="48.712314" lon="16.742896">
        <ele>237.067631</ele>
        <time>2020-08-13T05:45:28.439Z</time>
      </trkpt>
      <trkpt lat="48.712363" lon="16.742780">
        <ele>237.076569</ele>
        <time>2020-08-13T05:45:30.431Z</time>
      </trkpt>
      <trkpt lat="48.712414" lon="16.742659">
        <ele>237.085886</ele>
        <time>2020-08-13T05:45:32.419Z</time>
      </trkpt>
      <trkpt lat="48.712465" lon="16.742542">
        <ele>237.094986</ele>
        <time>2020-08-13T05:45:34.428Z</time>
      </trkpt>
      <trkpt lat="48.712517" lon="16.742420">
        <ele>237.104628</ele>
        <time>2020-08-13T05:45:36.424Z</time>
      </trkpt>
      <trkpt lat="48.712566" lon="16.742298">
        <ele>237.122885</ele>
        <time>2020-08-13T05:45:38.429Z</time>
      </trkpt>
      <trkpt lat="48.712615" lon="16.742176">
        <ele>237.141142</ele>
        <time>2020-08-13T05:45:40.412Z</time>
      </trkpt>
      <trkpt lat="48.712669" lon="16.742051">
        <ele>237.160240</ele>
        <time>2020-08-13T05:45:42.417Z</time>
      </trkpt>
      <trkpt lat="48.712733" lon="16.741924">
        <ele>237.180667</ele>
        <time>2020-08-13T05:45:44.432Z</time>
      </trkpt>
      <trkpt lat="48.712798" lon="16.741803">
        <ele>237.200612</ele>
        <time>2020-08-13T05:45:46.441Z</time>
      </trkpt>
      <trkpt lat="48.712863" lon="16.741681">
        <ele>237.220656</ele>
        <time>2020-08-13T05:45:48.426Z</time>
      </trkpt>
      <trkpt lat="48.712931" lon="16.741557">
        <ele>237.241266</ele>
        <time>2020-08-13T05:45:50.424Z</time>
      </trkpt>
      <trkpt lat="48.712998" lon="16.741436">
        <ele>237.261458</ele>
        <time>2020-08-13T05:45:52.445Z</time>
      </trkpt>
      <trkpt lat="48.713077" lon="16.741314">
        <ele>237.283307</ele>
        <time>2020-08-13T05:45:54.424Z</time>
      </trkpt>
      <trkpt lat="48.713163" lon="16.741201">
        <ele>237.305358</ele>
        <time>2020-08-13T05:45:56.425Z</time>
      </trkpt>
      <trkpt lat="48.713246" lon="16.741090">
        <ele>237.326802</ele>
        <time>2020-08-13T05:45:58.452Z</time>
      </trkpt>
      <trkpt lat="48.713337" lon="16.740980">
        <ele>237.349352</ele>
        <time>2020-08-13T05:46:00.434Z</time>
      </trkpt>
      <trkpt lat="48.713424" lon="16.740868">
        <ele>237.371465</ele>
        <time>2020-08-13T05:46:02.428Z</time>
      </trkpt>
      <trkpt lat="48.713514" lon="16.740757">
        <ele>237.393944</ele>
        <time>2020-08-13T05:46:04.455Z</time>
      </trkpt>
      <trkpt lat="48.713601" lon="16.740648">
        <ele>237.415812</ele>
        <time>2020-08-13T05:46:06.436Z</time>
      </trkpt>
      <trkpt lat="48.713689" lon="16.740544">
        <ele>237.437430</ele>
        <time>2020-08-13T05:46:08.438Z</time>
      </trkpt>
      <trkpt lat="48.713773" lon="16.740438">
        <ele>237.457239</ele>
        <time>2020-08-13T05:46:10.437Z</time>
      </trkpt>
      <trkpt lat="48.713855" lon="16.740334">
        <ele>237.473216</ele>
        <time>2020-08-13T05:46:12.452Z</time>
      </trkpt>
      <trkpt lat="48.713935" lon="16.740226">
        <ele>237.489224</ele>
        <time>2020-08-13T05:46:14.450Z</time>
      </trkpt>
      <trkpt lat="48.714011" lon="16.740116">
        <ele>237.504926</ele>
        <time>2020-08-13T05:46:16.450Z</time>
      </trkpt>
      <trkpt lat="48.714085" lon="16.739998">
        <ele>237.520975</ele>
        <time>2020-08-13T05:46:18.429Z</time>
      </trkpt>
      <trkpt lat="48.714162" lon="16.739873">
        <ele>237.537835</ele>
        <time>2020-08-13T05:46:20.425Z</time>
      </trkpt>
      <trkpt lat="48.714233" lon="16.739745">
        <ele>237.554321</ele>
        <time>2020-08-13T05:46:22.426Z</time>
      </trkpt>
      <trkpt lat="48.714302" lon="16.739612">
        <ele>237.571001</ele>
        <time>2020-08-13T05:46:24.420Z</time>
      </trkpt>
      <trkpt lat="48.714368" lon="16.739475">
        <ele>237.587724</ele>
        <time>2020-08-13T05:46:26.431Z</time>
      </trkpt>
      <trkpt lat="48.714432" lon="16.739344">
        <ele>237.603794</ele>
        <time>2020-08-13T05:46:28.464Z</time>
      </trkpt>
      <trkpt lat="48.714491" lon="16.739205">
        <ele>237.620088</ele>
        <time>2020-08-13T05:46:30.431Z</time>
      </trkpt>
      <trkpt lat="48.714551" lon="16.739067">
        <ele>237.636381</ele>
        <time>2020-08-13T05:46:32.417Z</time>
      </trkpt>
      <trkpt lat="48.714605" lon="16.738936">
        <ele>237.651610</ele>
        <time>2020-08-13T05:46:34.439Z</time>
      </trkpt>
      <trkpt lat="48.714653" lon="16.738793">
        <ele>237.667427</ele>
        <time>2020-08-13T05:46:36.447Z</time>
      </trkpt>
      <trkpt lat="48.714690" lon="16.738650">
        <ele>237.682570</ele>
        <time>2020-08-13T05:46:38.436Z</time>
      </trkpt>
      <trkpt lat="48.714724" lon="16.738503">
        <ele>237.697927</ele>
        <time>2020-08-13T05:46:40.429Z</time>
      </trkpt>
      <trkpt lat="48.714749" lon="16.738360">
        <ele>237.712511</ele>
        <time>2020-08-13T05:46:42.430Z</time>
      </trkpt>
      <trkpt lat="48.714776" lon="16.738216">
        <ele>237.731467</ele>
        <time>2020-08-13T05:46:44.424Z</time>
      </trkpt>
      <trkpt lat="48.714801" lon="16.738070">
        <ele>237.756933</ele>
        <time>2020-08-13T05:46:46.460Z</time>
      </trkpt>
      <trkpt lat="48.714829" lon="16.737919">
        <ele>237.783414</ele>
        <time>2020-08-13T05:46:48.456Z</time>
      </trkpt>
      <trkpt lat="48.714854" lon="16.737770">
        <ele>237.809370</ele>
        <time>2020-08-13T05:46:50.429Z</time>
      </trkpt>
      <trkpt lat="48.714879" lon="16.737619">
        <ele>237.835654</ele>
        <time>2020-08-13T05:46:52.417Z</time>
      </trkpt>
      <trkpt lat="48.714903" lon="16.737473">
        <ele>237.861057</ele>
        <time>2020-08-13T05:46:54.459Z</time>
      </trkpt>
      <trkpt lat="48.714928" lon="16.737328">
        <ele>237.886360</ele>
        <time>2020-08-13T05:46:56.422Z</time>
      </trkpt>
      <trkpt lat="48.714947" lon="16.737183">
        <ele>237.911318</ele>
        <time>2020-08-13T05:46:58.435Z</time>
      </trkpt>
      <trkpt lat="48.714965" lon="16.737046">
        <ele>237.934902</ele>
        <time>2020-08-13T05:47:00.428Z</time>
      </trkpt>
      <trkpt lat="48.714992" lon="16.736856">
        <ele>237.967715</ele>
        <time>2020-08-13T05:47:03.430Z</time>
      </trkpt>
      <trkpt lat="48.715019" lon="16.736683">
        <ele>237.997729</ele>
        <time>2020-08-13T05:47:06.446Z</time>
      </trkpt>
      <trkpt lat="48.715043" lon="16.736514">
        <ele>238.026915</ele>
        <time>2020-08-13T05:47:09.443Z</time>
      </trkpt>
      <trkpt lat="48.715065" lon="16.736352">
        <ele>238.054839</ele>
        <time>2020-08-13T05:47:12.434Z</time>
      </trkpt>
      <trkpt lat="48.715087" lon="16.736192">
        <ele>238.082432</ele>
        <time>2020-08-13T05:47:15.433Z</time>
      </trkpt>
      <trkpt lat="48.715110" lon="16.736027">
        <ele>238.110904</ele>
        <time>2020-08-13T05:47:18.433Z</time>
      </trkpt>
      <trkpt lat="48.715128" lon="16.735866">
        <ele>238.138473</ele>
        <time>2020-08-13T05:47:21.432Z</time>
      </trkpt>
      <trkpt lat="48.715150" lon="16.735709">
        <ele>238.165571</ele>
        <time>2020-08-13T05:47:24.436Z</time>
      </trkpt>
      <trkpt lat="48.715171" lon="16.735552">
        <ele>238.216415</ele>
        <time>2020-08-13T05:47:27.433Z</time>
      </trkpt>
      <trkpt lat="48.715197" lon="16.735397">
        <ele>238.301834</ele>
        <time>2020-08-13T05:47:30.411Z</time>
      </trkpt>
      <trkpt lat="48.715226" lon="16.735250">
        <ele>238.383781</ele>
        <time>2020-08-13T05:47:33.437Z</time>
      </trkpt>
      <trkpt lat="48.715254" lon="16.735098">
        <ele>238.468069</ele>
        <time>2020-08-13T05:47:36.441Z</time>
      </trkpt>
      <trkpt lat="48.715289" lon="16.734947">
        <ele>238.553549</ele>
        <time>2020-08-13T05:47:39.422Z</time>
      </trkpt>
      <trkpt lat="48.715326" lon="16.734792">
        <ele>238.641586</ele>
        <time>2020-08-13T05:47:42.441Z</time>
      </trkpt>
      <trkpt lat="48.715367" lon="16.734618">
        <ele>238.740268</ele>
        <time>2020-08-13T05:47:45.429Z</time>
      </trkpt>
      <trkpt lat="48.715414" lon="16.734443">
        <ele>238.841181</ele>
        <time>2020-08-13T05:47:48.474Z</time>
      </trkpt>
      <trkpt lat="48.715453" lon="16.734320">
        <ele>238.914067</ele>
        <time>2020-08-13T05:47:50.426Z</time>
      </trkpt>
      <trkpt lat="48.715500" lon="16.734199">
        <ele>238.989060</ele>
        <time>2020-08-13T05:47:52.420Z</time>
      </trkpt>
      <trkpt lat="48.715548" lon="16.734074">
        <ele>239.066306</ele>
        <time>2020-08-13T05:47:54.411Z</time>
      </trkpt>
      <trkpt lat="48.715593" lon="16.733944">
        <ele>239.144714</ele>
        <time>2020-08-13T05:47:56.412Z</time>
      </trkpt>
      <trkpt lat="48.715639" lon="16.733811">
        <ele>239.224916</ele>
        <time>2020-08-13T05:47:58.442Z</time>
      </trkpt>
      <trkpt lat="48.715702" lon="16.733679">
        <ele>239.311928</ele>
        <time>2020-08-13T05:48:00.436Z</time>
      </trkpt>
      <trkpt lat="48.715765" lon="16.733554">
        <ele>239.395939</ele>
        <time>2020-08-13T05:48:02.449Z</time>
      </trkpt>
      <trkpt lat="48.715821" lon="16.733417">
        <ele>239.482014</ele>
        <time>2020-08-13T05:48:04.423Z</time>
      </trkpt>
      <trkpt lat="48.715879" lon="16.733278">
        <ele>239.569853</ele>
        <time>2020-08-13T05:48:06.462Z</time>
      </trkpt>
      <trkpt lat="48.715927" lon="16.733139">
        <ele>239.644999</ele>
        <time>2020-08-13T05:48:08.413Z</time>
      </trkpt>
      <trkpt lat="48.715980" lon="16.733000">
        <ele>239.684572</ele>
        <time>2020-08-13T05:48:10.430Z</time>
      </trkpt>
      <trkpt lat="48.716029" lon="16.732856">
        <ele>239.724509</ele>
        <time>2020-08-13T05:48:12.475Z</time>
      </trkpt>
      <trkpt lat="48.716080" lon="16.732715">
        <ele>239.764144</ele>
        <time>2020-08-13T05:48:14.429Z</time>
      </trkpt>
      <trkpt lat="48.716131" lon="16.732579">
        <ele>239.802703</ele>
        <time>2020-08-13T05:48:16.442Z</time>
      </trkpt>
      <trkpt lat="48.716185" lon="16.732442">
        <ele>239.842040</ele>
        <time>2020-08-13T05:48:18.432Z</time>
      </trkpt>
      <trkpt lat="48.716240" lon="16.732296">
        <ele>239.883480</ele>
        <time>2020-08-13T05:48:20.458Z</time>
      </trkpt>
      <trkpt lat="48.716291" lon="16.732151">
        <ele>239.923982</ele>
        <time>2020-08-13T05:48:22.434Z</time>
      </trkpt>
      <trkpt lat="48.716349" lon="16.732001">
        <ele>239.966837</ele>
        <time>2020-08-13T05:48:24.421Z</time>
      </trkpt>
      <trkpt lat="48.716412" lon="16.731857">
        <ele>240.009426</ele>
        <time>2020-08-13T05:48:26.451Z</time>
      </trkpt>
      <trkpt lat="48.716476" lon="16.731710">
        <ele>240.052838</ele>
        <time>2020-08-13T05:48:28.432Z</time>
      </trkpt>
      <trkpt lat="48.716537" lon="16.731562">
        <ele>240.095852</ele>
        <time>2020-08-13T05:48:30.444Z</time>
      </trkpt>
      <trkpt lat="48.716598" lon="16.731409">
        <ele>240.139915</ele>
        <time>2020-08-13T05:48:32.441Z</time>
      </trkpt>
      <trkpt lat="48.716660" lon="16.731255">
        <ele>240.184383</ele>
        <time>2020-08-13T05:48:34.434Z</time>
      </trkpt>
      <trkpt lat="48.716716" lon="16.731105">
        <ele>240.226865</ele>
        <time>2020-08-13T05:48:36.415Z</time>
      </trkpt>
      <trkpt lat="48.716771" lon="16.730950">
        <ele>240.270246</ele>
        <time>2020-08-13T05:48:38.445Z</time>
      </trkpt>
      <trkpt lat="48.716821" lon="16.730798">
        <ele>240.311915</ele>
        <time>2020-08-13T05:48:40.419Z</time>
      </trkpt>
      <trkpt lat="48.716870" lon="16.730634">
        <ele>240.352920</ele>
        <time>2020-08-13T05:48:42.431Z</time>
      </trkpt>
      <trkpt lat="48.716912" lon="16.730480">
        <ele>240.390874</ele>
        <time>2020-08-13T05:48:44.438Z</time>
      </trkpt>
      <trkpt lat="48.716948" lon="16.730325">
        <ele>240.428301</ele>
        <time>2020-08-13T05:48:46.441Z</time>
      </trkpt>
      <trkpt lat="48.716983" lon="16.730175">
        <ele>240.464539</ele>
        <time>2020-08-13T05:48:48.425Z</time>
      </trkpt>
      <trkpt lat="48.717013" lon="16.730026">
        <ele>240.500020</ele>
        <time>2020-08-13T05:48:50.427Z</time>
      </trkpt>
      <trkpt lat="48.717042" lon="16.729876">
        <ele>240.535621</ele>
        <time>2020-08-13T05:48:52.436Z</time>
      </trkpt>
      <trkpt lat="48.717063" lon="16.729728">
        <ele>240.570101</ele>
        <time>2020-08-13T05:48:54.425Z</time>
      </trkpt>
      <trkpt lat="48.717078" lon="16.729574">
        <ele>240.605556</ele>
        <time>2020-08-13T05:48:56.405Z</time>
      </trkpt>
      <trkpt lat="48.717090" lon="16.729417">
        <ele>240.641554</ele>
        <time>2020-08-13T05:48:58.458Z</time>
      </trkpt>
      <trkpt lat="48.717098" lon="16.729260">
        <ele>240.677419</ele>
        <time>2020-08-13T05:49:00.446Z</time>
      </trkpt>
      <trkpt lat="48.717104" lon="16.729095">
        <ele>240.715057</ele>
        <time>2020-08-13T05:49:02.424Z</time>
      </trkpt>
      <trkpt lat="48.717107" lon="16.728936">
        <ele>240.751286</ele>
        <time>2020-08-13T05:49:04.436Z</time>
      </trkpt>
      <trkpt lat="48.717108" lon="16.728776">
        <ele>240.787730</ele>
        <time>2020-08-13T05:49:06.421Z</time>
      </trkpt>
      <trkpt lat="48.717116" lon="16.728612">
        <ele>240.825185</ele>
        <time>2020-08-13T05:49:08.423Z</time>
      </trkpt>
      <trkpt lat="48.717129" lon="16.728445">
        <ele>240.863485</ele>
        <time>2020-08-13T05:49:10.422Z</time>
      </trkpt>
      <trkpt lat="48.717144" lon="16.728282">
        <ele>240.900969</ele>
        <time>2020-08-13T05:49:12.431Z</time>
      </trkpt>
      <trkpt lat="48.717181" lon="16.728130">
        <ele>240.939981</ele>
        <time>2020-08-13T05:49:14.418Z</time>
      </trkpt>
      <trkpt lat="48.717229" lon="16.727974">
        <ele>240.990345</ele>
        <time>2020-08-13T05:49:16.436Z</time>
      </trkpt>
      <trkpt lat="48.717276" lon="16.727821">
        <ele>241.039727</ele>
        <time>2020-08-13T05:49:18.457Z</time>
      </trkpt>
      <trkpt lat="48.717324" lon="16.727664">
        <ele>241.090357</ele>
        <time>2020-08-13T05:49:20.444Z</time>
      </trkpt>
      <trkpt lat="48.717376" lon="16.727509">
        <ele>241.141235</ele>
        <time>2020-08-13T05:49:22.416Z</time>
      </trkpt>
      <trkpt lat="48.717431" lon="16.727353">
        <ele>241.192988</ele>
        <time>2020-08-13T05:49:24.423Z</time>
      </trkpt>
      <trkpt lat="48.717488" lon="16.727196">
        <ele>241.245421</ele>
        <time>2020-08-13T05:49:26.425Z</time>
      </trkpt>
      <trkpt lat="48.717550" lon="16.727040">
        <ele>241.298708</ele>
        <time>2020-08-13T05:49:28.453Z</time>
      </trkpt>
      <trkpt lat="48.717616" lon="16.726888">
        <ele>241.351949</ele>
        <time>2020-08-13T05:49:30.433Z</time>
      </trkpt>
      <trkpt lat="48.717687" lon="16.726747">
        <ele>241.403848</ele>
        <time>2020-08-13T05:49:32.441Z</time>
      </trkpt>
      <trkpt lat="48.717760" lon="16.726610">
        <ele>241.455373</ele>
        <time>2020-08-13T05:49:34.420Z</time>
      </trkpt>
      <trkpt lat="48.717839" lon="16.726473">
        <ele>241.508611</ele>
        <time>2020-08-13T05:49:36.423Z</time>
      </trkpt>
      <trkpt lat="48.717912" lon="16.726339">
        <ele>241.559457</ele>
        <time>2020-08-13T05:49:38.440Z</time>
      </trkpt>
      <trkpt lat="48.717983" lon="16.726213">
        <ele>241.607939</ele>
        <time>2020-08-13T05:49:40.426Z</time>
      </trkpt>
      <trkpt lat="48.718060" lon="16.726089">
        <ele>241.657763</ele>
        <time>2020-08-13T05:49:42.435Z</time>
      </trkpt>
      <trkpt lat="48.718138" lon="16.725967">
        <ele>241.707470</ele>
        <time>2020-08-13T05:49:44.431Z</time>
      </trkpt>
      <trkpt lat="48.718212" lon="16.725852">
        <ele>241.743187</ele>
        <time>2020-08-13T05:49:46.421Z</time>
      </trkpt>
      <trkpt lat="48.718287" lon="16.725736">
        <ele>241.770364</ele>
        <time>2020-08-13T05:49:48.424Z</time>
      </trkpt>
      <trkpt lat="48.718371" lon="16.725620">
        <ele>241.799184</ele>
        <time>2020-08-13T05:49:50.423Z</time>
      </trkpt>
      <trkpt lat="48.718449" lon="16.725511">
        <ele>241.826092</ele>
        <time>2020-08-13T05:49:52.426Z</time>
      </trkpt>
      <trkpt lat="48.718525" lon="16.725410">
        <ele>241.851727</ele>
        <time>2020-08-13T05:49:54.428Z</time>
      </trkpt>
      <trkpt lat="48.718607" lon="16.725299">
        <ele>241.879610</ele>
        <time>2020-08-13T05:49:56.430Z</time>
      </trkpt>
      <trkpt lat="48.718682" lon="16.725195">
        <ele>241.905391</ele>
        <time>2020-08-13T05:49:58.432Z</time>
      </trkpt>
      <trkpt lat="48.718754" lon="16.725092">
        <ele>241.930501</ele>
        <time>2020-08-13T05:50:00.431Z</time>
      </trkpt>
      <trkpt lat="48.718835" lon="16.724995">
        <ele>241.956682</ele>
        <time>2020-08-13T05:50:02.413Z</time>
      </trkpt>
      <trkpt lat="48.718912" lon="16.724902">
        <ele>241.981653</ele>
        <time>2020-08-13T05:50:04.428Z</time>
      </trkpt>
      <trkpt lat="48.718993" lon="16.724810">
        <ele>242.007324</ele>
        <time>2020-08-13T05:50:06.447Z</time>
      </trkpt>
      <trkpt lat="48.719080" lon="16.724718">
        <ele>242.034229</ele>
        <time>2020-08-13T05:50:08.444Z</time>
      </trkpt>
      <trkpt lat="48.719158" lon="16.724633">
        <ele>242.058593</ele>
        <time>2020-08-13T05:50:10.429Z</time>
      </trkpt>
      <trkpt lat="48.719241" lon="16.724556">
        <ele>242.083274</ele>
        <time>2020-08-13T05:50:12.434Z</time>
      </trkpt>
      <trkpt lat="48.719326" lon="16.724486">
        <ele>242.107808</ele>
        <time>2020-08-13T05:50:14.424Z</time>
      </trkpt>
      <trkpt lat="48.719415" lon="16.724421">
        <ele>242.132864</ele>
        <time>2020-08-13T05:50:16.420Z</time>
      </trkpt>
      <trkpt lat="48.719503" lon="16.724354">
        <ele>242.157840</ele>
        <time>2020-08-13T05:50:18.428Z</time>
      </trkpt>
      <trkpt lat="48.719589" lon="16.724299">
        <ele>242.181514</ele>
        <time>2020-08-13T05:50:20.426Z</time>
      </trkpt>
      <trkpt lat="48.719682" lon="16.724242">
        <ele>242.209580</ele>
        <time>2020-08-13T05:50:22.417Z</time>
      </trkpt>
      <trkpt lat="48.719779" lon="16.724192">
        <ele>242.238573</ele>
        <time>2020-08-13T05:50:24.458Z</time>
      </trkpt>
      <trkpt lat="48.719879" lon="16.724151">
        <ele>242.267888</ele>
        <time>2020-08-13T05:50:26.442Z</time>
      </trkpt>
      <trkpt lat="48.719980" lon="16.724122">
        <ele>242.296977</ele>
        <time>2020-08-13T05:50:28.432Z</time>
      </trkpt>
      <trkpt lat="48.720085" lon="16.724095">
        <ele>242.327114</ele>
        <time>2020-08-13T05:50:30.428Z</time>
      </trkpt>
      <trkpt lat="48.720195" lon="16.724072">
        <ele>242.358537</ele>
        <time>2020-08-13T05:50:32.423Z</time>
      </trkpt>
      <trkpt lat="48.720305" lon="16.724064">
        <ele>242.389700</ele>
        <time>2020-08-13T05:50:34.454Z</time>
      </trkpt>
      <trkpt lat="48.720416" lon="16.724059">
        <ele>242.421125</ele>
        <time>2020-08-13T05:50:36.436Z</time>
      </trkpt>
      <trkpt lat="48.720521" lon="16.724063">
        <ele>242.450847</ele>
        <time>2020-08-13T05:50:38.422Z</time>
      </trkpt>
      <trkpt lat="48.720625" lon="16.724077">
        <ele>242.480393</ele>
        <time>2020-08-13T05:50:40.421Z</time>
      </trkpt>
      <trkpt lat="48.720732" lon="16.724093">
        <ele>242.510819</ele>
        <time>2020-08-13T05:50:42.432Z</time>
      </trkpt>
      <trkpt lat="48.720834" lon="16.724108">
        <ele>242.539818</ele>
        <time>2020-08-13T05:50:44.441Z</time>
      </trkpt>
      <trkpt lat="48.720934" lon="16.724121">
        <ele>242.568220</ele>
        <time>2020-08-13T05:50:46.418Z</time>
      </trkpt>
      <trkpt lat="48.721029" lon="16.724131">
        <ele>242.595168</ele>
        <time>2020-08-13T05:50:48.428Z</time>
      </trkpt>
      <trkpt lat="48.721119" lon="16.724138">
        <ele>242.620670</ele>
        <time>2020-08-13T05:50:50.431Z</time>
      </trkpt>
      <trkpt lat="48.721246" lon="16.724145">
        <ele>242.656632</ele>
        <time>2020-08-13T05:50:53.422Z</time>
      </trkpt>
      <trkpt lat="48.721371" lon="16.724164">
        <ele>242.692182</ele>
        <time>2020-08-13T05:50:56.416Z</time>
      </trkpt>
      <trkpt lat="48.721497" lon="16.724157">
        <ele>242.720764</ele>
        <time>2020-08-13T05:50:59.441Z</time>
      </trkpt>
      <trkpt lat="48.721574" lon="16.724007">
        <ele>242.748967</ele>
        <time>2020-08-13T05:51:02.434Z</time>
      </trkpt>
      <trkpt lat="48.721542" lon="16.723829">
        <ele>242.776343</ele>
        <time>2020-08-13T05:51:05.430Z</time>
      </trkpt>
      <trkpt lat="48.721524" lon="16.723651">
        <ele>242.803064</ele>
        <time>2020-08-13T05:51:08.431Z</time>
      </trkpt>
      <trkpt lat="48.721515" lon="16.723467">
        <ele>242.830443</ele>
        <time>2020-08-13T05:51:11.425Z</time>
      </trkpt>
      <trkpt lat="48.721528" lon="16.723289">
        <ele>242.857017</ele>
        <time>2020-08-13T05:51:14.415Z</time>
      </trkpt>
      <trkpt lat="48.721562" lon="16.723112">
        <ele>242.884372</ele>
        <time>2020-08-13T05:51:17.442Z</time>
      </trkpt>
      <trkpt lat="48.721600" lon="16.722952">
        <ele>242.909606</ele>
        <time>2020-08-13T05:51:20.422Z</time>
      </trkpt>
      <trkpt lat="48.721605" lon="16.722796">
        <ele>242.932782</ele>
        <time>2020-08-13T05:51:23.451Z</time>
      </trkpt>
      <trkpt lat="48.721601" lon="16.722632">
        <ele>242.957134</ele>
        <time>2020-08-13T05:51:26.429Z</time>
      </trkpt>
      <trkpt lat="48.721593" lon="16.722487">
        <ele>242.978725</ele>
        <time>2020-08-13T05:51:29.435Z</time>
      </trkpt>
      <trkpt lat="48.721578" lon="16.722339">
        <ele>243.000944</ele>
        <time>2020-08-13T05:51:33.431Z</time>
      </trkpt>
      <trkpt lat="48.721548" lon="16.722178">
        <ele>243.025769</ele>
        <time>2020-08-13T05:51:44.430Z</time>
      </trkpt>
      <trkpt lat="48.721465" lon="16.722061">
        <ele>243.051263</ele>
        <time>2020-08-13T05:51:48.427Z</time>
      </trkpt>
      <trkpt lat="48.721396" lon="16.721948">
        <ele>243.074111</ele>
        <time>2020-08-13T05:51:51.426Z</time>
      </trkpt>
      <trkpt lat="48.721331" lon="16.721832">
        <ele>243.096695</ele>
        <time>2020-08-13T05:51:54.441Z</time>
      </trkpt>
      <trkpt lat="48.721281" lon="16.721712">
        <ele>243.203735</ele>
        <time>2020-08-13T05:51:57.435Z</time>
      </trkpt>
      <trkpt lat="48.721227" lon="16.721561">
        <ele>243.339185</ele>
        <time>2020-08-13T05:52:01.430Z</time>
      </trkpt>
      <trkpt lat="48.721187" lon="16.721408">
        <ele>243.468972</ele>
        <time>2020-08-13T05:52:05.438Z</time>
      </trkpt>
      <trkpt lat="48.721163" lon="16.721268">
        <ele>243.583044</ele>
        <time>2020-08-13T05:52:09.430Z</time>
      </trkpt>
      <trkpt lat="48.721141" lon="16.721115">
        <ele>243.706534</ele>
        <time>2020-08-13T05:52:14.458Z</time>
      </trkpt>
      <trkpt lat="48.721133" lon="16.720959">
        <ele>243.829929</ele>
        <time>2020-08-13T05:52:19.446Z</time>
      </trkpt>
      <trkpt lat="48.721143" lon="16.720813">
        <ele>243.945685</ele>
        <time>2020-08-13T05:52:24.430Z</time>
      </trkpt>
      <trkpt lat="48.721155" lon="16.720665">
        <ele>244.063278</ele>
        <time>2020-08-13T05:52:29.432Z</time>
      </trkpt>
      <trkpt lat="48.721168" lon="16.720520">
        <ele>244.178677</ele>
        <time>2020-08-13T05:52:34.428Z</time>
      </trkpt>
      <trkpt lat="48.721181" lon="16.720354">
        <ele>244.310506</ele>
        <time>2020-08-13T05:52:40.428Z</time>
      </trkpt>
      <trkpt lat="48.721180" lon="16.720217">
        <ele>244.418552</ele>
        <time>2020-08-13T05:52:45.430Z</time>
      </trkpt>
      <trkpt lat="48.721181" lon="16.720067">
        <ele>244.536850</ele>
        <time>2020-08-13T05:52:50.433Z</time>
      </trkpt>
      <trkpt lat="48.721169" lon="16.719914">
        <ele>244.658358</ele>
        <time>2020-08-13T05:52:55.446Z</time>
      </trkpt>
      <trkpt lat="48.721169" lon="16.719776">
        <ele>244.767186</ele>
        <time>2020-08-13T05:53:00.431Z</time>
      </trkpt>
      <trkpt lat="48.721166" lon="16.719632">
        <ele>244.880803</ele>
        <time>2020-08-13T05:53:05.439Z</time>
      </trkpt>
      <trkpt lat="48.721150" lon="16.719481">
        <ele>245.001409</ele>
        <time>2020-08-13T05:53:10.432Z</time>
      </trkpt>
      <trkpt lat="48.721140" lon="16.719344">
        <ele>245.110108</ele>
        <time>2020-08-13T05:53:15.431Z</time>
      </trkpt>
      <trkpt lat="48.721137" lon="16.719205">
        <ele>245.219784</ele>
        <time>2020-08-13T05:53:20.448Z</time>
      </trkpt>
      <trkpt lat="48.721122" lon="16.719065">
        <ele>245.401117</ele>
        <time>2020-08-13T05:53:25.425Z</time>
      </trkpt>
      <trkpt lat="48.721116" lon="16.718922">
        <ele>245.607838</ele>
        <time>2020-08-13T05:53:30.414Z</time>
      </trkpt>
      <trkpt lat="48.721109" lon="16.718771">
        <ele>245.826222</ele>
        <time>2020-08-13T05:53:36.457Z</time>
      </trkpt>
      <trkpt lat="48.721103" lon="16.718626">
        <ele>246.035823</ele>
        <time>2020-08-13T05:53:42.437Z</time>
      </trkpt>
      <trkpt lat="48.721089" lon="16.718478">
        <ele>246.251526</ele>
        <time>2020-08-13T05:53:49.426Z</time>
      </trkpt>
      <trkpt lat="48.721072" lon="16.718331">
        <ele>246.466835</ele>
        <time>2020-08-13T05:53:56.412Z</time>
      </trkpt>
      <trkpt lat="48.721064" lon="16.718181">
        <ele>246.683945</ele>
        <time>2020-08-13T05:54:02.440Z</time>
      </trkpt>
      <trkpt lat="48.721049" lon="16.718029">
        <ele>246.905674</ele>
        <time>2020-08-13T05:54:08.432Z</time>
      </trkpt>
      <trkpt lat="48.721027" lon="16.717869">
        <ele>247.141466</ele>
        <time>2020-08-13T05:54:14.427Z</time>
      </trkpt>
      <trkpt lat="48.720989" lon="16.717716">
        <ele>247.377322</ele>
        <time>2020-08-13T05:54:20.445Z</time>
      </trkpt>
      <trkpt lat="48.720945" lon="16.717589">
        <ele>247.584273</ele>
        <time>2020-08-13T05:54:25.422Z</time>
      </trkpt>
      <trkpt lat="48.720896" lon="16.717472">
        <ele>247.784207</ele>
        <time>2020-08-13T05:54:29.414Z</time>
      </trkpt>
      <trkpt lat="48.720840" lon="16.717334">
        <ele>248.017948</ele>
        <time>2020-08-13T05:54:33.457Z</time>
      </trkpt>
      <trkpt lat="48.720772" lon="16.717189">
        <ele>248.274606</ele>
        <time>2020-08-13T05:54:37.435Z</time>
      </trkpt>
      <trkpt lat="48.720717" lon="16.717066">
        <ele>248.488978</ele>
        <time>2020-08-13T05:54:40.420Z</time>
      </trkpt>
      <trkpt lat="48.720662" lon="16.716923">
        <ele>248.727784</ele>
        <time>2020-08-13T05:54:43.445Z</time>
      </trkpt>
      <trkpt lat="48.720606" lon="16.716786">
        <ele>248.960298</ele>
        <time>2020-08-13T05:54:46.429Z</time>
      </trkpt>
      <trkpt lat="48.720546" lon="16.716647">
        <ele>249.204122</ele>
        <time>2020-08-13T05:54:49.430Z</time>
      </trkpt>
      <trkpt lat="48.720484" lon="16.716516">
        <ele>249.488423</ele>
        <time>2020-08-13T05:54:52.431Z</time>
      </trkpt>
      <trkpt lat="48.720420" lon="16.716385">
        <ele>249.775874</ele>
        <time>2020-08-13T05:54:55.439Z</time>
      </trkpt>
      <trkpt lat="48.720363" lon="16.716251">
        <ele>250.057030</ele>
        <time>2020-08-13T05:54:58.431Z</time>
      </trkpt>
      <trkpt lat="48.720303" lon="16.716108">
        <ele>250.355876</ele>
        <time>2020-08-13T05:55:01.429Z</time>
      </trkpt>
      <trkpt lat="48.720242" lon="16.715968">
        <ele>250.651737</ele>
        <time>2020-08-13T05:55:04.428Z</time>
      </trkpt>
      <trkpt lat="48.720177" lon="16.715825">
        <ele>250.957963</ele>
        <time>2020-08-13T05:55:07.410Z</time>
      </trkpt>
      <trkpt lat="48.720112" lon="16.715678">
        <ele>251.270024</ele>
        <time>2020-08-13T05:55:10.427Z</time>
      </trkpt>
      <trkpt lat="48.720051" lon="16.715532">
        <ele>251.574770</ele>
        <time>2020-08-13T05:55:13.419Z</time>
      </trkpt>
      <trkpt lat="48.719990" lon="16.715393">
        <ele>251.869162</ele>
        <time>2020-08-13T05:55:16.435Z</time>
      </trkpt>
      <trkpt lat="48.719930" lon="16.715251">
        <ele>252.166523</ele>
        <time>2020-08-13T05:55:19.431Z</time>
      </trkpt>
      <trkpt lat="48.719871" lon="16.715111">
        <ele>252.459474</ele>
        <time>2020-08-13T05:55:22.431Z</time>
      </trkpt>
      <trkpt lat="48.719808" lon="16.714974">
        <ele>252.753960</ele>
        <time>2020-08-13T05:55:25.410Z</time>
      </trkpt>
      <trkpt lat="48.719756" lon="16.714856">
        <ele>253.004196</ele>
        <time>2020-08-13T05:55:28.426Z</time>
      </trkpt>
      <trkpt lat="48.719699" lon="16.714740">
        <ele>253.259258</ele>
        <time>2020-08-13T05:55:31.416Z</time>
      </trkpt>
      <trkpt lat="48.719647" lon="16.714616">
        <ele>253.518360</ele>
        <time>2020-08-13T05:55:34.422Z</time>
      </trkpt>
      <trkpt lat="48.719590" lon="16.714457">
        <ele>253.837467</ele>
        <time>2020-08-13T05:55:38.432Z</time>
      </trkpt>
      <trkpt lat="48.719524" lon="16.714307">
        <ele>254.096568</ele>
        <time>2020-08-13T05:55:42.422Z</time>
      </trkpt>
      <trkpt lat="48.719457" lon="16.714163">
        <ele>254.297573</ele>
        <time>2020-08-13T05:55:46.452Z</time>
      </trkpt>
      <trkpt lat="48.719388" lon="16.714020">
        <ele>254.499668</ele>
        <time>2020-08-13T05:55:50.448Z</time>
      </trkpt>
      <trkpt lat="48.719326" lon="16.713867">
        <ele>254.704492</ele>
        <time>2020-08-13T05:55:54.444Z</time>
      </trkpt>
      <trkpt lat="48.719271" lon="16.713746">
        <ele>254.872108</ele>
        <time>2020-08-13T05:55:57.446Z</time>
      </trkpt>
      <trkpt lat="48.719211" lon="16.713596">
        <ele>255.072209</ele>
        <time>2020-08-13T05:56:01.412Z</time>
      </trkpt>
      <trkpt lat="48.719163" lon="16.713479">
        <ele>255.229375</ele>
        <time>2020-08-13T05:56:04.445Z</time>
      </trkpt>
      <trkpt lat="48.719109" lon="16.713369">
        <ele>255.385781</ele>
        <time>2020-08-13T05:56:07.422Z</time>
      </trkpt>
      <trkpt lat="48.719039" lon="16.713235">
        <ele>255.580753</ele>
        <time>2020-08-13T05:56:11.434Z</time>
      </trkpt>
      <trkpt lat="48.718976" lon="16.713100">
        <ele>255.769383</ele>
        <time>2020-08-13T05:56:15.441Z</time>
      </trkpt>
      <trkpt lat="48.718917" lon="16.712966">
        <ele>255.953156</ele>
        <time>2020-08-13T05:56:19.429Z</time>
      </trkpt>
      <trkpt lat="48.718865" lon="16.712834">
        <ele>256.128533</ele>
        <time>2020-08-13T05:56:23.435Z</time>
      </trkpt>
      <trkpt lat="48.718807" lon="16.712707">
        <ele>256.304729</ele>
        <time>2020-08-13T05:56:27.442Z</time>
      </trkpt>
      <trkpt lat="48.718748" lon="16.712591">
        <ele>256.471812</ele>
        <time>2020-08-13T05:56:31.420Z</time>
      </trkpt>
      <trkpt lat="48.718689" lon="16.712450">
        <ele>256.662279</ele>
        <time>2020-08-13T05:56:35.438Z</time>
      </trkpt>
      <trkpt lat="48.718627" lon="16.712301">
        <ele>256.863231</ele>
        <time>2020-08-13T05:56:39.454Z</time>
      </trkpt>
      <trkpt lat="48.718559" lon="16.712167">
        <ele>257.056077</ele>
        <time>2020-08-13T05:56:43.414Z</time>
      </trkpt>
      <trkpt lat="48.718497" lon="16.712023">
        <ele>257.327540</ele>
        <time>2020-08-13T05:56:47.428Z</time>
      </trkpt>
      <trkpt lat="48.718437" lon="16.711884">
        <ele>257.609966</ele>
        <time>2020-08-13T05:56:51.438Z</time>
      </trkpt>
      <trkpt lat="48.718370" lon="16.711744">
        <ele>257.904033</ele>
        <time>2020-08-13T05:56:55.430Z</time>
      </trkpt>
      <trkpt lat="48.718308" lon="16.711610">
        <ele>258.182312</ele>
        <time>2020-08-13T05:56:59.434Z</time>
      </trkpt>
      <trkpt lat="48.718243" lon="16.711464">
        <ele>258.481783</ele>
        <time>2020-08-13T05:57:03.432Z</time>
      </trkpt>
      <trkpt lat="48.718184" lon="16.711328">
        <ele>258.758531</ele>
        <time>2020-08-13T05:57:07.445Z</time>
      </trkpt>
      <trkpt lat="48.718123" lon="16.711181">
        <ele>259.053799</ele>
        <time>2020-08-13T05:57:11.431Z</time>
      </trkpt>
      <trkpt lat="48.718055" lon="16.711050">
        <ele>259.337210</ele>
        <time>2020-08-13T05:57:15.437Z</time>
      </trkpt>
      <trkpt lat="48.717984" lon="16.710919">
        <ele>259.625465</ele>
        <time>2020-08-13T05:57:19.455Z</time>
      </trkpt>
      <trkpt lat="48.717916" lon="16.710779">
        <ele>259.921054</ele>
        <time>2020-08-13T05:57:23.437Z</time>
      </trkpt>
      <trkpt lat="48.717855" lon="16.710635">
        <ele>260.212018</ele>
        <time>2020-08-13T05:57:27.436Z</time>
      </trkpt>
      <trkpt lat="48.717796" lon="16.710496">
        <ele>260.493043</ele>
        <time>2020-08-13T05:57:31.421Z</time>
      </trkpt>
      <trkpt lat="48.717734" lon="16.710359">
        <ele>260.775516</ele>
        <time>2020-08-13T05:57:35.419Z</time>
      </trkpt>
      <trkpt lat="48.717667" lon="16.710220">
        <ele>261.068211</ele>
        <time>2020-08-13T05:57:39.434Z</time>
      </trkpt>
      <trkpt lat="48.717601" lon="16.710090">
        <ele>261.347116</ele>
        <time>2020-08-13T05:57:43.443Z</time>
      </trkpt>
      <trkpt lat="48.717553" lon="16.709953">
        <ele>261.610864</ele>
        <time>2020-08-13T05:57:47.430Z</time>
      </trkpt>
      <trkpt lat="48.717501" lon="16.709825">
        <ele>261.890506</ele>
        <time>2020-08-13T05:57:51.453Z</time>
      </trkpt>
      <trkpt lat="48.717439" lon="16.709710">
        <ele>262.188868</ele>
        <time>2020-08-13T05:57:55.432Z</time>
      </trkpt>
      <trkpt lat="48.717385" lon="16.709589">
        <ele>262.482349</ele>
        <time>2020-08-13T05:57:59.420Z</time>
      </trkpt>
      <trkpt lat="48.717310" lon="16.709459">
        <ele>262.829289</ele>
        <time>2020-08-13T05:58:04.423Z</time>
      </trkpt>
      <trkpt lat="48.717255" lon="16.709347">
        <ele>263.109785</ele>
        <time>2020-08-13T05:58:08.424Z</time>
      </trkpt>
      <trkpt lat="48.717200" lon="16.709233">
        <ele>263.393515</ele>
        <time>2020-08-13T05:58:12.434Z</time>
      </trkpt>
      <trkpt lat="48.717139" lon="16.709122">
        <ele>263.683742</ele>
        <time>2020-08-13T05:58:16.430Z</time>
      </trkpt>
      <trkpt lat="48.717073" lon="16.709003">
        <ele>263.996066</ele>
        <time>2020-08-13T05:58:20.415Z</time>
      </trkpt>
      <trkpt lat="48.717011" lon="16.708875">
        <ele>264.315083</ele>
        <time>2020-08-13T05:58:24.448Z</time>
      </trkpt>
      <trkpt lat="48.716937" lon="16.708757">
        <ele>264.642152</ele>
        <time>2020-08-13T05:58:28.412Z</time>
      </trkpt>
      <trkpt lat="48.716866" lon="16.708637">
        <ele>264.965978</ele>
        <time>2020-08-13T05:58:32.429Z</time>
      </trkpt>
      <trkpt lat="48.716801" lon="16.708508">
        <ele>265.292079</ele>
        <time>2020-08-13T05:58:36.420Z</time>
      </trkpt>
      <trkpt lat="48.716735" lon="16.708384">
        <ele>265.612159</ele>
        <time>2020-08-13T05:58:40.484Z</time>
      </trkpt>
      <trkpt lat="48.716666" lon="16.708264">
        <ele>265.931951</ele>
        <time>2020-08-13T05:58:44.421Z</time>
      </trkpt>
      <trkpt lat="48.716596" lon="16.708147">
        <ele>266.249262</ele>
        <time>2020-08-13T05:58:48.431Z</time>
      </trkpt>
      <trkpt lat="48.716531" lon="16.708019">
        <ele>266.573770</ele>
        <time>2020-08-13T05:58:52.428Z</time>
      </trkpt>
      <trkpt lat="48.716469" lon="16.707895">
        <ele>266.886347</ele>
        <time>2020-08-13T05:58:56.425Z</time>
      </trkpt>
      <trkpt lat="48.716398" lon="16.707775">
        <ele>267.210174</ele>
        <time>2020-08-13T05:59:00.440Z</time>
      </trkpt>
      <trkpt lat="48.716332" lon="16.707660">
        <ele>267.477247</ele>
        <time>2020-08-13T05:59:04.436Z</time>
      </trkpt>
      <trkpt lat="48.716262" lon="16.707540">
        <ele>267.757819</ele>
        <time>2020-08-13T05:59:08.449Z</time>
      </trkpt>
      <trkpt lat="48.716195" lon="16.707427">
        <ele>268.023937</ele>
        <time>2020-08-13T05:59:12.460Z</time>
      </trkpt>
      <trkpt lat="48.716114" lon="16.707316">
        <ele>268.313849</ele>
        <time>2020-08-13T05:59:16.428Z</time>
      </trkpt>
      <trkpt lat="48.716044" lon="16.707209">
        <ele>268.577792</ele>
        <time>2020-08-13T05:59:20.444Z</time>
      </trkpt>
      <trkpt lat="48.715970" lon="16.707107">
        <ele>268.843348</ele>
        <time>2020-08-13T05:59:24.432Z</time>
      </trkpt>
      <trkpt lat="48.715896" lon="16.706987">
        <ele>269.131064</ele>
        <time>2020-08-13T05:59:28.446Z</time>
      </trkpt>
      <trkpt lat="48.715814" lon="16.706864">
        <ele>269.437355</ele>
        <time>2020-08-13T05:59:32.426Z</time>
      </trkpt>
      <trkpt lat="48.715731" lon="16.706752">
        <ele>269.732390</ele>
        <time>2020-08-13T05:59:36.442Z</time>
      </trkpt>
      <trkpt lat="48.715645" lon="16.706631">
        <ele>270.043924</ele>
        <time>2020-08-13T05:59:40.448Z</time>
      </trkpt>
      <trkpt lat="48.715578" lon="16.706536">
        <ele>270.287506</ele>
        <time>2020-08-13T05:59:43.443Z</time>
      </trkpt>
      <trkpt lat="48.715489" lon="16.706415">
        <ele>270.604924</ele>
        <time>2020-08-13T05:59:47.434Z</time>
      </trkpt>
      <trkpt lat="48.715401" lon="16.706293">
        <ele>270.921550</ele>
        <time>2020-08-13T05:59:51.451Z</time>
      </trkpt>
      <trkpt lat="48.715336" lon="16.706194">
        <ele>271.166198</ele>
        <time>2020-08-13T05:59:54.421Z</time>
      </trkpt>
      <trkpt lat="48.715274" lon="16.706090">
        <ele>271.411722</ele>
        <time>2020-08-13T05:59:57.440Z</time>
      </trkpt>
      <trkpt lat="48.715195" lon="16.705965">
        <ele>271.714926</ele>
        <time>2020-08-13T06:00:01.442Z</time>
      </trkpt>
      <trkpt lat="48.715116" lon="16.705845">
        <ele>272.009150</ele>
        <time>2020-08-13T06:00:05.424Z</time>
      </trkpt>
      <trkpt lat="48.715051" lon="16.705749">
        <ele>272.224752</ele>
        <time>2020-08-13T06:00:08.430Z</time>
      </trkpt>
      <trkpt lat="48.714964" lon="16.705618">
        <ele>272.516085</ele>
        <time>2020-08-13T06:00:12.432Z</time>
      </trkpt>
      <trkpt lat="48.714897" lon="16.705522">
        <ele>272.735116</ele>
        <time>2020-08-13T06:00:15.432Z</time>
      </trkpt>
      <trkpt lat="48.714810" lon="16.705394">
        <ele>273.023155</ele>
        <time>2020-08-13T06:00:19.442Z</time>
      </trkpt>
      <trkpt lat="48.714744" lon="16.705279">
        <ele>273.262055</ele>
        <time>2020-08-13T06:00:22.438Z</time>
      </trkpt>
      <trkpt lat="48.714673" lon="16.705177">
        <ele>273.494453</ele>
        <time>2020-08-13T06:00:25.462Z</time>
      </trkpt>
      <trkpt lat="48.714605" lon="16.705084">
        <ele>273.712038</ele>
        <time>2020-08-13T06:00:28.440Z</time>
      </trkpt>
      <trkpt lat="48.714538" lon="16.704984">
        <ele>273.935424</ele>
        <time>2020-08-13T06:00:31.437Z</time>
      </trkpt>
      <trkpt lat="48.714473" lon="16.704882">
        <ele>274.157693</ele>
        <time>2020-08-13T06:00:34.445Z</time>
      </trkpt>
      <trkpt lat="48.714406" lon="16.704783">
        <ele>274.379982</ele>
        <time>2020-08-13T06:00:37.420Z</time>
      </trkpt>
      <trkpt lat="48.714338" lon="16.704682">
        <ele>274.606161</ele>
        <time>2020-08-13T06:00:40.462Z</time>
      </trkpt>
      <trkpt lat="48.714264" lon="16.704574">
        <ele>274.850209</ele>
        <time>2020-08-13T06:00:44.443Z</time>
      </trkpt>
      <trkpt lat="48.714187" lon="16.704465">
        <ele>275.100506</ele>
        <time>2020-08-13T06:00:48.423Z</time>
      </trkpt>
      <trkpt lat="48.714106" lon="16.704336">
        <ele>275.379631</ele>
        <time>2020-08-13T06:00:52.426Z</time>
      </trkpt>
      <trkpt lat="48.714019" lon="16.704217">
        <ele>275.658029</ele>
        <time>2020-08-13T06:00:56.410Z</time>
      </trkpt>
      <trkpt lat="48.713952" lon="16.704125">
        <ele>275.872803</ele>
        <time>2020-08-13T06:00:59.446Z</time>
      </trkpt>
      <trkpt lat="48.713891" lon="16.704024">
        <ele>276.087422</ele>
        <time>2020-08-13T06:01:02.440Z</time>
      </trkpt>
      <trkpt lat="48.713806" lon="16.703894">
        <ele>276.379495</ele>
        <time>2020-08-13T06:01:06.452Z</time>
      </trkpt>
      <trkpt lat="48.713719" lon="16.703776">
        <ele>276.669343</ele>
        <time>2020-08-13T06:01:10.441Z</time>
      </trkpt>
      <trkpt lat="48.713635" lon="16.703665">
        <ele>276.946019</ele>
        <time>2020-08-13T06:01:14.421Z</time>
      </trkpt>
      <trkpt lat="48.713545" lon="16.703550">
        <ele>277.238268</ele>
        <time>2020-08-13T06:01:18.435Z</time>
      </trkpt>
      <trkpt lat="48.713477" lon="16.703448">
        <ele>277.475789</ele>
        <time>2020-08-13T06:01:21.427Z</time>
      </trkpt>
      <trkpt lat="48.713413" lon="16.703346">
        <ele>277.706359</ele>
        <time>2020-08-13T06:01:24.476Z</time>
      </trkpt>
      <trkpt lat="48.713348" lon="16.703246">
        <ele>277.936301</ele>
        <time>2020-08-13T06:01:27.422Z</time>
      </trkpt>
      <trkpt lat="48.713259" lon="16.703128">
        <ele>278.229869</ele>
        <time>2020-08-13T06:01:31.435Z</time>
      </trkpt>
      <trkpt lat="48.713179" lon="16.703019">
        <ele>278.496939</ele>
        <time>2020-08-13T06:01:35.445Z</time>
      </trkpt>
      <trkpt lat="48.713100" lon="16.702908">
        <ele>278.764384</ele>
        <time>2020-08-13T06:01:39.467Z</time>
      </trkpt>
      <trkpt lat="48.713023" lon="16.702799">
        <ele>279.025962</ele>
        <time>2020-08-13T06:01:43.459Z</time>
      </trkpt>
      <trkpt lat="48.712937" lon="16.702706">
        <ele>279.288245</ele>
        <time>2020-08-13T06:01:47.419Z</time>
      </trkpt>
      <trkpt lat="48.712849" lon="16.702597">
        <ele>279.570398</ele>
        <time>2020-08-13T06:01:51.430Z</time>
      </trkpt>
      <trkpt lat="48.712761" lon="16.702489">
        <ele>279.851516</ele>
        <time>2020-08-13T06:01:55.418Z</time>
      </trkpt>
      <trkpt lat="48.712674" lon="16.702401">
        <ele>280.111190</ele>
        <time>2020-08-13T06:01:59.446Z</time>
      </trkpt>
      <trkpt lat="48.712595" lon="16.702304">
        <ele>280.363605</ele>
        <time>2020-08-13T06:02:03.410Z</time>
      </trkpt>
      <trkpt lat="48.712510" lon="16.702194">
        <ele>280.641093</ele>
        <time>2020-08-13T06:02:07.452Z</time>
      </trkpt>
      <trkpt lat="48.712417" lon="16.702081">
        <ele>280.995486</ele>
        <time>2020-08-13T06:02:11.430Z</time>
      </trkpt>
      <trkpt lat="48.712327" lon="16.701977">
        <ele>281.353637</ele>
        <time>2020-08-13T06:02:15.448Z</time>
      </trkpt>
      <trkpt lat="48.712236" lon="16.701859">
        <ele>281.732630</ele>
        <time>2020-08-13T06:02:19.432Z</time>
      </trkpt>
      <trkpt lat="48.712150" lon="16.701748">
        <ele>282.090100</ele>
        <time>2020-08-13T06:02:23.437Z</time>
      </trkpt>
      <trkpt lat="48.712061" lon="16.701643">
        <ele>282.447019</ele>
        <time>2020-08-13T06:02:27.432Z</time>
      </trkpt>
      <trkpt lat="48.711967" lon="16.701545">
        <ele>282.808071</ele>
        <time>2020-08-13T06:02:31.445Z</time>
      </trkpt>
      <trkpt lat="48.711878" lon="16.701445">
        <ele>283.158674</ele>
        <time>2020-08-13T06:02:35.420Z</time>
      </trkpt>
      <trkpt lat="48.711788" lon="16.701347">
        <ele>283.509371</ele>
        <time>2020-08-13T06:02:39.446Z</time>
      </trkpt>
      <trkpt lat="48.711699" lon="16.701243">
        <ele>283.865013</ele>
        <time>2020-08-13T06:02:43.439Z</time>
      </trkpt>
      <trkpt lat="48.711605" lon="16.701137">
        <ele>284.235789</ele>
        <time>2020-08-13T06:02:47.446Z</time>
      </trkpt>
      <trkpt lat="48.711519" lon="16.701026">
        <ele>284.593260</ele>
        <time>2020-08-13T06:02:51.433Z</time>
      </trkpt>
      <trkpt lat="48.711436" lon="16.700921">
        <ele>284.935397</ele>
        <time>2020-08-13T06:02:55.453Z</time>
      </trkpt>
      <trkpt lat="48.711347" lon="16.700823">
        <ele>285.283531</ele>
        <time>2020-08-13T06:02:59.430Z</time>
      </trkpt>
      <trkpt lat="48.711257" lon="16.700730">
        <ele>285.628241</ele>
        <time>2020-08-13T06:03:03.438Z</time>
      </trkpt>
      <trkpt lat="48.711169" lon="16.700643">
        <ele>285.960734</ele>
        <time>2020-08-13T06:03:07.464Z</time>
      </trkpt>
      <trkpt lat="48.711084" lon="16.700568">
        <ele>286.271987</ele>
        <time>2020-08-13T06:03:11.439Z</time>
      </trkpt>
      <trkpt lat="48.711003" lon="16.700502">
        <ele>287.259536</ele>
        <time>2020-08-13T06:03:15.438Z</time>
      </trkpt>
      <trkpt lat="48.710921" lon="16.700431">
        <ele>288.973972</ele>
        <time>2020-08-13T06:03:19.424Z</time>
      </trkpt>
      <trkpt lat="48.710835" lon="16.700358">
        <ele>290.763408</ele>
        <time>2020-08-13T06:03:23.450Z</time>
      </trkpt>
      <trkpt lat="48.710749" lon="16.700279">
        <ele>292.589045</ele>
        <time>2020-08-13T06:03:27.444Z</time>
      </trkpt>
      <trkpt lat="48.710664" lon="16.700218">
        <ele>294.296380</ele>
        <time>2020-08-13T06:03:31.438Z</time>
      </trkpt>
      <trkpt lat="48.710577" lon="16.700146">
        <ele>296.095907</ele>
        <time>2020-08-13T06:03:35.440Z</time>
      </trkpt>
      <trkpt lat="48.710496" lon="16.700069">
        <ele>297.831709</ele>
        <time>2020-08-13T06:03:39.444Z</time>
      </trkpt>
      <trkpt lat="48.710411" lon="16.700000">
        <ele>299.582205</ele>
        <time>2020-08-13T06:03:43.427Z</time>
      </trkpt>
      <trkpt lat="48.710350" lon="16.699945">
        <ele>300.870754</ele>
        <time>2020-08-13T06:04:09.126Z</time>
      </trkpt>
      <trkpt lat="48.710252" lon="16.699919">
        <ele>302.676874</ele>
        <time>2020-08-13T06:08:30.465Z</time>
      </trkpt>
      <trkpt lat="48.710146" lon="16.699885">
        <ele>304.643797</ele>
        <time>2020-08-13T06:08:34.451Z</time>
      </trkpt>
      <trkpt lat="48.710057" lon="16.699829">
        <ele>306.393206</ele>
        <time>2020-08-13T06:08:37.433Z</time>
      </trkpt>
      <trkpt lat="48.709971" lon="16.699783">
        <ele>308.048817</ele>
        <time>2020-08-13T06:08:40.455Z</time>
      </trkpt>
      <trkpt lat="48.709878" lon="16.699753">
        <ele>309.774936</ele>
        <time>2020-08-13T06:08:43.457Z</time>
      </trkpt>
      <trkpt lat="48.709778" lon="16.699744">
        <ele>311.593505</ele>
        <time>2020-08-13T06:08:46.456Z</time>
      </trkpt>
      <trkpt lat="48.709670" lon="16.699737">
        <ele>313.555898</ele>
        <time>2020-08-13T06:08:49.439Z</time>
      </trkpt>
      <trkpt lat="48.709551" lon="16.699726">
        <ele>315.720204</ele>
        <time>2020-08-13T06:08:52.459Z</time>
      </trkpt>
      <trkpt lat="48.709418" lon="16.699733">
        <ele>318.136102</ele>
        <time>2020-08-13T06:08:55.430Z</time>
      </trkpt>
      <trkpt lat="48.709319" lon="16.699741">
        <ele>319.031566</ele>
        <time>2020-08-13T06:08:57.429Z</time>
      </trkpt>
      <trkpt lat="48.709217" lon="16.699753">
        <ele>318.953594</ele>
        <time>2020-08-13T06:08:59.435Z</time>
      </trkpt>
      <trkpt lat="48.709111" lon="16.699769">
        <ele>318.872407</ele>
        <time>2020-08-13T06:09:01.443Z</time>
      </trkpt>
      <trkpt lat="48.709003" lon="16.699788">
        <ele>318.789544</ele>
        <time>2020-08-13T06:09:03.440Z</time>
      </trkpt>
      <trkpt lat="48.708890" lon="16.699823">
        <ele>318.701641</ele>
        <time>2020-08-13T06:09:05.427Z</time>
      </trkpt>
      <trkpt lat="48.708777" lon="16.699860">
        <ele>318.613532</ele>
        <time>2020-08-13T06:09:07.419Z</time>
      </trkpt>
      <trkpt lat="48.708661" lon="16.699902">
        <ele>318.522635</ele>
        <time>2020-08-13T06:09:09.476Z</time>
      </trkpt>
      <trkpt lat="48.708541" lon="16.699948">
        <ele>318.428298</ele>
        <time>2020-08-13T06:09:11.450Z</time>
      </trkpt>
      <trkpt lat="48.708419" lon="16.699993">
        <ele>318.332602</ele>
        <time>2020-08-13T06:09:13.428Z</time>
      </trkpt>
      <trkpt lat="48.708297" lon="16.700047">
        <ele>318.235736</ele>
        <time>2020-08-13T06:09:15.427Z</time>
      </trkpt>
      <trkpt lat="48.708169" lon="16.700093">
        <ele>318.135476</ele>
        <time>2020-08-13T06:09:17.421Z</time>
      </trkpt>
      <trkpt lat="48.708039" lon="16.700143">
        <ele>318.033256</ele>
        <time>2020-08-13T06:09:19.431Z</time>
      </trkpt>
      <trkpt lat="48.707907" lon="16.700192">
        <ele>317.929679</ele>
        <time>2020-08-13T06:09:21.421Z</time>
      </trkpt>
      <trkpt lat="48.707773" lon="16.700240">
        <ele>317.824738</ele>
        <time>2020-08-13T06:09:23.442Z</time>
      </trkpt>
      <trkpt lat="48.707634" lon="16.700290">
        <ele>317.715857</ele>
        <time>2020-08-13T06:09:25.434Z</time>
      </trkpt>
      <trkpt lat="48.707489" lon="16.700345">
        <ele>317.500008</ele>
        <time>2020-08-13T06:09:27.450Z</time>
      </trkpt>
      <trkpt lat="48.707340" lon="16.700398">
        <ele>317.258532</ele>
        <time>2020-08-13T06:09:29.430Z</time>
      </trkpt>
      <trkpt lat="48.707185" lon="16.700448">
        <ele>317.008500</ele>
        <time>2020-08-13T06:09:31.418Z</time>
      </trkpt>
      <trkpt lat="48.707026" lon="16.700509">
        <ele>316.749722</ele>
        <time>2020-08-13T06:09:33.424Z</time>
      </trkpt>
      <trkpt lat="48.706864" lon="16.700571">
        <ele>316.486099</ele>
        <time>2020-08-13T06:09:35.428Z</time>
      </trkpt>
      <trkpt lat="48.706695" lon="16.700633">
        <ele>316.211755</ele>
        <time>2020-08-13T06:09:37.441Z</time>
      </trkpt>
      <trkpt lat="48.706525" lon="16.700704">
        <ele>315.933535</ele>
        <time>2020-08-13T06:09:39.428Z</time>
      </trkpt>
      <trkpt lat="48.706437" lon="16.700740">
        <ele>315.789722</ele>
        <time>2020-08-13T06:09:40.432Z</time>
      </trkpt>
      <trkpt lat="48.706349" lon="16.700772">
        <ele>315.646938</ele>
        <time>2020-08-13T06:09:41.438Z</time>
      </trkpt>
      <trkpt lat="48.706257" lon="16.700802">
        <ele>315.498461</ele>
        <time>2020-08-13T06:09:42.435Z</time>
      </trkpt>
      <trkpt lat="48.706163" lon="16.700821">
        <ele>315.348838</ele>
        <time>2020-08-13T06:09:43.439Z</time>
      </trkpt>
      <trkpt lat="48.706067" lon="16.700833">
        <ele>315.196859</ele>
        <time>2020-08-13T06:09:44.461Z</time>
      </trkpt>
      <trkpt lat="48.705970" lon="16.700845">
        <ele>315.043307</ele>
        <time>2020-08-13T06:09:45.420Z</time>
      </trkpt>
      <trkpt lat="48.705870" lon="16.700856">
        <ele>314.885116</ele>
        <time>2020-08-13T06:09:46.436Z</time>
      </trkpt>
      <trkpt lat="48.705768" lon="16.700861">
        <ele>314.791364</ele>
        <time>2020-08-13T06:09:47.426Z</time>
      </trkpt>
      <trkpt lat="48.705666" lon="16.700864">
        <ele>314.710449</ele>
        <time>2020-08-13T06:09:48.455Z</time>
      </trkpt>
      <trkpt lat="48.705562" lon="16.700869">
        <ele>314.627921</ele>
        <time>2020-08-13T06:09:49.447Z</time>
      </trkpt>
      <trkpt lat="48.705458" lon="16.700873">
        <ele>314.545408</ele>
        <time>2020-08-13T06:09:50.450Z</time>
      </trkpt>
      <trkpt lat="48.705352" lon="16.700875">
        <ele>314.461329</ele>
        <time>2020-08-13T06:09:51.433Z</time>
      </trkpt>
      <trkpt lat="48.705246" lon="16.700873">
        <ele>314.377250</ele>
        <time>2020-08-13T06:09:52.447Z</time>
      </trkpt>
      <trkpt lat="48.705139" lon="16.700876">
        <ele>314.292369</ele>
        <time>2020-08-13T06:09:53.428Z</time>
      </trkpt>
      <trkpt lat="48.705033" lon="16.700875">
        <ele>314.208295</ele>
        <time>2020-08-13T06:09:54.432Z</time>
      </trkpt>
      <trkpt lat="48.704925" lon="16.700880">
        <ele>314.122596</ele>
        <time>2020-08-13T06:09:55.445Z</time>
      </trkpt>
      <trkpt lat="48.704817" lon="16.700886">
        <ele>314.036880</ele>
        <time>2020-08-13T06:09:56.429Z</time>
      </trkpt>
      <trkpt lat="48.704709" lon="16.700885">
        <ele>313.951219</ele>
        <time>2020-08-13T06:09:57.435Z</time>
      </trkpt>
      <trkpt lat="48.704600" lon="16.700884">
        <ele>313.864765</ele>
        <time>2020-08-13T06:09:58.450Z</time>
      </trkpt>
      <trkpt lat="48.704492" lon="16.700880">
        <ele>313.779081</ele>
        <time>2020-08-13T06:09:59.462Z</time>
      </trkpt>
      <trkpt lat="48.704383" lon="16.700874">
        <ele>313.692572</ele>
        <time>2020-08-13T06:10:00.431Z</time>
      </trkpt>
      <trkpt lat="48.704275" lon="16.700860">
        <ele>313.606600</ele>
        <time>2020-08-13T06:10:01.456Z</time>
      </trkpt>
      <trkpt lat="48.704166" lon="16.700849">
        <ele>313.519956</ele>
        <time>2020-08-13T06:10:02.445Z</time>
      </trkpt>
      <trkpt lat="48.704058" lon="16.700836">
        <ele>313.434028</ele>
        <time>2020-08-13T06:10:03.441Z</time>
      </trkpt>
      <trkpt lat="48.703950" lon="16.700821">
        <ele>313.303107</ele>
        <time>2020-08-13T06:10:04.427Z</time>
      </trkpt>
      <trkpt lat="48.703841" lon="16.700804">
        <ele>313.170166</ele>
        <time>2020-08-13T06:10:05.449Z</time>
      </trkpt>
      <trkpt lat="48.703733" lon="16.700785">
        <ele>313.038257</ele>
        <time>2020-08-13T06:10:06.429Z</time>
      </trkpt>
      <trkpt lat="48.703624" lon="16.700764">
        <ele>312.904949</ele>
        <time>2020-08-13T06:10:07.417Z</time>
      </trkpt>
      <trkpt lat="48.703516" lon="16.700739">
        <ele>312.772400</ele>
        <time>2020-08-13T06:10:08.422Z</time>
      </trkpt>
      <trkpt lat="48.703409" lon="16.700717">
        <ele>312.641394</ele>
        <time>2020-08-13T06:10:09.420Z</time>
      </trkpt>
      <trkpt lat="48.703302" lon="16.700697">
        <ele>312.510595</ele>
        <time>2020-08-13T06:10:10.432Z</time>
      </trkpt>
      <trkpt lat="48.703196" lon="16.700680">
        <ele>312.381273</ele>
        <time>2020-08-13T06:10:11.441Z</time>
      </trkpt>
      <trkpt lat="48.703092" lon="16.700664">
        <ele>312.254448</ele>
        <time>2020-08-13T06:10:12.464Z</time>
      </trkpt>
      <trkpt lat="48.702989" lon="16.700648">
        <ele>312.128830</ele>
        <time>2020-08-13T06:10:13.438Z</time>
      </trkpt>
      <trkpt lat="48.702886" lon="16.700636">
        <ele>312.003499</ele>
        <time>2020-08-13T06:10:14.454Z</time>
      </trkpt>
      <trkpt lat="48.702785" lon="16.700624">
        <ele>311.880586</ele>
        <time>2020-08-13T06:10:15.436Z</time>
      </trkpt>
      <trkpt lat="48.702684" lon="16.700609">
        <ele>311.757462</ele>
        <time>2020-08-13T06:10:16.458Z</time>
      </trkpt>
      <trkpt lat="48.702583" lon="16.700593">
        <ele>311.634258</ele>
        <time>2020-08-13T06:10:17.438Z</time>
      </trkpt>
      <trkpt lat="48.702483" lon="16.700576">
        <ele>311.512173</ele>
        <time>2020-08-13T06:10:18.450Z</time>
      </trkpt>
      <trkpt lat="48.702383" lon="16.700559">
        <ele>311.390089</ele>
        <time>2020-08-13T06:10:19.450Z</time>
      </trkpt>
      <trkpt lat="48.702284" lon="16.700539">
        <ele>311.268916</ele>
        <time>2020-08-13T06:10:20.449Z</time>
      </trkpt>
      <trkpt lat="48.702183" lon="16.700514">
        <ele>311.098857</ele>
        <time>2020-08-13T06:10:21.434Z</time>
      </trkpt>
      <trkpt lat="48.702081" lon="16.700482">
        <ele>310.917688</ele>
        <time>2020-08-13T06:10:22.426Z</time>
      </trkpt>
      <trkpt lat="48.701978" lon="16.700447">
        <ele>310.734093</ele>
        <time>2020-08-13T06:10:23.410Z</time>
      </trkpt>
      <trkpt lat="48.701875" lon="16.700409">
        <ele>310.549713</ele>
        <time>2020-08-13T06:10:24.409Z</time>
      </trkpt>
      <trkpt lat="48.701771" lon="16.700370">
        <ele>310.363371</ele>
        <time>2020-08-13T06:10:25.426Z</time>
      </trkpt>
      <trkpt lat="48.701666" lon="16.700327">
        <ele>310.174195</ele>
        <time>2020-08-13T06:10:26.414Z</time>
      </trkpt>
      <trkpt lat="48.701561" lon="16.700285">
        <ele>309.985314</ele>
        <time>2020-08-13T06:10:27.421Z</time>
      </trkpt>
      <trkpt lat="48.701453" lon="16.700244">
        <ele>309.791666</ele>
        <time>2020-08-13T06:10:28.435Z</time>
      </trkpt>
      <trkpt lat="48.701342" lon="16.700204">
        <ele>309.593222</ele>
        <time>2020-08-13T06:10:29.444Z</time>
      </trkpt>
      <trkpt lat="48.701230" lon="16.700164">
        <ele>309.393085</ele>
        <time>2020-08-13T06:10:30.442Z</time>
      </trkpt>
      <trkpt lat="48.701118" lon="16.700121">
        <ele>309.192129</ele>
        <time>2020-08-13T06:10:31.444Z</time>
      </trkpt>
      <trkpt lat="48.701005" lon="16.700077">
        <ele>308.989205</ele>
        <time>2020-08-13T06:10:32.430Z</time>
      </trkpt>
      <trkpt lat="48.700891" lon="16.700034">
        <ele>308.784876</ele>
        <time>2020-08-13T06:10:33.451Z</time>
      </trkpt>
      <trkpt lat="48.700777" lon="16.699986">
        <ele>308.579085</ele>
        <time>2020-08-13T06:10:34.462Z</time>
      </trkpt>
      <trkpt lat="48.700665" lon="16.699929">
        <ele>308.373591</ele>
        <time>2020-08-13T06:10:35.443Z</time>
      </trkpt>
      <trkpt lat="48.700557" lon="16.699857">
        <ele>308.168371</ele>
        <time>2020-08-13T06:10:36.453Z</time>
      </trkpt>
      <trkpt lat="48.700456" lon="16.699762">
        <ele>307.904697</ele>
        <time>2020-08-13T06:10:37.424Z</time>
      </trkpt>
      <trkpt lat="48.700363" lon="16.699646">
        <ele>307.620973</ele>
        <time>2020-08-13T06:10:38.458Z</time>
      </trkpt>
      <trkpt lat="48.700281" lon="16.699512">
        <ele>307.336906</ele>
        <time>2020-08-13T06:10:39.430Z</time>
      </trkpt>
      <trkpt lat="48.700209" lon="16.699363">
        <ele>307.049836</ele>
        <time>2020-08-13T06:10:40.439Z</time>
      </trkpt>
      <trkpt lat="48.700154" lon="16.699197">
        <ele>306.761092</ele>
        <time>2020-08-13T06:10:41.418Z</time>
      </trkpt>
      <trkpt lat="48.700104" lon="16.699034">
        <ele>306.481673</ele>
        <time>2020-08-13T06:10:42.418Z</time>
      </trkpt>
      <trkpt lat="48.700056" lon="16.698871">
        <ele>306.204206</ele>
        <time>2020-08-13T06:10:43.419Z</time>
      </trkpt>
      <trkpt lat="48.700006" lon="16.698707">
        <ele>305.923376</ele>
        <time>2020-08-13T06:10:44.419Z</time>
      </trkpt>
      <trkpt lat="48.699952" lon="16.698543">
        <ele>305.638466</ele>
        <time>2020-08-13T06:10:45.436Z</time>
      </trkpt>
      <trkpt lat="48.699897" lon="16.698379">
        <ele>305.352497</ele>
        <time>2020-08-13T06:10:46.420Z</time>
      </trkpt>
      <trkpt lat="48.699842" lon="16.698217">
        <ele>305.069296</ele>
        <time>2020-08-13T06:10:47.406Z</time>
      </trkpt>
      <trkpt lat="48.699785" lon="16.698056">
        <ele>304.785280</ele>
        <time>2020-08-13T06:10:48.417Z</time>
      </trkpt>
      <trkpt lat="48.699727" lon="16.697899">
        <ele>304.505585</ele>
        <time>2020-08-13T06:10:49.422Z</time>
      </trkpt>
      <trkpt lat="48.699657" lon="16.697755">
        <ele>304.227566</ele>
        <time>2020-08-13T06:10:50.419Z</time>
      </trkpt>
      <trkpt lat="48.699607" lon="16.697599">
        <ele>303.957973</ele>
        <time>2020-08-13T06:10:51.417Z</time>
      </trkpt>
      <trkpt lat="48.699545" lon="16.697458">
        <ele>303.367232</ele>
        <time>2020-08-13T06:10:52.424Z</time>
      </trkpt>
      <trkpt lat="48.699500" lon="16.697310">
        <ele>302.680314</ele>
        <time>2020-08-13T06:10:53.433Z</time>
      </trkpt>
      <trkpt lat="48.699441" lon="16.697178">
        <ele>302.008272</ele>
        <time>2020-08-13T06:10:54.418Z</time>
      </trkpt>
      <trkpt lat="48.699387" lon="16.697048">
        <ele>301.360753</ele>
        <time>2020-08-13T06:10:55.408Z</time>
      </trkpt>
      <trkpt lat="48.699349" lon="16.696913">
        <ele>300.742062</ele>
        <time>2020-08-13T06:10:56.424Z</time>
      </trkpt>
      <trkpt lat="48.699299" lon="16.696793">
        <ele>300.143827</ele>
        <time>2020-08-13T06:10:57.430Z</time>
      </trkpt>
      <trkpt lat="48.699213" lon="16.696564">
        <ele>299.033136</ele>
        <time>2020-08-13T06:10:59.426Z</time>
      </trkpt>
      <trkpt lat="48.699135" lon="16.696349">
        <ele>297.998897</ele>
        <time>2020-08-13T06:11:01.429Z</time>
      </trkpt>
      <trkpt lat="48.699068" lon="16.696142">
        <ele>297.026996</ele>
        <time>2020-08-13T06:11:03.448Z</time>
      </trkpt>
      <trkpt lat="48.698995" lon="16.695956">
        <ele>296.114747</ele>
        <time>2020-08-13T06:11:05.429Z</time>
      </trkpt>
      <trkpt lat="48.698927" lon="16.695778">
        <ele>295.247747</ele>
        <time>2020-08-13T06:11:07.435Z</time>
      </trkpt>
      <trkpt lat="48.698875" lon="16.695627">
        <ele>294.529760</ele>
        <time>2020-08-13T06:11:09.731Z</time>
      </trkpt>
      <trkpt lat="48.698741" lon="16.695574">
        <ele>293.645210</ele>
        <time>2020-08-13T06:11:12.421Z</time>
      </trkpt>
      <trkpt lat="48.698622" lon="16.695622">
        <ele>292.858675</ele>
        <time>2020-08-13T06:11:14.433Z</time>
      </trkpt>
      <trkpt lat="48.698501" lon="16.695682">
        <ele>292.009251</ele>
        <time>2020-08-13T06:11:16.420Z</time>
      </trkpt>
      <trkpt lat="48.698385" lon="16.695754">
        <ele>291.126200</ele>
        <time>2020-08-13T06:11:18.419Z</time>
      </trkpt>
      <trkpt lat="48.698267" lon="16.695801">
        <ele>290.266727</ele>
        <time>2020-08-13T06:11:20.443Z</time>
      </trkpt>
      <trkpt lat="48.698165" lon="16.695844">
        <ele>289.520911</ele>
        <time>2020-08-13T06:11:22.449Z</time>
      </trkpt>
      <trkpt lat="48.698068" lon="16.695882">
        <ele>288.815140</ele>
        <time>2020-08-13T06:11:24.428Z</time>
      </trkpt>
      <trkpt lat="48.697970" lon="16.695911">
        <ele>288.111753</ele>
        <time>2020-08-13T06:11:26.419Z</time>
      </trkpt>
      <trkpt lat="48.697875" lon="16.695920">
        <ele>287.441236</ele>
        <time>2020-08-13T06:11:28.438Z</time>
      </trkpt>
      <trkpt lat="48.697780" lon="16.695916">
        <ele>286.771768</ele>
        <time>2020-08-13T06:11:30.452Z</time>
      </trkpt>
      <trkpt lat="48.697653" lon="16.695903">
        <ele>285.875101</ele>
        <time>2020-08-13T06:11:33.436Z</time>
      </trkpt>
      <trkpt lat="48.697525" lon="16.695894">
        <ele>284.972458</ele>
        <time>2020-08-13T06:11:36.427Z</time>
      </trkpt>
      <trkpt lat="48.697432" lon="16.695868">
        <ele>284.306277</ele>
        <time>2020-08-13T06:11:38.443Z</time>
      </trkpt>
      <trkpt lat="48.697304" lon="16.695822">
        <ele>283.379586</ele>
        <time>2020-08-13T06:11:41.446Z</time>
      </trkpt>
      <trkpt lat="48.697170" lon="16.695811">
        <ele>282.434263</ele>
        <time>2020-08-13T06:11:44.432Z</time>
      </trkpt>
      <trkpt lat="48.697040" lon="16.695842">
        <ele>281.507229</ele>
        <time>2020-08-13T06:11:47.420Z</time>
      </trkpt>
      <trkpt lat="48.696920" lon="16.695890">
        <ele>280.632946</ele>
        <time>2020-08-13T06:11:50.453Z</time>
      </trkpt>
      <trkpt lat="48.696832" lon="16.695936">
        <ele>279.977187</ele>
        <time>2020-08-13T06:11:53.424Z</time>
      </trkpt>
      <trkpt lat="48.696736" lon="16.695963">
        <ele>279.480752</ele>
        <time>2020-08-13T06:11:56.458Z</time>
      </trkpt>
      <trkpt lat="48.696624" lon="16.695996">
        <ele>279.028030</ele>
        <time>2020-08-13T06:12:00.436Z</time>
      </trkpt>
      <trkpt lat="48.696528" lon="16.696026">
        <ele>278.639101</ele>
        <time>2020-08-13T06:12:04.445Z</time>
      </trkpt>
      <trkpt lat="48.696438" lon="16.696062">
        <ele>278.269760</ele>
        <time>2020-08-13T06:12:08.442Z</time>
      </trkpt>
      <trkpt lat="48.696349" lon="16.696097">
        <ele>277.904922</ele>
        <time>2020-08-13T06:12:12.422Z</time>
      </trkpt>
      <trkpt lat="48.696263" lon="16.696149">
        <ele>277.537517</ele>
        <time>2020-08-13T06:12:16.428Z</time>
      </trkpt>
      <trkpt lat="48.696167" lon="16.696182">
        <ele>277.146924</ele>
        <time>2020-08-13T06:12:22.455Z</time>
      </trkpt>
      <trkpt lat="48.696073" lon="16.696215">
        <ele>276.764066</ele>
        <time>2020-08-13T06:12:28.447Z</time>
      </trkpt>
      <trkpt lat="48.695985" lon="16.696253">
        <ele>276.400992</ele>
        <time>2020-08-13T06:12:34.437Z</time>
      </trkpt>
      <trkpt lat="48.695888" lon="16.696298">
        <ele>275.998474</ele>
        <time>2020-08-13T06:12:41.425Z</time>
      </trkpt>
      <trkpt lat="48.695794" lon="16.696331">
        <ele>275.615616</ele>
        <time>2020-08-13T06:12:48.448Z</time>
      </trkpt>
      <trkpt lat="48.695707" lon="16.696365">
        <ele>275.259115</ele>
        <time>2020-08-13T06:12:54.430Z</time>
      </trkpt>
      <trkpt lat="48.695612" lon="16.696406">
        <ele>274.867176</ele>
        <time>2020-08-13T06:13:01.432Z</time>
      </trkpt>
      <trkpt lat="48.695520" lon="16.696450">
        <ele>274.484380</ele>
        <time>2020-08-13T06:13:10.427Z</time>
      </trkpt>
      <trkpt lat="48.695432" lon="16.696482">
        <ele>274.125294</ele>
        <time>2020-08-13T06:13:19.414Z</time>
      </trkpt>
      <trkpt lat="48.695340" lon="16.696522">
        <ele>273.745520</ele>
        <time>2020-08-13T06:13:29.418Z</time>
      </trkpt>
      <trkpt lat="48.695238" lon="16.696550">
        <ele>273.334212</ele>
        <time>2020-08-13T06:13:37.433Z</time>
      </trkpt>
      <trkpt lat="48.695149" lon="16.696586">
        <ele>272.968706</ele>
        <time>2020-08-13T06:13:45.459Z</time>
      </trkpt>
      <trkpt lat="48.695054" lon="16.696615">
        <ele>272.594363</ele>
        <time>2020-08-13T06:13:55.427Z</time>
      </trkpt>
      <trkpt lat="48.694967" lon="16.696667">
        <ele>272.787933</ele>
        <time>2020-08-13T06:14:04.419Z</time>
      </trkpt>
      <trkpt lat="48.694868" lon="16.696713">
        <ele>273.002254</ele>
        <time>2020-08-13T06:14:14.421Z</time>
      </trkpt>
      <trkpt lat="48.694773" lon="16.696763">
        <ele>273.210403</ele>
        <time>2020-08-13T06:14:23.447Z</time>
      </trkpt>
      <trkpt lat="48.694684" lon="16.696801">
        <ele>273.401781</ele>
        <time>2020-08-13T06:14:30.453Z</time>
      </trkpt>
      <trkpt lat="48.694598" lon="16.696844">
        <ele>273.589219</ele>
        <time>2020-08-13T06:14:37.457Z</time>
      </trkpt>
      <trkpt lat="48.694506" lon="16.696891">
        <ele>273.790166</ele>
        <time>2020-08-13T06:14:45.424Z</time>
      </trkpt>
      <trkpt lat="48.694409" lon="16.696952">
        <ele>274.007536</ele>
        <time>2020-08-13T06:14:53.441Z</time>
      </trkpt>
      <trkpt lat="48.694313" lon="16.696989">
        <ele>274.212556</ele>
        <time>2020-08-13T06:15:00.434Z</time>
      </trkpt>
      <trkpt lat="48.694222" lon="16.697015">
        <ele>274.404219</ele>
        <time>2020-08-13T06:15:08.446Z</time>
      </trkpt>
      <trkpt lat="48.694121" lon="16.697061">
        <ele>274.622500</ele>
        <time>2020-08-13T06:15:16.434Z</time>
      </trkpt>
      <trkpt lat="48.694034" lon="16.697114">
        <ele>274.816577</ele>
        <time>2020-08-13T06:15:23.428Z</time>
      </trkpt>
      <trkpt lat="48.693934" lon="16.697157">
        <ele>275.031722</ele>
        <time>2020-08-13T06:15:30.419Z</time>
      </trkpt>
      <trkpt lat="48.693844" lon="16.697186">
        <ele>275.222162</ele>
        <time>2020-08-13T06:15:36.432Z</time>
      </trkpt>
      <trkpt lat="48.693752" lon="16.697229">
        <ele>275.421430</ele>
        <time>2020-08-13T06:15:42.428Z</time>
      </trkpt>
      <trkpt lat="48.693662" lon="16.697260">
        <ele>275.612457</ele>
        <time>2020-08-13T06:15:48.432Z</time>
      </trkpt>
      <trkpt lat="48.693568" lon="16.697310">
        <ele>275.818652</ele>
        <time>2020-08-13T06:15:55.427Z</time>
      </trkpt>
      <trkpt lat="48.693469" lon="16.697368">
        <ele>276.038340</ele>
        <time>2020-08-13T06:16:01.442Z</time>
      </trkpt>
      <trkpt lat="48.693358" lon="16.697434">
        <ele>276.285138</ele>
        <time>2020-08-13T06:16:06.423Z</time>
      </trkpt>
      <trkpt lat="48.693236" lon="16.697497">
        <ele>276.381997</ele>
        <time>2020-08-13T06:16:09.444Z</time>
      </trkpt>
      <trkpt lat="48.693114" lon="16.697554">
        <ele>276.457897</ele>
        <time>2020-08-13T06:16:11.458Z</time>
      </trkpt>
      <trkpt lat="48.692968" lon="16.697648">
        <ele>276.552207</ele>
        <time>2020-08-13T06:16:13.440Z</time>
      </trkpt>
      <trkpt lat="48.692800" lon="16.697747">
        <ele>276.659372</ele>
        <time>2020-08-13T06:16:15.435Z</time>
      </trkpt>
      <trkpt lat="48.692708" lon="16.697805">
        <ele>276.718613</ele>
        <time>2020-08-13T06:16:16.441Z</time>
      </trkpt>
      <trkpt lat="48.692611" lon="16.697866">
        <ele>276.781050</ele>
        <time>2020-08-13T06:16:17.433Z</time>
      </trkpt>
      <trkpt lat="48.692511" lon="16.697932">
        <ele>276.845896</ele>
        <time>2020-08-13T06:16:18.427Z</time>
      </trkpt>
      <trkpt lat="48.692408" lon="16.698001">
        <ele>276.912849</ele>
        <time>2020-08-13T06:16:19.455Z</time>
      </trkpt>
      <trkpt lat="48.692301" lon="16.698062">
        <ele>276.980815</ele>
        <time>2020-08-13T06:16:20.423Z</time>
      </trkpt>
      <trkpt lat="48.692189" lon="16.698123">
        <ele>277.051571</ele>
        <time>2020-08-13T06:16:21.420Z</time>
      </trkpt>
      <trkpt lat="48.692073" lon="16.698188">
        <ele>277.125099</ele>
        <time>2020-08-13T06:16:22.428Z</time>
      </trkpt>
      <trkpt lat="48.691955" lon="16.698256">
        <ele>277.200154</ele>
        <time>2020-08-13T06:16:23.437Z</time>
      </trkpt>
      <trkpt lat="48.691835" lon="16.698329">
        <ele>277.277031</ele>
        <time>2020-08-13T06:16:24.446Z</time>
      </trkpt>
      <trkpt lat="48.691713" lon="16.698408">
        <ele>277.355907</ele>
        <time>2020-08-13T06:16:25.449Z</time>
      </trkpt>
      <trkpt lat="48.691589" lon="16.698483">
        <ele>277.391840</ele>
        <time>2020-08-13T06:16:26.429Z</time>
      </trkpt>
      <trkpt lat="48.691464" lon="16.698548">
        <ele>277.405358</ele>
        <time>2020-08-13T06:16:27.429Z</time>
      </trkpt>
      <trkpt lat="48.691340" lon="16.698621">
        <ele>277.418965</ele>
        <time>2020-08-13T06:16:28.420Z</time>
      </trkpt>
      <trkpt lat="48.691217" lon="16.698692">
        <ele>277.432429</ele>
        <time>2020-08-13T06:16:29.425Z</time>
      </trkpt>
      <trkpt lat="48.691097" lon="16.698760">
        <ele>277.445534</ele>
        <time>2020-08-13T06:16:30.423Z</time>
      </trkpt>
      <trkpt lat="48.690979" lon="16.698818">
        <ele>277.458223</ele>
        <time>2020-08-13T06:16:31.422Z</time>
      </trkpt>
      <trkpt lat="48.690861" lon="16.698869">
        <ele>277.470775</ele>
        <time>2020-08-13T06:16:32.423Z</time>
      </trkpt>
      <trkpt lat="48.690746" lon="16.698911">
        <ele>277.482875</ele>
        <time>2020-08-13T06:16:33.421Z</time>
      </trkpt>
      <trkpt lat="48.690631" lon="16.698950">
        <ele>277.494929</ele>
        <time>2020-08-13T06:16:34.427Z</time>
      </trkpt>
      <trkpt lat="48.690517" lon="16.698982">
        <ele>277.506788</ele>
        <time>2020-08-13T06:16:35.427Z</time>
      </trkpt>
      <trkpt lat="48.690405" lon="16.699024">
        <ele>277.518590</ele>
        <time>2020-08-13T06:16:36.435Z</time>
      </trkpt>
      <trkpt lat="48.690295" lon="16.699064">
        <ele>277.530161</ele>
        <time>2020-08-13T06:16:37.448Z</time>
      </trkpt>
      <trkpt lat="48.690191" lon="16.699107">
        <ele>277.541188</ele>
        <time>2020-08-13T06:16:38.433Z</time>
      </trkpt>
      <trkpt lat="48.690091" lon="16.699155">
        <ele>277.551918</ele>
        <time>2020-08-13T06:16:39.421Z</time>
      </trkpt>
      <trkpt lat="48.689992" lon="16.699201">
        <ele>277.562510</ele>
        <time>2020-08-13T06:16:40.475Z</time>
      </trkpt>
      <trkpt lat="48.689898" lon="16.699243">
        <ele>277.521644</ele>
        <time>2020-08-13T06:16:41.445Z</time>
      </trkpt>
      <trkpt lat="48.689810" lon="16.699283">
        <ele>277.447804</ele>
        <time>2020-08-13T06:16:42.453Z</time>
      </trkpt>
      <trkpt lat="48.689661" lon="16.699358">
        <ele>277.321617</ele>
        <time>2020-08-13T06:16:44.446Z</time>
      </trkpt>
      <trkpt lat="48.689547" lon="16.699426">
        <ele>277.223149</ele>
        <time>2020-08-13T06:16:46.460Z</time>
      </trkpt>
      <trkpt lat="48.689457" lon="16.699476">
        <ele>277.146107</ele>
        <time>2020-08-13T06:16:48.452Z</time>
      </trkpt>
      <trkpt lat="48.689359" lon="16.699539">
        <ele>277.060547</ele>
        <time>2020-08-13T06:16:51.458Z</time>
      </trkpt>
      <trkpt lat="48.689265" lon="16.699607">
        <ele>276.976828</ele>
        <time>2020-08-13T06:16:55.426Z</time>
      </trkpt>
      <trkpt lat="48.689175" lon="16.699668">
        <ele>276.897586</ele>
        <time>2020-08-13T06:17:00.461Z</time>
      </trkpt>
      <trkpt lat="48.689090" lon="16.699718">
        <ele>276.824303</ele>
        <time>2020-08-13T06:17:05.429Z</time>
      </trkpt>
      <trkpt lat="48.689002" lon="16.699765">
        <ele>276.749311</ele>
        <time>2020-08-13T06:17:10.443Z</time>
      </trkpt>
      <trkpt lat="48.688908" lon="16.699804">
        <ele>276.670982</ele>
        <time>2020-08-13T06:17:15.417Z</time>
      </trkpt>
      <trkpt lat="48.688823" lon="16.699857">
        <ele>276.597108</ele>
        <time>2020-08-13T06:17:19.450Z</time>
      </trkpt>
      <trkpt lat="48.688732" lon="16.699918">
        <ele>276.517132</ele>
        <time>2020-08-13T06:17:23.440Z</time>
      </trkpt>
      <trkpt lat="48.688634" lon="16.699964">
        <ele>276.434676</ele>
        <time>2020-08-13T06:17:27.467Z</time>
      </trkpt>
      <trkpt lat="48.688528" lon="16.700018">
        <ele>276.344797</ele>
        <time>2020-08-13T06:17:31.434Z</time>
      </trkpt>
      <trkpt lat="48.688439" lon="16.700068">
        <ele>276.268508</ele>
        <time>2020-08-13T06:17:34.426Z</time>
      </trkpt>
      <trkpt lat="48.688339" lon="16.700120">
        <ele>276.183536</ele>
        <time>2020-08-13T06:17:37.434Z</time>
      </trkpt>
      <trkpt lat="48.688236" lon="16.700168">
        <ele>276.166658</ele>
        <time>2020-08-13T06:17:40.462Z</time>
      </trkpt>
      <trkpt lat="48.688134" lon="16.700231">
        <ele>276.331997</ele>
        <time>2020-08-13T06:17:43.447Z</time>
      </trkpt>
      <trkpt lat="48.688034" lon="16.700288">
        <ele>276.492371</ele>
        <time>2020-08-13T06:17:46.432Z</time>
      </trkpt>
      <trkpt lat="48.687938" lon="16.700331">
        <ele>276.642634</ele>
        <time>2020-08-13T06:17:49.438Z</time>
      </trkpt>
      <trkpt lat="48.687852" lon="16.700373">
        <ele>276.778262</ele>
        <time>2020-08-13T06:17:52.436Z</time>
      </trkpt>
      <trkpt lat="48.687747" lon="16.700424">
        <ele>276.943770</ele>
        <time>2020-08-13T06:17:56.463Z</time>
      </trkpt>
      <trkpt lat="48.687658" lon="16.700474">
        <ele>277.086250</ele>
        <time>2020-08-13T06:18:00.429Z</time>
      </trkpt>
      <trkpt lat="48.687556" lon="16.700521">
        <ele>277.246278</ele>
        <time>2020-08-13T06:18:05.430Z</time>
      </trkpt>
      <trkpt lat="48.687466" lon="16.700569">
        <ele>277.389496</ele>
        <time>2020-08-13T06:18:10.435Z</time>
      </trkpt>
      <trkpt lat="48.687368" lon="16.700639">
        <ele>277.552127</ele>
        <time>2020-08-13T06:18:16.440Z</time>
      </trkpt>
      <trkpt lat="48.687270" lon="16.700681">
        <ele>277.704998</ele>
        <time>2020-08-13T06:18:22.449Z</time>
      </trkpt>
      <trkpt lat="48.687172" lon="16.700728">
        <ele>277.859292</ele>
        <time>2020-08-13T06:18:28.450Z</time>
      </trkpt>
      <trkpt lat="48.687079" lon="16.700777">
        <ele>278.007088</ele>
        <time>2020-08-13T06:18:34.437Z</time>
      </trkpt>
      <trkpt lat="48.686993" lon="16.700820">
        <ele>278.143023</ele>
        <time>2020-08-13T06:18:40.443Z</time>
      </trkpt>
      <trkpt lat="48.686907" lon="16.700865">
        <ele>278.279593</ele>
        <time>2020-08-13T06:18:47.432Z</time>
      </trkpt>
      <trkpt lat="48.686812" lon="16.700911">
        <ele>278.429296</ele>
        <time>2020-08-13T06:18:55.432Z</time>
      </trkpt>
      <trkpt lat="48.686724" lon="16.700959">
        <ele>278.569686</ele>
        <time>2020-08-13T06:19:03.434Z</time>
      </trkpt>
      <trkpt lat="48.686627" lon="16.701015">
        <ele>278.725498</ele>
        <time>2020-08-13T06:19:13.434Z</time>
      </trkpt>
      <trkpt lat="48.686532" lon="16.701063">
        <ele>278.996448</ele>
        <time>2020-08-13T06:19:20.428Z</time>
      </trkpt>
      <trkpt lat="48.686437" lon="16.701119">
        <ele>279.486133</ele>
        <time>2020-08-13T06:19:28.445Z</time>
      </trkpt>
      <trkpt lat="48.686346" lon="16.701178">
        <ele>279.961625</ele>
        <time>2020-08-13T06:19:35.414Z</time>
      </trkpt>
      <trkpt lat="48.686261" lon="16.701239">
        <ele>280.413443</ele>
        <time>2020-08-13T06:19:41.439Z</time>
      </trkpt>
      <trkpt lat="48.686172" lon="16.701310">
        <ele>280.896636</ele>
        <time>2020-08-13T06:19:48.438Z</time>
      </trkpt>
      <trkpt lat="48.686078" lon="16.701363">
        <ele>281.378447</ele>
        <time>2020-08-13T06:19:54.444Z</time>
      </trkpt>
      <trkpt lat="48.685988" lon="16.701428">
        <ele>281.857403</ele>
        <time>2020-08-13T06:20:00.423Z</time>
      </trkpt>
      <trkpt lat="48.685891" lon="16.701498">
        <ele>282.373537</ele>
        <time>2020-08-13T06:20:06.432Z</time>
      </trkpt>
      <trkpt lat="48.685799" lon="16.701572">
        <ele>282.873917</ele>
        <time>2020-08-13T06:20:11.422Z</time>
      </trkpt>
      <trkpt lat="48.685708" lon="16.701634">
        <ele>283.353234</ele>
        <time>2020-08-13T06:20:16.420Z</time>
      </trkpt>
      <trkpt lat="48.685613" lon="16.701701">
        <ele>283.856622</ele>
        <time>2020-08-13T06:20:21.434Z</time>
      </trkpt>
      <trkpt lat="48.685520" lon="16.701781">
        <ele>284.370376</ele>
        <time>2020-08-13T06:20:27.434Z</time>
      </trkpt>
      <trkpt lat="48.685432" lon="16.701855">
        <ele>284.853871</ele>
        <time>2020-08-13T06:20:33.425Z</time>
      </trkpt>
      <trkpt lat="48.685352" lon="16.701918">
        <ele>285.286997</ele>
        <time>2020-08-13T06:20:39.417Z</time>
      </trkpt>
      <trkpt lat="48.685263" lon="16.701996">
        <ele>285.780927</ele>
        <time>2020-08-13T06:20:45.426Z</time>
      </trkpt>
      <trkpt lat="48.685171" lon="16.702068">
        <ele>286.278366</ele>
        <time>2020-08-13T06:20:51.430Z</time>
      </trkpt>
      <trkpt lat="48.685077" lon="16.702142">
        <ele>286.787253</ele>
        <time>2020-08-13T06:20:57.421Z</time>
      </trkpt>
      <trkpt lat="48.684983" lon="16.702217">
        <ele>287.297611</ele>
        <time>2020-08-13T06:21:03.418Z</time>
      </trkpt>
      <trkpt lat="48.684887" lon="16.702296">
        <ele>287.615640</ele>
        <time>2020-08-13T06:21:09.423Z</time>
      </trkpt>
      <trkpt lat="48.684791" lon="16.702362">
        <ele>287.832284</ele>
        <time>2020-08-13T06:21:14.417Z</time>
      </trkpt>
      <trkpt lat="48.684706" lon="16.702417">
        <ele>288.022225</ele>
        <time>2020-08-13T06:21:18.449Z</time>
      </trkpt>
      <trkpt lat="48.684606" lon="16.702501">
        <ele>288.257204</ele>
        <time>2020-08-13T06:21:22.435Z</time>
      </trkpt>
      <trkpt lat="48.684516" lon="16.702584">
        <ele>288.473733</ele>
        <time>2020-08-13T06:21:25.431Z</time>
      </trkpt>
      <trkpt lat="48.684405" lon="16.702689">
        <ele>288.742660</ele>
        <time>2020-08-13T06:21:28.420Z</time>
      </trkpt>
      <trkpt lat="48.684325" lon="16.702779">
        <ele>288.947440</ele>
        <time>2020-08-13T06:21:30.442Z</time>
      </trkpt>
      <trkpt lat="48.684247" lon="16.702889">
        <ele>289.166444</ele>
        <time>2020-08-13T06:21:32.458Z</time>
      </trkpt>
      <trkpt lat="48.684162" lon="16.703011">
        <ele>289.407080</ele>
        <time>2020-08-13T06:21:34.463Z</time>
      </trkpt>
      <trkpt lat="48.684074" lon="16.703153">
        <ele>289.671306</ele>
        <time>2020-08-13T06:21:36.444Z</time>
      </trkpt>
      <trkpt lat="48.683989" lon="16.703316">
        <ele>289.953110</ele>
        <time>2020-08-13T06:21:38.454Z</time>
      </trkpt>
      <trkpt lat="48.683899" lon="16.703497">
        <ele>290.260528</ele>
        <time>2020-08-13T06:21:40.441Z</time>
      </trkpt>
      <trkpt lat="48.683815" lon="16.703688">
        <ele>290.571888</ele>
        <time>2020-08-13T06:21:42.426Z</time>
      </trkpt>
      <trkpt lat="48.683737" lon="16.703883">
        <ele>290.881213</ele>
        <time>2020-08-13T06:21:44.443Z</time>
      </trkpt>
      <trkpt lat="48.683666" lon="16.704081">
        <ele>291.160664</ele>
        <time>2020-08-13T06:21:46.433Z</time>
      </trkpt>
      <trkpt lat="48.683611" lon="16.704283">
        <ele>291.195563</ele>
        <time>2020-08-13T06:21:48.439Z</time>
      </trkpt>
      <trkpt lat="48.683561" lon="16.704480">
        <ele>291.229274</ele>
        <time>2020-08-13T06:21:50.411Z</time>
      </trkpt>
      <trkpt lat="48.683507" lon="16.704664">
        <ele>291.261435</ele>
        <time>2020-08-13T06:21:52.431Z</time>
      </trkpt>
      <trkpt lat="48.683453" lon="16.704832">
        <ele>291.291280</ele>
        <time>2020-08-13T06:21:54.437Z</time>
      </trkpt>
      <trkpt lat="48.683405" lon="16.704987">
        <ele>291.318625</ele>
        <time>2020-08-13T06:21:56.448Z</time>
      </trkpt>
      <trkpt lat="48.683363" lon="16.705126">
        <ele>291.343041</ele>
        <time>2020-08-13T06:21:58.430Z</time>
      </trkpt>
      <trkpt lat="48.683323" lon="16.705253">
        <ele>291.365516</ele>
        <time>2020-08-13T06:22:00.444Z</time>
      </trkpt>
      <trkpt lat="48.683268" lon="16.705436">
        <ele>291.397631</ele>
        <time>2020-08-13T06:22:03.430Z</time>
      </trkpt>
      <trkpt lat="48.683193" lon="16.705602">
        <ele>291.429759</ele>
        <time>2020-08-13T06:22:06.466Z</time>
      </trkpt>
      <trkpt lat="48.683124" lon="16.705700">
        <ele>291.452643</ele>
        <time>2020-08-13T06:22:08.444Z</time>
      </trkpt>
      <trkpt lat="48.683046" lon="16.705792">
        <ele>291.476560</ele>
        <time>2020-08-13T06:22:10.433Z</time>
      </trkpt>
      <trkpt lat="48.682966" lon="16.705890">
        <ele>291.501451</ele>
        <time>2020-08-13T06:22:12.432Z</time>
      </trkpt>
      <trkpt lat="48.682889" lon="16.705994">
        <ele>291.526410</ele>
        <time>2020-08-13T06:22:14.443Z</time>
      </trkpt>
      <trkpt lat="48.682811" lon="16.706102">
        <ele>291.551977</ele>
        <time>2020-08-13T06:22:16.439Z</time>
      </trkpt>
      <trkpt lat="48.682730" lon="16.706211">
        <ele>291.578189</ele>
        <time>2020-08-13T06:22:18.423Z</time>
      </trkpt>
      <trkpt lat="48.682648" lon="16.706318">
        <ele>291.568162</ele>
        <time>2020-08-13T06:22:20.473Z</time>
      </trkpt>
      <trkpt lat="48.682563" lon="16.706426">
        <ele>291.514524</ele>
        <time>2020-08-13T06:22:22.427Z</time>
      </trkpt>
      <trkpt lat="48.682477" lon="16.706538">
        <ele>291.459692</ele>
        <time>2020-08-13T06:22:24.445Z</time>
      </trkpt>
      <trkpt lat="48.682388" lon="16.706649">
        <ele>291.403955</ele>
        <time>2020-08-13T06:22:26.420Z</time>
      </trkpt>
      <trkpt lat="48.682298" lon="16.706757">
        <ele>291.348444</ele>
        <time>2020-08-13T06:22:28.441Z</time>
      </trkpt>
      <trkpt lat="48.682209" lon="16.706875">
        <ele>291.291261</ele>
        <time>2020-08-13T06:22:30.450Z</time>
      </trkpt>
      <trkpt lat="48.682117" lon="16.706993">
        <ele>291.232979</ele>
        <time>2020-08-13T06:22:32.441Z</time>
      </trkpt>
      <trkpt lat="48.682024" lon="16.707113">
        <ele>291.173915</ele>
        <time>2020-08-13T06:22:34.469Z</time>
      </trkpt>
      <trkpt lat="48.681930" lon="16.707236">
        <ele>291.113861</ele>
        <time>2020-08-13T06:22:36.447Z</time>
      </trkpt>
      <trkpt lat="48.681867" lon="16.707396">
        <ele>291.054398</ele>
        <time>2020-08-13T06:22:38.449Z</time>
      </trkpt>
      <trkpt lat="48.681870" lon="16.707573">
        <ele>290.997882</ele>
        <time>2020-08-13T06:22:40.414Z</time>
      </trkpt>
      <trkpt lat="48.681911" lon="16.707730">
        <ele>290.943992</ele>
        <time>2020-08-13T06:22:42.418Z</time>
      </trkpt>
      <trkpt lat="48.681952" lon="16.707883">
        <ele>290.891286</ele>
        <time>2020-08-13T06:22:44.455Z</time>
      </trkpt>
      <trkpt lat="48.681999" lon="16.708037">
        <ele>290.837134</ele>
        <time>2020-08-13T06:22:46.456Z</time>
      </trkpt>
      <trkpt lat="48.682046" lon="16.708186">
        <ele>290.784425</ele>
        <time>2020-08-13T06:22:48.462Z</time>
      </trkpt>
      <trkpt lat="48.682048" lon="16.708347">
        <ele>290.733026</ele>
        <time>2020-08-13T06:22:50.429Z</time>
      </trkpt>
      <trkpt lat="48.681970" lon="16.708484">
        <ele>290.413752</ele>
        <time>2020-08-13T06:22:52.426Z</time>
      </trkpt>
      <trkpt lat="48.681878" lon="16.708622">
        <ele>290.006229</ele>
        <time>2020-08-13T06:22:54.429Z</time>
      </trkpt>
      <trkpt lat="48.681783" lon="16.708793">
        <ele>289.541834</ele>
        <time>2020-08-13T06:22:56.422Z</time>
      </trkpt>
      <trkpt lat="48.681669" lon="16.708989">
        <ele>288.999046</ele>
        <time>2020-08-13T06:22:58.439Z</time>
      </trkpt>
      <trkpt lat="48.681606" lon="16.709094">
        <ele>288.704220</ele>
        <time>2020-08-13T06:22:59.437Z</time>
      </trkpt>
      <trkpt lat="48.681541" lon="16.709210">
        <ele>288.388061</ele>
        <time>2020-08-13T06:23:00.443Z</time>
      </trkpt>
      <trkpt lat="48.681476" lon="16.709335">
        <ele>288.057422</ele>
        <time>2020-08-13T06:23:01.448Z</time>
      </trkpt>
      <trkpt lat="48.681415" lon="16.709471">
        <ele>287.715768</ele>
        <time>2020-08-13T06:23:02.446Z</time>
      </trkpt>
      <trkpt lat="48.681363" lon="16.709619">
        <ele>287.367387</ele>
        <time>2020-08-13T06:23:03.427Z</time>
      </trkpt>
      <trkpt lat="48.681314" lon="16.709774">
        <ele>287.010278</ele>
        <time>2020-08-13T06:23:04.438Z</time>
      </trkpt>
      <trkpt lat="48.681270" lon="16.709932">
        <ele>286.653941</ele>
        <time>2020-08-13T06:23:05.462Z</time>
      </trkpt>
      <trkpt lat="48.681231" lon="16.710093">
        <ele>286.297574</ele>
        <time>2020-08-13T06:23:06.421Z</time>
      </trkpt>
      <trkpt lat="48.681192" lon="16.710256">
        <ele>285.937301</ele>
        <time>2020-08-13T06:23:07.430Z</time>
      </trkpt>
      <trkpt lat="48.681152" lon="16.710421">
        <ele>285.572046</ele>
        <time>2020-08-13T06:23:08.450Z</time>
      </trkpt>
      <trkpt lat="48.681106" lon="16.710583">
        <ele>285.205594</ele>
        <time>2020-08-13T06:23:09.450Z</time>
      </trkpt>
      <trkpt lat="48.681050" lon="16.710736">
        <ele>284.942850</ele>
        <time>2020-08-13T06:23:10.431Z</time>
      </trkpt>
      <trkpt lat="48.680983" lon="16.710877">
        <ele>284.747412</ele>
        <time>2020-08-13T06:23:11.457Z</time>
      </trkpt>
      <trkpt lat="48.680910" lon="16.711011">
        <ele>284.551968</ele>
        <time>2020-08-13T06:23:12.417Z</time>
      </trkpt>
      <trkpt lat="48.680839" lon="16.711141">
        <ele>284.362164</ele>
        <time>2020-08-13T06:23:13.437Z</time>
      </trkpt>
      <trkpt lat="48.680766" lon="16.711265">
        <ele>284.175260</ele>
        <time>2020-08-13T06:23:14.440Z</time>
      </trkpt>
      <trkpt lat="48.680693" lon="16.711385">
        <ele>283.991691</ele>
        <time>2020-08-13T06:23:15.461Z</time>
      </trkpt>
      <trkpt lat="48.680621" lon="16.711504">
        <ele>283.810103</ele>
        <time>2020-08-13T06:23:16.426Z</time>
      </trkpt>
      <trkpt lat="48.680550" lon="16.711622">
        <ele>283.630494</ele>
        <time>2020-08-13T06:23:17.444Z</time>
      </trkpt>
      <trkpt lat="48.680481" lon="16.711742">
        <ele>283.451472</ele>
        <time>2020-08-13T06:23:18.451Z</time>
      </trkpt>
      <trkpt lat="48.680420" lon="16.711873">
        <ele>283.271128</ele>
        <time>2020-08-13T06:23:19.451Z</time>
      </trkpt>
      <trkpt lat="48.680361" lon="16.712001">
        <ele>283.095504</ele>
        <time>2020-08-13T06:23:20.449Z</time>
      </trkpt>
      <trkpt lat="48.680304" lon="16.712127">
        <ele>282.923670</ele>
        <time>2020-08-13T06:23:21.424Z</time>
      </trkpt>
      <trkpt lat="48.680257" lon="16.712258">
        <ele>282.755937</ele>
        <time>2020-08-13T06:23:22.425Z</time>
      </trkpt>
      <trkpt lat="48.680221" lon="16.712396">
        <ele>282.589003</ele>
        <time>2020-08-13T06:23:23.430Z</time>
      </trkpt>
      <trkpt lat="48.680188" lon="16.712537">
        <ele>282.420702</ele>
        <time>2020-08-13T06:23:24.426Z</time>
      </trkpt>
      <trkpt lat="48.680151" lon="16.712679">
        <ele>282.248957</ele>
        <time>2020-08-13T06:23:25.429Z</time>
      </trkpt>
      <trkpt lat="48.680113" lon="16.712822">
        <ele>282.075536</ele>
        <time>2020-08-13T06:23:26.449Z</time>
      </trkpt>
      <trkpt lat="48.680073" lon="16.712964">
        <ele>281.888322</ele>
        <time>2020-08-13T06:23:27.437Z</time>
      </trkpt>
      <trkpt lat="48.680034" lon="16.713105">
        <ele>281.691900</ele>
        <time>2020-08-13T06:23:28.444Z</time>
      </trkpt>
      <trkpt lat="48.680002" lon="16.713249">
        <ele>281.496680</ele>
        <time>2020-08-13T06:23:29.469Z</time>
      </trkpt>
      <trkpt lat="48.679975" lon="16.713393">
        <ele>281.304342</ele>
        <time>2020-08-13T06:23:30.438Z</time>
      </trkpt>
      <trkpt lat="48.679950" lon="16.713535">
        <ele>281.115515</ele>
        <time>2020-08-13T06:23:31.442Z</time>
      </trkpt>
      <trkpt lat="48.679922" lon="16.713672">
        <ele>280.931246</ele>
        <time>2020-08-13T06:23:32.437Z</time>
      </trkpt>
      <trkpt lat="48.679885" lon="16.713802">
        <ele>280.749355</ele>
        <time>2020-08-13T06:23:33.421Z</time>
      </trkpt>
      <trkpt lat="48.679835" lon="16.713924">
        <ele>280.564857</ele>
        <time>2020-08-13T06:23:34.447Z</time>
      </trkpt>
      <trkpt lat="48.679776" lon="16.714035">
        <ele>280.381763</ele>
        <time>2020-08-13T06:23:35.417Z</time>
      </trkpt>
      <trkpt lat="48.679715" lon="16.714143">
        <ele>280.199150</ele>
        <time>2020-08-13T06:23:36.441Z</time>
      </trkpt>
      <trkpt lat="48.679652" lon="16.714251">
        <ele>280.013983</ele>
        <time>2020-08-13T06:23:37.414Z</time>
      </trkpt>
      <trkpt lat="48.679586" lon="16.714356">
        <ele>279.827711</ele>
        <time>2020-08-13T06:23:38.443Z</time>
      </trkpt>
      <trkpt lat="48.679515" lon="16.714454">
        <ele>279.640774</ele>
        <time>2020-08-13T06:23:39.446Z</time>
      </trkpt>
      <trkpt lat="48.679445" lon="16.714551">
        <ele>279.456140</ele>
        <time>2020-08-13T06:23:40.452Z</time>
      </trkpt>
      <trkpt lat="48.679373" lon="16.714648">
        <ele>279.268617</ele>
        <time>2020-08-13T06:23:41.457Z</time>
      </trkpt>
      <trkpt lat="48.679299" lon="16.714742">
        <ele>279.080667</ele>
        <time>2020-08-13T06:23:42.436Z</time>
      </trkpt>
      <trkpt lat="48.679224" lon="16.714836">
        <ele>278.891223</ele>
        <time>2020-08-13T06:23:43.422Z</time>
      </trkpt>
      <trkpt lat="48.679149" lon="16.714931">
        <ele>278.700956</ele>
        <time>2020-08-13T06:23:44.438Z</time>
      </trkpt>
      <trkpt lat="48.679074" lon="16.715027">
        <ele>278.509862</ele>
        <time>2020-08-13T06:23:45.464Z</time>
      </trkpt>
      <trkpt lat="48.678999" lon="16.715125">
        <ele>278.193205</ele>
        <time>2020-08-13T06:23:46.418Z</time>
      </trkpt>
      <trkpt lat="48.678925" lon="16.715222">
        <ele>277.871522</ele>
        <time>2020-08-13T06:23:47.438Z</time>
      </trkpt>
      <trkpt lat="48.678850" lon="16.715319">
        <ele>277.547347</ele>
        <time>2020-08-13T06:23:48.439Z</time>
      </trkpt>
      <trkpt lat="48.678778" lon="16.715417">
        <ele>277.229158</ele>
        <time>2020-08-13T06:23:49.428Z</time>
      </trkpt>
      <trkpt lat="48.678707" lon="16.715515">
        <ele>276.913407</ele>
        <time>2020-08-13T06:23:50.443Z</time>
      </trkpt>
      <trkpt lat="48.678639" lon="16.715617">
        <ele>276.598824</ele>
        <time>2020-08-13T06:23:51.423Z</time>
      </trkpt>
      <trkpt lat="48.678573" lon="16.715721">
        <ele>276.285763</ele>
        <time>2020-08-13T06:23:52.432Z</time>
      </trkpt>
      <trkpt lat="48.678508" lon="16.715827">
        <ele>275.971804</ele>
        <time>2020-08-13T06:23:53.424Z</time>
      </trkpt>
      <trkpt lat="48.678442" lon="16.715935">
        <ele>275.652426</ele>
        <time>2020-08-13T06:23:54.431Z</time>
      </trkpt>
      <trkpt lat="48.678377" lon="16.716044">
        <ele>275.333665</ele>
        <time>2020-08-13T06:23:55.421Z</time>
      </trkpt>
      <trkpt lat="48.678312" lon="16.716152">
        <ele>275.016510</ele>
        <time>2020-08-13T06:23:56.412Z</time>
      </trkpt>
      <trkpt lat="48.678248" lon="16.716259">
        <ele>274.703172</ele>
        <time>2020-08-13T06:23:57.433Z</time>
      </trkpt>
      <trkpt lat="48.678185" lon="16.716366">
        <ele>274.392032</ele>
        <time>2020-08-13T06:23:58.418Z</time>
      </trkpt>
      <trkpt lat="48.678127" lon="16.716475">
        <ele>274.088210</ele>
        <time>2020-08-13T06:23:59.420Z</time>
      </trkpt>
      <trkpt lat="48.678027" lon="16.716692">
        <ele>273.513891</ele>
        <time>2020-08-13T06:24:01.435Z</time>
      </trkpt>
      <trkpt lat="48.677948" lon="16.716902">
        <ele>272.989342</ele>
        <time>2020-08-13T06:24:03.429Z</time>
      </trkpt>
      <trkpt lat="48.677919" lon="16.717125">
        <ele>272.469723</ele>
        <time>2020-08-13T06:24:05.415Z</time>
      </trkpt>
      <trkpt lat="48.677872" lon="16.717340">
        <ele>271.832454</ele>
        <time>2020-08-13T06:24:07.419Z</time>
      </trkpt>
      <trkpt lat="48.677826" lon="16.717537">
        <ele>271.244487</ele>
        <time>2020-08-13T06:24:09.431Z</time>
      </trkpt>
      <trkpt lat="48.677772" lon="16.717742">
        <ele>270.623440</ele>
        <time>2020-08-13T06:24:11.419Z</time>
      </trkpt>
      <trkpt lat="48.677715" lon="16.717947">
        <ele>269.997544</ele>
        <time>2020-08-13T06:24:13.423Z</time>
      </trkpt>
      <trkpt lat="48.677656" lon="16.718152">
        <ele>269.368290</ele>
        <time>2020-08-13T06:24:15.444Z</time>
      </trkpt>
      <trkpt lat="48.677600" lon="16.718341">
        <ele>268.785382</ele>
        <time>2020-08-13T06:24:17.456Z</time>
      </trkpt>
      <trkpt lat="48.677542" lon="16.718550">
        <ele>268.147456</ele>
        <time>2020-08-13T06:24:19.452Z</time>
      </trkpt>
      <trkpt lat="48.677482" lon="16.718761">
        <ele>267.501015</ele>
        <time>2020-08-13T06:24:21.447Z</time>
      </trkpt>
      <trkpt lat="48.677421" lon="16.718969">
        <ele>266.860599</ele>
        <time>2020-08-13T06:24:23.465Z</time>
      </trkpt>
      <trkpt lat="48.677356" lon="16.719169">
        <ele>266.233349</ele>
        <time>2020-08-13T06:24:25.437Z</time>
      </trkpt>
      <trkpt lat="48.677306" lon="16.719367">
        <ele>265.636848</ele>
        <time>2020-08-13T06:24:27.421Z</time>
      </trkpt>
      <trkpt lat="48.677276" lon="16.719565">
        <ele>265.065222</ele>
        <time>2020-08-13T06:24:29.439Z</time>
      </trkpt>
      <trkpt lat="48.677253" lon="16.719762">
        <ele>264.498811</ele>
        <time>2020-08-13T06:24:31.433Z</time>
      </trkpt>
      <trkpt lat="48.677232" lon="16.719944">
        <ele>263.974595</ele>
        <time>2020-08-13T06:24:33.424Z</time>
      </trkpt>
      <trkpt lat="48.677221" lon="16.720121">
        <ele>263.470172</ele>
        <time>2020-08-13T06:24:35.423Z</time>
      </trkpt>
      <trkpt lat="48.677206" lon="16.720319">
        <ele>262.904698</ele>
        <time>2020-08-13T06:24:37.431Z</time>
      </trkpt>
      <trkpt lat="48.677191" lon="16.720515">
        <ele>262.344862</ele>
        <time>2020-08-13T06:24:39.417Z</time>
      </trkpt>
      <trkpt lat="48.677176" lon="16.720718">
        <ele>261.765292</ele>
        <time>2020-08-13T06:24:41.426Z</time>
      </trkpt>
      <trkpt lat="48.677162" lon="16.720905">
        <ele>261.231314</ele>
        <time>2020-08-13T06:24:43.435Z</time>
      </trkpt>
      <trkpt lat="48.677150" lon="16.721085">
        <ele>260.718001</ele>
        <time>2020-08-13T06:24:45.432Z</time>
      </trkpt>
      <trkpt lat="48.677131" lon="16.721261">
        <ele>260.212003</ele>
        <time>2020-08-13T06:24:47.418Z</time>
      </trkpt>
      <trkpt lat="48.677120" lon="16.721428">
        <ele>259.735819</ele>
        <time>2020-08-13T06:24:49.474Z</time>
      </trkpt>
      <trkpt lat="48.677109" lon="16.721608">
        <ele>259.222919</ele>
        <time>2020-08-13T06:24:51.441Z</time>
      </trkpt>
      <trkpt lat="48.677094" lon="16.721783">
        <ele>258.722222</ele>
        <time>2020-08-13T06:24:53.432Z</time>
      </trkpt>
      <trkpt lat="48.677078" lon="16.721961">
        <ele>258.212521</ele>
        <time>2020-08-13T06:24:55.424Z</time>
      </trkpt>
      <trkpt lat="48.677065" lon="16.722139">
        <ele>257.704398</ele>
        <time>2020-08-13T06:24:57.446Z</time>
      </trkpt>
      <trkpt lat="48.677050" lon="16.722319">
        <ele>257.189975</ele>
        <time>2020-08-13T06:24:59.428Z</time>
      </trkpt>
      <trkpt lat="48.677037" lon="16.722483">
        <ele>256.826182</ele>
        <time>2020-08-13T06:25:01.441Z</time>
      </trkpt>
      <trkpt lat="48.677018" lon="16.722642">
        <ele>256.470307</ele>
        <time>2020-08-13T06:25:03.442Z</time>
      </trkpt>
      <trkpt lat="48.676991" lon="16.722797">
        <ele>256.117251</ele>
        <time>2020-08-13T06:25:05.433Z</time>
      </trkpt>
      <trkpt lat="48.676966" lon="16.722956">
        <ele>255.757273</ele>
        <time>2020-08-13T06:25:07.430Z</time>
      </trkpt>
      <trkpt lat="48.676938" lon="16.723119">
        <ele>255.386327</ele>
        <time>2020-08-13T06:25:09.460Z</time>
      </trkpt>
      <trkpt lat="48.676911" lon="16.723294">
        <ele>254.990519</ele>
        <time>2020-08-13T06:25:11.460Z</time>
      </trkpt>
      <trkpt lat="48.676875" lon="16.723479">
        <ele>254.565742</ele>
        <time>2020-08-13T06:25:13.462Z</time>
      </trkpt>
      <trkpt lat="48.676829" lon="16.723663">
        <ele>254.132420</ele>
        <time>2020-08-13T06:25:15.449Z</time>
      </trkpt>
      <trkpt lat="48.676786" lon="16.723865">
        <ele>253.664979</ele>
        <time>2020-08-13T06:25:17.448Z</time>
      </trkpt>
      <trkpt lat="48.676732" lon="16.724065">
        <ele>253.189088</ele>
        <time>2020-08-13T06:25:19.422Z</time>
      </trkpt>
      <trkpt lat="48.676677" lon="16.724260">
        <ele>252.722071</ele>
        <time>2020-08-13T06:25:21.451Z</time>
      </trkpt>
      <trkpt lat="48.676612" lon="16.724450">
        <ele>252.250777</ele>
        <time>2020-08-13T06:25:23.448Z</time>
      </trkpt>
      <trkpt lat="48.676549" lon="16.724630">
        <ele>251.802087</ele>
        <time>2020-08-13T06:25:25.442Z</time>
      </trkpt>
      <trkpt lat="48.676484" lon="16.724803">
        <ele>251.363698</ele>
        <time>2020-08-13T06:25:27.435Z</time>
      </trkpt>
      <trkpt lat="48.676416" lon="16.724974">
        <ele>250.984656</ele>
        <time>2020-08-13T06:25:29.434Z</time>
      </trkpt>
      <trkpt lat="48.676338" lon="16.725124">
        <ele>250.659315</ele>
        <time>2020-08-13T06:25:31.442Z</time>
      </trkpt>
      <trkpt lat="48.676263" lon="16.725265">
        <ele>250.350794</ele>
        <time>2020-08-13T06:25:33.425Z</time>
      </trkpt>
      <trkpt lat="48.676177" lon="16.725376">
        <ele>250.059197</ele>
        <time>2020-08-13T06:25:35.424Z</time>
      </trkpt>
      <trkpt lat="48.676087" lon="16.725465">
        <ele>249.781815</ele>
        <time>2020-08-13T06:25:37.418Z</time>
      </trkpt>
      <trkpt lat="48.675998" lon="16.725556">
        <ele>249.504697</ele>
        <time>2020-08-13T06:25:39.453Z</time>
      </trkpt>
      <trkpt lat="48.675905" lon="16.725648">
        <ele>249.218038</ele>
        <time>2020-08-13T06:25:41.425Z</time>
      </trkpt>
      <trkpt lat="48.675813" lon="16.725747">
        <ele>248.926792</ele>
        <time>2020-08-13T06:25:43.434Z</time>
      </trkpt>
      <trkpt lat="48.675715" lon="16.725846">
        <ele>248.622792</ele>
        <time>2020-08-13T06:25:45.410Z</time>
      </trkpt>
      <trkpt lat="48.675614" lon="16.725950">
        <ele>248.307612</ele>
        <time>2020-08-13T06:25:47.430Z</time>
      </trkpt>
      <trkpt lat="48.675510" lon="16.726036">
        <ele>248.001828</ele>
        <time>2020-08-13T06:25:49.421Z</time>
      </trkpt>
      <trkpt lat="48.675401" lon="16.726009">
        <ele>247.716806</ele>
        <time>2020-08-13T06:25:51.417Z</time>
      </trkpt>
      <trkpt lat="48.675304" lon="16.725954">
        <ele>247.449519</ele>
        <time>2020-08-13T06:25:53.435Z</time>
      </trkpt>
      <trkpt lat="48.675216" lon="16.725905">
        <ele>247.207564</ele>
        <time>2020-08-13T06:25:55.465Z</time>
      </trkpt>
      <trkpt lat="48.675104" lon="16.725849">
        <ele>246.903192</ele>
        <time>2020-08-13T06:25:58.432Z</time>
      </trkpt>
      <trkpt lat="48.675001" lon="16.725808">
        <ele>246.628363</ele>
        <time>2020-08-13T06:26:01.448Z</time>
      </trkpt>
      <trkpt lat="48.674893" lon="16.725743">
        <ele>246.592975</ele>
        <time>2020-08-13T06:26:05.437Z</time>
      </trkpt>
      <trkpt lat="48.674789" lon="16.725703">
        <ele>246.646291</ele>
        <time>2020-08-13T06:26:09.446Z</time>
      </trkpt>
      <trkpt lat="48.674693" lon="16.725669">
        <ele>246.695279</ele>
        <time>2020-08-13T06:26:13.465Z</time>
      </trkpt>
      <trkpt lat="48.674598" lon="16.725633">
        <ele>246.743938</ele>
        <time>2020-08-13T06:26:17.431Z</time>
      </trkpt>
      <trkpt lat="48.674501" lon="16.725584">
        <ele>246.794746</ele>
        <time>2020-08-13T06:26:22.432Z</time>
      </trkpt>
      <trkpt lat="48.674413" lon="16.725547">
        <ele>246.840126</ele>
        <time>2020-08-13T06:26:27.453Z</time>
      </trkpt>
      <trkpt lat="48.674313" lon="16.725496">
        <ele>246.892556</ele>
        <time>2020-08-13T06:26:33.459Z</time>
      </trkpt>
      <trkpt lat="48.674218" lon="16.725471">
        <ele>246.940467</ele>
        <time>2020-08-13T06:26:38.453Z</time>
      </trkpt>
      <trkpt lat="48.674125" lon="16.725444">
        <ele>246.987518</ele>
        <time>2020-08-13T06:26:43.455Z</time>
      </trkpt>
      <trkpt lat="48.674019" lon="16.725397">
        <ele>247.042399</ele>
        <time>2020-08-13T06:26:48.442Z</time>
      </trkpt>
      <trkpt lat="48.673921" lon="16.725341">
        <ele>247.094444</ele>
        <time>2020-08-13T06:26:52.435Z</time>
      </trkpt>
      <trkpt lat="48.673809" lon="16.725302">
        <ele>247.151547</ele>
        <time>2020-08-13T06:26:56.440Z</time>
      </trkpt>
      <trkpt lat="48.673716" lon="16.725250">
        <ele>247.200806</ele>
        <time>2020-08-13T06:26:59.444Z</time>
      </trkpt>
      <trkpt lat="48.673621" lon="16.725198">
        <ele>247.250999</ele>
        <time>2020-08-13T06:27:02.427Z</time>
      </trkpt>
      <trkpt lat="48.673516" lon="16.725147">
        <ele>247.305789</ele>
        <time>2020-08-13T06:27:05.479Z</time>
      </trkpt>
      <trkpt lat="48.673391" lon="16.725103">
        <ele>247.369555</ele>
        <time>2020-08-13T06:27:08.434Z</time>
      </trkpt>
      <trkpt lat="48.673305" lon="16.725065">
        <ele>247.414068</ele>
        <time>2020-08-13T06:27:10.438Z</time>
      </trkpt>
      <trkpt lat="48.673210" lon="16.725023">
        <ele>247.434327</ele>
        <time>2020-08-13T06:27:12.438Z</time>
      </trkpt>
      <trkpt lat="48.673111" lon="16.724983">
        <ele>247.408825</ele>
        <time>2020-08-13T06:27:14.431Z</time>
      </trkpt>
      <trkpt lat="48.673008" lon="16.724948">
        <ele>247.382552</ele>
        <time>2020-08-13T06:27:16.425Z</time>
      </trkpt>
      <trkpt lat="48.672905" lon="16.724908">
        <ele>247.356087</ele>
        <time>2020-08-13T06:27:18.462Z</time>
      </trkpt>
      <trkpt lat="48.672802" lon="16.724861">
        <ele>247.329313</ele>
        <time>2020-08-13T06:27:20.434Z</time>
      </trkpt>
      <trkpt lat="48.672700" lon="16.724814">
        <ele>247.302778</ele>
        <time>2020-08-13T06:27:22.445Z</time>
      </trkpt>
      <trkpt lat="48.672598" lon="16.724771">
        <ele>247.276426</ele>
        <time>2020-08-13T06:27:24.441Z</time>
      </trkpt>
      <trkpt lat="48.672493" lon="16.724724">
        <ele>247.249175</ele>
        <time>2020-08-13T06:27:26.441Z</time>
      </trkpt>
      <trkpt lat="48.672398" lon="16.724653">
        <ele>247.222808</ele>
        <time>2020-08-13T06:27:28.444Z</time>
      </trkpt>
      <trkpt lat="48.672313" lon="16.724571">
        <ele>247.197724</ele>
        <time>2020-08-13T06:27:30.429Z</time>
      </trkpt>
      <trkpt lat="48.672229" lon="16.724488">
        <ele>247.172761</ele>
        <time>2020-08-13T06:27:32.440Z</time>
      </trkpt>
      <trkpt lat="48.672146" lon="16.724404">
        <ele>247.147914</ele>
        <time>2020-08-13T06:27:34.440Z</time>
      </trkpt>
      <trkpt lat="48.672065" lon="16.724318">
        <ele>247.123293</ele>
        <time>2020-08-13T06:27:36.423Z</time>
      </trkpt>
      <trkpt lat="48.671986" lon="16.724233">
        <ele>247.099173</ele>
        <time>2020-08-13T06:27:38.447Z</time>
      </trkpt>
      <trkpt lat="48.671907" lon="16.724150">
        <ele>247.075242</ele>
        <time>2020-08-13T06:27:40.449Z</time>
      </trkpt>
      <trkpt lat="48.671828" lon="16.724067">
        <ele>247.051311</ele>
        <time>2020-08-13T06:27:42.433Z</time>
      </trkpt>
      <trkpt lat="48.671749" lon="16.723985">
        <ele>247.027474</ele>
        <time>2020-08-13T06:27:44.433Z</time>
      </trkpt>
      <trkpt lat="48.671669" lon="16.723906">
        <ele>247.003703</ele>
        <time>2020-08-13T06:27:46.444Z</time>
      </trkpt>
      <trkpt lat="48.671588" lon="16.723824">
        <ele>247.046758</ele>
        <time>2020-08-13T06:27:48.424Z</time>
      </trkpt>
      <trkpt lat="48.671505" lon="16.723741">
        <ele>247.120797</ele>
        <time>2020-08-13T06:27:50.449Z</time>
      </trkpt>
      <trkpt lat="48.671416" lon="16.723660">
        <ele>247.198092</ele>
        <time>2020-08-13T06:27:52.444Z</time>
      </trkpt>
      <trkpt lat="48.671329" lon="16.723579">
        <ele>247.274114</ele>
        <time>2020-08-13T06:27:54.442Z</time>
      </trkpt>
      <trkpt lat="48.671240" lon="16.723490">
        <ele>247.353506</ele>
        <time>2020-08-13T06:27:56.432Z</time>
      </trkpt>
      <trkpt lat="48.671150" lon="16.723400">
        <ele>247.433790</ele>
        <time>2020-08-13T06:27:58.426Z</time>
      </trkpt>
      <trkpt lat="48.671060" lon="16.723312">
        <ele>247.513537</ele>
        <time>2020-08-13T06:28:00.433Z</time>
      </trkpt>
      <trkpt lat="48.670973" lon="16.723228">
        <ele>247.590342</ele>
        <time>2020-08-13T06:28:02.420Z</time>
      </trkpt>
      <trkpt lat="48.670891" lon="16.723150">
        <ele>247.662425</ele>
        <time>2020-08-13T06:28:04.453Z</time>
      </trkpt>
      <trkpt lat="48.670779" lon="16.723044">
        <ele>247.760739</ele>
        <time>2020-08-13T06:28:07.430Z</time>
      </trkpt>
      <trkpt lat="48.670679" lon="16.722942">
        <ele>247.850490</ele>
        <time>2020-08-13T06:28:10.430Z</time>
      </trkpt>
      <trkpt lat="48.670586" lon="16.722842">
        <ele>247.935395</ele>
        <time>2020-08-13T06:28:13.457Z</time>
      </trkpt>
      <trkpt lat="48.670493" lon="16.722753">
        <ele>248.017288</ele>
        <time>2020-08-13T06:28:16.431Z</time>
      </trkpt>
      <trkpt lat="48.670403" lon="16.722665">
        <ele>248.097035</ele>
        <time>2020-08-13T06:28:19.435Z</time>
      </trkpt>
      <trkpt lat="48.670316" lon="16.722577">
        <ele>248.174915</ele>
        <time>2020-08-13T06:28:22.423Z</time>
      </trkpt>
      <trkpt lat="48.670231" lon="16.722491">
        <ele>248.251011</ele>
        <time>2020-08-13T06:28:25.442Z</time>
      </trkpt>
      <trkpt lat="48.670154" lon="16.722419">
        <ele>248.318376</ele>
        <time>2020-08-13T06:28:28.429Z</time>
      </trkpt>
      <trkpt lat="48.670068" lon="16.722326">
        <ele>248.291953</ele>
        <time>2020-08-13T06:28:32.452Z</time>
      </trkpt>
      <trkpt lat="48.669988" lon="16.722254">
        <ele>248.243527</ele>
        <time>2020-08-13T06:28:35.441Z</time>
      </trkpt>
      <trkpt lat="48.669897" lon="16.722165">
        <ele>248.187156</ele>
        <time>2020-08-13T06:28:38.455Z</time>
      </trkpt>
      <trkpt lat="48.669801" lon="16.722059">
        <ele>248.125332</ele>
        <time>2020-08-13T06:28:41.441Z</time>
      </trkpt>
      <trkpt lat="48.669697" lon="16.721948">
        <ele>248.059122</ele>
        <time>2020-08-13T06:28:44.442Z</time>
      </trkpt>
      <trkpt lat="48.669586" lon="16.721842">
        <ele>247.990836</ele>
        <time>2020-08-13T06:28:47.468Z</time>
      </trkpt>
      <trkpt lat="48.669511" lon="16.721763">
        <ele>247.943295</ele>
        <time>2020-08-13T06:28:49.429Z</time>
      </trkpt>
      <trkpt lat="48.669433" lon="16.721682">
        <ele>247.894080</ele>
        <time>2020-08-13T06:28:51.435Z</time>
      </trkpt>
      <trkpt lat="48.669352" lon="16.721595">
        <ele>247.842404</ele>
        <time>2020-08-13T06:28:53.414Z</time>
      </trkpt>
      <trkpt lat="48.669260" lon="16.721512">
        <ele>247.786678</ele>
        <time>2020-08-13T06:28:55.453Z</time>
      </trkpt>
      <trkpt lat="48.669154" lon="16.721412">
        <ele>247.721691</ele>
        <time>2020-08-13T06:28:57.430Z</time>
      </trkpt>
      <trkpt lat="48.669036" lon="16.721290">
        <ele>247.647341</ele>
        <time>2020-08-13T06:28:59.440Z</time>
      </trkpt>
      <trkpt lat="48.668898" lon="16.721156">
        <ele>247.562036</ele>
        <time>2020-08-13T06:29:01.416Z</time>
      </trkpt>
      <trkpt lat="48.668742" lon="16.721023">
        <ele>247.468877</ele>
        <time>2020-08-13T06:29:03.422Z</time>
      </trkpt>
      <trkpt lat="48.668656" lon="16.720967">
        <ele>247.420164</ele>
        <time>2020-08-13T06:29:04.457Z</time>
      </trkpt>
      <trkpt lat="48.668565" lon="16.720911">
        <ele>247.323542</ele>
        <time>2020-08-13T06:29:05.427Z</time>
      </trkpt>
      <trkpt lat="48.668472" lon="16.720858">
        <ele>247.193924</ele>
        <time>2020-08-13T06:29:06.431Z</time>
      </trkpt>
      <trkpt lat="48.668376" lon="16.720803">
        <ele>247.060037</ele>
        <time>2020-08-13T06:29:07.450Z</time>
      </trkpt>
      <trkpt lat="48.668280" lon="16.720745">
        <ele>246.925214</ele>
        <time>2020-08-13T06:29:08.431Z</time>
      </trkpt>
      <trkpt lat="48.668184" lon="16.720683">
        <ele>246.789076</ele>
        <time>2020-08-13T06:29:09.445Z</time>
      </trkpt>
      <trkpt lat="48.668087" lon="16.720619">
        <ele>246.651057</ele>
        <time>2020-08-13T06:29:10.439Z</time>
      </trkpt>
      <trkpt lat="48.667991" lon="16.720556">
        <ele>246.514579</ele>
        <time>2020-08-13T06:29:11.429Z</time>
      </trkpt>
      <trkpt lat="48.667895" lon="16.720496">
        <ele>246.379107</ele>
        <time>2020-08-13T06:29:12.436Z</time>
      </trkpt>
      <trkpt lat="48.667801" lon="16.720437">
        <ele>246.246376</ele>
        <time>2020-08-13T06:29:13.447Z</time>
      </trkpt>
      <trkpt lat="48.667709" lon="16.720380">
        <ele>246.116713</ele>
        <time>2020-08-13T06:29:14.431Z</time>
      </trkpt>
      <trkpt lat="48.667618" lon="16.720323">
        <ele>245.988256</ele>
        <time>2020-08-13T06:29:15.434Z</time>
      </trkpt>
      <trkpt lat="48.667530" lon="16.720265">
        <ele>245.863064</ele>
        <time>2020-08-13T06:29:16.461Z</time>
      </trkpt>
      <trkpt lat="48.667444" lon="16.720208">
        <ele>245.740609</ele>
        <time>2020-08-13T06:29:17.465Z</time>
      </trkpt>
      <trkpt lat="48.667359" lon="16.720154">
        <ele>245.620370</ele>
        <time>2020-08-13T06:29:18.451Z</time>
      </trkpt>
      <trkpt lat="48.667192" lon="16.720069">
        <ele>245.390555</ele>
        <time>2020-08-13T06:29:20.445Z</time>
      </trkpt>
      <trkpt lat="48.667032" lon="16.719994">
        <ele>245.172077</ele>
        <time>2020-08-13T06:29:22.434Z</time>
      </trkpt>
      <trkpt lat="48.666883" lon="16.719932">
        <ele>244.961996</ele>
        <time>2020-08-13T06:29:24.441Z</time>
      </trkpt>
      <trkpt lat="48.666749" lon="16.719880">
        <ele>244.762939</ele>
        <time>2020-08-13T06:29:26.432Z</time>
      </trkpt>
      <trkpt lat="48.666625" lon="16.719848">
        <ele>244.581931</ele>
        <time>2020-08-13T06:29:28.442Z</time>
      </trkpt>
      <trkpt lat="48.666511" lon="16.719831">
        <ele>244.417092</ele>
        <time>2020-08-13T06:29:30.423Z</time>
      </trkpt>
      <trkpt lat="48.666405" lon="16.719812">
        <ele>244.263494</ele>
        <time>2020-08-13T06:29:32.425Z</time>
      </trkpt>
      <trkpt lat="48.666305" lon="16.719789">
        <ele>244.117944</ele>
        <time>2020-08-13T06:29:34.416Z</time>
      </trkpt>
      <trkpt lat="48.666207" lon="16.719777">
        <ele>243.976463</ele>
        <time>2020-08-13T06:29:36.440Z</time>
      </trkpt>
      <trkpt lat="48.666114" lon="16.719769">
        <ele>243.842421</ele>
        <time>2020-08-13T06:29:38.429Z</time>
      </trkpt>
      <trkpt lat="48.666022" lon="16.719751">
        <ele>243.708933</ele>
        <time>2020-08-13T06:29:40.430Z</time>
      </trkpt>
      <trkpt lat="48.665930" lon="16.719731">
        <ele>243.575188</ele>
        <time>2020-08-13T06:29:42.419Z</time>
      </trkpt>
      <trkpt lat="48.665839" lon="16.719713">
        <ele>243.443127</ele>
        <time>2020-08-13T06:29:44.451Z</time>
      </trkpt>
      <trkpt lat="48.665749" lon="16.719694">
        <ele>243.312365</ele>
        <time>2020-08-13T06:29:46.425Z</time>
      </trkpt>
      <trkpt lat="48.665619" lon="16.719662">
        <ele>243.122841</ele>
        <time>2020-08-13T06:29:49.437Z</time>
      </trkpt>
      <trkpt lat="48.665494" lon="16.719638">
        <ele>242.941526</ele>
        <time>2020-08-13T06:29:52.434Z</time>
      </trkpt>
      <trkpt lat="48.665369" lon="16.719610">
        <ele>242.759695</ele>
        <time>2020-08-13T06:29:55.430Z</time>
      </trkpt>
      <trkpt lat="48.665243" lon="16.719591">
        <ele>242.577485</ele>
        <time>2020-08-13T06:29:58.439Z</time>
      </trkpt>
      <trkpt lat="48.665127" lon="16.719568">
        <ele>242.480236</ele>
        <time>2020-08-13T06:30:01.420Z</time>
      </trkpt>
      <trkpt lat="48.665023" lon="16.719570">
        <ele>242.521568</ele>
        <time>2020-08-13T06:30:04.452Z</time>
      </trkpt>
      <trkpt lat="48.664932" lon="16.719561">
        <ele>242.557807</ele>
        <time>2020-08-13T06:30:07.448Z</time>
      </trkpt>
      <trkpt lat="48.664826" lon="16.719545">
        <ele>242.600139</ele>
        <time>2020-08-13T06:30:11.444Z</time>
      </trkpt>
      <trkpt lat="48.664717" lon="16.719522">
        <ele>242.643872</ele>
        <time>2020-08-13T06:30:16.444Z</time>
      </trkpt>
      <trkpt lat="48.664617" lon="16.719495">
        <ele>242.684238</ele>
        <time>2020-08-13T06:30:21.432Z</time>
      </trkpt>
      <trkpt lat="48.664518" lon="16.719474">
        <ele>242.723963</ele>
        <time>2020-08-13T06:30:26.436Z</time>
      </trkpt>
      <trkpt lat="48.664425" lon="16.719460">
        <ele>242.761102</ele>
        <time>2020-08-13T06:30:31.444Z</time>
      </trkpt>
      <trkpt lat="48.664327" lon="16.719444">
        <ele>242.800272</ele>
        <time>2020-08-13T06:30:36.426Z</time>
      </trkpt>
      <trkpt lat="48.664236" lon="16.719423">
        <ele>242.836852</ele>
        <time>2020-08-13T06:30:41.424Z</time>
      </trkpt>
      <trkpt lat="48.664131" lon="16.719409">
        <ele>242.878739</ele>
        <time>2020-08-13T06:30:47.442Z</time>
      </trkpt>
      <trkpt lat="48.664033" lon="16.719382">
        <ele>242.918322</ele>
        <time>2020-08-13T06:30:53.433Z</time>
      </trkpt>
      <trkpt lat="48.663941" lon="16.719348">
        <ele>242.955955</ele>
        <time>2020-08-13T06:30:59.419Z</time>
      </trkpt>
      <trkpt lat="48.663841" lon="16.719323">
        <ele>242.996231</ele>
        <time>2020-08-13T06:31:05.462Z</time>
      </trkpt>
      <trkpt lat="48.663747" lon="16.719312">
        <ele>243.033697</ele>
        <time>2020-08-13T06:31:10.440Z</time>
      </trkpt>
      <trkpt lat="48.663645" lon="16.719302">
        <ele>243.074315</ele>
        <time>2020-08-13T06:31:16.436Z</time>
      </trkpt>
      <trkpt lat="48.663552" lon="16.719281">
        <ele>243.111681</ele>
        <time>2020-08-13T06:31:21.431Z</time>
      </trkpt>
      <trkpt lat="48.663446" lon="16.719264">
        <ele>243.154039</ele>
        <time>2020-08-13T06:31:27.439Z</time>
      </trkpt>
      <trkpt lat="48.663351" lon="16.719246">
        <ele>243.235700</ele>
        <time>2020-08-13T06:31:32.431Z</time>
      </trkpt>
      <trkpt lat="48.663260" lon="16.719227">
        <ele>243.399780</ele>
        <time>2020-08-13T06:31:37.426Z</time>
      </trkpt>
      <trkpt lat="48.663152" lon="16.719208">
        <ele>243.593985</ele>
        <time>2020-08-13T06:31:43.433Z</time>
      </trkpt>
      <trkpt lat="48.663058" lon="16.719195">
        <ele>243.762584</ele>
        <time>2020-08-13T06:31:48.454Z</time>
      </trkpt>
      <trkpt lat="48.662969" lon="16.719163">
        <ele>243.925975</ele>
        <time>2020-08-13T06:31:53.432Z</time>
      </trkpt>
      <trkpt lat="48.662862" lon="16.719158">
        <ele>244.117187</ele>
        <time>2020-08-13T06:31:59.427Z</time>
      </trkpt>
      <trkpt lat="48.662762" lon="16.719134">
        <ele>244.298034</ele>
        <time>2020-08-13T06:32:05.421Z</time>
      </trkpt>
      <trkpt lat="48.662662" lon="16.719121">
        <ele>244.477309</ele>
        <time>2020-08-13T06:32:11.442Z</time>
      </trkpt>
      <trkpt lat="48.662557" lon="16.719095">
        <ele>244.667349</ele>
        <time>2020-08-13T06:32:17.421Z</time>
      </trkpt>
      <trkpt lat="48.662460" lon="16.719074">
        <ele>244.842370</ele>
        <time>2020-08-13T06:32:23.448Z</time>
      </trkpt>
      <trkpt lat="48.662354" lon="16.719068">
        <ele>245.031837</ele>
        <time>2020-08-13T06:32:29.429Z</time>
      </trkpt>
      <trkpt lat="48.662263" lon="16.719049">
        <ele>245.195917</ele>
        <time>2020-08-13T06:32:34.422Z</time>
      </trkpt>
      <trkpt lat="48.662169" lon="16.719021">
        <ele>245.367036</ele>
        <time>2020-08-13T06:32:39.419Z</time>
      </trkpt>
      <trkpt lat="48.662068" lon="16.718999">
        <ele>245.549298</ele>
        <time>2020-08-13T06:32:44.431Z</time>
      </trkpt>
      <trkpt lat="48.661957" lon="16.718980">
        <ele>245.748826</ele>
        <time>2020-08-13T06:32:49.435Z</time>
      </trkpt>
      <trkpt lat="48.661859" lon="16.718951">
        <ele>245.927183</ele>
        <time>2020-08-13T06:32:53.451Z</time>
      </trkpt>
      <trkpt lat="48.661751" lon="16.718936">
        <ele>246.120900</ele>
        <time>2020-08-13T06:32:57.423Z</time>
      </trkpt>
      <trkpt lat="48.661657" lon="16.718916">
        <ele>246.290451</ele>
        <time>2020-08-13T06:33:00.434Z</time>
      </trkpt>
      <trkpt lat="48.661549" lon="16.718893">
        <ele>246.453266</ele>
        <time>2020-08-13T06:33:03.435Z</time>
      </trkpt>
      <trkpt lat="48.661430" lon="16.718870">
        <ele>246.593806</ele>
        <time>2020-08-13T06:33:06.481Z</time>
      </trkpt>
      <trkpt lat="48.661340" lon="16.718860">
        <ele>246.699524</ele>
        <time>2020-08-13T06:33:08.454Z</time>
      </trkpt>
      <trkpt lat="48.661250" lon="16.718838">
        <ele>246.806324</ele>
        <time>2020-08-13T06:33:10.448Z</time>
      </trkpt>
      <trkpt lat="48.661157" lon="16.718816">
        <ele>246.916595</ele>
        <time>2020-08-13T06:33:12.437Z</time>
      </trkpt>
      <trkpt lat="48.661056" lon="16.718799">
        <ele>247.035645</ele>
        <time>2020-08-13T06:33:14.426Z</time>
      </trkpt>
      <trkpt lat="48.660954" lon="16.718783">
        <ele>247.155777</ele>
        <time>2020-08-13T06:33:16.423Z</time>
      </trkpt>
      <trkpt lat="48.660850" lon="16.718752">
        <ele>247.279952</ele>
        <time>2020-08-13T06:33:18.465Z</time>
      </trkpt>
      <trkpt lat="48.660741" lon="16.718723">
        <ele>247.409602</ele>
        <time>2020-08-13T06:33:20.425Z</time>
      </trkpt>
      <trkpt lat="48.660633" lon="16.718705">
        <ele>247.536887</ele>
        <time>2020-08-13T06:33:22.432Z</time>
      </trkpt>
      <trkpt lat="48.660527" lon="16.718697">
        <ele>247.661220</ele>
        <time>2020-08-13T06:33:24.459Z</time>
      </trkpt>
      <trkpt lat="48.660422" lon="16.718688">
        <ele>247.784424</ele>
        <time>2020-08-13T06:33:26.452Z</time>
      </trkpt>
      <trkpt lat="48.660314" lon="16.718669">
        <ele>247.911797</ele>
        <time>2020-08-13T06:33:28.454Z</time>
      </trkpt>
      <trkpt lat="48.660211" lon="16.718646">
        <ele>248.033767</ele>
        <time>2020-08-13T06:33:30.423Z</time>
      </trkpt>
      <trkpt lat="48.660113" lon="16.718627">
        <ele>248.149511</ele>
        <time>2020-08-13T06:33:32.473Z</time>
      </trkpt>
      <trkpt lat="48.660018" lon="16.718603">
        <ele>248.262342</ele>
        <time>2020-08-13T06:33:34.436Z</time>
      </trkpt>
      <trkpt lat="48.659925" lon="16.718583">
        <ele>248.372385</ele>
        <time>2020-08-13T06:33:36.438Z</time>
      </trkpt>
      <trkpt lat="48.659794" lon="16.718559">
        <ele>248.511003</ele>
        <time>2020-08-13T06:33:39.410Z</time>
      </trkpt>
      <trkpt lat="48.659669" lon="16.718537">
        <ele>248.573045</ele>
        <time>2020-08-13T06:33:42.469Z</time>
      </trkpt>
      <trkpt lat="48.659546" lon="16.718510">
        <ele>248.634319</ele>
        <time>2020-08-13T06:33:45.421Z</time>
      </trkpt>
      <trkpt lat="48.659427" lon="16.718492">
        <ele>248.693280</ele>
        <time>2020-08-13T06:33:48.430Z</time>
      </trkpt>
      <trkpt lat="48.659306" lon="16.718459">
        <ele>248.753895</ele>
        <time>2020-08-13T06:33:51.449Z</time>
      </trkpt>
      <trkpt lat="48.659189" lon="16.718435">
        <ele>248.812105</ele>
        <time>2020-08-13T06:33:54.444Z</time>
      </trkpt>
      <trkpt lat="48.659077" lon="16.718414">
        <ele>248.867744</ele>
        <time>2020-08-13T06:33:57.461Z</time>
      </trkpt>
      <trkpt lat="48.658971" lon="16.718399">
        <ele>248.920231</ele>
        <time>2020-08-13T06:34:00.430Z</time>
      </trkpt>
      <trkpt lat="48.658863" lon="16.718376">
        <ele>248.974001</ele>
        <time>2020-08-13T06:34:03.483Z</time>
      </trkpt>
      <trkpt lat="48.658758" lon="16.718345">
        <ele>249.026743</ele>
        <time>2020-08-13T06:34:06.434Z</time>
      </trkpt>
      <trkpt lat="48.658656" lon="16.718323">
        <ele>249.077538</ele>
        <time>2020-08-13T06:34:09.432Z</time>
      </trkpt>
      <trkpt lat="48.658556" lon="16.718301">
        <ele>249.127357</ele>
        <time>2020-08-13T06:34:12.456Z</time>
      </trkpt>
      <trkpt lat="48.658452" lon="16.718289">
        <ele>249.178779</ele>
        <time>2020-08-13T06:34:15.450Z</time>
      </trkpt>
      <trkpt lat="48.658348" lon="16.718282">
        <ele>249.230104</ele>
        <time>2020-08-13T06:34:18.414Z</time>
      </trkpt>
      <trkpt lat="48.658241" lon="16.718260">
        <ele>249.283340</ele>
        <time>2020-08-13T06:34:21.424Z</time>
      </trkpt>
      <trkpt lat="48.658135" lon="16.718244">
        <ele>249.335859</ele>
        <time>2020-08-13T06:34:24.452Z</time>
      </trkpt>
      <trkpt lat="48.658039" lon="16.718232">
        <ele>249.383349</ele>
        <time>2020-08-13T06:34:27.452Z</time>
      </trkpt>
      <trkpt lat="48.657940" lon="16.718221">
        <ele>249.497614</ele>
        <time>2020-08-13T06:34:30.438Z</time>
      </trkpt>
      <trkpt lat="48.657837" lon="16.718197">
        <ele>249.621746</ele>
        <time>2020-08-13T06:34:33.439Z</time>
      </trkpt>
      <trkpt lat="48.657732" lon="16.718179">
        <ele>249.747614</ele>
        <time>2020-08-13T06:34:36.442Z</time>
      </trkpt>
      <trkpt lat="48.657618" lon="16.718163">
        <ele>249.883986</ele>
        <time>2020-08-13T06:34:39.417Z</time>
      </trkpt>
      <trkpt lat="48.657496" lon="16.718149">
        <ele>250.029721</ele>
        <time>2020-08-13T06:34:42.432Z</time>
      </trkpt>
      <trkpt lat="48.657368" lon="16.718124">
        <ele>250.183450</ele>
        <time>2020-08-13T06:34:45.428Z</time>
      </trkpt>
      <trkpt lat="48.657275" lon="16.718110">
        <ele>250.294772</ele>
        <time>2020-08-13T06:34:47.472Z</time>
      </trkpt>
      <trkpt lat="48.657179" lon="16.718097">
        <ele>250.409578</ele>
        <time>2020-08-13T06:34:49.431Z</time>
      </trkpt>
      <trkpt lat="48.657082" lon="16.718081">
        <ele>250.525802</ele>
        <time>2020-08-13T06:34:51.435Z</time>
      </trkpt>
      <trkpt lat="48.656982" lon="16.718059">
        <ele>250.646166</ele>
        <time>2020-08-13T06:34:53.454Z</time>
      </trkpt>
      <trkpt lat="48.656884" lon="16.718019">
        <ele>250.767066</ele>
        <time>2020-08-13T06:34:55.448Z</time>
      </trkpt>
      <trkpt lat="48.656790" lon="16.717969">
        <ele>250.885743</ele>
        <time>2020-08-13T06:34:57.436Z</time>
      </trkpt>
      <trkpt lat="48.656692" lon="16.717924">
        <ele>251.007726</ele>
        <time>2020-08-13T06:34:59.418Z</time>
      </trkpt>
      <trkpt lat="48.656600" lon="16.717875">
        <ele>251.123895</ele>
        <time>2020-08-13T06:35:01.447Z</time>
      </trkpt>
      <trkpt lat="48.656506" lon="16.717831">
        <ele>251.241092</ele>
        <time>2020-08-13T06:35:03.432Z</time>
      </trkpt>
      <trkpt lat="48.656415" lon="16.717786">
        <ele>251.355122</ele>
        <time>2020-08-13T06:35:05.430Z</time>
      </trkpt>
      <trkpt lat="48.656322" lon="16.717744">
        <ele>251.470721</ele>
        <time>2020-08-13T06:35:07.464Z</time>
      </trkpt>
      <trkpt lat="48.656225" lon="16.717707">
        <ele>251.566255</ele>
        <time>2020-08-13T06:35:09.476Z</time>
      </trkpt>
      <trkpt lat="48.656128" lon="16.717661">
        <ele>251.640676</ele>
        <time>2020-08-13T06:35:11.461Z</time>
      </trkpt>
      <trkpt lat="48.656033" lon="16.717616">
        <ele>251.713554</ele>
        <time>2020-08-13T06:35:13.453Z</time>
      </trkpt>
      <trkpt lat="48.655937" lon="16.717575">
        <ele>251.786583</ele>
        <time>2020-08-13T06:35:15.417Z</time>
      </trkpt>
      <trkpt lat="48.655843" lon="16.717544">
        <ele>251.857019</ele>
        <time>2020-08-13T06:35:17.429Z</time>
      </trkpt>
      <trkpt lat="48.655753" lon="16.717506">
        <ele>251.925426</ele>
        <time>2020-08-13T06:35:19.430Z</time>
      </trkpt>
      <trkpt lat="48.655626" lon="16.717454">
        <ele>252.021749</ele>
        <time>2020-08-13T06:35:22.423Z</time>
      </trkpt>
      <trkpt lat="48.655504" lon="16.717405">
        <ele>252.114160</ele>
        <time>2020-08-13T06:35:25.440Z</time>
      </trkpt>
      <trkpt lat="48.655387" lon="16.717359">
        <ele>252.202662</ele>
        <time>2020-08-13T06:35:28.446Z</time>
      </trkpt>
      <trkpt lat="48.655272" lon="16.717314">
        <ele>252.289626</ele>
        <time>2020-08-13T06:35:31.439Z</time>
      </trkpt>
      <trkpt lat="48.655156" lon="16.717269">
        <ele>252.377298</ele>
        <time>2020-08-13T06:35:34.437Z</time>
      </trkpt>
      <trkpt lat="48.655045" lon="16.717218">
        <ele>252.462226</ele>
        <time>2020-08-13T06:35:37.469Z</time>
      </trkpt>
      <trkpt lat="48.654930" lon="16.717166">
        <ele>252.550098</ele>
        <time>2020-08-13T06:35:40.434Z</time>
      </trkpt>
      <trkpt lat="48.654816" lon="16.717114">
        <ele>252.637269</ele>
        <time>2020-08-13T06:35:43.461Z</time>
      </trkpt>
      <trkpt lat="48.654704" lon="16.717060">
        <ele>252.723327</ele>
        <time>2020-08-13T06:35:46.446Z</time>
      </trkpt>
      <trkpt lat="48.654591" lon="16.717007">
        <ele>252.809939</ele>
        <time>2020-08-13T06:35:49.462Z</time>
      </trkpt>
      <trkpt lat="48.654469" lon="16.716962">
        <ele>252.872490</ele>
        <time>2020-08-13T06:35:52.446Z</time>
      </trkpt>
      <trkpt lat="48.654345" lon="16.716920">
        <ele>252.917082</ele>
        <time>2020-08-13T06:35:55.427Z</time>
      </trkpt>
      <trkpt lat="48.654256" lon="16.716882">
        <ele>252.949534</ele>
        <time>2020-08-13T06:35:57.435Z</time>
      </trkpt>
      <trkpt lat="48.654165" lon="16.716840">
        <ele>252.982921</ele>
        <time>2020-08-13T06:35:59.459Z</time>
      </trkpt>
      <trkpt lat="48.654067" lon="16.716800">
        <ele>253.018541</ele>
        <time>2020-08-13T06:36:01.439Z</time>
      </trkpt>
      <trkpt lat="48.653964" lon="16.716762">
        <ele>253.055746</ele>
        <time>2020-08-13T06:36:03.445Z</time>
      </trkpt>
      <trkpt lat="48.653857" lon="16.716724">
        <ele>253.094316</ele>
        <time>2020-08-13T06:36:05.435Z</time>
      </trkpt>
      <trkpt lat="48.653743" lon="16.716677">
        <ele>253.135780</ele>
        <time>2020-08-13T06:36:07.453Z</time>
      </trkpt>
      <trkpt lat="48.653628" lon="16.716627">
        <ele>253.177769</ele>
        <time>2020-08-13T06:36:09.450Z</time>
      </trkpt>
      <trkpt lat="48.653506" lon="16.716566">
        <ele>253.222859</ele>
        <time>2020-08-13T06:36:11.471Z</time>
      </trkpt>
      <trkpt lat="48.653383" lon="16.716515">
        <ele>253.267614</ele>
        <time>2020-08-13T06:36:13.414Z</time>
      </trkpt>
      <trkpt lat="48.653256" lon="16.716461">
        <ele>253.313908</ele>
        <time>2020-08-13T06:36:15.448Z</time>
      </trkpt>
      <trkpt lat="48.653119" lon="16.716408">
        <ele>253.363532</ele>
        <time>2020-08-13T06:36:17.445Z</time>
      </trkpt>
      <trkpt lat="48.652977" lon="16.716362">
        <ele>253.414493</ele>
        <time>2020-08-13T06:36:19.437Z</time>
      </trkpt>
      <trkpt lat="48.652833" lon="16.716311">
        <ele>253.466393</ele>
        <time>2020-08-13T06:36:21.433Z</time>
      </trkpt>
      <trkpt lat="48.652686" lon="16.716240">
        <ele>253.438735</ele>
        <time>2020-08-13T06:36:23.447Z</time>
      </trkpt>
      <trkpt lat="48.652533" lon="16.716175">
        <ele>253.390559</ele>
        <time>2020-08-13T06:36:25.421Z</time>
      </trkpt>
      <trkpt lat="48.652379" lon="16.716116">
        <ele>253.342400</ele>
        <time>2020-08-13T06:36:27.423Z</time>
      </trkpt>
      <trkpt lat="48.652216" lon="16.716048">
        <ele>253.291142</ele>
        <time>2020-08-13T06:36:29.427Z</time>
      </trkpt>
      <trkpt lat="48.652047" lon="16.715977">
        <ele>253.237972</ele>
        <time>2020-08-13T06:36:31.436Z</time>
      </trkpt>
      <trkpt lat="48.651877" lon="16.715907">
        <ele>253.184561</ele>
        <time>2020-08-13T06:36:33.442Z</time>
      </trkpt>
      <trkpt lat="48.651707" lon="16.715840">
        <ele>253.131306</ele>
        <time>2020-08-13T06:36:35.430Z</time>
      </trkpt>
      <trkpt lat="48.651539" lon="16.715773">
        <ele>253.078637</ele>
        <time>2020-08-13T06:36:37.429Z</time>
      </trkpt>
      <trkpt lat="48.651373" lon="16.715702">
        <ele>253.026342</ele>
        <time>2020-08-13T06:36:39.431Z</time>
      </trkpt>
      <trkpt lat="48.651202" lon="16.715634">
        <ele>252.972742</ele>
        <time>2020-08-13T06:36:41.458Z</time>
      </trkpt>
      <trkpt lat="48.651029" lon="16.715568">
        <ele>252.851837</ele>
        <time>2020-08-13T06:36:43.433Z</time>
      </trkpt>
      <trkpt lat="48.650854" lon="16.715507">
        <ele>252.511365</ele>
        <time>2020-08-13T06:36:45.418Z</time>
      </trkpt>
      <trkpt lat="48.650766" lon="16.715474">
        <ele>252.339479</ele>
        <time>2020-08-13T06:36:46.433Z</time>
      </trkpt>
      <trkpt lat="48.650677" lon="16.715437">
        <ele>252.164493</ele>
        <time>2020-08-13T06:36:47.449Z</time>
      </trkpt>
      <trkpt lat="48.650588" lon="16.715403">
        <ele>251.990464</ele>
        <time>2020-08-13T06:36:48.442Z</time>
      </trkpt>
      <trkpt lat="48.650501" lon="16.715365">
        <ele>251.818788</ele>
        <time>2020-08-13T06:36:49.421Z</time>
      </trkpt>
      <trkpt lat="48.650329" lon="16.715287">
        <ele>251.478368</ele>
        <time>2020-08-13T06:36:51.430Z</time>
      </trkpt>
      <trkpt lat="48.650243" lon="16.715243">
        <ele>251.306255</ele>
        <time>2020-08-13T06:36:52.420Z</time>
      </trkpt>
      <trkpt lat="48.650155" lon="16.715198">
        <ele>251.130149</ele>
        <time>2020-08-13T06:36:53.426Z</time>
      </trkpt>
      <trkpt lat="48.650064" lon="16.715153">
        <ele>250.948646</ele>
        <time>2020-08-13T06:36:54.434Z</time>
      </trkpt>
      <trkpt lat="48.649972" lon="16.715110">
        <ele>250.766094</ele>
        <time>2020-08-13T06:36:55.434Z</time>
      </trkpt>
      <trkpt lat="48.649877" lon="16.715074">
        <ele>250.580422</ele>
        <time>2020-08-13T06:36:56.440Z</time>
      </trkpt>
      <trkpt lat="48.649779" lon="16.715039">
        <ele>250.389519</ele>
        <time>2020-08-13T06:36:57.438Z</time>
      </trkpt>
      <trkpt lat="48.649682" lon="16.714997">
        <ele>250.198237</ele>
        <time>2020-08-13T06:36:58.438Z</time>
      </trkpt>
      <trkpt lat="48.649582" lon="16.714958">
        <ele>250.002452</ele>
        <time>2020-08-13T06:36:59.433Z</time>
      </trkpt>
      <trkpt lat="48.649479" lon="16.714920">
        <ele>249.801454</ele>
        <time>2020-08-13T06:37:00.423Z</time>
      </trkpt>
      <trkpt lat="48.649373" lon="16.714881">
        <ele>249.594633</ele>
        <time>2020-08-13T06:37:01.439Z</time>
      </trkpt>
      <trkpt lat="48.649267" lon="16.714835">
        <ele>249.353877</ele>
        <time>2020-08-13T06:37:02.432Z</time>
      </trkpt>
      <trkpt lat="48.649161" lon="16.714785">
        <ele>249.094217</ele>
        <time>2020-08-13T06:37:03.435Z</time>
      </trkpt>
      <trkpt lat="48.649052" lon="16.714738">
        <ele>248.829158</ele>
        <time>2020-08-13T06:37:04.444Z</time>
      </trkpt>
      <trkpt lat="48.648943" lon="16.714695">
        <ele>248.565725</ele>
        <time>2020-08-13T06:37:05.431Z</time>
      </trkpt>
      <trkpt lat="48.648838" lon="16.714657">
        <ele>248.313240</ele>
        <time>2020-08-13T06:37:06.427Z</time>
      </trkpt>
      <trkpt lat="48.648737" lon="16.714621">
        <ele>248.070571</ele>
        <time>2020-08-13T06:37:07.424Z</time>
      </trkpt>
      <trkpt lat="48.648643" lon="16.714581">
        <ele>247.842212</ele>
        <time>2020-08-13T06:37:08.432Z</time>
      </trkpt>
      <trkpt lat="48.648553" lon="16.714544">
        <ele>247.624104</ele>
        <time>2020-08-13T06:37:09.449Z</time>
      </trkpt>
      <trkpt lat="48.648463" lon="16.714512">
        <ele>247.407892</ele>
        <time>2020-08-13T06:37:10.443Z</time>
      </trkpt>
      <trkpt lat="48.648375" lon="16.714478">
        <ele>247.195488</ele>
        <time>2020-08-13T06:37:11.444Z</time>
      </trkpt>
      <trkpt lat="48.648207" lon="16.714402">
        <ele>246.785415</ele>
        <time>2020-08-13T06:37:13.431Z</time>
      </trkpt>
      <trkpt lat="48.648068" lon="16.714336">
        <ele>246.444717</ele>
        <time>2020-08-13T06:37:15.420Z</time>
      </trkpt>
      <trkpt lat="48.647969" lon="16.714272">
        <ele>246.192952</ele>
        <time>2020-08-13T06:37:18.458Z</time>
      </trkpt>
      <trkpt lat="48.647854" lon="16.714211">
        <ele>245.907965</ele>
        <time>2020-08-13T06:37:23.428Z</time>
      </trkpt>
      <trkpt lat="48.647749" lon="16.714124">
        <ele>245.628016</ele>
        <time>2020-08-13T06:37:26.442Z</time>
      </trkpt>
      <trkpt lat="48.647671" lon="16.714043">
        <ele>245.406791</ele>
        <time>2020-08-13T06:37:28.421Z</time>
      </trkpt>
      <trkpt lat="48.647586" lon="16.713959">
        <ele>245.076277</ele>
        <time>2020-08-13T06:37:30.439Z</time>
      </trkpt>
      <trkpt lat="48.647497" lon="16.713883">
        <ele>244.684280</ele>
        <time>2020-08-13T06:37:32.436Z</time>
      </trkpt>
      <trkpt lat="48.647398" lon="16.713824">
        <ele>244.276132</ele>
        <time>2020-08-13T06:37:34.423Z</time>
      </trkpt>
      <trkpt lat="48.647295" lon="16.713788">
        <ele>243.870620</ele>
        <time>2020-08-13T06:37:36.424Z</time>
      </trkpt>
      <trkpt lat="48.647191" lon="16.713787">
        <ele>243.471661</ele>
        <time>2020-08-13T06:37:38.422Z</time>
      </trkpt>
      <trkpt lat="48.647093" lon="16.713801">
        <ele>243.094057</ele>
        <time>2020-08-13T06:37:40.432Z</time>
      </trkpt>
      <trkpt lat="48.646963" lon="16.713830">
        <ele>242.589982</ele>
        <time>2020-08-13T06:37:43.454Z</time>
      </trkpt>
      <trkpt lat="48.646845" lon="16.713854">
        <ele>242.133258</ele>
        <time>2020-08-13T06:37:46.475Z</time>
      </trkpt>
      <trkpt lat="48.646769" lon="16.713975">
        <ele>241.710122</ele>
        <time>2020-08-13T06:37:49.446Z</time>
      </trkpt>
      <trkpt lat="48.646746" lon="16.714134">
        <ele>241.297594</ele>
        <time>2020-08-13T06:37:52.421Z</time>
      </trkpt>
      <trkpt lat="48.646723" lon="16.714265">
        <ele>240.954054</ele>
        <time>2020-08-13T06:37:55.427Z</time>
      </trkpt>
      <trkpt lat="48.646719" lon="16.714424">
        <ele>240.550779</ele>
        <time>2020-08-13T06:38:15.434Z</time>
      </trkpt>
      <trkpt lat="48.646703" lon="16.714574">
        <ele>240.165684</ele>
        <time>2020-08-13T06:38:22.424Z</time>
      </trkpt>
      <trkpt lat="48.646729" lon="16.714705">
        <ele>239.819009</ele>
        <time>2020-08-13T06:38:30.423Z</time>
      </trkpt>
      <trkpt lat="48.646669" lon="16.714818">
        <ele>239.451588</ele>
        <time>2020-08-13T06:38:46.424Z</time>
      </trkpt>
      <trkpt lat="48.646639" lon="16.714995">
        <ele>238.988458</ele>
        <time>2020-08-13T06:38:51.440Z</time>
      </trkpt>
      <trkpt lat="48.646623" lon="16.715163">
        <ele>238.558262</ele>
        <time>2020-08-13T06:38:54.442Z</time>
      </trkpt>
      <trkpt lat="48.646595" lon="16.715341">
        <ele>238.239517</ele>
        <time>2020-08-13T06:38:57.434Z</time>
      </trkpt>
      <trkpt lat="48.646554" lon="16.715510">
        <ele>237.989610</ele>
        <time>2020-08-13T06:39:00.445Z</time>
      </trkpt>
      <trkpt lat="48.646521" lon="16.715683">
        <ele>237.739657</ele>
        <time>2020-08-13T06:39:03.442Z</time>
      </trkpt>
      <trkpt lat="48.646466" lon="16.715856">
        <ele>237.473158</ele>
        <time>2020-08-13T06:39:06.433Z</time>
      </trkpt>
      <trkpt lat="48.646391" lon="16.716021">
        <ele>237.195150</ele>
        <time>2020-08-13T06:39:09.452Z</time>
      </trkpt>
      <trkpt lat="48.646316" lon="16.716184">
        <ele>236.919424</ele>
        <time>2020-08-13T06:39:12.448Z</time>
      </trkpt>
      <trkpt lat="48.646250" lon="16.716349">
        <ele>236.651679</ele>
        <time>2020-08-13T06:39:15.416Z</time>
      </trkpt>
      <trkpt lat="48.646171" lon="16.716485">
        <ele>236.400307</ele>
        <time>2020-08-13T06:39:18.440Z</time>
      </trkpt>
      <trkpt lat="48.646065" lon="16.716588">
        <ele>236.135658</ele>
        <time>2020-08-13T06:39:21.418Z</time>
      </trkpt>
      <trkpt lat="48.645969" lon="16.716707">
        <ele>235.874953</ele>
        <time>2020-08-13T06:39:24.438Z</time>
      </trkpt>
      <trkpt lat="48.645878" lon="16.716849">
        <ele>235.600349</ele>
        <time>2020-08-13T06:39:27.444Z</time>
      </trkpt>
      <trkpt lat="48.645791" lon="16.716993">
        <ele>235.329485</ele>
        <time>2020-08-13T06:39:30.447Z</time>
      </trkpt>
      <trkpt lat="48.645694" lon="16.717131">
        <ele>235.049792</ele>
        <time>2020-08-13T06:39:33.433Z</time>
      </trkpt>
      <trkpt lat="48.645626" lon="16.717222">
        <ele>234.859088</ele>
        <time>2020-08-13T06:39:35.448Z</time>
      </trkpt>
      <trkpt lat="48.645535" lon="16.717369">
        <ele>234.623848</ele>
        <time>2020-08-13T06:39:38.447Z</time>
      </trkpt>
      <trkpt lat="48.645442" lon="16.717517">
        <ele>234.562137</ele>
        <time>2020-08-13T06:39:41.433Z</time>
      </trkpt>
      <trkpt lat="48.645379" lon="16.717614">
        <ele>234.521040</ele>
        <time>2020-08-13T06:39:43.445Z</time>
      </trkpt>
      <trkpt lat="48.645282" lon="16.717753">
        <ele>234.459955</ele>
        <time>2020-08-13T06:39:46.414Z</time>
      </trkpt>
      <trkpt lat="48.645222" lon="16.717858">
        <ele>234.418011</ele>
        <time>2020-08-13T06:39:48.452Z</time>
      </trkpt>
      <trkpt lat="48.645164" lon="16.717962">
        <ele>234.376890</ele>
        <time>2020-08-13T06:39:50.438Z</time>
      </trkpt>
      <trkpt lat="48.645074" lon="16.718100">
        <ele>234.318304</ele>
        <time>2020-08-13T06:39:53.444Z</time>
      </trkpt>
      <trkpt lat="48.645008" lon="16.718194">
        <ele>234.276860</ele>
        <time>2020-08-13T06:39:55.451Z</time>
      </trkpt>
      <trkpt lat="48.644935" lon="16.718281">
        <ele>234.234370</ele>
        <time>2020-08-13T06:39:57.431Z</time>
      </trkpt>
      <trkpt lat="48.644842" lon="16.718424">
        <ele>234.173744</ele>
        <time>2020-08-13T06:40:00.459Z</time>
      </trkpt>
      <trkpt lat="48.644782" lon="16.718526">
        <ele>234.132481</ele>
        <time>2020-08-13T06:40:02.435Z</time>
      </trkpt>
      <trkpt lat="48.644726" lon="16.718638">
        <ele>234.090044</ele>
        <time>2020-08-13T06:40:04.429Z</time>
      </trkpt>
      <trkpt lat="48.644650" lon="16.718803">
        <ele>234.029271</ele>
        <time>2020-08-13T06:40:07.424Z</time>
      </trkpt>
      <trkpt lat="48.644599" lon="16.718918">
        <ele>233.987423</ele>
        <time>2020-08-13T06:40:09.424Z</time>
      </trkpt>
      <trkpt lat="48.644557" lon="16.719041">
        <ele>233.945589</ele>
        <time>2020-08-13T06:40:11.451Z</time>
      </trkpt>
      <trkpt lat="48.644518" lon="16.719165">
        <ele>233.904095</ele>
        <time>2020-08-13T06:40:13.431Z</time>
      </trkpt>
      <trkpt lat="48.644481" lon="16.719293">
        <ele>233.861880</ele>
        <time>2020-08-13T06:40:15.423Z</time>
      </trkpt>
      <trkpt lat="48.644434" lon="16.719482">
        <ele>233.798381</ele>
        <time>2020-08-13T06:40:18.420Z</time>
      </trkpt>
      <trkpt lat="48.644397" lon="16.719613">
        <ele>233.747002</ele>
        <time>2020-08-13T06:40:20.427Z</time>
      </trkpt>
      <trkpt lat="48.644334" lon="16.719790">
        <ele>233.674497</ele>
        <time>2020-08-13T06:40:23.423Z</time>
      </trkpt>
      <trkpt lat="48.644277" lon="16.719898">
        <ele>233.624647</ele>
        <time>2020-08-13T06:40:25.450Z</time>
      </trkpt>
      <trkpt lat="48.644223" lon="16.720008">
        <ele>233.575226</ele>
        <time>2020-08-13T06:40:27.410Z</time>
      </trkpt>
      <trkpt lat="48.644169" lon="16.720119">
        <ele>233.525515</ele>
        <time>2020-08-13T06:40:29.425Z</time>
      </trkpt>
      <trkpt lat="48.644093" lon="16.720278">
        <ele>233.454742</ele>
        <time>2020-08-13T06:40:32.431Z</time>
      </trkpt>
      <trkpt lat="48.644010" lon="16.720431">
        <ele>233.383349</ele>
        <time>2020-08-13T06:40:35.439Z</time>
      </trkpt>
      <trkpt lat="48.643925" lon="16.720581">
        <ele>233.312083</ele>
        <time>2020-08-13T06:40:38.439Z</time>
      </trkpt>
      <trkpt lat="48.643842" lon="16.720730">
        <ele>233.241798</ele>
        <time>2020-08-13T06:40:41.424Z</time>
      </trkpt>
      <trkpt lat="48.643758" lon="16.720872">
        <ele>233.173062</ele>
        <time>2020-08-13T06:40:44.457Z</time>
      </trkpt>
      <trkpt lat="48.643681" lon="16.721021">
        <ele>233.104843</ele>
        <time>2020-08-13T06:40:47.433Z</time>
      </trkpt>
      <trkpt lat="48.643601" lon="16.721150">
        <ele>233.041038</ele>
        <time>2020-08-13T06:40:50.419Z</time>
      </trkpt>
      <trkpt lat="48.643533" lon="16.721267">
        <ele>232.984842</ele>
        <time>2020-08-13T06:40:53.429Z</time>
      </trkpt>
      <trkpt lat="48.643470" lon="16.721413">
        <ele>232.921954</ele>
        <time>2020-08-13T06:40:56.460Z</time>
      </trkpt>
      <trkpt lat="48.643395" lon="16.721576">
        <ele>232.850319</ele>
        <time>2020-08-13T06:40:59.453Z</time>
      </trkpt>
      <trkpt lat="48.643310" lon="16.721723">
        <ele>232.802391</ele>
        <time>2020-08-13T06:41:02.433Z</time>
      </trkpt>
      <trkpt lat="48.643226" lon="16.721864">
        <ele>232.763527</ele>
        <time>2020-08-13T06:41:05.421Z</time>
      </trkpt>
      <trkpt lat="48.643164" lon="16.722028">
        <ele>232.724847</ele>
        <time>2020-08-13T06:41:08.425Z</time>
      </trkpt>
      <trkpt lat="48.643111" lon="16.722197">
        <ele>232.686552</ele>
        <time>2020-08-13T06:41:11.434Z</time>
      </trkpt>
      <trkpt lat="48.643083" lon="16.722386">
        <ele>232.646901</ele>
        <time>2020-08-13T06:41:14.423Z</time>
      </trkpt>
      <trkpt lat="48.643050" lon="16.722576">
        <ele>232.606684</ele>
        <time>2020-08-13T06:41:17.435Z</time>
      </trkpt>
      <trkpt lat="48.643012" lon="16.722765">
        <ele>232.566242</ele>
        <time>2020-08-13T06:41:20.410Z</time>
      </trkpt>
      <trkpt lat="48.642981" lon="16.722954">
        <ele>232.526377</ele>
        <time>2020-08-13T06:41:23.439Z</time>
      </trkpt>
      <trkpt lat="48.642963" lon="16.723142">
        <ele>232.487489</ele>
        <time>2020-08-13T06:41:26.424Z</time>
      </trkpt>
      <trkpt lat="48.642940" lon="16.723334">
        <ele>232.447543</ele>
        <time>2020-08-13T06:41:29.430Z</time>
      </trkpt>
      <trkpt lat="48.642925" lon="16.723526">
        <ele>232.407964</ele>
        <time>2020-08-13T06:41:32.437Z</time>
      </trkpt>
      <trkpt lat="48.642921" lon="16.723725">
        <ele>232.367207</ele>
        <time>2020-08-13T06:41:35.453Z</time>
      </trkpt>
      <trkpt lat="48.642917" lon="16.723860">
        <ele>232.339543</ele>
        <time>2020-08-13T06:41:37.454Z</time>
      </trkpt>
      <trkpt lat="48.642912" lon="16.724061">
        <ele>232.298367</ele>
        <time>2020-08-13T06:41:40.423Z</time>
      </trkpt>
      <trkpt lat="48.642910" lon="16.724202">
        <ele>232.272397</ele>
        <time>2020-08-13T06:41:42.473Z</time>
      </trkpt>
      <trkpt lat="48.642902" lon="16.724406">
        <ele>232.253872</ele>
        <time>2020-08-13T06:41:45.416Z</time>
      </trkpt>
      <trkpt lat="48.642891" lon="16.724552">
        <ele>232.240552</ele>
        <time>2020-08-13T06:41:47.444Z</time>
      </trkpt>
      <trkpt lat="48.642880" lon="16.724693">
        <ele>232.227683</ele>
        <time>2020-08-13T06:41:49.420Z</time>
      </trkpt>
      <trkpt lat="48.642877" lon="16.724832">
        <ele>232.215076</ele>
        <time>2020-08-13T06:41:51.426Z</time>
      </trkpt>
      <trkpt lat="48.642875" lon="16.724971">
        <ele>232.202473</ele>
        <time>2020-08-13T06:41:53.432Z</time>
      </trkpt>
      <trkpt lat="48.642878" lon="16.725111">
        <ele>232.189776</ele>
        <time>2020-08-13T06:41:55.435Z</time>
      </trkpt>
      <trkpt lat="48.642874" lon="16.725251">
        <ele>232.177074</ele>
        <time>2020-08-13T06:41:57.431Z</time>
      </trkpt>
      <trkpt lat="48.642872" lon="16.725391">
        <ele>232.164381</ele>
        <time>2020-08-13T06:41:59.454Z</time>
      </trkpt>
      <trkpt lat="48.642870" lon="16.725527">
        <ele>232.152050</ele>
        <time>2020-08-13T06:42:01.434Z</time>
      </trkpt>
      <trkpt lat="48.642867" lon="16.725667">
        <ele>232.139353</ele>
        <time>2020-08-13T06:42:03.445Z</time>
      </trkpt>
      <trkpt lat="48.642867" lon="16.725805">
        <ele>232.126844</ele>
        <time>2020-08-13T06:42:05.423Z</time>
      </trkpt>
      <trkpt lat="48.642865" lon="16.726001">
        <ele>232.109075</ele>
        <time>2020-08-13T06:42:08.436Z</time>
      </trkpt>
      <trkpt lat="48.642870" lon="16.726200">
        <ele>232.091024</ele>
        <time>2020-08-13T06:42:11.421Z</time>
      </trkpt>
      <trkpt lat="48.642872" lon="16.726397">
        <ele>232.073164</ele>
        <time>2020-08-13T06:42:14.414Z</time>
      </trkpt>
      <trkpt lat="48.642874" lon="16.726534">
        <ele>232.060743</ele>
        <time>2020-08-13T06:42:16.423Z</time>
      </trkpt>
      <trkpt lat="48.642865" lon="16.726734">
        <ele>232.042572</ele>
        <time>2020-08-13T06:42:19.455Z</time>
      </trkpt>
      <trkpt lat="48.642848" lon="16.726868">
        <ele>232.030204</ele>
        <time>2020-08-13T06:42:21.439Z</time>
      </trkpt>
      <trkpt lat="48.642824" lon="16.727063">
        <ele>231.997617</ele>
        <time>2020-08-13T06:42:24.416Z</time>
      </trkpt>
      <trkpt lat="48.642803" lon="16.727255">
        <ele>231.963596</ele>
        <time>2020-08-13T06:42:27.433Z</time>
      </trkpt>
      <trkpt lat="48.642756" lon="16.727437">
        <ele>231.929435</ele>
        <time>2020-08-13T06:42:30.418Z</time>
      </trkpt>
      <trkpt lat="48.642703" lon="16.727621">
        <ele>231.894346</ele>
        <time>2020-08-13T06:42:33.418Z</time>
      </trkpt>
      <trkpt lat="48.642658" lon="16.727742">
        <ele>231.870072</ele>
        <time>2020-08-13T06:42:35.424Z</time>
      </trkpt>
      <trkpt lat="48.642622" lon="16.727867">
        <ele>231.846235</ele>
        <time>2020-08-13T06:42:37.421Z</time>
      </trkpt>
      <trkpt lat="48.642589" lon="16.727996">
        <ele>231.822052</ele>
        <time>2020-08-13T06:42:39.427Z</time>
      </trkpt>
      <trkpt lat="48.642551" lon="16.728125">
        <ele>231.797361</ele>
        <time>2020-08-13T06:42:41.436Z</time>
      </trkpt>
      <trkpt lat="48.642496" lon="16.728311">
        <ele>231.761737</ele>
        <time>2020-08-13T06:42:44.430Z</time>
      </trkpt>
      <trkpt lat="48.642449" lon="16.728495">
        <ele>231.727251</ele>
        <time>2020-08-13T06:42:47.418Z</time>
      </trkpt>
      <trkpt lat="48.642390" lon="16.728673">
        <ele>231.692438</ele>
        <time>2020-08-13T06:42:50.459Z</time>
      </trkpt>
      <trkpt lat="48.642324" lon="16.728835">
        <ele>231.659167</ele>
        <time>2020-08-13T06:42:53.440Z</time>
      </trkpt>
      <trkpt lat="48.642255" lon="16.728997">
        <ele>231.625472</ele>
        <time>2020-08-13T06:42:56.441Z</time>
      </trkpt>
      <trkpt lat="48.642181" lon="16.729151">
        <ele>231.592184</ele>
        <time>2020-08-13T06:42:59.431Z</time>
      </trkpt>
      <trkpt lat="48.642107" lon="16.729299">
        <ele>231.559738</ele>
        <time>2020-08-13T06:43:02.428Z</time>
      </trkpt>
      <trkpt lat="48.642031" lon="16.729432">
        <ele>231.516137</ele>
        <time>2020-08-13T06:43:05.418Z</time>
      </trkpt>
      <trkpt lat="48.641965" lon="16.729552">
        <ele>231.473634</ele>
        <time>2020-08-13T06:43:08.436Z</time>
      </trkpt>
      <trkpt lat="48.641893" lon="16.729662">
        <ele>231.431485</ele>
        <time>2020-08-13T06:43:11.438Z</time>
      </trkpt>
      <trkpt lat="48.641836" lon="16.729791">
        <ele>231.389240</ele>
        <time>2020-08-13T06:43:14.455Z</time>
      </trkpt>
      <trkpt lat="48.641773" lon="16.729914">
        <ele>231.346875</ele>
        <time>2020-08-13T06:43:17.451Z</time>
      </trkpt>
      <trkpt lat="48.641714" lon="16.730034">
        <ele>231.306157</ele>
        <time>2020-08-13T06:43:20.445Z</time>
      </trkpt>
      <trkpt lat="48.641656" lon="16.730156">
        <ele>231.265242</ele>
        <time>2020-08-13T06:43:23.439Z</time>
      </trkpt>
      <trkpt lat="48.641599" lon="16.730281">
        <ele>231.223898</ele>
        <time>2020-08-13T06:43:26.461Z</time>
      </trkpt>
      <trkpt lat="48.641547" lon="16.730424">
        <ele>231.179464</ele>
        <time>2020-08-13T06:43:29.452Z</time>
      </trkpt>
      <trkpt lat="48.641495" lon="16.730574">
        <ele>231.133352</ele>
        <time>2020-08-13T06:43:32.434Z</time>
      </trkpt>
      <trkpt lat="48.641436" lon="16.730730">
        <ele>231.084420</ele>
        <time>2020-08-13T06:43:35.440Z</time>
      </trkpt>
      <trkpt lat="48.641376" lon="16.730887">
        <ele>231.035047</ele>
        <time>2020-08-13T06:43:38.437Z</time>
      </trkpt>
      <trkpt lat="48.641314" lon="16.731047">
        <ele>230.984553</ele>
        <time>2020-08-13T06:43:41.435Z</time>
      </trkpt>
      <trkpt lat="48.641249" lon="16.731213">
        <ele>230.932025</ele>
        <time>2020-08-13T06:43:44.424Z</time>
      </trkpt>
      <trkpt lat="48.641181" lon="16.731379">
        <ele>230.878856</ele>
        <time>2020-08-13T06:43:47.438Z</time>
      </trkpt>
      <trkpt lat="48.641116" lon="16.731549">
        <ele>230.825388</ele>
        <time>2020-08-13T06:43:50.442Z</time>
      </trkpt>
      <trkpt lat="48.641058" lon="16.731719">
        <ele>230.776963</ele>
        <time>2020-08-13T06:43:53.441Z</time>
      </trkpt>
      <trkpt lat="48.640998" lon="16.731890">
        <ele>230.729362</ele>
        <time>2020-08-13T06:43:56.453Z</time>
      </trkpt>
      <trkpt lat="48.640940" lon="16.732048">
        <ele>230.684925</ele>
        <time>2020-08-13T06:43:59.453Z</time>
      </trkpt>
      <trkpt lat="48.640873" lon="16.732208">
        <ele>230.638354</ele>
        <time>2020-08-13T06:44:02.421Z</time>
      </trkpt>
      <trkpt lat="48.640811" lon="16.732390">
        <ele>230.588012</ele>
        <time>2020-08-13T06:44:05.446Z</time>
      </trkpt>
      <trkpt lat="48.640774" lon="16.732523">
        <ele>230.552533</ele>
        <time>2020-08-13T06:44:07.419Z</time>
      </trkpt>
      <trkpt lat="48.640734" lon="16.732661">
        <ele>230.515484</ele>
        <time>2020-08-13T06:44:09.447Z</time>
      </trkpt>
      <trkpt lat="48.640695" lon="16.732805">
        <ele>230.477222</ele>
        <time>2020-08-13T06:44:11.433Z</time>
      </trkpt>
      <trkpt lat="48.640655" lon="16.732945">
        <ele>230.439722</ele>
        <time>2020-08-13T06:44:13.453Z</time>
      </trkpt>
      <trkpt lat="48.640616" lon="16.733082">
        <ele>230.403047</ele>
        <time>2020-08-13T06:44:15.436Z</time>
      </trkpt>
      <trkpt lat="48.640579" lon="16.733219">
        <ele>230.366660</ele>
        <time>2020-08-13T06:44:17.432Z</time>
      </trkpt>
      <trkpt lat="48.640542" lon="16.733353">
        <ele>230.330954</ele>
        <time>2020-08-13T06:44:19.448Z</time>
      </trkpt>
      <trkpt lat="48.640506" lon="16.733484">
        <ele>230.296073</ele>
        <time>2020-08-13T06:44:21.440Z</time>
      </trkpt>
      <trkpt lat="48.640473" lon="16.733615">
        <ele>230.261604</ele>
        <time>2020-08-13T06:44:23.425Z</time>
      </trkpt>
      <trkpt lat="48.640408" lon="16.733775">
        <ele>230.215427</ele>
        <time>2020-08-13T06:44:26.424Z</time>
      </trkpt>
      <trkpt lat="48.640271" lon="16.733719">
        <ele>230.162627</ele>
        <time>2020-08-13T06:44:29.427Z</time>
      </trkpt>
      <trkpt lat="48.640176" lon="16.733657">
        <ele>230.116845</ele>
        <time>2020-08-13T06:44:31.439Z</time>
      </trkpt>
      <trkpt lat="48.640078" lon="16.733605">
        <ele>230.062306</ele>
        <time>2020-08-13T06:44:33.438Z</time>
      </trkpt>
      <trkpt lat="48.639980" lon="16.733554">
        <ele>230.007882</ele>
        <time>2020-08-13T06:44:35.433Z</time>
      </trkpt>
      <trkpt lat="48.639889" lon="16.733504">
        <ele>229.957039</ele>
        <time>2020-08-13T06:44:37.427Z</time>
      </trkpt>
      <trkpt lat="48.639797" lon="16.733461">
        <ele>229.906472</ele>
        <time>2020-08-13T06:44:39.418Z</time>
      </trkpt>
      <trkpt lat="48.639706" lon="16.733420">
        <ele>229.856608</ele>
        <time>2020-08-13T06:44:41.451Z</time>
      </trkpt>
      <trkpt lat="48.639614" lon="16.733372">
        <ele>229.805502</ele>
        <time>2020-08-13T06:44:43.414Z</time>
      </trkpt>
      <trkpt lat="48.639520" lon="16.733329">
        <ele>229.753930</ele>
        <time>2020-08-13T06:44:45.417Z</time>
      </trkpt>
      <trkpt lat="48.639432" lon="16.733288">
        <ele>229.705574</ele>
        <time>2020-08-13T06:44:47.445Z</time>
      </trkpt>
      <trkpt lat="48.639343" lon="16.733247">
        <ele>229.656717</ele>
        <time>2020-08-13T06:44:49.436Z</time>
      </trkpt>
      <trkpt lat="48.639253" lon="16.733205">
        <ele>229.607255</ele>
        <time>2020-08-13T06:44:51.433Z</time>
      </trkpt>
      <trkpt lat="48.639161" lon="16.733164">
        <ele>229.556888</ele>
        <time>2020-08-13T06:44:53.415Z</time>
      </trkpt>
      <trkpt lat="48.639066" lon="16.733120">
        <ele>229.504713</ele>
        <time>2020-08-13T06:44:55.441Z</time>
      </trkpt>
      <trkpt lat="48.638980" lon="16.733075">
        <ele>229.456925</ele>
        <time>2020-08-13T06:44:57.438Z</time>
      </trkpt>
      <trkpt lat="48.638892" lon="16.733028">
        <ele>229.407916</ele>
        <time>2020-08-13T06:44:59.429Z</time>
      </trkpt>
      <trkpt lat="48.638804" lon="16.732984">
        <ele>229.359244</ele>
        <time>2020-08-13T06:45:01.434Z</time>
      </trkpt>
      <trkpt lat="48.638716" lon="16.732952">
        <ele>229.311713</ele>
        <time>2020-08-13T06:45:03.416Z</time>
      </trkpt>
      <trkpt lat="48.638626" lon="16.732917">
        <ele>229.262912</ele>
        <time>2020-08-13T06:45:05.415Z</time>
      </trkpt>
      <trkpt lat="48.638498" lon="16.732863">
        <ele>229.192961</ele>
        <time>2020-08-13T06:45:08.425Z</time>
      </trkpt>
      <trkpt lat="48.638370" lon="16.732803">
        <ele>229.119753</ele>
        <time>2020-08-13T06:45:11.420Z</time>
      </trkpt>
      <trkpt lat="48.638252" lon="16.732743">
        <ele>229.051745</ele>
        <time>2020-08-13T06:45:14.445Z</time>
      </trkpt>
      <trkpt lat="48.638129" lon="16.732683">
        <ele>228.981142</ele>
        <time>2020-08-13T06:45:17.444Z</time>
      </trkpt>
      <trkpt lat="48.638011" lon="16.732619">
        <ele>228.912660</ele>
        <time>2020-08-13T06:45:20.418Z</time>
      </trkpt>
      <trkpt lat="48.637887" lon="16.732578">
        <ele>228.843317</ele>
        <time>2020-08-13T06:45:23.431Z</time>
      </trkpt>
      <trkpt lat="48.637769" lon="16.732523">
        <ele>228.775861</ele>
        <time>2020-08-13T06:45:26.442Z</time>
      </trkpt>
      <trkpt lat="48.637652" lon="16.732462">
        <ele>228.708254</ele>
        <time>2020-08-13T06:45:29.455Z</time>
      </trkpt>
      <trkpt lat="48.637535" lon="16.732404">
        <ele>228.640991</ele>
        <time>2020-08-13T06:45:32.430Z</time>
      </trkpt>
      <trkpt lat="48.637418" lon="16.732347">
        <ele>228.573840</ele>
        <time>2020-08-13T06:45:35.451Z</time>
      </trkpt>
      <trkpt lat="48.637303" lon="16.732290">
        <ele>228.507728</ele>
        <time>2020-08-13T06:45:38.446Z</time>
      </trkpt>
      <trkpt lat="48.637186" lon="16.732234">
        <ele>228.440687</ele>
        <time>2020-08-13T06:45:41.421Z</time>
      </trkpt>
      <trkpt lat="48.637069" lon="16.732182">
        <ele>228.374066</ele>
        <time>2020-08-13T06:45:44.439Z</time>
      </trkpt>
      <trkpt lat="48.636951" lon="16.732136">
        <ele>228.307495</ele>
        <time>2020-08-13T06:45:47.455Z</time>
      </trkpt>
      <trkpt lat="48.636832" lon="16.732094">
        <ele>228.240737</ele>
        <time>2020-08-13T06:45:50.448Z</time>
      </trkpt>
      <trkpt lat="48.636713" lon="16.732100">
        <ele>228.187894</ele>
        <time>2020-08-13T06:45:53.416Z</time>
      </trkpt>
      <trkpt lat="48.636624" lon="16.732205">
        <ele>228.145576</ele>
        <time>2020-08-13T06:45:56.436Z</time>
      </trkpt>
      <trkpt lat="48.636556" lon="16.732348">
        <ele>228.101919</ele>
        <time>2020-08-13T06:45:59.422Z</time>
      </trkpt>
      <trkpt lat="48.636497" lon="16.732499">
        <ele>228.058449</ele>
        <time>2020-08-13T06:46:02.422Z</time>
      </trkpt>
      <trkpt lat="48.636440" lon="16.732643">
        <ele>228.016854</ele>
        <time>2020-08-13T06:46:05.432Z</time>
      </trkpt>
      <trkpt lat="48.636384" lon="16.732782">
        <ele>227.976513</ele>
        <time>2020-08-13T06:46:08.429Z</time>
      </trkpt>
      <trkpt lat="48.636326" lon="16.732913">
        <ele>227.937438</ele>
        <time>2020-08-13T06:46:11.435Z</time>
      </trkpt>
      <trkpt lat="48.636272" lon="16.733042">
        <ele>227.899597</ele>
        <time>2020-08-13T06:46:14.423Z</time>
      </trkpt>
      <trkpt lat="48.636221" lon="16.733167">
        <ele>227.863194</ele>
        <time>2020-08-13T06:46:17.440Z</time>
      </trkpt>
      <trkpt lat="48.636170" lon="16.733285">
        <ele>227.828254</ele>
        <time>2020-08-13T06:46:20.409Z</time>
      </trkpt>
      <trkpt lat="48.636118" lon="16.733403">
        <ele>227.793108</ele>
        <time>2020-08-13T06:46:23.473Z</time>
      </trkpt>
      <trkpt lat="48.636065" lon="16.733522">
        <ele>227.757547</ele>
        <time>2020-08-13T06:46:26.432Z</time>
      </trkpt>
      <trkpt lat="48.635995" lon="16.733623">
        <ele>227.721278</ele>
        <time>2020-08-13T06:46:29.439Z</time>
      </trkpt>
      <trkpt lat="48.635901" lon="16.733621">
        <ele>227.686026</ele>
        <time>2020-08-13T06:46:32.426Z</time>
      </trkpt>
      <trkpt lat="48.635813" lon="16.733565">
        <ele>227.650228</ele>
        <time>2020-08-13T06:46:35.431Z</time>
      </trkpt>
      <trkpt lat="48.635723" lon="16.733504">
        <ele>227.613248</ele>
        <time>2020-08-13T06:46:38.444Z</time>
      </trkpt>
      <trkpt lat="48.635640" lon="16.733439">
        <ele>227.578203</ele>
        <time>2020-08-13T06:46:41.427Z</time>
      </trkpt>
      <trkpt lat="48.635558" lon="16.733369">
        <ele>227.542899</ele>
        <time>2020-08-13T06:46:44.456Z</time>
      </trkpt>
      <trkpt lat="48.635467" lon="16.733296">
        <ele>227.479378</ele>
        <time>2020-08-13T06:46:47.434Z</time>
      </trkpt>
      <trkpt lat="48.635376" lon="16.733194">
        <ele>227.407428</ele>
        <time>2020-08-13T06:46:50.431Z</time>
      </trkpt>
      <trkpt lat="48.635285" lon="16.733102">
        <ele>227.337896</ele>
        <time>2020-08-13T06:46:53.442Z</time>
      </trkpt>
      <trkpt lat="48.635185" lon="16.733022">
        <ele>227.266030</ele>
        <time>2020-08-13T06:46:56.454Z</time>
      </trkpt>
      <trkpt lat="48.635082" lon="16.732941">
        <ele>227.192281</ele>
        <time>2020-08-13T06:46:59.443Z</time>
      </trkpt>
      <trkpt lat="48.634982" lon="16.732863">
        <ele>227.120803</ele>
        <time>2020-08-13T06:47:02.438Z</time>
      </trkpt>
      <trkpt lat="48.634886" lon="16.732784">
        <ele>227.051375</ele>
        <time>2020-08-13T06:47:05.479Z</time>
      </trkpt>
      <trkpt lat="48.634790" lon="16.732701">
        <ele>226.981129</ele>
        <time>2020-08-13T06:47:08.450Z</time>
      </trkpt>
      <trkpt lat="48.634701" lon="16.732629">
        <ele>226.917010</ele>
        <time>2020-08-13T06:47:11.422Z</time>
      </trkpt>
      <trkpt lat="48.634602" lon="16.732559">
        <ele>226.847584</ele>
        <time>2020-08-13T06:47:14.431Z</time>
      </trkpt>
      <trkpt lat="48.634519" lon="16.732482">
        <ele>226.785729</ele>
        <time>2020-08-13T06:47:17.434Z</time>
      </trkpt>
      <trkpt lat="48.634437" lon="16.732407">
        <ele>226.724854</ele>
        <time>2020-08-13T06:47:20.427Z</time>
      </trkpt>
      <trkpt lat="48.634340" lon="16.732307">
        <ele>226.650283</ele>
        <time>2020-08-13T06:47:24.450Z</time>
      </trkpt>
      <trkpt lat="48.634212" lon="16.732155">
        <ele>226.546907</ele>
        <time>2020-08-13T06:48:35.443Z</time>
      </trkpt>
      <trkpt lat="48.634118" lon="16.732082">
        <ele>226.479780</ele>
        <time>2020-08-13T06:48:38.439Z</time>
      </trkpt>
      <trkpt lat="48.634010" lon="16.731993">
        <ele>226.401648</ele>
        <time>2020-08-13T06:48:41.424Z</time>
      </trkpt>
      <trkpt lat="48.633926" lon="16.731938">
        <ele>226.361513</ele>
        <time>2020-08-13T06:48:43.444Z</time>
      </trkpt>
      <trkpt lat="48.633803" lon="16.731847">
        <ele>226.303602</ele>
        <time>2020-08-13T06:48:46.462Z</time>
      </trkpt>
      <trkpt lat="48.633711" lon="16.731789">
        <ele>226.261446</ele>
        <time>2020-08-13T06:48:48.429Z</time>
      </trkpt>
      <trkpt lat="48.633616" lon="16.731726">
        <ele>226.217575</ele>
        <time>2020-08-13T06:48:50.449Z</time>
      </trkpt>
      <trkpt lat="48.633522" lon="16.731662">
        <ele>226.173976</ele>
        <time>2020-08-13T06:48:52.451Z</time>
      </trkpt>
      <trkpt lat="48.633434" lon="16.731601">
        <ele>226.133035</ele>
        <time>2020-08-13T06:48:54.423Z</time>
      </trkpt>
      <trkpt lat="48.633348" lon="16.731540">
        <ele>226.092861</ele>
        <time>2020-08-13T06:48:56.444Z</time>
      </trkpt>
      <trkpt lat="48.633264" lon="16.731483">
        <ele>226.053923</ele>
        <time>2020-08-13T06:48:58.426Z</time>
      </trkpt>
      <trkpt lat="48.633180" lon="16.731426">
        <ele>226.014984</ele>
        <time>2020-08-13T06:49:00.429Z</time>
      </trkpt>
      <trkpt lat="48.633096" lon="16.731361">
        <ele>225.975079</ele>
        <time>2020-08-13T06:49:02.410Z</time>
      </trkpt>
      <trkpt lat="48.633011" lon="16.731306">
        <ele>225.935977</ele>
        <time>2020-08-13T06:49:04.434Z</time>
      </trkpt>
      <trkpt lat="48.632920" lon="16.731260">
        <ele>225.895396</ele>
        <time>2020-08-13T06:49:06.434Z</time>
      </trkpt>
      <trkpt lat="48.632829" lon="16.731222">
        <ele>225.855466</ele>
        <time>2020-08-13T06:49:08.432Z</time>
      </trkpt>
      <trkpt lat="48.632739" lon="16.731174">
        <ele>225.815104</ele>
        <time>2020-08-13T06:49:10.444Z</time>
      </trkpt>
      <trkpt lat="48.632652" lon="16.731128">
        <ele>225.776123</ele>
        <time>2020-08-13T06:49:12.427Z</time>
      </trkpt>
      <trkpt lat="48.632526" lon="16.731070">
        <ele>225.720418</ele>
        <time>2020-08-13T06:49:15.423Z</time>
      </trkpt>
      <trkpt lat="48.632401" lon="16.731018">
        <ele>225.665585</ele>
        <time>2020-08-13T06:49:18.414Z</time>
      </trkpt>
      <trkpt lat="48.632280" lon="16.730970">
        <ele>225.614600</ele>
        <time>2020-08-13T06:49:21.436Z</time>
      </trkpt>
      <trkpt lat="48.632158" lon="16.730916">
        <ele>225.565154</ele>
        <time>2020-08-13T06:49:24.421Z</time>
      </trkpt>
      <trkpt lat="48.632035" lon="16.730861">
        <ele>225.515263</ele>
        <time>2020-08-13T06:49:27.430Z</time>
      </trkpt>
      <trkpt lat="48.631912" lon="16.730806">
        <ele>225.465372</ele>
        <time>2020-08-13T06:49:30.433Z</time>
      </trkpt>
      <trkpt lat="48.631787" lon="16.730754">
        <ele>225.414944</ele>
        <time>2020-08-13T06:49:33.420Z</time>
      </trkpt>
      <trkpt lat="48.631662" lon="16.730717">
        <ele>225.365399</ele>
        <time>2020-08-13T06:49:36.423Z</time>
      </trkpt>
      <trkpt lat="48.631538" lon="16.730678">
        <ele>225.316133</ele>
        <time>2020-08-13T06:49:39.433Z</time>
      </trkpt>
      <trkpt lat="48.631411" lon="16.730625">
        <ele>225.264887</ele>
        <time>2020-08-13T06:49:42.426Z</time>
      </trkpt>
      <trkpt lat="48.631281" lon="16.730577">
        <ele>225.212834</ele>
        <time>2020-08-13T06:49:45.419Z</time>
      </trkpt>
      <trkpt lat="48.631156" lon="16.730522">
        <ele>225.162197</ele>
        <time>2020-08-13T06:49:48.428Z</time>
      </trkpt>
      <trkpt lat="48.631030" lon="16.730488">
        <ele>225.112411</ele>
        <time>2020-08-13T06:49:51.414Z</time>
      </trkpt>
      <trkpt lat="48.630909" lon="16.730447">
        <ele>225.064177</ele>
        <time>2020-08-13T06:49:54.425Z</time>
      </trkpt>
      <trkpt lat="48.630788" lon="16.730411">
        <ele>225.016208</ele>
        <time>2020-08-13T06:49:57.426Z</time>
      </trkpt>
      <trkpt lat="48.630672" lon="16.730351">
        <ele>224.968522</ele>
        <time>2020-08-13T06:50:00.443Z</time>
      </trkpt>
      <trkpt lat="48.630555" lon="16.730285">
        <ele>224.920003</ele>
        <time>2020-08-13T06:50:03.443Z</time>
      </trkpt>
      <trkpt lat="48.630432" lon="16.730217">
        <ele>224.869221</ele>
        <time>2020-08-13T06:50:06.410Z</time>
      </trkpt>
      <trkpt lat="48.630311" lon="16.730170">
        <ele>224.820777</ele>
        <time>2020-08-13T06:50:09.426Z</time>
      </trkpt>
      <trkpt lat="48.630190" lon="16.730123">
        <ele>224.772334</ele>
        <time>2020-08-13T06:50:12.418Z</time>
      </trkpt>
      <trkpt lat="48.630071" lon="16.730063">
        <ele>224.723692</ele>
        <time>2020-08-13T06:50:15.442Z</time>
      </trkpt>
      <trkpt lat="48.629957" lon="16.730004">
        <ele>224.676970</ele>
        <time>2020-08-13T06:50:18.421Z</time>
      </trkpt>
      <trkpt lat="48.629842" lon="16.729949">
        <ele>224.630200</ele>
        <time>2020-08-13T06:50:21.436Z</time>
      </trkpt>
      <trkpt lat="48.629723" lon="16.729889">
        <ele>224.581559</ele>
        <time>2020-08-13T06:50:24.411Z</time>
      </trkpt>
      <trkpt lat="48.629605" lon="16.729841">
        <ele>224.534175</ele>
        <time>2020-08-13T06:50:27.419Z</time>
      </trkpt>
      <trkpt lat="48.629485" lon="16.729795">
        <ele>224.486170</ele>
        <time>2020-08-13T06:50:30.416Z</time>
      </trkpt>
      <trkpt lat="48.629362" lon="16.729741">
        <ele>224.436505</ele>
        <time>2020-08-13T06:50:33.424Z</time>
      </trkpt>
      <trkpt lat="48.629244" lon="16.729680">
        <ele>224.388150</ele>
        <time>2020-08-13T06:50:36.429Z</time>
      </trkpt>
      <trkpt lat="48.629125" lon="16.729621">
        <ele>224.339589</ele>
        <time>2020-08-13T06:50:39.424Z</time>
      </trkpt>
      <trkpt lat="48.629000" lon="16.729577">
        <ele>224.289821</ele>
        <time>2020-08-13T06:50:42.438Z</time>
      </trkpt>
      <trkpt lat="48.628877" lon="16.729529">
        <ele>224.240562</ele>
        <time>2020-08-13T06:50:45.427Z</time>
      </trkpt>
      <trkpt lat="48.628758" lon="16.729471">
        <ele>224.213590</ele>
        <time>2020-08-13T06:50:48.436Z</time>
      </trkpt>
      <trkpt lat="48.628641" lon="16.729416">
        <ele>224.187639</ele>
        <time>2020-08-13T06:50:51.448Z</time>
      </trkpt>
      <trkpt lat="48.628521" lon="16.729365">
        <ele>224.161237</ele>
        <time>2020-08-13T06:50:54.438Z</time>
      </trkpt>
      <trkpt lat="48.628404" lon="16.729315">
        <ele>224.135485</ele>
        <time>2020-08-13T06:50:57.443Z</time>
      </trkpt>
      <trkpt lat="48.628285" lon="16.729272">
        <ele>224.109570</ele>
        <time>2020-08-13T06:51:00.428Z</time>
      </trkpt>
      <trkpt lat="48.628170" lon="16.729225">
        <ele>224.084338</ele>
        <time>2020-08-13T06:51:03.448Z</time>
      </trkpt>
      <trkpt lat="48.628058" lon="16.729170">
        <ele>224.059396</ele>
        <time>2020-08-13T06:51:06.450Z</time>
      </trkpt>
      <trkpt lat="48.627947" lon="16.729120">
        <ele>224.034864</ele>
        <time>2020-08-13T06:51:09.434Z</time>
      </trkpt>
      <trkpt lat="48.627839" lon="16.729078">
        <ele>224.011244</ele>
        <time>2020-08-13T06:51:12.439Z</time>
      </trkpt>
      <trkpt lat="48.627730" lon="16.729033">
        <ele>223.987312</ele>
        <time>2020-08-13T06:51:15.446Z</time>
      </trkpt>
      <trkpt lat="48.627622" lon="16.728989">
        <ele>223.963621</ele>
        <time>2020-08-13T06:51:18.437Z</time>
      </trkpt>
      <trkpt lat="48.627517" lon="16.728942">
        <ele>223.940427</ele>
        <time>2020-08-13T06:51:21.424Z</time>
      </trkpt>
      <trkpt lat="48.627411" lon="16.728898">
        <ele>223.917145</ele>
        <time>2020-08-13T06:51:24.438Z</time>
      </trkpt>
      <trkpt lat="48.627306" lon="16.728857">
        <ele>223.894175</ele>
        <time>2020-08-13T06:51:27.417Z</time>
      </trkpt>
      <trkpt lat="48.627200" lon="16.728800">
        <ele>223.870347</ele>
        <time>2020-08-13T06:51:30.429Z</time>
      </trkpt>
      <trkpt lat="48.627098" lon="16.728743">
        <ele>223.856250</ele>
        <time>2020-08-13T06:51:33.461Z</time>
      </trkpt>
      <trkpt lat="48.626989" lon="16.728699">
        <ele>223.851445</ele>
        <time>2020-08-13T06:51:36.431Z</time>
      </trkpt>
      <trkpt lat="48.626881" lon="16.728648">
        <ele>223.846626</ele>
        <time>2020-08-13T06:51:39.411Z</time>
      </trkpt>
      <trkpt lat="48.626774" lon="16.728584">
        <ele>223.841726</ele>
        <time>2020-08-13T06:51:42.439Z</time>
      </trkpt>
      <trkpt lat="48.626665" lon="16.728532">
        <ele>223.836858</ele>
        <time>2020-08-13T06:51:45.414Z</time>
      </trkpt>
      <trkpt lat="48.626551" lon="16.728490">
        <ele>223.831861</ele>
        <time>2020-08-13T06:51:48.466Z</time>
      </trkpt>
      <trkpt lat="48.626439" lon="16.728435">
        <ele>223.826846</ele>
        <time>2020-08-13T06:51:51.418Z</time>
      </trkpt>
      <trkpt lat="48.626330" lon="16.728384">
        <ele>223.821986</ele>
        <time>2020-08-13T06:51:54.423Z</time>
      </trkpt>
      <trkpt lat="48.626219" lon="16.728335">
        <ele>223.817062</ele>
        <time>2020-08-13T06:51:57.461Z</time>
      </trkpt>
      <trkpt lat="48.626105" lon="16.728286">
        <ele>223.812014</ele>
        <time>2020-08-13T06:52:00.426Z</time>
      </trkpt>
      <trkpt lat="48.625995" lon="16.728243">
        <ele>223.807176</ele>
        <time>2020-08-13T06:52:03.446Z</time>
      </trkpt>
      <trkpt lat="48.625869" lon="16.728213">
        <ele>223.801743</ele>
        <time>2020-08-13T06:52:06.446Z</time>
      </trkpt>
      <trkpt lat="48.625781" lon="16.728170">
        <ele>223.797805</ele>
        <time>2020-08-13T06:52:08.434Z</time>
      </trkpt>
      <trkpt lat="48.625690" lon="16.728127">
        <ele>223.793744</ele>
        <time>2020-08-13T06:52:10.431Z</time>
      </trkpt>
      <trkpt lat="48.625595" lon="16.728084">
        <ele>223.789521</ele>
        <time>2020-08-13T06:52:12.442Z</time>
      </trkpt>
      <trkpt lat="48.625498" lon="16.728045">
        <ele>223.785246</ele>
        <time>2020-08-13T06:52:14.439Z</time>
      </trkpt>
      <trkpt lat="48.625400" lon="16.728006">
        <ele>223.782164</ele>
        <time>2020-08-13T06:52:16.459Z</time>
      </trkpt>
      <trkpt lat="48.625299" lon="16.727966">
        <ele>223.783416</ele>
        <time>2020-08-13T06:52:18.432Z</time>
      </trkpt>
      <trkpt lat="48.625200" lon="16.727924">
        <ele>223.784650</ele>
        <time>2020-08-13T06:52:20.431Z</time>
      </trkpt>
      <trkpt lat="48.625097" lon="16.727885">
        <ele>223.785923</ele>
        <time>2020-08-13T06:52:22.450Z</time>
      </trkpt>
      <trkpt lat="48.624992" lon="16.727851">
        <ele>223.787211</ele>
        <time>2020-08-13T06:52:24.445Z</time>
      </trkpt>
      <trkpt lat="48.624887" lon="16.727823">
        <ele>223.788490</ele>
        <time>2020-08-13T06:52:26.432Z</time>
      </trkpt>
      <trkpt lat="48.624788" lon="16.727803">
        <ele>223.789688</ele>
        <time>2020-08-13T06:52:28.425Z</time>
      </trkpt>
      <trkpt lat="48.624695" lon="16.727780">
        <ele>223.790818</ele>
        <time>2020-08-13T06:52:30.432Z</time>
      </trkpt>
      <trkpt lat="48.624606" lon="16.727746">
        <ele>223.791919</ele>
        <time>2020-08-13T06:52:32.418Z</time>
      </trkpt>
      <trkpt lat="48.624514" lon="16.727717">
        <ele>223.793046</ele>
        <time>2020-08-13T06:52:34.433Z</time>
      </trkpt>
      <trkpt lat="48.624414" lon="16.727721">
        <ele>223.794246</ele>
        <time>2020-08-13T06:52:36.446Z</time>
      </trkpt>
      <trkpt lat="48.624310" lon="16.727738">
        <ele>223.795500</ele>
        <time>2020-08-13T06:52:38.424Z</time>
      </trkpt>
      <trkpt lat="48.624211" lon="16.727775">
        <ele>223.796723</ele>
        <time>2020-08-13T06:52:40.453Z</time>
      </trkpt>
      <trkpt lat="48.624115" lon="16.727773">
        <ele>223.797875</ele>
        <time>2020-08-13T06:52:42.467Z</time>
      </trkpt>
      <trkpt lat="48.624023" lon="16.727708">
        <ele>223.799093</ele>
        <time>2020-08-13T06:52:44.424Z</time>
      </trkpt>
      <trkpt lat="48.623939" lon="16.727632">
        <ele>223.800267</ele>
        <time>2020-08-13T06:52:46.435Z</time>
      </trkpt>
      <trkpt lat="48.623858" lon="16.727558">
        <ele>223.801402</ele>
        <time>2020-08-13T06:52:48.424Z</time>
      </trkpt>
      <trkpt lat="48.623778" lon="16.727479">
        <ele>223.802547</ele>
        <time>2020-08-13T06:52:50.419Z</time>
      </trkpt>
      <trkpt lat="48.623700" lon="16.727407">
        <ele>223.807236</ele>
        <time>2020-08-13T06:52:52.442Z</time>
      </trkpt>
      <trkpt lat="48.623593" lon="16.727301">
        <ele>223.839794</ele>
        <time>2020-08-13T06:52:55.433Z</time>
      </trkpt>
      <trkpt lat="48.623485" lon="16.727203">
        <ele>223.871852</ele>
        <time>2020-08-13T06:52:58.431Z</time>
      </trkpt>
      <trkpt lat="48.623377" lon="16.727091">
        <ele>223.905184</ele>
        <time>2020-08-13T06:53:01.435Z</time>
      </trkpt>
      <trkpt lat="48.623280" lon="16.726965">
        <ele>223.937729</ele>
        <time>2020-08-13T06:53:04.432Z</time>
      </trkpt>
      <trkpt lat="48.623193" lon="16.726845">
        <ele>223.967698</ele>
        <time>2020-08-13T06:53:07.425Z</time>
      </trkpt>
      <trkpt lat="48.623113" lon="16.726722">
        <ele>223.996734</ele>
        <time>2020-08-13T06:53:10.430Z</time>
      </trkpt>
      <trkpt lat="48.623034" lon="16.726594">
        <ele>224.026201</ele>
        <time>2020-08-13T06:53:13.434Z</time>
      </trkpt>
      <trkpt lat="48.622957" lon="16.726465">
        <ele>224.055447</ele>
        <time>2020-08-13T06:53:16.453Z</time>
      </trkpt>
      <trkpt lat="48.622882" lon="16.726341">
        <ele>224.083729</ele>
        <time>2020-08-13T06:53:19.437Z</time>
      </trkpt>
      <trkpt lat="48.622799" lon="16.726220">
        <ele>224.113071</ele>
        <time>2020-08-13T06:53:22.429Z</time>
      </trkpt>
      <trkpt lat="48.622713" lon="16.726100">
        <ele>224.142853</ele>
        <time>2020-08-13T06:53:25.448Z</time>
      </trkpt>
      <trkpt lat="48.622625" lon="16.725986">
        <ele>224.172345</ele>
        <time>2020-08-13T06:53:28.463Z</time>
      </trkpt>
      <trkpt lat="48.622543" lon="16.725861">
        <ele>224.201978</ele>
        <time>2020-08-13T06:53:31.449Z</time>
      </trkpt>
      <trkpt lat="48.622460" lon="16.725742">
        <ele>224.231087</ele>
        <time>2020-08-13T06:53:34.427Z</time>
      </trkpt>
      <trkpt lat="48.622386" lon="16.725622">
        <ele>224.258702</ele>
        <time>2020-08-13T06:53:37.447Z</time>
      </trkpt>
      <trkpt lat="48.622267" lon="16.725474">
        <ele>224.433182</ele>
        <time>2020-08-13T06:54:26.411Z</time>
      </trkpt>
      <trkpt lat="48.622188" lon="16.725356">
        <ele>224.565909</ele>
        <time>2020-08-13T06:54:30.409Z</time>
      </trkpt>
      <trkpt lat="48.622103" lon="16.725238">
        <ele>224.703832</ele>
        <time>2020-08-13T06:54:34.411Z</time>
      </trkpt>
      <trkpt lat="48.622016" lon="16.725143">
        <ele>224.832109</ele>
        <time>2020-08-13T06:54:38.453Z</time>
      </trkpt>
      <trkpt lat="48.621940" lon="16.725046">
        <ele>224.950987</ele>
        <time>2020-08-13T06:54:42.444Z</time>
      </trkpt>
      <trkpt lat="48.621873" lon="16.724953">
        <ele>225.059698</ele>
        <time>2020-08-13T06:54:46.441Z</time>
      </trkpt>
      <trkpt lat="48.621814" lon="16.724838">
        <ele>225.174741</ele>
        <time>2020-08-13T06:54:50.439Z</time>
      </trkpt>
      <trkpt lat="48.621749" lon="16.724722">
        <ele>225.294919</ele>
        <time>2020-08-13T06:54:54.432Z</time>
      </trkpt>
      <trkpt lat="48.621677" lon="16.724609">
        <ele>225.418953</ele>
        <time>2020-08-13T06:54:57.426Z</time>
      </trkpt>
      <trkpt lat="48.621592" lon="16.724482">
        <ele>225.561783</ele>
        <time>2020-08-13T06:55:00.439Z</time>
      </trkpt>
      <trkpt lat="48.621495" lon="16.724340">
        <ele>225.723158</ele>
        <time>2020-08-13T06:55:03.438Z</time>
      </trkpt>
      <trkpt lat="48.621423" lon="16.724239">
        <ele>225.840549</ele>
        <time>2020-08-13T06:55:05.435Z</time>
      </trkpt>
      <trkpt lat="48.621346" lon="16.724128">
        <ele>225.967708</ele>
        <time>2020-08-13T06:55:07.434Z</time>
      </trkpt>
      <trkpt lat="48.621278" lon="16.724012">
        <ele>226.090237</ele>
        <time>2020-08-13T06:55:09.440Z</time>
      </trkpt>
      <trkpt lat="48.621205" lon="16.723891">
        <ele>226.219701</ele>
        <time>2020-08-13T06:55:11.444Z</time>
      </trkpt>
      <trkpt lat="48.621132" lon="16.723760">
        <ele>226.355108</ele>
        <time>2020-08-13T06:55:13.440Z</time>
      </trkpt>
      <trkpt lat="48.621050" lon="16.723627">
        <ele>226.467479</ele>
        <time>2020-08-13T06:55:15.427Z</time>
      </trkpt>
      <trkpt lat="48.620958" lon="16.723500">
        <ele>226.562810</ele>
        <time>2020-08-13T06:55:17.426Z</time>
      </trkpt>
      <trkpt lat="48.620868" lon="16.723377">
        <ele>226.655647</ele>
        <time>2020-08-13T06:55:19.454Z</time>
      </trkpt>
      <trkpt lat="48.620788" lon="16.723262">
        <ele>226.740118</ele>
        <time>2020-08-13T06:55:21.443Z</time>
      </trkpt>
      <trkpt lat="48.620718" lon="16.723161">
        <ele>226.814160</ele>
        <time>2020-08-13T06:55:23.444Z</time>
      </trkpt>
      <trkpt lat="48.620622" lon="16.723022">
        <ele>226.915875</ele>
        <time>2020-08-13T06:55:26.426Z</time>
      </trkpt>
      <trkpt lat="48.620526" lon="16.722887">
        <ele>227.016200</ele>
        <time>2020-08-13T06:55:29.434Z</time>
      </trkpt>
      <trkpt lat="48.620423" lon="16.722755">
        <ele>227.119526</ele>
        <time>2020-08-13T06:55:32.452Z</time>
      </trkpt>
      <trkpt lat="48.620360" lon="16.722658">
        <ele>227.188331</ele>
        <time>2020-08-13T06:55:34.426Z</time>
      </trkpt>
      <trkpt lat="48.620292" lon="16.722559">
        <ele>227.260569</ele>
        <time>2020-08-13T06:55:36.445Z</time>
      </trkpt>
      <trkpt lat="48.620227" lon="16.722460">
        <ele>227.331170</ele>
        <time>2020-08-13T06:55:38.434Z</time>
      </trkpt>
      <trkpt lat="48.620155" lon="16.722377">
        <ele>227.400458</ele>
        <time>2020-08-13T06:55:40.440Z</time>
      </trkpt>
      <trkpt lat="48.620081" lon="16.722300">
        <ele>227.469205</ele>
        <time>2020-08-13T06:55:42.437Z</time>
      </trkpt>
      <trkpt lat="48.619983" lon="16.722173">
        <ele>227.567978</ele>
        <time>2020-08-13T06:55:45.435Z</time>
      </trkpt>
      <trkpt lat="48.619889" lon="16.722056">
        <ele>227.661152</ele>
        <time>2020-08-13T06:55:48.439Z</time>
      </trkpt>
      <trkpt lat="48.619807" lon="16.721937">
        <ele>227.748128</ele>
        <time>2020-08-13T06:55:51.436Z</time>
      </trkpt>
      <trkpt lat="48.619724" lon="16.721815">
        <ele>227.858047</ele>
        <time>2020-08-13T06:55:54.431Z</time>
      </trkpt>
      <trkpt lat="48.619631" lon="16.721690">
        <ele>227.995325</ele>
        <time>2020-08-13T06:55:57.434Z</time>
      </trkpt>
      <trkpt lat="48.619534" lon="16.721552">
        <ele>228.142260</ele>
        <time>2020-08-13T06:56:00.446Z</time>
      </trkpt>
      <trkpt lat="48.619470" lon="16.721454">
        <ele>228.242748</ele>
        <time>2020-08-13T06:56:02.433Z</time>
      </trkpt>
      <trkpt lat="48.619405" lon="16.721351">
        <ele>228.346620</ele>
        <time>2020-08-13T06:56:04.437Z</time>
      </trkpt>
      <trkpt lat="48.619328" lon="16.721217">
        <ele>228.476134</ele>
        <time>2020-08-13T06:56:07.423Z</time>
      </trkpt>
      <trkpt lat="48.619233" lon="16.721153">
        <ele>228.590888</ele>
        <time>2020-08-13T06:56:11.420Z</time>
      </trkpt>
      <trkpt lat="48.619112" lon="16.721182">
        <ele>228.726072</ele>
        <time>2020-08-13T06:56:15.445Z</time>
      </trkpt>
      <trkpt lat="48.619004" lon="16.721216">
        <ele>228.847800</ele>
        <time>2020-08-13T06:56:18.432Z</time>
      </trkpt>
      <trkpt lat="48.618887" lon="16.721252">
        <ele>228.979548</ele>
        <time>2020-08-13T06:56:21.439Z</time>
      </trkpt>
      <trkpt lat="48.618771" lon="16.721273">
        <ele>229.108463</ele>
        <time>2020-08-13T06:56:24.423Z</time>
      </trkpt>
      <trkpt lat="48.618652" lon="16.721299">
        <ele>229.241138</ele>
        <time>2020-08-13T06:56:27.432Z</time>
      </trkpt>
      <trkpt lat="48.618536" lon="16.721337">
        <ele>229.372106</ele>
        <time>2020-08-13T06:56:30.420Z</time>
      </trkpt>
      <trkpt lat="48.618428" lon="16.721379">
        <ele>229.495155</ele>
        <time>2020-08-13T06:56:33.426Z</time>
      </trkpt>
      <trkpt lat="48.618321" lon="16.721411">
        <ele>229.615511</ele>
        <time>2020-08-13T06:56:36.440Z</time>
      </trkpt>
      <trkpt lat="48.618211" lon="16.721446">
        <ele>229.739548</ele>
        <time>2020-08-13T06:56:39.420Z</time>
      </trkpt>
      <trkpt lat="48.618113" lon="16.721486">
        <ele>229.880771</ele>
        <time>2020-08-13T06:56:42.447Z</time>
      </trkpt>
      <trkpt lat="48.618004" lon="16.721517">
        <ele>230.048746</ele>
        <time>2020-08-13T06:56:45.417Z</time>
      </trkpt>
      <trkpt lat="48.617899" lon="16.721552">
        <ele>230.211587</ele>
        <time>2020-08-13T06:56:48.431Z</time>
      </trkpt>
      <trkpt lat="48.617782" lon="16.721579">
        <ele>230.390837</ele>
        <time>2020-08-13T06:56:52.429Z</time>
      </trkpt>
      <trkpt lat="48.617674" lon="16.721612">
        <ele>230.557710</ele>
        <time>2020-08-13T06:56:56.459Z</time>
      </trkpt>
      <trkpt lat="48.617556" lon="16.721632">
        <ele>230.737542</ele>
        <time>2020-08-13T06:57:00.458Z</time>
      </trkpt>
      <trkpt lat="48.617442" lon="16.721650">
        <ele>230.911136</ele>
        <time>2020-08-13T06:57:04.421Z</time>
      </trkpt>
      <trkpt lat="48.617350" lon="16.721662">
        <ele>231.050990</ele>
        <time>2020-08-13T06:57:07.438Z</time>
      </trkpt>
      <trkpt lat="48.617256" lon="16.721684">
        <ele>231.195049</ele>
        <time>2020-08-13T06:57:10.419Z</time>
      </trkpt>
      <trkpt lat="48.617152" lon="16.721701">
        <ele>231.353477</ele>
        <time>2020-08-13T06:57:13.419Z</time>
      </trkpt>
      <trkpt lat="48.617051" lon="16.721708">
        <ele>231.506605</ele>
        <time>2020-08-13T06:57:16.420Z</time>
      </trkpt>
      <trkpt lat="48.616942" lon="16.721721">
        <ele>231.672201</ele>
        <time>2020-08-13T06:57:19.459Z</time>
      </trkpt>
      <trkpt lat="48.616824" lon="16.721727">
        <ele>231.851016</ele>
        <time>2020-08-13T06:57:22.427Z</time>
      </trkpt>
      <trkpt lat="48.616698" lon="16.721739">
        <ele>232.042224</ele>
        <time>2020-08-13T06:57:25.435Z</time>
      </trkpt>
      <trkpt lat="48.616608" lon="16.721743">
        <ele>232.178591</ele>
        <time>2020-08-13T06:57:27.422Z</time>
      </trkpt>
      <trkpt lat="48.616514" lon="16.721744">
        <ele>232.320960</ele>
        <time>2020-08-13T06:57:29.433Z</time>
      </trkpt>
      <trkpt lat="48.616418" lon="16.721741">
        <ele>232.466385</ele>
        <time>2020-08-13T06:57:31.438Z</time>
      </trkpt>
      <trkpt lat="48.616321" lon="16.721735">
        <ele>232.521492</ele>
        <time>2020-08-13T06:57:33.434Z</time>
      </trkpt>
      <trkpt lat="48.616220" lon="16.721727">
        <ele>232.553487</ele>
        <time>2020-08-13T06:57:35.438Z</time>
      </trkpt>
      <trkpt lat="48.616120" lon="16.721722">
        <ele>232.585139</ele>
        <time>2020-08-13T06:57:37.438Z</time>
      </trkpt>
      <trkpt lat="48.616023" lon="16.721716">
        <ele>232.615851</ele>
        <time>2020-08-13T06:57:39.473Z</time>
      </trkpt>
      <trkpt lat="48.615921" lon="16.721726">
        <ele>232.648186</ele>
        <time>2020-08-13T06:57:41.476Z</time>
      </trkpt>
      <trkpt lat="48.615814" lon="16.721739">
        <ele>232.682144</ele>
        <time>2020-08-13T06:57:43.430Z</time>
      </trkpt>
      <trkpt lat="48.615706" lon="16.721740">
        <ele>232.716310</ele>
        <time>2020-08-13T06:57:45.432Z</time>
      </trkpt>
      <trkpt lat="48.615598" lon="16.721743">
        <ele>232.750482</ele>
        <time>2020-08-13T06:57:47.444Z</time>
      </trkpt>
      <trkpt lat="48.615492" lon="16.721754">
        <ele>232.784093</ele>
        <time>2020-08-13T06:57:49.437Z</time>
      </trkpt>
      <trkpt lat="48.615389" lon="16.721775">
        <ele>232.816972</ele>
        <time>2020-08-13T06:57:51.432Z</time>
      </trkpt>
      <trkpt lat="48.615284" lon="16.721781">
        <ele>232.850212</ele>
        <time>2020-08-13T06:57:53.432Z</time>
      </trkpt>
      <trkpt lat="48.615187" lon="16.721789">
        <ele>232.880943</ele>
        <time>2020-08-13T06:57:55.436Z</time>
      </trkpt>
      <trkpt lat="48.615051" lon="16.721806">
        <ele>232.924113</ele>
        <time>2020-08-13T06:57:58.441Z</time>
      </trkpt>
      <trkpt lat="48.614951" lon="16.721819">
        <ele>232.955865</ele>
        <time>2020-08-13T06:58:00.435Z</time>
      </trkpt>
      <trkpt lat="48.614851" lon="16.721826">
        <ele>232.987533</ele>
        <time>2020-08-13T06:58:02.434Z</time>
      </trkpt>
      <trkpt lat="48.614756" lon="16.721834">
        <ele>233.017633</ele>
        <time>2020-08-13T06:58:04.431Z</time>
      </trkpt>
      <trkpt lat="48.614623" lon="16.721831">
        <ele>233.059712</ele>
        <time>2020-08-13T06:58:07.442Z</time>
      </trkpt>
      <trkpt lat="48.614494" lon="16.721831">
        <ele>233.102268</ele>
        <time>2020-08-13T06:58:10.417Z</time>
      </trkpt>
      <trkpt lat="48.614375" lon="16.721827">
        <ele>233.141840</ele>
        <time>2020-08-13T06:58:13.454Z</time>
      </trkpt>
      <trkpt lat="48.614264" lon="16.721811">
        <ele>233.178910</ele>
        <time>2020-08-13T06:58:16.444Z</time>
      </trkpt>
      <trkpt lat="48.614151" lon="16.721791">
        <ele>233.216733</ele>
        <time>2020-08-13T06:58:19.444Z</time>
      </trkpt>
      <trkpt lat="48.614038" lon="16.721804">
        <ele>233.254410</ele>
        <time>2020-08-13T06:58:22.432Z</time>
      </trkpt>
      <trkpt lat="48.613928" lon="16.721820">
        <ele>233.291148</ele>
        <time>2020-08-13T06:58:25.424Z</time>
      </trkpt>
      <trkpt lat="48.613820" lon="16.721828">
        <ele>233.327097</ele>
        <time>2020-08-13T06:58:28.454Z</time>
      </trkpt>
      <trkpt lat="48.613716" lon="16.721835">
        <ele>233.361706</ele>
        <time>2020-08-13T06:58:31.447Z</time>
      </trkpt>
      <trkpt lat="48.613610" lon="16.721866">
        <ele>233.397600</ele>
        <time>2020-08-13T06:58:34.435Z</time>
      </trkpt>
      <trkpt lat="48.613503" lon="16.721898">
        <ele>233.433861</ele>
        <time>2020-08-13T06:58:37.425Z</time>
      </trkpt>
      <trkpt lat="48.613399" lon="16.721914">
        <ele>233.468615</ele>
        <time>2020-08-13T06:58:40.452Z</time>
      </trkpt>
      <trkpt lat="48.613291" lon="16.721924">
        <ele>233.504587</ele>
        <time>2020-08-13T06:58:43.429Z</time>
      </trkpt>
      <trkpt lat="48.613187" lon="16.721934">
        <ele>233.539233</ele>
        <time>2020-08-13T06:58:46.416Z</time>
      </trkpt>
      <trkpt lat="48.613084" lon="16.721966">
        <ele>233.574191</ele>
        <time>2020-08-13T06:58:49.424Z</time>
      </trkpt>
      <trkpt lat="48.612984" lon="16.721986">
        <ele>233.607726</ele>
        <time>2020-08-13T06:58:52.426Z</time>
      </trkpt>
      <trkpt lat="48.612895" lon="16.721996">
        <ele>233.637396</ele>
        <time>2020-08-13T06:58:55.420Z</time>
      </trkpt>
      <trkpt lat="48.612781" lon="16.722017">
        <ele>233.695009</ele>
        <time>2020-08-13T06:58:58.452Z</time>
      </trkpt>
      <trkpt lat="48.612673" lon="16.722028">
        <ele>233.792415</ele>
        <time>2020-08-13T06:59:01.420Z</time>
      </trkpt>
      <trkpt lat="48.612567" lon="16.722037">
        <ele>233.887950</ele>
        <time>2020-08-13T06:59:04.425Z</time>
      </trkpt>
      <trkpt lat="48.612469" lon="16.722039">
        <ele>233.976145</ele>
        <time>2020-08-13T06:59:07.426Z</time>
      </trkpt>
      <trkpt lat="48.612366" lon="16.722029">
        <ele>234.069022</ele>
        <time>2020-08-13T06:59:10.416Z</time>
      </trkpt>
      <trkpt lat="48.612261" lon="16.722027">
        <ele>234.163515</ele>
        <time>2020-08-13T06:59:13.419Z</time>
      </trkpt>
      <trkpt lat="48.612152" lon="16.722010">
        <ele>234.262120</ele>
        <time>2020-08-13T06:59:16.432Z</time>
      </trkpt>
      <trkpt lat="48.612043" lon="16.721995">
        <ele>234.360611</ele>
        <time>2020-08-13T06:59:19.453Z</time>
      </trkpt>
      <trkpt lat="48.611946" lon="16.721970">
        <ele>234.449156</ele>
        <time>2020-08-13T06:59:22.423Z</time>
      </trkpt>
      <trkpt lat="48.611844" lon="16.721982">
        <ele>234.541219</ele>
        <time>2020-08-13T06:59:25.422Z</time>
      </trkpt>
      <trkpt lat="48.611740" lon="16.722002">
        <ele>234.635558</ele>
        <time>2020-08-13T06:59:28.417Z</time>
      </trkpt>
      <trkpt lat="48.611636" lon="16.722010">
        <ele>234.729265</ele>
        <time>2020-08-13T06:59:31.425Z</time>
      </trkpt>
      <trkpt lat="48.611528" lon="16.722013">
        <ele>234.826467</ele>
        <time>2020-08-13T06:59:34.434Z</time>
      </trkpt>
      <trkpt lat="48.611418" lon="16.722019">
        <ele>234.925516</ele>
        <time>2020-08-13T06:59:37.433Z</time>
      </trkpt>
      <trkpt lat="48.611318" lon="16.722023">
        <ele>235.015534</ele>
        <time>2020-08-13T06:59:40.416Z</time>
      </trkpt>
      <trkpt lat="48.611216" lon="16.722038">
        <ele>235.107753</ele>
        <time>2020-08-13T06:59:43.440Z</time>
      </trkpt>
      <trkpt lat="48.611109" lon="16.722040">
        <ele>235.204046</ele>
        <time>2020-08-13T06:59:46.421Z</time>
      </trkpt>
      <trkpt lat="48.610986" lon="16.722036">
        <ele>235.312755</ele>
        <time>2020-08-13T06:59:49.432Z</time>
      </trkpt>
      <trkpt lat="48.610854" lon="16.722041">
        <ele>235.424156</ele>
        <time>2020-08-13T06:59:52.423Z</time>
      </trkpt>
      <trkpt lat="48.610764" lon="16.722035">
        <ele>235.500161</ele>
        <time>2020-08-13T06:59:54.446Z</time>
      </trkpt>
      <trkpt lat="48.610629" lon="16.722011">
        <ele>235.614842</ele>
        <time>2020-08-13T06:59:57.452Z</time>
      </trkpt>
      <trkpt lat="48.610537" lon="16.721999">
        <ele>235.692749</ele>
        <time>2020-08-13T06:59:59.426Z</time>
      </trkpt>
      <trkpt lat="48.610444" lon="16.721990">
        <ele>235.771371</ele>
        <time>2020-08-13T07:00:01.441Z</time>
      </trkpt>
      <trkpt lat="48.610348" lon="16.721966">
        <ele>235.853464</ele>
        <time>2020-08-13T07:00:03.417Z</time>
      </trkpt>
      <trkpt lat="48.610250" lon="16.721940">
        <ele>235.937407</ele>
        <time>2020-08-13T07:00:05.457Z</time>
      </trkpt>
      <trkpt lat="48.610151" lon="16.721915">
        <ele>236.022088</ele>
        <time>2020-08-13T07:00:07.429Z</time>
      </trkpt>
      <trkpt lat="48.610055" lon="16.721893">
        <ele>236.104005</ele>
        <time>2020-08-13T07:00:09.461Z</time>
      </trkpt>
      <trkpt lat="48.609961" lon="16.721873">
        <ele>236.184092</ele>
        <time>2020-08-13T07:00:11.439Z</time>
      </trkpt>
      <trkpt lat="48.609825" lon="16.721843">
        <ele>236.300047</ele>
        <time>2020-08-13T07:00:14.446Z</time>
      </trkpt>
      <trkpt lat="48.609730" lon="16.721822">
        <ele>236.381048</ele>
        <time>2020-08-13T07:00:16.430Z</time>
      </trkpt>
      <trkpt lat="48.609609" lon="16.721779">
        <ele>236.485914</ele>
        <time>2020-08-13T07:00:19.428Z</time>
      </trkpt>
      <trkpt lat="48.609485" lon="16.721745">
        <ele>236.592235</ele>
        <time>2020-08-13T07:00:22.445Z</time>
      </trkpt>
      <trkpt lat="48.609362" lon="16.721707">
        <ele>236.698151</ele>
        <time>2020-08-13T07:00:25.420Z</time>
      </trkpt>
      <trkpt lat="48.609239" lon="16.721670">
        <ele>236.802217</ele>
        <time>2020-08-13T07:00:28.417Z</time>
      </trkpt>
      <trkpt lat="48.609129" lon="16.721637">
        <ele>236.852951</ele>
        <time>2020-08-13T07:00:31.416Z</time>
      </trkpt>
      <trkpt lat="48.609016" lon="16.721605">
        <ele>236.904961</ele>
        <time>2020-08-13T07:00:34.417Z</time>
      </trkpt>
      <trkpt lat="48.608906" lon="16.721575">
        <ele>236.955529</ele>
        <time>2020-08-13T07:00:37.411Z</time>
      </trkpt>
      <trkpt lat="48.608802" lon="16.721546">
        <ele>237.003372</ele>
        <time>2020-08-13T07:00:40.456Z</time>
      </trkpt>
      <trkpt lat="48.608699" lon="16.721516">
        <ele>237.050826</ele>
        <time>2020-08-13T07:00:43.442Z</time>
      </trkpt>
      <trkpt lat="48.608601" lon="16.721494">
        <ele>237.095648</ele>
        <time>2020-08-13T07:00:46.471Z</time>
      </trkpt>
      <trkpt lat="48.608496" lon="16.721470">
        <ele>237.143690</ele>
        <time>2020-08-13T07:00:49.452Z</time>
      </trkpt>
      <trkpt lat="48.608387" lon="16.721461">
        <ele>237.193075</ele>
        <time>2020-08-13T07:00:52.420Z</time>
      </trkpt>
      <trkpt lat="48.608264" lon="16.721454">
        <ele>237.248761</ele>
        <time>2020-08-13T07:00:55.448Z</time>
      </trkpt>
      <trkpt lat="48.608142" lon="16.721437">
        <ele>237.304188</ele>
        <time>2020-08-13T07:00:58.453Z</time>
      </trkpt>
      <trkpt lat="48.608014" lon="16.721421">
        <ele>237.362294</ele>
        <time>2020-08-13T07:01:01.445Z</time>
      </trkpt>
      <trkpt lat="48.607918" lon="16.721418">
        <ele>237.405734</ele>
        <time>2020-08-13T07:01:03.458Z</time>
      </trkpt>
      <trkpt lat="48.607781" lon="16.721425">
        <ele>237.467749</ele>
        <time>2020-08-13T07:01:06.423Z</time>
      </trkpt>
      <trkpt lat="48.607686" lon="16.721438">
        <ele>237.510903</ele>
        <time>2020-08-13T07:01:08.448Z</time>
      </trkpt>
      <trkpt lat="48.607583" lon="16.721456">
        <ele>237.557811</ele>
        <time>2020-08-13T07:01:10.432Z</time>
      </trkpt>
      <trkpt lat="48.607477" lon="16.721488">
        <ele>237.606712</ele>
        <time>2020-08-13T07:01:12.424Z</time>
      </trkpt>
      <trkpt lat="48.607367" lon="16.721519">
        <ele>237.542720</ele>
        <time>2020-08-13T07:01:14.450Z</time>
      </trkpt>
      <trkpt lat="48.607253" lon="16.721550">
        <ele>237.456770</ele>
        <time>2020-08-13T07:01:16.441Z</time>
      </trkpt>
      <trkpt lat="48.607135" lon="16.721585">
        <ele>237.367541</ele>
        <time>2020-08-13T07:01:18.435Z</time>
      </trkpt>
      <trkpt lat="48.607011" lon="16.721616">
        <ele>237.274278</ele>
        <time>2020-08-13T07:01:20.426Z</time>
      </trkpt>
      <trkpt lat="48.606885" lon="16.721638">
        <ele>237.180159</ele>
        <time>2020-08-13T07:01:22.457Z</time>
      </trkpt>
      <trkpt lat="48.606748" lon="16.721659">
        <ele>237.077978</ele>
        <time>2020-08-13T07:01:24.453Z</time>
      </trkpt>
      <trkpt lat="48.606605" lon="16.721673">
        <ele>236.971643</ele>
        <time>2020-08-13T07:01:26.427Z</time>
      </trkpt>
      <trkpt lat="48.606457" lon="16.721670">
        <ele>236.861811</ele>
        <time>2020-08-13T07:01:28.421Z</time>
      </trkpt>
      <trkpt lat="48.606308" lon="16.721690">
        <ele>236.750811</ele>
        <time>2020-08-13T07:01:30.420Z</time>
      </trkpt>
      <trkpt lat="48.606155" lon="16.721697">
        <ele>236.637226</ele>
        <time>2020-08-13T07:01:32.419Z</time>
      </trkpt>
      <trkpt lat="48.605998" lon="16.721696">
        <ele>236.520724</ele>
        <time>2020-08-13T07:01:34.438Z</time>
      </trkpt>
      <trkpt lat="48.605836" lon="16.721676">
        <ele>236.400113</ele>
        <time>2020-08-13T07:01:36.439Z</time>
      </trkpt>
      <trkpt lat="48.605670" lon="16.721662">
        <ele>236.275707</ele>
        <time>2020-08-13T07:01:38.441Z</time>
      </trkpt>
      <trkpt lat="48.605497" lon="16.721645">
        <ele>236.093906</ele>
        <time>2020-08-13T07:01:40.434Z</time>
      </trkpt>
      <trkpt lat="48.605330" lon="16.721630">
        <ele>235.918471</ele>
        <time>2020-08-13T07:01:42.423Z</time>
      </trkpt>
      <trkpt lat="48.605165" lon="16.721617">
        <ele>235.745208</ele>
        <time>2020-08-13T07:01:44.428Z</time>
      </trkpt>
      <trkpt lat="48.605002" lon="16.721604">
        <ele>235.574038</ele>
        <time>2020-08-13T07:01:46.424Z</time>
      </trkpt>
      <trkpt lat="48.604844" lon="16.721587">
        <ele>235.407931</ele>
        <time>2020-08-13T07:01:48.427Z</time>
      </trkpt>
      <trkpt lat="48.604689" lon="16.721559">
        <ele>235.244234</ele>
        <time>2020-08-13T07:01:50.432Z</time>
      </trkpt>
      <trkpt lat="48.604541" lon="16.721486">
        <ele>235.080985</ele>
        <time>2020-08-13T07:01:52.425Z</time>
      </trkpt>
      <trkpt lat="48.604427" lon="16.721319">
        <ele>234.914547</ele>
        <time>2020-08-13T07:01:54.443Z</time>
      </trkpt>
      <trkpt lat="48.604334" lon="16.721124">
        <ele>234.747827</ele>
        <time>2020-08-13T07:01:56.432Z</time>
      </trkpt>
      <trkpt lat="48.604246" lon="16.720921">
        <ele>234.579508</ele>
        <time>2020-08-13T07:01:58.426Z</time>
      </trkpt>
      <trkpt lat="48.604151" lon="16.720729">
        <ele>234.413223</ele>
        <time>2020-08-13T07:02:00.431Z</time>
      </trkpt>
      <trkpt lat="48.604058" lon="16.720550">
        <ele>234.162527</ele>
        <time>2020-08-13T07:02:02.425Z</time>
      </trkpt>
      <trkpt lat="48.603965" lon="16.720380">
        <ele>233.906387</ele>
        <time>2020-08-13T07:02:04.473Z</time>
      </trkpt>
      <trkpt lat="48.603885" lon="16.720205">
        <ele>233.659403</ele>
        <time>2020-08-13T07:02:06.435Z</time>
      </trkpt>
      <trkpt lat="48.603806" lon="16.720033">
        <ele>233.416281</ele>
        <time>2020-08-13T07:02:08.443Z</time>
      </trkpt>
      <trkpt lat="48.603724" lon="16.719872">
        <ele>233.180357</ele>
        <time>2020-08-13T07:02:10.444Z</time>
      </trkpt>
      <trkpt lat="48.603663" lon="16.719705">
        <ele>232.958870</ele>
        <time>2020-08-13T07:02:12.456Z</time>
      </trkpt>
      <trkpt lat="48.603624" lon="16.719526">
        <ele>232.740074</ele>
        <time>2020-08-13T07:02:14.417Z</time>
      </trkpt>
      <trkpt lat="48.603596" lon="16.719348">
        <ele>232.527661</ele>
        <time>2020-08-13T07:02:16.409Z</time>
      </trkpt>
      <trkpt lat="48.603580" lon="16.719167">
        <ele>232.315663</ele>
        <time>2020-08-13T07:02:18.422Z</time>
      </trkpt>
      <trkpt lat="48.603572" lon="16.718982">
        <ele>232.100432</ele>
        <time>2020-08-13T07:02:20.418Z</time>
      </trkpt>
      <trkpt lat="48.603560" lon="16.718800">
        <ele>231.888094</ele>
        <time>2020-08-13T07:02:22.418Z</time>
      </trkpt>
      <trkpt lat="48.603553" lon="16.718621">
        <ele>231.679924</ele>
        <time>2020-08-13T07:02:24.414Z</time>
      </trkpt>
      <trkpt lat="48.603549" lon="16.718447">
        <ele>231.477799</ele>
        <time>2020-08-13T07:02:26.433Z</time>
      </trkpt>
      <trkpt lat="48.603550" lon="16.718274">
        <ele>231.276950</ele>
        <time>2020-08-13T07:02:28.440Z</time>
      </trkpt>
      <trkpt lat="48.603540" lon="16.718103">
        <ele>231.133491</ele>
        <time>2020-08-13T07:02:30.463Z</time>
      </trkpt>
      <trkpt lat="48.603525" lon="16.717928">
        <ele>231.001171</ele>
        <time>2020-08-13T07:02:32.424Z</time>
      </trkpt>
      <trkpt lat="48.603530" lon="16.717752">
        <ele>230.869077</ele>
        <time>2020-08-13T07:02:34.418Z</time>
      </trkpt>
      <trkpt lat="48.603528" lon="16.717574">
        <ele>230.735586</ele>
        <time>2020-08-13T07:02:36.429Z</time>
      </trkpt>
      <trkpt lat="48.603534" lon="16.717395">
        <ele>230.601192</ele>
        <time>2020-08-13T07:02:38.438Z</time>
      </trkpt>
      <trkpt lat="48.603534" lon="16.717219">
        <ele>230.469220</ele>
        <time>2020-08-13T07:02:40.431Z</time>
      </trkpt>
      <trkpt lat="48.603532" lon="16.717042">
        <ele>230.336478</ele>
        <time>2020-08-13T07:02:42.426Z</time>
      </trkpt>
      <trkpt lat="48.603539" lon="16.716868">
        <ele>230.205765</ele>
        <time>2020-08-13T07:02:44.419Z</time>
      </trkpt>
      <trkpt lat="48.603536" lon="16.716696">
        <ele>230.076747</ele>
        <time>2020-08-13T07:02:46.433Z</time>
      </trkpt>
      <trkpt lat="48.603516" lon="16.716529">
        <ele>229.949486</ele>
        <time>2020-08-13T07:02:48.440Z</time>
      </trkpt>
      <trkpt lat="48.603462" lon="16.716408">
        <ele>229.840026</ele>
        <time>2020-08-13T07:02:50.410Z</time>
      </trkpt>
      <trkpt lat="48.603354" lon="16.716420">
        <ele>229.717229</ele>
        <time>2020-08-13T07:02:52.443Z</time>
      </trkpt>
      <trkpt lat="48.603249" lon="16.716475">
        <ele>229.591224</ele>
        <time>2020-08-13T07:02:54.436Z</time>
      </trkpt>
      <trkpt lat="48.603135" lon="16.716502">
        <ele>229.460378</ele>
        <time>2020-08-13T07:02:56.417Z</time>
      </trkpt>
      <trkpt lat="48.603030" lon="16.716511">
        <ele>229.341122</ele>
        <time>2020-08-13T07:02:58.438Z</time>
      </trkpt>
      <trkpt lat="48.602935" lon="16.716528">
        <ele>229.232645</ele>
        <time>2020-08-13T07:03:00.462Z</time>
      </trkpt>
      <trkpt lat="48.602840" lon="16.716551">
        <ele>229.155101</ele>
        <time>2020-08-13T07:03:02.440Z</time>
      </trkpt>
      <trkpt lat="48.602741" lon="16.716585">
        <ele>229.090278</ele>
        <time>2020-08-13T07:03:04.424Z</time>
      </trkpt>
      <trkpt lat="48.602653" lon="16.716616">
        <ele>229.032584</ele>
        <time>2020-08-13T07:03:06.433Z</time>
      </trkpt>
      <trkpt lat="48.602523" lon="16.716642">
        <ele>228.948853</ele>
        <time>2020-08-13T07:03:09.432Z</time>
      </trkpt>
      <trkpt lat="48.602391" lon="16.716672">
        <ele>228.863622</ele>
        <time>2020-08-13T07:03:12.441Z</time>
      </trkpt>
      <trkpt lat="48.602264" lon="16.716695">
        <ele>228.781950</ele>
        <time>2020-08-13T07:03:15.449Z</time>
      </trkpt>
      <trkpt lat="48.602146" lon="16.716723">
        <ele>228.705683</ele>
        <time>2020-08-13T07:03:18.435Z</time>
      </trkpt>
      <trkpt lat="48.602024" lon="16.716748">
        <ele>228.627071</ele>
        <time>2020-08-13T07:03:21.437Z</time>
      </trkpt>
      <trkpt lat="48.601896" lon="16.716757">
        <ele>228.545252</ele>
        <time>2020-08-13T07:03:24.425Z</time>
      </trkpt>
      <trkpt lat="48.601801" lon="16.716764">
        <ele>228.484521</ele>
        <time>2020-08-13T07:03:26.430Z</time>
      </trkpt>
      <trkpt lat="48.601707" lon="16.716774">
        <ele>228.424352</ele>
        <time>2020-08-13T07:03:28.433Z</time>
      </trkpt>
      <trkpt lat="48.601605" lon="16.716781">
        <ele>228.359156</ele>
        <time>2020-08-13T07:03:30.425Z</time>
      </trkpt>
      <trkpt lat="48.601508" lon="16.716792">
        <ele>228.297045</ele>
        <time>2020-08-13T07:03:32.427Z</time>
      </trkpt>
      <trkpt lat="48.601413" lon="16.716800">
        <ele>228.236292</ele>
        <time>2020-08-13T07:03:34.434Z</time>
      </trkpt>
      <trkpt lat="48.601315" lon="16.716814">
        <ele>228.173438</ele>
        <time>2020-08-13T07:03:36.433Z</time>
      </trkpt>
      <trkpt lat="48.601215" lon="16.716839">
        <ele>228.108719</ele>
        <time>2020-08-13T07:03:38.415Z</time>
      </trkpt>
      <trkpt lat="48.601115" lon="16.716855">
        <ele>228.048631</ele>
        <time>2020-08-13T07:03:40.438Z</time>
      </trkpt>
      <trkpt lat="48.601022" lon="16.716866">
        <ele>228.077173</ele>
        <time>2020-08-13T07:03:42.437Z</time>
      </trkpt>
      <trkpt lat="48.600930" lon="16.716864">
        <ele>228.105324</ele>
        <time>2020-08-13T07:03:44.423Z</time>
      </trkpt>
      <trkpt lat="48.600800" lon="16.716893">
        <ele>228.145530</ele>
        <time>2020-08-13T07:03:47.412Z</time>
      </trkpt>
      <trkpt lat="48.600673" lon="16.716920">
        <ele>228.184770</ele>
        <time>2020-08-13T07:03:50.419Z</time>
      </trkpt>
      <trkpt lat="48.600548" lon="16.716848">
        <ele>228.225696</ele>
        <time>2020-08-13T07:03:53.433Z</time>
      </trkpt>
      <trkpt lat="48.600470" lon="16.716774">
        <ele>228.253869</ele>
        <time>2020-08-13T07:03:55.420Z</time>
      </trkpt>
      <trkpt lat="48.600389" lon="16.716708">
        <ele>228.282022</ele>
        <time>2020-08-13T07:03:57.426Z</time>
      </trkpt>
      <trkpt lat="48.600260" lon="16.716693">
        <ele>228.321607</ele>
        <time>2020-08-13T07:04:00.435Z</time>
      </trkpt>
      <trkpt lat="48.600153" lon="16.716616">
        <ele>228.357864</ele>
        <time>2020-08-13T07:04:03.442Z</time>
      </trkpt>
      <trkpt lat="48.600126" lon="16.716465">
        <ele>228.389514</ele>
        <time>2020-08-13T07:04:05.460Z</time>
      </trkpt>
      <trkpt lat="48.600104" lon="16.716308">
        <ele>228.421986</ele>
        <time>2020-08-13T07:04:07.414Z</time>
      </trkpt>
      <trkpt lat="48.600083" lon="16.716171">
        <ele>228.450442</ele>
        <time>2020-08-13T07:04:09.453Z</time>
      </trkpt>
      <trkpt lat="48.600057" lon="16.716035">
        <ele>228.479086</ele>
        <time>2020-08-13T07:04:11.431Z</time>
      </trkpt>
      <trkpt lat="48.600039" lon="16.715898">
        <ele>228.507348</ele>
        <time>2020-08-13T07:04:13.422Z</time>
      </trkpt>
      <trkpt lat="48.600034" lon="16.715753">
        <ele>228.536727</ele>
        <time>2020-08-13T07:04:15.430Z</time>
      </trkpt>
      <trkpt lat="48.600036" lon="16.715609">
        <ele>228.565870</ele>
        <time>2020-08-13T07:04:17.418Z</time>
      </trkpt>
      <trkpt lat="48.600031" lon="16.715467">
        <ele>228.594643</ele>
        <time>2020-08-13T07:04:19.446Z</time>
      </trkpt>
      <trkpt lat="48.600027" lon="16.715319">
        <ele>228.610326</ele>
        <time>2020-08-13T07:04:21.417Z</time>
      </trkpt>
      <trkpt lat="48.600020" lon="16.715171">
        <ele>228.624459</ele>
        <time>2020-08-13T07:04:23.430Z</time>
      </trkpt>
      <trkpt lat="48.600012" lon="16.715014">
        <ele>228.639458</ele>
        <time>2020-08-13T07:04:25.441Z</time>
      </trkpt>
      <trkpt lat="48.599997" lon="16.714867">
        <ele>228.653625</ele>
        <time>2020-08-13T07:04:27.446Z</time>
      </trkpt>
      <trkpt lat="48.599969" lon="16.714725">
        <ele>228.667739</ele>
        <time>2020-08-13T07:04:29.440Z</time>
      </trkpt>
      <trkpt lat="48.599939" lon="16.714578">
        <ele>228.682392</ele>
        <time>2020-08-13T07:04:31.435Z</time>
      </trkpt>
      <trkpt lat="48.599907" lon="16.714421">
        <ele>228.698041</ele>
        <time>2020-08-13T07:04:33.430Z</time>
      </trkpt>
      <trkpt lat="48.599876" lon="16.714260">
        <ele>228.714013</ele>
        <time>2020-08-13T07:04:35.429Z</time>
      </trkpt>
      <trkpt lat="48.599858" lon="16.714113">
        <ele>228.728253</ele>
        <time>2020-08-13T07:04:37.445Z</time>
      </trkpt>
      <trkpt lat="48.599830" lon="16.713957">
        <ele>228.743649</ele>
        <time>2020-08-13T07:04:39.432Z</time>
      </trkpt>
      <trkpt lat="48.599812" lon="16.713800">
        <ele>228.758827</ele>
        <time>2020-08-13T07:04:41.441Z</time>
      </trkpt>
      <trkpt lat="48.599789" lon="16.713636">
        <ele>228.774795</ele>
        <time>2020-08-13T07:04:43.434Z</time>
      </trkpt>
      <trkpt lat="48.599756" lon="16.713487">
        <ele>228.789762</ele>
        <time>2020-08-13T07:04:45.437Z</time>
      </trkpt>
      <trkpt lat="48.599715" lon="16.713328">
        <ele>228.806018</ele>
        <time>2020-08-13T07:04:47.429Z</time>
      </trkpt>
      <trkpt lat="48.599682" lon="16.713173">
        <ele>228.821528</ele>
        <time>2020-08-13T07:04:49.437Z</time>
      </trkpt>
      <trkpt lat="48.599656" lon="16.713018">
        <ele>228.836759</ele>
        <time>2020-08-13T07:04:51.443Z</time>
      </trkpt>
      <trkpt lat="48.599628" lon="16.712865">
        <ele>228.851880</ele>
        <time>2020-08-13T07:04:53.422Z</time>
      </trkpt>
      <trkpt lat="48.599606" lon="16.712707">
        <ele>228.836827</ele>
        <time>2020-08-13T07:04:55.434Z</time>
      </trkpt>
      <trkpt lat="48.599582" lon="16.712548">
        <ele>228.807678</ele>
        <time>2020-08-13T07:04:57.450Z</time>
      </trkpt>
      <trkpt lat="48.599566" lon="16.712389">
        <ele>228.778933</ele>
        <time>2020-08-13T07:04:59.455Z</time>
      </trkpt>
      <trkpt lat="48.599547" lon="16.712232">
        <ele>228.750407</ele>
        <time>2020-08-13T07:05:01.426Z</time>
      </trkpt>
      <trkpt lat="48.599541" lon="16.712077">
        <ele>228.722656</ele>
        <time>2020-08-13T07:05:03.417Z</time>
      </trkpt>
      <trkpt lat="48.599542" lon="16.711931">
        <ele>228.696561</ele>
        <time>2020-08-13T07:05:05.414Z</time>
      </trkpt>
      <trkpt lat="48.599539" lon="16.711785">
        <ele>228.670454</ele>
        <time>2020-08-13T07:05:07.419Z</time>
      </trkpt>
      <trkpt lat="48.599531" lon="16.711621">
        <ele>228.641062</ele>
        <time>2020-08-13T07:05:09.432Z</time>
      </trkpt>
      <trkpt lat="48.599524" lon="16.711432">
        <ele>228.607230</ele>
        <time>2020-08-13T07:05:11.454Z</time>
      </trkpt>
      <trkpt lat="48.599517" lon="16.711233">
        <ele>228.571612</ele>
        <time>2020-08-13T07:05:13.423Z</time>
      </trkpt>
      <trkpt lat="48.599509" lon="16.711037">
        <ele>228.536515</ele>
        <time>2020-08-13T07:05:15.419Z</time>
      </trkpt>
      <trkpt lat="48.599490" lon="16.710853">
        <ele>228.503230</ele>
        <time>2020-08-13T07:05:17.428Z</time>
      </trkpt>
      <trkpt lat="48.599477" lon="16.710676">
        <ele>228.471400</ele>
        <time>2020-08-13T07:05:19.450Z</time>
      </trkpt>
      <trkpt lat="48.599462" lon="16.710506">
        <ele>228.440747</ele>
        <time>2020-08-13T07:05:21.429Z</time>
      </trkpt>
      <trkpt lat="48.599443" lon="16.710334">
        <ele>228.409580</ele>
        <time>2020-08-13T07:05:23.423Z</time>
      </trkpt>
      <trkpt lat="48.599425" lon="16.710159">
        <ele>228.377926</ele>
        <time>2020-08-13T07:05:25.429Z</time>
      </trkpt>
      <trkpt lat="48.599404" lon="16.709981">
        <ele>228.399901</ele>
        <time>2020-08-13T07:05:27.419Z</time>
      </trkpt>
      <trkpt lat="48.599386" lon="16.709808">
        <ele>228.436670</ele>
        <time>2020-08-13T07:05:29.456Z</time>
      </trkpt>
      <trkpt lat="48.599372" lon="16.709640">
        <ele>228.472221</ele>
        <time>2020-08-13T07:05:31.430Z</time>
      </trkpt>
      <trkpt lat="48.599352" lon="16.709477">
        <ele>228.507028</ele>
        <time>2020-08-13T07:05:33.442Z</time>
      </trkpt>
      <trkpt lat="48.599326" lon="16.709322">
        <ele>228.540602</ele>
        <time>2020-08-13T07:05:35.433Z</time>
      </trkpt>
      <trkpt lat="48.599306" lon="16.709155">
        <ele>228.576235</ele>
        <time>2020-08-13T07:05:37.425Z</time>
      </trkpt>
      <trkpt lat="48.599283" lon="16.708989">
        <ele>228.611844</ele>
        <time>2020-08-13T07:05:39.462Z</time>
      </trkpt>
      <trkpt lat="48.599256" lon="16.708831">
        <ele>228.646107</ele>
        <time>2020-08-13T07:05:41.450Z</time>
      </trkpt>
      <trkpt lat="48.599229" lon="16.708678">
        <ele>228.679354</ele>
        <time>2020-08-13T07:05:43.445Z</time>
      </trkpt>
      <trkpt lat="48.599187" lon="16.708532">
        <ele>228.712782</ele>
        <time>2020-08-13T07:05:45.421Z</time>
      </trkpt>
      <trkpt lat="48.599137" lon="16.708391">
        <ele>228.746373</ele>
        <time>2020-08-13T07:05:47.434Z</time>
      </trkpt>
      <trkpt lat="48.599090" lon="16.708255">
        <ele>228.778591</ele>
        <time>2020-08-13T07:05:49.438Z</time>
      </trkpt>
      <trkpt lat="48.599043" lon="16.708123">
        <ele>228.810067</ele>
        <time>2020-08-13T07:05:51.439Z</time>
      </trkpt>
      <trkpt lat="48.598998" lon="16.707994">
        <ele>228.840688</ele>
        <time>2020-08-13T07:05:53.427Z</time>
      </trkpt>
      <trkpt lat="48.598955" lon="16.707866">
        <ele>228.870832</ele>
        <time>2020-08-13T07:05:55.452Z</time>
      </trkpt>
      <trkpt lat="48.598926" lon="16.707732">
        <ele>228.900434</ele>
        <time>2020-08-13T07:05:57.423Z</time>
      </trkpt>
      <trkpt lat="48.598906" lon="16.707596">
        <ele>228.929686</ele>
        <time>2020-08-13T07:05:59.434Z</time>
      </trkpt>
      <trkpt lat="48.598889" lon="16.707454">
        <ele>228.982631</ele>
        <time>2020-08-13T07:06:01.428Z</time>
      </trkpt>
      <trkpt lat="48.598876" lon="16.707318">
        <ele>229.047036</ele>
        <time>2020-08-13T07:06:03.421Z</time>
      </trkpt>
      <trkpt lat="48.598854" lon="16.707137">
        <ele>229.133291</ele>
        <time>2020-08-13T07:06:06.452Z</time>
      </trkpt>
      <trkpt lat="48.598819" lon="16.706983">
        <ele>229.209613</ele>
        <time>2020-08-13T07:06:09.456Z</time>
      </trkpt>
      <trkpt lat="48.598780" lon="16.706829">
        <ele>229.286903</ele>
        <time>2020-08-13T07:06:12.452Z</time>
      </trkpt>
      <trkpt lat="48.598746" lon="16.706673">
        <ele>229.363888</ele>
        <time>2020-08-13T07:06:15.421Z</time>
      </trkpt>
      <trkpt lat="48.598712" lon="16.706509">
        <ele>229.444442</ele>
        <time>2020-08-13T07:06:18.422Z</time>
      </trkpt>
      <trkpt lat="48.598683" lon="16.706320">
        <ele>229.535379</ele>
        <time>2020-08-13T07:06:21.441Z</time>
      </trkpt>
      <trkpt lat="48.598673" lon="16.706177">
        <ele>229.602776</ele>
        <time>2020-08-13T07:06:23.422Z</time>
      </trkpt>
      <trkpt lat="48.598664" lon="16.706012">
        <ele>229.680373</ele>
        <time>2020-08-13T07:06:25.430Z</time>
      </trkpt>
      <trkpt lat="48.598657" lon="16.705847">
        <ele>229.757867</ele>
        <time>2020-08-13T07:06:27.428Z</time>
      </trkpt>
      <trkpt lat="48.598646" lon="16.705684">
        <ele>229.834661</ele>
        <time>2020-08-13T07:06:29.460Z</time>
      </trkpt>
      <trkpt lat="48.598624" lon="16.705529">
        <ele>229.908963</ele>
        <time>2020-08-13T07:06:31.441Z</time>
      </trkpt>
      <trkpt lat="48.598589" lon="16.705388">
        <ele>229.979551</ele>
        <time>2020-08-13T07:06:33.433Z</time>
      </trkpt>
      <trkpt lat="48.598556" lon="16.705239">
        <ele>230.053199</ele>
        <time>2020-08-13T07:06:35.459Z</time>
      </trkpt>
      <trkpt lat="48.598523" lon="16.705081">
        <ele>230.130859</ele>
        <time>2020-08-13T07:06:37.435Z</time>
      </trkpt>
      <trkpt lat="48.598487" lon="16.704925">
        <ele>230.208299</ele>
        <time>2020-08-13T07:06:39.421Z</time>
      </trkpt>
      <trkpt lat="48.598443" lon="16.704763">
        <ele>230.445260</ele>
        <time>2020-08-13T07:06:41.426Z</time>
      </trkpt>
      <trkpt lat="48.598415" lon="16.704597">
        <ele>230.693503</ele>
        <time>2020-08-13T07:06:43.462Z</time>
      </trkpt>
      <trkpt lat="48.598388" lon="16.704427">
        <ele>230.946846</ele>
        <time>2020-08-13T07:06:45.420Z</time>
      </trkpt>
      <trkpt lat="48.598358" lon="16.704263">
        <ele>231.193414</ele>
        <time>2020-08-13T07:06:47.451Z</time>
      </trkpt>
      <trkpt lat="48.598313" lon="16.704123">
        <ele>231.418973</ele>
        <time>2020-08-13T07:06:49.424Z</time>
      </trkpt>
      <trkpt lat="48.598266" lon="16.704007">
        <ele>231.616102</ele>
        <time>2020-08-13T07:06:51.433Z</time>
      </trkpt>
      <trkpt lat="48.598225" lon="16.703876">
        <ele>231.826112</ele>
        <time>2020-08-13T07:06:54.455Z</time>
      </trkpt>
      <trkpt lat="48.598221" lon="16.703717">
        <ele>232.056678</ele>
        <time>2020-08-13T07:06:58.423Z</time>
      </trkpt>
      <trkpt lat="48.598226" lon="16.703571">
        <ele>232.268524</ele>
        <time>2020-08-13T07:07:02.432Z</time>
      </trkpt>
      <trkpt lat="48.598225" lon="16.703429">
        <ele>232.474301</ele>
        <time>2020-08-13T07:07:06.446Z</time>
      </trkpt>
      <trkpt lat="48.598219" lon="16.703266">
        <ele>232.710863</ele>
        <time>2020-08-13T07:07:10.431Z</time>
      </trkpt>
      <trkpt lat="48.598218" lon="16.703075">
        <ele>232.987641</ele>
        <time>2020-08-13T07:07:14.446Z</time>
      </trkpt>
      <trkpt lat="48.598219" lon="16.702886">
        <ele>233.261522</ele>
        <time>2020-08-13T07:07:17.427Z</time>
      </trkpt>
      <trkpt lat="48.598206" lon="16.702737">
        <ele>233.479302</ele>
        <time>2020-08-13T07:07:19.433Z</time>
      </trkpt>
      <trkpt lat="48.598185" lon="16.702566">
        <ele>233.731326</ele>
        <time>2020-08-13T07:07:21.428Z</time>
      </trkpt>
      <trkpt lat="48.598166" lon="16.702370">
        <ele>234.018377</ele>
        <time>2020-08-13T07:07:23.450Z</time>
      </trkpt>
      <trkpt lat="48.598164" lon="16.702162">
        <ele>234.235907</ele>
        <time>2020-08-13T07:07:25.452Z</time>
      </trkpt>
      <trkpt lat="48.598170" lon="16.701977">
        <ele>234.365684</ele>
        <time>2020-08-13T07:07:27.441Z</time>
      </trkpt>
      <trkpt lat="48.598180" lon="16.701821">
        <ele>234.475499</ele>
        <time>2020-08-13T07:07:29.456Z</time>
      </trkpt>
      <trkpt lat="48.598198" lon="16.701646">
        <ele>234.599587</ele>
        <time>2020-08-13T07:07:32.436Z</time>
      </trkpt>
      <trkpt lat="48.598205" lon="16.701495">
        <ele>234.705646</ele>
        <time>2020-08-13T07:07:35.420Z</time>
      </trkpt>
      <trkpt lat="48.598209" lon="16.701320">
        <ele>234.828333</ele>
        <time>2020-08-13T07:07:38.422Z</time>
      </trkpt>
      <trkpt lat="48.598217" lon="16.701162">
        <ele>234.939361</ele>
        <time>2020-08-13T07:07:40.440Z</time>
      </trkpt>
      <trkpt lat="48.598218" lon="16.700972">
        <ele>235.072489</ele>
        <time>2020-08-13T07:07:42.451Z</time>
      </trkpt>
      <trkpt lat="48.598220" lon="16.700756">
        <ele>235.223846</ele>
        <time>2020-08-13T07:07:44.425Z</time>
      </trkpt>
      <trkpt lat="48.598222" lon="16.700542">
        <ele>235.373801</ele>
        <time>2020-08-13T07:07:46.435Z</time>
      </trkpt>
      <trkpt lat="48.598228" lon="16.700348">
        <ele>235.509876</ele>
        <time>2020-08-13T07:07:48.433Z</time>
      </trkpt>
      <trkpt lat="48.598243" lon="16.700180">
        <ele>235.628654</ele>
        <time>2020-08-13T07:07:50.415Z</time>
      </trkpt>
      <trkpt lat="48.598261" lon="16.700046">
        <ele>235.724459</ele>
        <time>2020-08-13T07:07:52.452Z</time>
      </trkpt>
      <trkpt lat="48.598284" lon="16.699902">
        <ele>235.828254</ele>
        <time>2020-08-13T07:07:55.442Z</time>
      </trkpt>
      <trkpt lat="48.598303" lon="16.699754">
        <ele>235.933886</ele>
        <time>2020-08-13T07:07:59.453Z</time>
      </trkpt>
      <trkpt lat="48.598335" lon="16.699609">
        <ele>236.040988</ele>
        <time>2020-08-13T07:08:03.464Z</time>
      </trkpt>
      <trkpt lat="48.598376" lon="16.699488">
        <ele>235.964802</ele>
        <time>2020-08-13T07:08:06.464Z</time>
      </trkpt>
      <trkpt lat="48.598431" lon="16.699360">
        <ele>235.821641</ele>
        <time>2020-08-13T07:08:09.418Z</time>
      </trkpt>
      <trkpt lat="48.598486" lon="16.699230">
        <ele>235.676904</ele>
        <time>2020-08-13T07:08:12.454Z</time>
      </trkpt>
      <trkpt lat="48.598550" lon="16.699071">
        <ele>235.502334</ele>
        <time>2020-08-13T07:08:15.434Z</time>
      </trkpt>
      <trkpt lat="48.598590" lon="16.698948">
        <ele>235.373784</ele>
        <time>2020-08-13T07:08:17.424Z</time>
      </trkpt>
      <trkpt lat="48.598634" lon="16.698822">
        <ele>235.240151</ele>
        <time>2020-08-13T07:08:19.434Z</time>
      </trkpt>
      <trkpt lat="48.598698" lon="16.698704">
        <ele>235.097025</ele>
        <time>2020-08-13T07:08:21.439Z</time>
      </trkpt>
      <trkpt lat="48.598767" lon="16.698577">
        <ele>234.942876</ele>
        <time>2020-08-13T07:08:23.454Z</time>
      </trkpt>
      <trkpt lat="48.598812" lon="16.698412">
        <ele>234.775486</ele>
        <time>2020-08-13T07:08:25.427Z</time>
      </trkpt>
      <trkpt lat="48.598841" lon="16.698217">
        <ele>234.588036</ele>
        <time>2020-08-13T07:08:27.426Z</time>
      </trkpt>
      <trkpt lat="48.598878" lon="16.698013">
        <ele>234.389648</ele>
        <time>2020-08-13T07:08:29.440Z</time>
      </trkpt>
      <trkpt lat="48.598912" lon="16.697783">
        <ele>234.168617</ele>
        <time>2020-08-13T07:08:31.423Z</time>
      </trkpt>
      <trkpt lat="48.598915" lon="16.697505">
        <ele>233.907858</ele>
        <time>2020-08-13T07:08:33.421Z</time>
      </trkpt>
      <trkpt lat="48.598904" lon="16.697361">
        <ele>233.771908</ele>
        <time>2020-08-13T07:08:34.425Z</time>
      </trkpt>
      <trkpt lat="48.598876" lon="16.697214">
        <ele>233.628439</ele>
        <time>2020-08-13T07:08:35.418Z</time>
      </trkpt>
      <trkpt lat="48.598834" lon="16.697072">
        <ele>233.505107</ele>
        <time>2020-08-13T07:08:36.446Z</time>
      </trkpt>
      <trkpt lat="48.598790" lon="16.696953">
        <ele>233.474542</ele>
        <time>2020-08-13T07:08:37.421Z</time>
      </trkpt>
      <trkpt lat="48.598748" lon="16.696773">
        <ele>233.431750</ele>
        <time>2020-08-13T07:08:39.476Z</time>
      </trkpt>
      <trkpt lat="48.598715" lon="16.696620">
        <ele>233.395671</ele>
        <time>2020-08-13T07:08:41.433Z</time>
      </trkpt>
      <trkpt lat="48.598619" lon="16.696550">
        <ele>233.359542</ele>
        <time>2020-08-13T07:08:43.426Z</time>
      </trkpt>
      <trkpt lat="48.598535" lon="16.696480">
        <ele>233.327028</ele>
        <time>2020-08-13T07:08:45.413Z</time>
      </trkpt>
      <trkpt lat="48.598462" lon="16.696395">
        <ele>233.295794</ele>
        <time>2020-08-13T07:08:47.430Z</time>
      </trkpt>
      <trkpt lat="48.598368" lon="16.696261">
        <ele>233.252001</ele>
        <time>2020-08-13T07:08:50.424Z</time>
      </trkpt>
      <trkpt lat="48.598303" lon="16.696109">
        <ele>233.211421</ele>
        <time>2020-08-13T07:08:53.437Z</time>
      </trkpt>
      <trkpt lat="48.598249" lon="16.695950">
        <ele>233.171349</ele>
        <time>2020-08-13T07:08:56.444Z</time>
      </trkpt>
      <trkpt lat="48.598195" lon="16.695778">
        <ele>233.128664</ele>
        <time>2020-08-13T07:08:59.431Z</time>
      </trkpt>
      <trkpt lat="48.598151" lon="16.695599">
        <ele>233.085851</ele>
        <time>2020-08-13T07:09:02.446Z</time>
      </trkpt>
      <trkpt lat="48.598113" lon="16.695440">
        <ele>233.047949</ele>
        <time>2020-08-13T07:09:05.428Z</time>
      </trkpt>
      <trkpt lat="48.598072" lon="16.695288">
        <ele>233.011147</ele>
        <time>2020-08-13T07:09:08.444Z</time>
      </trkpt>
      <trkpt lat="48.598036" lon="16.695133">
        <ele>232.974317</ele>
        <time>2020-08-13T07:09:11.450Z</time>
      </trkpt>
      <trkpt lat="48.598000" lon="16.694979">
        <ele>232.937698</ele>
        <time>2020-08-13T07:09:14.451Z</time>
      </trkpt>
      <trkpt lat="48.597960" lon="16.694804">
        <ele>232.906168</ele>
        <time>2020-08-13T07:09:17.426Z</time>
      </trkpt>
      <trkpt lat="48.597927" lon="16.694672">
        <ele>232.924865</ele>
        <time>2020-08-13T07:09:19.442Z</time>
      </trkpt>
      <trkpt lat="48.597893" lon="16.694531">
        <ele>232.944749</ele>
        <time>2020-08-13T07:09:21.459Z</time>
      </trkpt>
      <trkpt lat="48.597854" lon="16.694386">
        <ele>232.965488</ele>
        <time>2020-08-13T07:09:23.429Z</time>
      </trkpt>
      <trkpt lat="48.597808" lon="16.694247">
        <ele>232.986081</ele>
        <time>2020-08-13T07:09:25.436Z</time>
      </trkpt>
      <trkpt lat="48.597757" lon="16.694107">
        <ele>233.007258</ele>
        <time>2020-08-13T07:09:27.424Z</time>
      </trkpt>
      <trkpt lat="48.597690" lon="16.693972">
        <ele>233.029620</ele>
        <time>2020-08-13T07:09:29.423Z</time>
      </trkpt>
      <trkpt lat="48.597585" lon="16.693854">
        <ele>233.055829</ele>
        <time>2020-08-13T07:09:31.437Z</time>
      </trkpt>
      <trkpt lat="48.597467" lon="16.693751">
        <ele>233.083125</ele>
        <time>2020-08-13T07:09:33.420Z</time>
      </trkpt>
      <trkpt lat="48.597349" lon="16.693644">
        <ele>233.110689</ele>
        <time>2020-08-13T07:09:35.445Z</time>
      </trkpt>
      <trkpt lat="48.597249" lon="16.693514">
        <ele>233.137109</ele>
        <time>2020-08-13T07:09:37.450Z</time>
      </trkpt>
      <trkpt lat="48.597158" lon="16.693404">
        <ele>233.160449</ele>
        <time>2020-08-13T07:09:39.443Z</time>
      </trkpt>
      <trkpt lat="48.597065" lon="16.693320">
        <ele>233.182152</ele>
        <time>2020-08-13T07:09:41.445Z</time>
      </trkpt>
      <trkpt lat="48.596966" lon="16.693268">
        <ele>233.203147</ele>
        <time>2020-08-13T07:09:43.434Z</time>
      </trkpt>
      <trkpt lat="48.596872" lon="16.693228">
        <ele>233.222710</ele>
        <time>2020-08-13T07:09:45.424Z</time>
      </trkpt>
      <trkpt lat="48.596781" lon="16.693189">
        <ele>233.241659</ele>
        <time>2020-08-13T07:09:47.455Z</time>
      </trkpt>
      <trkpt lat="48.596688" lon="16.693143">
        <ele>233.261262</ele>
        <time>2020-08-13T07:09:49.456Z</time>
      </trkpt>
      <trkpt lat="48.596598" lon="16.693069">
        <ele>233.327767</ele>
        <time>2020-08-13T07:09:51.469Z</time>
      </trkpt>
      <trkpt lat="48.596517" lon="16.692967">
        <ele>233.400014</ele>
        <time>2020-08-13T07:09:53.431Z</time>
      </trkpt>
      <trkpt lat="48.596463" lon="16.692819">
        <ele>233.476631</ele>
        <time>2020-08-13T07:09:55.428Z</time>
      </trkpt>
      <trkpt lat="48.596423" lon="16.692660">
        <ele>233.553740</ele>
        <time>2020-08-13T07:09:57.422Z</time>
      </trkpt>
      <trkpt lat="48.596402" lon="16.692508">
        <ele>233.624126</ele>
        <time>2020-08-13T07:09:59.434Z</time>
      </trkpt>
      <trkpt lat="48.596398" lon="16.692353">
        <ele>233.694438</ele>
        <time>2020-08-13T07:10:01.422Z</time>
      </trkpt>
      <trkpt lat="48.596402" lon="16.692196">
        <ele>233.765655</ele>
        <time>2020-08-13T07:10:03.434Z</time>
      </trkpt>
      <trkpt lat="48.596401" lon="16.692037">
        <ele>233.837730</ele>
        <time>2020-08-13T07:10:05.429Z</time>
      </trkpt>
      <trkpt lat="48.596401" lon="16.691874">
        <ele>233.911614</ele>
        <time>2020-08-13T07:10:07.447Z</time>
      </trkpt>
      <trkpt lat="48.596400" lon="16.691722">
        <ele>233.980516</ele>
        <time>2020-08-13T07:10:09.418Z</time>
      </trkpt>
      <trkpt lat="48.596405" lon="16.691561">
        <ele>234.053575</ele>
        <time>2020-08-13T07:10:11.429Z</time>
      </trkpt>
      <trkpt lat="48.596433" lon="16.691390">
        <ele>234.133426</ele>
        <time>2020-08-13T07:10:13.440Z</time>
      </trkpt>
      <trkpt lat="48.596471" lon="16.691224">
        <ele>234.213050</ele>
        <time>2020-08-13T07:10:15.419Z</time>
      </trkpt>
      <trkpt lat="48.596493" lon="16.691051">
        <ele>234.292903</ele>
        <time>2020-08-13T07:10:17.467Z</time>
      </trkpt>
      <trkpt lat="48.596521" lon="16.690866">
        <ele>234.378928</ele>
        <time>2020-08-13T07:10:19.434Z</time>
      </trkpt>
      <trkpt lat="48.596547" lon="16.690680">
        <ele>234.465100</ele>
        <time>2020-08-13T07:10:21.430Z</time>
      </trkpt>
      <trkpt lat="48.596553" lon="16.690488">
        <ele>234.459120</ele>
        <time>2020-08-13T07:10:23.439Z</time>
      </trkpt>
      <trkpt lat="48.596521" lon="16.690299">
        <ele>234.402307</ele>
        <time>2020-08-13T07:10:25.428Z</time>
      </trkpt>
      <trkpt lat="48.596482" lon="16.690110">
        <ele>234.344651</ele>
        <time>2020-08-13T07:10:27.410Z</time>
      </trkpt>
      <trkpt lat="48.596455" lon="16.689918">
        <ele>234.287489</ele>
        <time>2020-08-13T07:10:29.437Z</time>
      </trkpt>
      <trkpt lat="48.596438" lon="16.689725">
        <ele>234.230788</ele>
        <time>2020-08-13T07:10:31.423Z</time>
      </trkpt>
      <trkpt lat="48.596416" lon="16.689531">
        <ele>234.173469</ele>
        <time>2020-08-13T07:10:33.433Z</time>
      </trkpt>
      <trkpt lat="48.596381" lon="16.689347">
        <ele>234.117714</ele>
        <time>2020-08-13T07:10:35.416Z</time>
      </trkpt>
      <trkpt lat="48.596338" lon="16.689178">
        <ele>234.064983</ele>
        <time>2020-08-13T07:10:37.419Z</time>
      </trkpt>
      <trkpt lat="48.596289" lon="16.689023">
        <ele>234.014953</ele>
        <time>2020-08-13T07:10:39.439Z</time>
      </trkpt>
      <trkpt lat="48.596236" lon="16.688869">
        <ele>233.964398</ele>
        <time>2020-08-13T07:10:41.468Z</time>
      </trkpt>
      <trkpt lat="48.596183" lon="16.688721">
        <ele>233.915386</ele>
        <time>2020-08-13T07:10:43.432Z</time>
      </trkpt>
      <trkpt lat="48.596128" lon="16.688578">
        <ele>233.867212</ele>
        <time>2020-08-13T07:10:45.442Z</time>
      </trkpt>
      <trkpt lat="48.596078" lon="16.688438">
        <ele>233.820878</ele>
        <time>2020-08-13T07:10:47.424Z</time>
      </trkpt>
      <trkpt lat="48.596027" lon="16.688303">
        <ele>233.775602</ele>
        <time>2020-08-13T07:10:49.429Z</time>
      </trkpt>
      <trkpt lat="48.595974" lon="16.688177">
        <ele>233.732117</ele>
        <time>2020-08-13T07:10:51.420Z</time>
      </trkpt>
      <trkpt lat="48.595925" lon="16.688050">
        <ele>233.689725</ele>
        <time>2020-08-13T07:10:53.426Z</time>
      </trkpt>
      <trkpt lat="48.595879" lon="16.687921">
        <ele>233.648319</ele>
        <time>2020-08-13T07:10:55.430Z</time>
      </trkpt>
      <trkpt lat="48.595833" lon="16.687801">
        <ele>233.609133</ele>
        <time>2020-08-13T07:10:57.449Z</time>
      </trkpt>
      <trkpt lat="48.595769" lon="16.687629">
        <ele>233.553376</ele>
        <time>2020-08-13T07:11:00.454Z</time>
      </trkpt>
      <trkpt lat="48.595707" lon="16.687460">
        <ele>233.498775</ele>
        <time>2020-08-13T07:11:03.427Z</time>
      </trkpt>
      <trkpt lat="48.595640" lon="16.687296">
        <ele>233.444314</ele>
        <time>2020-08-13T07:11:06.445Z</time>
      </trkpt>
      <trkpt lat="48.595565" lon="16.687140">
        <ele>233.389825</ele>
        <time>2020-08-13T07:11:09.437Z</time>
      </trkpt>
      <trkpt lat="48.595504" lon="16.686980">
        <ele>233.337648</ele>
        <time>2020-08-13T07:11:12.438Z</time>
      </trkpt>
      <trkpt lat="48.595435" lon="16.686802">
        <ele>233.279357</ele>
        <time>2020-08-13T07:11:15.423Z</time>
      </trkpt>
      <trkpt lat="48.595385" lon="16.686674">
        <ele>233.237357</ele>
        <time>2020-08-13T07:11:17.428Z</time>
      </trkpt>
      <trkpt lat="48.595338" lon="16.686528">
        <ele>233.191481</ele>
        <time>2020-08-13T07:11:19.438Z</time>
      </trkpt>
      <trkpt lat="48.595295" lon="16.686364">
        <ele>233.141638</ele>
        <time>2020-08-13T07:11:21.423Z</time>
      </trkpt>
      <trkpt lat="48.595260" lon="16.686196">
        <ele>233.091874</ele>
        <time>2020-08-13T07:11:23.427Z</time>
      </trkpt>
      <trkpt lat="48.595227" lon="16.686044">
        <ele>233.046675</ele>
        <time>2020-08-13T07:11:25.435Z</time>
      </trkpt>
      <trkpt lat="48.595196" lon="16.685886">
        <ele>233.000113</ele>
        <time>2020-08-13T07:11:27.410Z</time>
      </trkpt>
      <trkpt lat="48.595167" lon="16.685731">
        <ele>232.954603</ele>
        <time>2020-08-13T07:11:29.440Z</time>
      </trkpt>
      <trkpt lat="48.595142" lon="16.685582">
        <ele>232.913027</ele>
        <time>2020-08-13T07:11:31.427Z</time>
      </trkpt>
      <trkpt lat="48.595136" lon="16.685425">
        <ele>232.872024</ele>
        <time>2020-08-13T07:11:33.428Z</time>
      </trkpt>
      <trkpt lat="48.595145" lon="16.685257">
        <ele>232.828078</ele>
        <time>2020-08-13T07:11:35.417Z</time>
      </trkpt>
      <trkpt lat="48.595152" lon="16.685082">
        <ele>232.782367</ele>
        <time>2020-08-13T07:11:37.424Z</time>
      </trkpt>
      <trkpt lat="48.595159" lon="16.684915">
        <ele>232.738738</ele>
        <time>2020-08-13T07:11:39.441Z</time>
      </trkpt>
      <trkpt lat="48.595167" lon="16.684744">
        <ele>232.694043</ele>
        <time>2020-08-13T07:11:41.451Z</time>
      </trkpt>
      <trkpt lat="48.595179" lon="16.684566">
        <ele>232.647392</ele>
        <time>2020-08-13T07:11:43.441Z</time>
      </trkpt>
      <trkpt lat="48.595187" lon="16.684382">
        <ele>232.599315</ele>
        <time>2020-08-13T07:11:45.433Z</time>
      </trkpt>
      <trkpt lat="48.595186" lon="16.684189">
        <ele>232.548993</ele>
        <time>2020-08-13T07:11:47.430Z</time>
      </trkpt>
      <trkpt lat="48.595193" lon="16.684001">
        <ele>232.499898</ele>
        <time>2020-08-13T07:11:49.441Z</time>
      </trkpt>
      <trkpt lat="48.595206" lon="16.683840">
        <ele>232.457609</ele>
        <time>2020-08-13T07:11:51.428Z</time>
      </trkpt>
      <trkpt lat="48.595218" lon="16.683683">
        <ele>232.416403</ele>
        <time>2020-08-13T07:11:53.437Z</time>
      </trkpt>
      <trkpt lat="48.595230" lon="16.683527">
        <ele>232.375455</ele>
        <time>2020-08-13T07:11:55.454Z</time>
      </trkpt>
      <trkpt lat="48.595236" lon="16.683373">
        <ele>232.335233</ele>
        <time>2020-08-13T07:11:57.438Z</time>
      </trkpt>
      <trkpt lat="48.595226" lon="16.683205">
        <ele>232.291254</ele>
        <time>2020-08-13T07:11:59.455Z</time>
      </trkpt>
      <trkpt lat="48.595214" lon="16.683043">
        <ele>232.248752</ele>
        <time>2020-08-13T07:12:01.424Z</time>
      </trkpt>
      <trkpt lat="48.595192" lon="16.682882">
        <ele>232.236850</ele>
        <time>2020-08-13T07:12:03.431Z</time>
      </trkpt>
      <trkpt lat="48.595173" lon="16.682730">
        <ele>232.258174</ele>
        <time>2020-08-13T07:12:05.424Z</time>
      </trkpt>
      <trkpt lat="48.595141" lon="16.682585">
        <ele>232.279246</ele>
        <time>2020-08-13T07:12:07.423Z</time>
      </trkpt>
      <trkpt lat="48.595106" lon="16.682443">
        <ele>232.300136</ele>
        <time>2020-08-13T07:12:09.417Z</time>
      </trkpt>
      <trkpt lat="48.595064" lon="16.682301">
        <ele>232.321579</ele>
        <time>2020-08-13T07:12:11.453Z</time>
      </trkpt>
      <trkpt lat="48.595020" lon="16.682167">
        <ele>232.342203</ele>
        <time>2020-08-13T07:12:13.468Z</time>
      </trkpt>
      <trkpt lat="48.594980" lon="16.682041">
        <ele>232.361469</ele>
        <time>2020-08-13T07:12:15.432Z</time>
      </trkpt>
      <trkpt lat="48.594938" lon="16.681920">
        <ele>232.380307</ele>
        <time>2020-08-13T07:12:17.432Z</time>
      </trkpt>
      <trkpt lat="48.594887" lon="16.681739">
        <ele>232.407428</ele>
        <time>2020-08-13T07:12:20.419Z</time>
      </trkpt>
      <trkpt lat="48.594874" lon="16.681593">
        <ele>232.427736</ele>
        <time>2020-08-13T07:12:22.418Z</time>
      </trkpt>
      <trkpt lat="48.594862" lon="16.681450">
        <ele>232.447607</ele>
        <time>2020-08-13T07:12:24.422Z</time>
      </trkpt>
      <trkpt lat="48.594853" lon="16.681298">
        <ele>232.468644</ele>
        <time>2020-08-13T07:12:26.422Z</time>
      </trkpt>
      <trkpt lat="48.594840" lon="16.681129">
        <ele>232.492098</ele>
        <time>2020-08-13T07:12:28.433Z</time>
      </trkpt>
      <trkpt lat="48.594830" lon="16.680955">
        <ele>232.516175</ele>
        <time>2020-08-13T07:12:30.456Z</time>
      </trkpt>
      <trkpt lat="48.594821" lon="16.680770">
        <ele>232.541747</ele>
        <time>2020-08-13T07:12:32.450Z</time>
      </trkpt>
      <trkpt lat="48.594812" lon="16.680584">
        <ele>232.567456</ele>
        <time>2020-08-13T07:12:34.436Z</time>
      </trkpt>
      <trkpt lat="48.594806" lon="16.680400">
        <ele>232.592851</ele>
        <time>2020-08-13T07:12:36.427Z</time>
      </trkpt>
      <trkpt lat="48.594798" lon="16.680223">
        <ele>232.677641</ele>
        <time>2020-08-13T07:12:38.444Z</time>
      </trkpt>
      <trkpt lat="48.594781" lon="16.680056">
        <ele>232.787289</ele>
        <time>2020-08-13T07:12:40.438Z</time>
      </trkpt>
      <trkpt lat="48.594759" lon="16.679883">
        <ele>232.901611</ele>
        <time>2020-08-13T07:12:42.450Z</time>
      </trkpt>
      <trkpt lat="48.594717" lon="16.679708">
        <ele>233.022420</ele>
        <time>2020-08-13T07:12:44.421Z</time>
      </trkpt>
      <trkpt lat="48.594670" lon="16.679540">
        <ele>233.140794</ele>
        <time>2020-08-13T07:12:46.441Z</time>
      </trkpt>
      <trkpt lat="48.594622" lon="16.679389">
        <ele>233.249514</ele>
        <time>2020-08-13T07:12:48.431Z</time>
      </trkpt>
      <trkpt lat="48.594583" lon="16.679240">
        <ele>233.353502</ele>
        <time>2020-08-13T07:12:50.437Z</time>
      </trkpt>
      <trkpt lat="48.594546" lon="16.679097">
        <ele>233.453149</ele>
        <time>2020-08-13T07:12:52.454Z</time>
      </trkpt>
      <trkpt lat="48.594505" lon="16.678948">
        <ele>233.557875</ele>
        <time>2020-08-13T07:12:54.449Z</time>
      </trkpt>
      <trkpt lat="48.594476" lon="16.678798">
        <ele>233.659290</ele>
        <time>2020-08-13T07:12:56.441Z</time>
      </trkpt>
      <trkpt lat="48.594448" lon="16.678652">
        <ele>233.757937</ele>
        <time>2020-08-13T07:12:58.435Z</time>
      </trkpt>
      <trkpt lat="48.594422" lon="16.678510">
        <ele>233.853553</ele>
        <time>2020-08-13T07:13:00.419Z</time>
      </trkpt>
      <trkpt lat="48.594399" lon="16.678358">
        <ele>233.954740</ele>
        <time>2020-08-13T07:13:02.431Z</time>
      </trkpt>
      <trkpt lat="48.594377" lon="16.678204">
        <ele>234.056982</ele>
        <time>2020-08-13T07:13:04.446Z</time>
      </trkpt>
      <trkpt lat="48.594364" lon="16.678038">
        <ele>234.165458</ele>
        <time>2020-08-13T07:13:06.440Z</time>
      </trkpt>
      <trkpt lat="48.594370" lon="16.677868">
        <ele>234.275935</ele>
        <time>2020-08-13T07:13:08.433Z</time>
      </trkpt>
      <trkpt lat="48.594377" lon="16.677712">
        <ele>234.355071</ele>
        <time>2020-08-13T07:13:10.418Z</time>
      </trkpt>
      <trkpt lat="48.594388" lon="16.677568">
        <ele>234.267576</ele>
        <time>2020-08-13T07:13:12.432Z</time>
      </trkpt>
      <trkpt lat="48.594400" lon="16.677422">
        <ele>234.178775</ele>
        <time>2020-08-13T07:13:14.442Z</time>
      </trkpt>
      <trkpt lat="48.594410" lon="16.677265">
        <ele>234.083573</ele>
        <time>2020-08-13T07:13:16.436Z</time>
      </trkpt>
      <trkpt lat="48.594406" lon="16.677109">
        <ele>233.989343</ele>
        <time>2020-08-13T07:13:18.422Z</time>
      </trkpt>
      <trkpt lat="48.594402" lon="16.676950">
        <ele>233.893303</ele>
        <time>2020-08-13T07:13:20.471Z</time>
      </trkpt>
      <trkpt lat="48.594388" lon="16.676795">
        <ele>233.798879</ele>
        <time>2020-08-13T07:13:22.414Z</time>
      </trkpt>
      <trkpt lat="48.594366" lon="16.676645">
        <ele>233.706142</ele>
        <time>2020-08-13T07:13:24.423Z</time>
      </trkpt>
      <trkpt lat="48.594346" lon="16.676497">
        <ele>233.614965</ele>
        <time>2020-08-13T07:13:26.427Z</time>
      </trkpt>
      <trkpt lat="48.594326" lon="16.676355">
        <ele>233.527334</ele>
        <time>2020-08-13T07:13:28.431Z</time>
      </trkpt>
      <trkpt lat="48.594306" lon="16.676223">
        <ele>233.445597</ele>
        <time>2020-08-13T07:13:30.437Z</time>
      </trkpt>
      <trkpt lat="48.594282" lon="16.676035">
        <ele>233.330028</ele>
        <time>2020-08-13T07:13:33.444Z</time>
      </trkpt>
      <trkpt lat="48.594254" lon="16.675839">
        <ele>233.208996</ele>
        <time>2020-08-13T07:13:36.442Z</time>
      </trkpt>
      <trkpt lat="48.594226" lon="16.675644">
        <ele>233.088554</ele>
        <time>2020-08-13T07:13:39.456Z</time>
      </trkpt>
      <trkpt lat="48.594209" lon="16.675504">
        <ele>233.002640</ele>
        <time>2020-08-13T07:13:41.454Z</time>
      </trkpt>
      <trkpt lat="48.594193" lon="16.675352">
        <ele>232.909739</ele>
        <time>2020-08-13T07:13:43.432Z</time>
      </trkpt>
      <trkpt lat="48.594175" lon="16.675193">
        <ele>232.812373</ele>
        <time>2020-08-13T07:13:45.425Z</time>
      </trkpt>
      <trkpt lat="48.594151" lon="16.675024">
        <ele>232.722240</ele>
        <time>2020-08-13T07:13:47.412Z</time>
      </trkpt>
      <trkpt lat="48.594124" lon="16.674856">
        <ele>232.708607</ele>
        <time>2020-08-13T07:13:49.437Z</time>
      </trkpt>
      <trkpt lat="48.594093" lon="16.674687">
        <ele>232.694778</ele>
        <time>2020-08-13T07:13:51.437Z</time>
      </trkpt>
      <trkpt lat="48.594059" lon="16.674517">
        <ele>232.680773</ele>
        <time>2020-08-13T07:13:53.459Z</time>
      </trkpt>
      <trkpt lat="48.594025" lon="16.674345">
        <ele>232.666618</ele>
        <time>2020-08-13T07:13:55.420Z</time>
      </trkpt>
      <trkpt lat="48.593995" lon="16.674181">
        <ele>232.653200</ele>
        <time>2020-08-13T07:13:57.433Z</time>
      </trkpt>
      <trkpt lat="48.593970" lon="16.674020">
        <ele>232.640160</ele>
        <time>2020-08-13T07:13:59.425Z</time>
      </trkpt>
      <trkpt lat="48.593943" lon="16.673858">
        <ele>232.626986</ele>
        <time>2020-08-13T07:14:01.435Z</time>
      </trkpt>
      <trkpt lat="48.593903" lon="16.673685">
        <ele>232.612535</ele>
        <time>2020-08-13T07:14:03.451Z</time>
      </trkpt>
      <trkpt lat="48.593866" lon="16.673528">
        <ele>232.599393</ele>
        <time>2020-08-13T07:14:05.460Z</time>
      </trkpt>
      <trkpt lat="48.593831" lon="16.673371">
        <ele>232.586328</ele>
        <time>2020-08-13T07:14:07.442Z</time>
      </trkpt>
      <trkpt lat="48.593804" lon="16.673198">
        <ele>232.572312</ele>
        <time>2020-08-13T07:14:09.450Z</time>
      </trkpt>
      <trkpt lat="48.593777" lon="16.673028">
        <ele>232.558526</ele>
        <time>2020-08-13T07:14:11.427Z</time>
      </trkpt>
      <trkpt lat="48.593760" lon="16.672860">
        <ele>232.545124</ele>
        <time>2020-08-13T07:14:13.444Z</time>
      </trkpt>
      <trkpt lat="48.593751" lon="16.672695">
        <ele>232.532069</ele>
        <time>2020-08-13T07:14:15.465Z</time>
      </trkpt>
      <trkpt lat="48.593749" lon="16.672537">
        <ele>232.519608</ele>
        <time>2020-08-13T07:14:17.425Z</time>
      </trkpt>
      <trkpt lat="48.593780" lon="16.672374">
        <ele>232.520408</ele>
        <time>2020-08-13T07:14:19.445Z</time>
      </trkpt>
      <trkpt lat="48.593838" lon="16.672219">
        <ele>232.560172</ele>
        <time>2020-08-13T07:14:21.437Z</time>
      </trkpt>
      <trkpt lat="48.593823" lon="16.672050">
        <ele>232.598247</ele>
        <time>2020-08-13T07:14:23.436Z</time>
      </trkpt>
      <trkpt lat="48.593803" lon="16.671890">
        <ele>232.634605</ele>
        <time>2020-08-13T07:14:25.426Z</time>
      </trkpt>
      <trkpt lat="48.593779" lon="16.671722">
        <ele>232.672983</ele>
        <time>2020-08-13T07:14:27.432Z</time>
      </trkpt>
      <trkpt lat="48.593747" lon="16.671550">
        <ele>232.712879</ele>
        <time>2020-08-13T07:14:29.424Z</time>
      </trkpt>
      <trkpt lat="48.593697" lon="16.671380">
        <ele>232.754422</ele>
        <time>2020-08-13T07:14:31.422Z</time>
      </trkpt>
      <trkpt lat="48.593654" lon="16.671218">
        <ele>232.793400</ele>
        <time>2020-08-13T07:14:33.429Z</time>
      </trkpt>
      <trkpt lat="48.593636" lon="16.671040">
        <ele>232.833607</ele>
        <time>2020-08-13T07:14:35.415Z</time>
      </trkpt>
      <trkpt lat="48.593626" lon="16.670863">
        <ele>232.873273</ele>
        <time>2020-08-13T07:14:37.417Z</time>
      </trkpt>
      <trkpt lat="48.593613" lon="16.670676">
        <ele>232.915258</ele>
        <time>2020-08-13T07:14:39.422Z</time>
      </trkpt>
      <trkpt lat="48.593598" lon="16.670489">
        <ele>232.957319</ele>
        <time>2020-08-13T07:14:41.457Z</time>
      </trkpt>
      <trkpt lat="48.593563" lon="16.670312">
        <ele>232.998570</ele>
        <time>2020-08-13T07:14:43.425Z</time>
      </trkpt>
      <trkpt lat="48.593504" lon="16.670158">
        <ele>233.038309</ele>
        <time>2020-08-13T07:14:45.434Z</time>
      </trkpt>
      <trkpt lat="48.593435" lon="16.670017">
        <ele>233.077474</ele>
        <time>2020-08-13T07:14:47.433Z</time>
      </trkpt>
      <trkpt lat="48.593377" lon="16.669872">
        <ele>233.115312</ele>
        <time>2020-08-13T07:14:49.431Z</time>
      </trkpt>
      <trkpt lat="48.593322" lon="16.669745">
        <ele>233.130633</ele>
        <time>2020-08-13T07:14:51.446Z</time>
      </trkpt>
      <trkpt lat="48.593267" lon="16.669622">
        <ele>233.144570</ele>
        <time>2020-08-13T07:14:53.452Z</time>
      </trkpt>
      <trkpt lat="48.593214" lon="16.669505">
        <ele>233.157881</ele>
        <time>2020-08-13T07:14:55.442Z</time>
      </trkpt>
      <trkpt lat="48.593147" lon="16.669338">
        <ele>233.176215</ele>
        <time>2020-08-13T07:14:58.460Z</time>
      </trkpt>
      <trkpt lat="48.593097" lon="16.669175">
        <ele>233.193080</ele>
        <time>2020-08-13T07:15:01.429Z</time>
      </trkpt>
      <trkpt lat="48.593049" lon="16.669020">
        <ele>233.209145</ele>
        <time>2020-08-13T07:15:04.438Z</time>
      </trkpt>
      <trkpt lat="48.593001" lon="16.668870">
        <ele>233.224786</ele>
        <time>2020-08-13T07:15:07.453Z</time>
      </trkpt>
      <trkpt lat="48.592948" lon="16.668724">
        <ele>233.240419</ele>
        <time>2020-08-13T07:15:10.432Z</time>
      </trkpt>
      <trkpt lat="48.592888" lon="16.668579">
        <ele>233.256474</ele>
        <time>2020-08-13T07:15:13.427Z</time>
      </trkpt>
      <trkpt lat="48.592823" lon="16.668427">
        <ele>233.273463</ele>
        <time>2020-08-13T07:15:16.442Z</time>
      </trkpt>
      <trkpt lat="48.592757" lon="16.668254">
        <ele>233.292210</ele>
        <time>2020-08-13T07:15:19.422Z</time>
      </trkpt>
      <trkpt lat="48.592711" lon="16.668130">
        <ele>233.305555</ele>
        <time>2020-08-13T07:15:21.437Z</time>
      </trkpt>
      <trkpt lat="48.592654" lon="16.668005">
        <ele>233.319807</ele>
        <time>2020-08-13T07:15:23.420Z</time>
      </trkpt>
      <trkpt lat="48.592584" lon="16.667872">
        <ele>233.335761</ele>
        <time>2020-08-13T07:15:25.457Z</time>
      </trkpt>
      <trkpt lat="48.592496" lon="16.667738">
        <ele>233.353486</ele>
        <time>2020-08-13T07:15:27.419Z</time>
      </trkpt>
      <trkpt lat="48.592385" lon="16.667628">
        <ele>233.372321</ele>
        <time>2020-08-13T07:15:29.459Z</time>
      </trkpt>
      <trkpt lat="48.592265" lon="16.667532">
        <ele>233.308378</ele>
        <time>2020-08-13T07:15:31.430Z</time>
      </trkpt>
      <trkpt lat="48.592145" lon="16.667450">
        <ele>233.245928</ele>
        <time>2020-08-13T07:15:33.422Z</time>
      </trkpt>
      <trkpt lat="48.592034" lon="16.667377">
        <ele>233.188524</ele>
        <time>2020-08-13T07:15:35.421Z</time>
      </trkpt>
      <trkpt lat="48.591935" lon="16.667308">
        <ele>233.136826</ele>
        <time>2020-08-13T07:15:37.435Z</time>
      </trkpt>
      <trkpt lat="48.591853" lon="16.667232">
        <ele>233.091214</ele>
        <time>2020-08-13T07:15:39.417Z</time>
      </trkpt>
      <trkpt lat="48.591740" lon="16.667122">
        <ele>233.027479</ele>
        <time>2020-08-13T07:15:42.454Z</time>
      </trkpt>
      <trkpt lat="48.591627" lon="16.667025">
        <ele>232.965856</ele>
        <time>2020-08-13T07:15:45.431Z</time>
      </trkpt>
      <trkpt lat="48.591544" lon="16.666954">
        <ele>232.920631</ele>
        <time>2020-08-13T07:15:47.426Z</time>
      </trkpt>
      <trkpt lat="48.591456" lon="16.666878">
        <ele>232.872570</ele>
        <time>2020-08-13T07:15:49.432Z</time>
      </trkpt>
      <trkpt lat="48.591372" lon="16.666799">
        <ele>232.825657</ele>
        <time>2020-08-13T07:15:51.447Z</time>
      </trkpt>
      <trkpt lat="48.591283" lon="16.666713">
        <ele>232.775566</ele>
        <time>2020-08-13T07:15:53.451Z</time>
      </trkpt>
      <trkpt lat="48.591204" lon="16.666598">
        <ele>232.723559</ele>
        <time>2020-08-13T07:15:55.419Z</time>
      </trkpt>
      <trkpt lat="48.591132" lon="16.666469">
        <ele>232.670614</ele>
        <time>2020-08-13T07:15:57.423Z</time>
      </trkpt>
      <trkpt lat="48.591073" lon="16.666315">
        <ele>232.614791</ele>
        <time>2020-08-13T07:15:59.423Z</time>
      </trkpt>
      <trkpt lat="48.591025" lon="16.666146">
        <ele>232.557100</ele>
        <time>2020-08-13T07:16:01.424Z</time>
      </trkpt>
      <trkpt lat="48.590971" lon="16.665974">
        <ele>232.512705</ele>
        <time>2020-08-13T07:16:03.423Z</time>
      </trkpt>
      <trkpt lat="48.590918" lon="16.665792">
        <ele>232.493641</ele>
        <time>2020-08-13T07:16:05.433Z</time>
      </trkpt>
      <trkpt lat="48.590863" lon="16.665607">
        <ele>232.474196</ele>
        <time>2020-08-13T07:16:07.451Z</time>
      </trkpt>
      <trkpt lat="48.590806" lon="16.665418">
        <ele>232.454282</ele>
        <time>2020-08-13T07:16:09.425Z</time>
      </trkpt>
      <trkpt lat="48.590755" lon="16.665223">
        <ele>232.434180</ele>
        <time>2020-08-13T07:16:11.450Z</time>
      </trkpt>
      <trkpt lat="48.590704" lon="16.665030">
        <ele>232.414255</ele>
        <time>2020-08-13T07:16:13.428Z</time>
      </trkpt>
      <trkpt lat="48.590649" lon="16.664848">
        <ele>232.395072</ele>
        <time>2020-08-13T07:16:15.419Z</time>
      </trkpt>
      <trkpt lat="48.590599" lon="16.664666">
        <ele>232.376179</ele>
        <time>2020-08-13T07:16:17.450Z</time>
      </trkpt>
      <trkpt lat="48.590547" lon="16.664490">
        <ele>232.357700</ele>
        <time>2020-08-13T07:16:19.449Z</time>
      </trkpt>
      <trkpt lat="48.590496" lon="16.664324">
        <ele>232.340153</ele>
        <time>2020-08-13T07:16:21.432Z</time>
      </trkpt>
      <trkpt lat="48.590446" lon="16.664160">
        <ele>232.322840</ele>
        <time>2020-08-13T07:16:23.422Z</time>
      </trkpt>
      <trkpt lat="48.590395" lon="16.664006">
        <ele>232.306330</ele>
        <time>2020-08-13T07:16:25.433Z</time>
      </trkpt>
      <trkpt lat="48.590348" lon="16.663849">
        <ele>232.289808</ele>
        <time>2020-08-13T07:16:27.439Z</time>
      </trkpt>
      <trkpt lat="48.590305" lon="16.663686">
        <ele>232.272985</ele>
        <time>2020-08-13T07:16:29.432Z</time>
      </trkpt>
      <trkpt lat="48.590265" lon="16.663531">
        <ele>232.262912</ele>
        <time>2020-08-13T07:16:31.422Z</time>
      </trkpt>
      <trkpt lat="48.590225" lon="16.663382">
        <ele>232.300135</ele>
        <time>2020-08-13T07:16:33.462Z</time>
      </trkpt>
      <trkpt lat="48.590181" lon="16.663229">
        <ele>232.338755</ele>
        <time>2020-08-13T07:16:35.435Z</time>
      </trkpt>
      <trkpt lat="48.590134" lon="16.663083">
        <ele>232.376341</ele>
        <time>2020-08-13T07:16:37.434Z</time>
      </trkpt>
      <trkpt lat="48.590089" lon="16.662939">
        <ele>232.413208</ele>
        <time>2020-08-13T07:16:39.424Z</time>
      </trkpt>
      <trkpt lat="48.590043" lon="16.662795">
        <ele>232.450225</ele>
        <time>2020-08-13T07:16:41.442Z</time>
      </trkpt>
      <trkpt lat="48.590000" lon="16.662652">
        <ele>232.486588</ele>
        <time>2020-08-13T07:16:43.416Z</time>
      </trkpt>
      <trkpt lat="48.589958" lon="16.662509">
        <ele>232.522806</ele>
        <time>2020-08-13T07:16:45.433Z</time>
      </trkpt>
      <trkpt lat="48.589922" lon="16.662365">
        <ele>232.558441</ele>
        <time>2020-08-13T07:16:47.429Z</time>
      </trkpt>
      <trkpt lat="48.589891" lon="16.662222">
        <ele>232.593276</ele>
        <time>2020-08-13T07:16:49.445Z</time>
      </trkpt>
      <trkpt lat="48.589861" lon="16.662087">
        <ele>232.626243</ele>
        <time>2020-08-13T07:16:51.440Z</time>
      </trkpt>
      <trkpt lat="48.589825" lon="16.661900">
        <ele>232.671327</ele>
        <time>2020-08-13T07:16:54.435Z</time>
      </trkpt>
      <trkpt lat="48.589801" lon="16.661729">
        <ele>232.711792</ele>
        <time>2020-08-13T07:16:57.431Z</time>
      </trkpt>
      <trkpt lat="48.589787" lon="16.661562">
        <ele>232.750759</ele>
        <time>2020-08-13T07:17:00.424Z</time>
      </trkpt>
      <trkpt lat="48.589794" lon="16.661399">
        <ele>232.788570</ele>
        <time>2020-08-13T07:17:03.419Z</time>
      </trkpt>
      <trkpt lat="48.589805" lon="16.661226">
        <ele>232.828802</ele>
        <time>2020-08-13T07:17:06.436Z</time>
      </trkpt>
      <trkpt lat="48.589828" lon="16.661043">
        <ele>232.871921</ele>
        <time>2020-08-13T07:17:09.419Z</time>
      </trkpt>
      <trkpt lat="48.589810" lon="16.660861">
        <ele>232.844833</ele>
        <time>2020-08-13T07:17:12.422Z</time>
      </trkpt>
      <trkpt lat="48.589768" lon="16.660679">
        <ele>232.771212</ele>
        <time>2020-08-13T07:17:15.431Z</time>
      </trkpt>
      <trkpt lat="48.589684" lon="16.660564">
        <ele>232.705778</ele>
        <time>2020-08-13T07:17:17.433Z</time>
      </trkpt>
      <trkpt lat="48.589569" lon="16.660445">
        <ele>232.625310</ele>
        <time>2020-08-13T07:17:19.423Z</time>
      </trkpt>
      <trkpt lat="48.589452" lon="16.660327">
        <ele>232.544099</ele>
        <time>2020-08-13T07:17:21.430Z</time>
      </trkpt>
      <trkpt lat="48.589367" lon="16.660177">
        <ele>232.468661</ele>
        <time>2020-08-13T07:17:23.436Z</time>
      </trkpt>
      <trkpt lat="48.589292" lon="16.660016">
        <ele>232.393450</ele>
        <time>2020-08-13T07:17:25.431Z</time>
      </trkpt>
      <trkpt lat="48.589223" lon="16.659852">
        <ele>232.319215</ele>
        <time>2020-08-13T07:17:27.433Z</time>
      </trkpt>
      <trkpt lat="48.589160" lon="16.659686">
        <ele>232.246120</ele>
        <time>2020-08-13T07:17:29.437Z</time>
      </trkpt>
      <trkpt lat="48.589102" lon="16.659523">
        <ele>232.175428</ele>
        <time>2020-08-13T07:17:31.455Z</time>
      </trkpt>
      <trkpt lat="48.589046" lon="16.659359">
        <ele>232.104937</ele>
        <time>2020-08-13T07:17:33.435Z</time>
      </trkpt>
      <trkpt lat="48.588989" lon="16.659196">
        <ele>232.034516</ele>
        <time>2020-08-13T07:17:35.437Z</time>
      </trkpt>
      <trkpt lat="48.588936" lon="16.659031">
        <ele>231.964459</ele>
        <time>2020-08-13T07:17:37.441Z</time>
      </trkpt>
      <trkpt lat="48.588892" lon="16.658862">
        <ele>231.895092</ele>
        <time>2020-08-13T07:17:39.430Z</time>
      </trkpt>
      <trkpt lat="48.588852" lon="16.658692">
        <ele>231.849765</ele>
        <time>2020-08-13T07:17:41.441Z</time>
      </trkpt>
      <trkpt lat="48.588813" lon="16.658523">
        <ele>231.850088</ele>
        <time>2020-08-13T07:17:43.428Z</time>
      </trkpt>
      <trkpt lat="48.588779" lon="16.658347">
        <ele>231.850419</ele>
        <time>2020-08-13T07:17:45.437Z</time>
      </trkpt>
      <trkpt lat="48.588746" lon="16.658173">
        <ele>231.850746</ele>
        <time>2020-08-13T07:17:47.448Z</time>
      </trkpt>
      <trkpt lat="48.588713" lon="16.658002">
        <ele>231.851068</ele>
        <time>2020-08-13T07:17:49.436Z</time>
      </trkpt>
      <trkpt lat="48.588683" lon="16.657834">
        <ele>231.851382</ele>
        <time>2020-08-13T07:17:51.431Z</time>
      </trkpt>
      <trkpt lat="48.588666" lon="16.657656">
        <ele>231.851706</ele>
        <time>2020-08-13T07:17:53.430Z</time>
      </trkpt>
      <trkpt lat="48.588656" lon="16.657472">
        <ele>231.852039</ele>
        <time>2020-08-13T07:17:55.458Z</time>
      </trkpt>
      <trkpt lat="48.588645" lon="16.657291">
        <ele>231.852367</ele>
        <time>2020-08-13T07:17:57.470Z</time>
      </trkpt>
      <trkpt lat="48.588628" lon="16.657113">
        <ele>231.852692</ele>
        <time>2020-08-13T07:17:59.456Z</time>
      </trkpt>
      <trkpt lat="48.588618" lon="16.656935">
        <ele>231.853014</ele>
        <time>2020-08-13T07:18:01.451Z</time>
      </trkpt>
      <trkpt lat="48.588619" lon="16.656757">
        <ele>231.853336</ele>
        <time>2020-08-13T07:18:03.448Z</time>
      </trkpt>
      <trkpt lat="48.588611" lon="16.656580">
        <ele>231.853656</ele>
        <time>2020-08-13T07:18:05.448Z</time>
      </trkpt>
      <trkpt lat="48.588606" lon="16.656402">
        <ele>231.853977</ele>
        <time>2020-08-13T07:18:07.439Z</time>
      </trkpt>
      <trkpt lat="48.588601" lon="16.656225">
        <ele>231.854297</ele>
        <time>2020-08-13T07:18:09.437Z</time>
      </trkpt>
      <trkpt lat="48.588595" lon="16.656052">
        <ele>231.851169</ele>
        <time>2020-08-13T07:18:11.442Z</time>
      </trkpt>
      <trkpt lat="48.588586" lon="16.655876">
        <ele>231.828532</ele>
        <time>2020-08-13T07:18:13.437Z</time>
      </trkpt>
      <trkpt lat="48.588579" lon="16.655702">
        <ele>231.806178</ele>
        <time>2020-08-13T07:18:15.450Z</time>
      </trkpt>
      <trkpt lat="48.588567" lon="16.655531">
        <ele>231.784127</ele>
        <time>2020-08-13T07:18:17.439Z</time>
      </trkpt>
      <trkpt lat="48.588551" lon="16.655369">
        <ele>231.763122</ele>
        <time>2020-08-13T07:18:19.430Z</time>
      </trkpt>
      <trkpt lat="48.588538" lon="16.655200">
        <ele>231.741304</ele>
        <time>2020-08-13T07:18:21.427Z</time>
      </trkpt>
      <trkpt lat="48.588524" lon="16.655029">
        <ele>231.719209</ele>
        <time>2020-08-13T07:18:23.425Z</time>
      </trkpt>
      <trkpt lat="48.588513" lon="16.654862">
        <ele>231.697687</ele>
        <time>2020-08-13T07:18:25.452Z</time>
      </trkpt>
      <trkpt lat="48.588513" lon="16.654682">
        <ele>231.674605</ele>
        <time>2020-08-13T07:18:27.465Z</time>
      </trkpt>
      <trkpt lat="48.588503" lon="16.654502">
        <ele>231.651441</ele>
        <time>2020-08-13T07:18:29.433Z</time>
      </trkpt>
      <trkpt lat="48.588472" lon="16.654325">
        <ele>231.627961</ele>
        <time>2020-08-13T07:18:31.431Z</time>
      </trkpt>
      <trkpt lat="48.588437" lon="16.654150">
        <ele>231.604516</ele>
        <time>2020-08-13T07:18:33.452Z</time>
      </trkpt>
      <trkpt lat="48.588391" lon="16.653978">
        <ele>231.580725</ele>
        <time>2020-08-13T07:18:35.466Z</time>
      </trkpt>
      <trkpt lat="48.588341" lon="16.653814">
        <ele>231.557568</ele>
        <time>2020-08-13T07:18:37.439Z</time>
      </trkpt>
      <trkpt lat="48.588293" lon="16.653657">
        <ele>231.535388</ele>
        <time>2020-08-13T07:18:39.433Z</time>
      </trkpt>
      <trkpt lat="48.588246" lon="16.653505">
        <ele>231.513872</ele>
        <time>2020-08-13T07:18:41.441Z</time>
      </trkpt>
      <trkpt lat="48.588191" lon="16.653358">
        <ele>231.483940</ele>
        <time>2020-08-13T07:18:43.421Z</time>
      </trkpt>
      <trkpt lat="48.588141" lon="16.653213">
        <ele>231.450259</ele>
        <time>2020-08-13T07:18:45.428Z</time>
      </trkpt>
      <trkpt lat="48.588097" lon="16.653068">
        <ele>231.417400</ele>
        <time>2020-08-13T07:18:47.415Z</time>
      </trkpt>
      <trkpt lat="48.588054" lon="16.652946">
        <ele>231.388926</ele>
        <time>2020-08-13T07:18:49.426Z</time>
      </trkpt>
      <trkpt lat="48.587974" lon="16.652782">
        <ele>231.346954</ele>
        <time>2020-08-13T07:18:52.436Z</time>
      </trkpt>
      <trkpt lat="48.587900" lon="16.652667">
        <ele>231.313908</ele>
        <time>2020-08-13T07:18:54.422Z</time>
      </trkpt>
      <trkpt lat="48.587822" lon="16.652548">
        <ele>231.279401</ele>
        <time>2020-08-13T07:18:56.433Z</time>
      </trkpt>
      <trkpt lat="48.587744" lon="16.652433">
        <ele>231.245475</ele>
        <time>2020-08-13T07:18:58.444Z</time>
      </trkpt>
      <trkpt lat="48.587668" lon="16.652315">
        <ele>231.211551</ele>
        <time>2020-08-13T07:19:00.417Z</time>
      </trkpt>
      <trkpt lat="48.587600" lon="16.652188">
        <ele>231.177896</ele>
        <time>2020-08-13T07:19:02.454Z</time>
      </trkpt>
      <trkpt lat="48.587520" lon="16.652069">
        <ele>231.142948</ele>
        <time>2020-08-13T07:19:04.454Z</time>
      </trkpt>
      <trkpt lat="48.587444" lon="16.651943">
        <ele>231.107825</ele>
        <time>2020-08-13T07:19:06.436Z</time>
      </trkpt>
      <trkpt lat="48.587366" lon="16.651816">
        <ele>231.072129</ele>
        <time>2020-08-13T07:19:08.449Z</time>
      </trkpt>
      <trkpt lat="48.587288" lon="16.651685">
        <ele>231.035825</ele>
        <time>2020-08-13T07:19:10.435Z</time>
      </trkpt>
      <trkpt lat="48.587209" lon="16.651552">
        <ele>230.999006</ele>
        <time>2020-08-13T07:19:12.445Z</time>
      </trkpt>
      <trkpt lat="48.587130" lon="16.651415">
        <ele>230.961569</ele>
        <time>2020-08-13T07:19:14.441Z</time>
      </trkpt>
      <trkpt lat="48.587048" lon="16.651285">
        <ele>230.956469</ele>
        <time>2020-08-13T07:19:16.466Z</time>
      </trkpt>
      <trkpt lat="48.586966" lon="16.651155">
        <ele>230.975105</ele>
        <time>2020-08-13T07:19:18.430Z</time>
      </trkpt>
      <trkpt lat="48.586890" lon="16.651036">
        <ele>230.992266</ele>
        <time>2020-08-13T07:19:20.439Z</time>
      </trkpt>
      <trkpt lat="48.586806" lon="16.650931">
        <ele>231.009360</ele>
        <time>2020-08-13T07:19:22.466Z</time>
      </trkpt>
      <trkpt lat="48.586722" lon="16.650826">
        <ele>231.026455</ele>
        <time>2020-08-13T07:19:24.447Z</time>
      </trkpt>
      <trkpt lat="48.586634" lon="16.650724">
        <ele>231.043846</ele>
        <time>2020-08-13T07:19:26.435Z</time>
      </trkpt>
      <trkpt lat="48.586547" lon="16.650629">
        <ele>231.060678</ele>
        <time>2020-08-13T07:19:28.448Z</time>
      </trkpt>
      <trkpt lat="48.586456" lon="16.650542">
        <ele>231.077565</ele>
        <time>2020-08-13T07:19:30.427Z</time>
      </trkpt>
      <trkpt lat="48.586364" lon="16.650459">
        <ele>231.094368</ele>
        <time>2020-08-13T07:19:32.432Z</time>
      </trkpt>
      <trkpt lat="48.586270" lon="16.650385">
        <ele>231.110989</ele>
        <time>2020-08-13T07:19:34.442Z</time>
      </trkpt>
      <trkpt lat="48.586172" lon="16.650313">
        <ele>231.128078</ele>
        <time>2020-08-13T07:19:36.430Z</time>
      </trkpt>
      <trkpt lat="48.586076" lon="16.650247">
        <ele>231.144618</ele>
        <time>2020-08-13T07:19:38.432Z</time>
      </trkpt>
      <trkpt lat="48.585982" lon="16.650176">
        <ele>231.161099</ele>
        <time>2020-08-13T07:19:40.452Z</time>
      </trkpt>
      <trkpt lat="48.585888" lon="16.650101">
        <ele>231.177769</ele>
        <time>2020-08-13T07:19:42.431Z</time>
      </trkpt>
      <trkpt lat="48.585792" lon="16.650028">
        <ele>231.194622</ele>
        <time>2020-08-13T07:19:44.423Z</time>
      </trkpt>
      <trkpt lat="48.585699" lon="16.649960">
        <ele>231.210825</ele>
        <time>2020-08-13T07:19:46.427Z</time>
      </trkpt>
      <trkpt lat="48.585609" lon="16.649893">
        <ele>231.226559</ele>
        <time>2020-08-13T07:19:48.423Z</time>
      </trkpt>
      <trkpt lat="48.585517" lon="16.649834">
        <ele>231.227876</ele>
        <time>2020-08-13T07:19:50.440Z</time>
      </trkpt>
      <trkpt lat="48.585424" lon="16.649779">
        <ele>231.227876</ele>
        <time>2020-08-13T07:19:52.462Z</time>
      </trkpt>
      <trkpt lat="48.585339" lon="16.649710">
        <ele>231.227876</ele>
        <time>2020-08-13T07:19:54.429Z</time>
      </trkpt>
      <trkpt lat="48.585255" lon="16.649644">
        <ele>231.227876</ele>
        <time>2020-08-13T07:19:56.438Z</time>
      </trkpt>
      <trkpt lat="48.585173" lon="16.649580">
        <ele>231.227876</ele>
        <time>2020-08-13T07:19:58.450Z</time>
      </trkpt>
      <trkpt lat="48.585094" lon="16.649500">
        <ele>231.227876</ele>
        <time>2020-08-13T07:20:00.464Z</time>
      </trkpt>
      <trkpt lat="48.585013" lon="16.649425">
        <ele>231.227876</ele>
        <time>2020-08-13T07:20:02.429Z</time>
      </trkpt>
      <trkpt lat="48.584935" lon="16.649330">
        <ele>231.227876</ele>
        <time>2020-08-13T07:20:04.422Z</time>
      </trkpt>
      <trkpt lat="48.584862" lon="16.649229">
        <ele>231.227876</ele>
        <time>2020-08-13T07:20:06.417Z</time>
      </trkpt>
      <trkpt lat="48.584793" lon="16.649124">
        <ele>231.227876</ele>
        <time>2020-08-13T07:20:08.449Z</time>
      </trkpt>
      <trkpt lat="48.584730" lon="16.649018">
        <ele>231.227876</ele>
        <time>2020-08-13T07:20:10.429Z</time>
      </trkpt>
      <trkpt lat="48.584664" lon="16.648908">
        <ele>231.227876</ele>
        <time>2020-08-13T07:20:12.431Z</time>
      </trkpt>
      <trkpt lat="48.584598" lon="16.648795">
        <ele>231.227876</ele>
        <time>2020-08-13T07:20:14.428Z</time>
      </trkpt>
      <trkpt lat="48.584524" lon="16.648694">
        <ele>231.227876</ele>
        <time>2020-08-13T07:20:16.426Z</time>
      </trkpt>
      <trkpt lat="48.584428" lon="16.648677">
        <ele>231.227876</ele>
        <time>2020-08-13T07:20:18.421Z</time>
      </trkpt>
      <trkpt lat="48.584331" lon="16.648767">
        <ele>231.227876</ele>
        <time>2020-08-13T07:20:20.431Z</time>
      </trkpt>
      <trkpt lat="48.584245" lon="16.648856">
        <ele>231.227876</ele>
        <time>2020-08-13T07:20:22.420Z</time>
      </trkpt>
      <trkpt lat="48.584162" lon="16.648948">
        <ele>231.227876</ele>
        <time>2020-08-13T07:20:24.462Z</time>
      </trkpt>
      <trkpt lat="48.584087" lon="16.649038">
        <ele>231.227876</ele>
        <time>2020-08-13T07:20:26.434Z</time>
      </trkpt>
      <trkpt lat="48.583975" lon="16.649087">
        <ele>231.227876</ele>
        <time>2020-08-13T07:20:29.425Z</time>
      </trkpt>
      <trkpt lat="48.583939" lon="16.649033">
        <ele>231.227876</ele>
        <time>2020-08-13T07:20:43.928Z</time>
      </trkpt>
    </trkseg>
  </trk>
</gpx>